<?xml version="1.0" encoding="UTF-8" standalone="no" ?>
<gpx xmlns="http://www.topografix.com/GPX/1/1" xmlns:xsi="http://www.w3.org/2001/XMLSchema-instance" xsi:schemaLocation="http://www.topografix.com/GPX/1/1 http://www.topografix.com/GPX/1/1/gpx.xsd" version="1.1" creator="VisuGPX - https://www.visugpx.com">
  <metadata>
    <name>bellefontaine</name>
    <desc><![CDATA[vers bellefontaine
jura]]></desc>
  </metadata>
  <trk>
    <name><![CDATA[2015-07-22T08_3]]></name>
    <trkseg>
      <trkpt lat="46.55809" lon="6.06954">
        <ele>985.59997558594</ele>
        <time>2015-07-22T08:33:02.000Z</time>
      </trkpt>
      <trkpt lat="46.55808" lon="6.06954">
        <ele>985</ele>
        <time>2015-07-22T08:33:06.000Z</time>
      </trkpt>
      <trkpt lat="46.55803" lon="6.06953">
        <ele>985</ele>
        <time>2015-07-22T08:33:11.000Z</time>
      </trkpt>
      <trkpt lat="46.55796" lon="6.06951">
        <ele>985</ele>
        <time>2015-07-22T08:33:14.000Z</time>
      </trkpt>
      <trkpt lat="46.55786" lon="6.06955">
        <ele>985</ele>
        <time>2015-07-22T08:33:20.000Z</time>
      </trkpt>
      <trkpt lat="46.55784" lon="6.06954">
        <ele>985</ele>
        <time>2015-07-22T08:33:22.000Z</time>
      </trkpt>
      <trkpt lat="46.55784" lon="6.06949">
        <ele>985</ele>
        <time>2015-07-22T08:33:24.000Z</time>
      </trkpt>
      <trkpt lat="46.55792" lon="6.0693">
        <ele>985</ele>
        <time>2015-07-22T08:33:29.000Z</time>
      </trkpt>
      <trkpt lat="46.55794" lon="6.06925">
        <ele>985</ele>
        <time>2015-07-22T08:33:30.000Z</time>
      </trkpt>
      <trkpt lat="46.558" lon="6.06898">
        <ele>985</ele>
        <time>2015-07-22T08:33:36.000Z</time>
      </trkpt>
      <trkpt lat="46.55809" lon="6.06867">
        <ele>985</ele>
        <time>2015-07-22T08:33:44.000Z</time>
      </trkpt>
      <trkpt lat="46.5582" lon="6.06827">
        <ele>985</ele>
        <time>2015-07-22T08:33:54.000Z</time>
      </trkpt>
      <trkpt lat="46.55828" lon="6.06791">
        <ele>985</ele>
        <time>2015-07-22T08:34:02.000Z</time>
      </trkpt>
      <trkpt lat="46.55837" lon="6.06759">
        <ele>985</ele>
        <time>2015-07-22T08:34:09.000Z</time>
      </trkpt>
      <trkpt lat="46.55846" lon="6.06713">
        <ele>985</ele>
        <time>2015-07-22T08:34:17.000Z</time>
      </trkpt>
      <trkpt lat="46.55855" lon="6.06683">
        <ele>985</ele>
        <time>2015-07-22T08:34:22.000Z</time>
      </trkpt>
      <trkpt lat="46.55857" lon="6.0668">
        <ele>984.59997558594</ele>
        <time>2015-07-22T08:34:23.000Z</time>
      </trkpt>
      <trkpt lat="46.55859" lon="6.06676">
        <ele>984.20001220703</ele>
        <time>2015-07-22T08:34:24.000Z</time>
      </trkpt>
      <trkpt lat="46.5586" lon="6.06673">
        <ele>983.79998779297</ele>
        <time>2015-07-22T08:34:25.000Z</time>
      </trkpt>
      <trkpt lat="46.55862" lon="6.06671">
        <ele>983.40002441406</ele>
        <time>2015-07-22T08:34:26.000Z</time>
      </trkpt>
      <trkpt lat="46.55869" lon="6.06672">
        <ele>983</ele>
        <time>2015-07-22T08:34:27.000Z</time>
      </trkpt>
      <trkpt lat="46.55875" lon="6.06673">
        <ele>982.59997558594</ele>
        <time>2015-07-22T08:34:28.000Z</time>
      </trkpt>
      <trkpt lat="46.55882" lon="6.06674">
        <ele>982.20001220703</ele>
        <time>2015-07-22T08:34:29.000Z</time>
      </trkpt>
      <trkpt lat="46.55889" lon="6.06674">
        <ele>981.79998779297</ele>
        <time>2015-07-22T08:34:30.000Z</time>
      </trkpt>
      <trkpt lat="46.55896" lon="6.06675">
        <ele>981</ele>
        <time>2015-07-22T08:34:31.000Z</time>
      </trkpt>
      <trkpt lat="46.55902" lon="6.06675">
        <ele>980.20001220703</ele>
        <time>2015-07-22T08:34:32.000Z</time>
      </trkpt>
      <trkpt lat="46.55907" lon="6.06677">
        <ele>979.40002441406</ele>
        <time>2015-07-22T08:34:33.000Z</time>
      </trkpt>
      <trkpt lat="46.55911" lon="6.06681">
        <ele>978.59997558594</ele>
        <time>2015-07-22T08:34:34.000Z</time>
      </trkpt>
      <trkpt lat="46.55915" lon="6.06687">
        <ele>977.59997558594</ele>
        <time>2015-07-22T08:34:35.000Z</time>
      </trkpt>
      <trkpt lat="46.55917" lon="6.06694">
        <ele>977</ele>
        <time>2015-07-22T08:34:36.000Z</time>
      </trkpt>
      <trkpt lat="46.55919" lon="6.06702">
        <ele>976.20001220703</ele>
        <time>2015-07-22T08:34:37.000Z</time>
      </trkpt>
      <trkpt lat="46.55922" lon="6.06709">
        <ele>975.40002441406</ele>
        <time>2015-07-22T08:34:38.000Z</time>
      </trkpt>
      <trkpt lat="46.55924" lon="6.06717">
        <ele>974.79998779297</ele>
        <time>2015-07-22T08:34:39.000Z</time>
      </trkpt>
      <trkpt lat="46.55926" lon="6.06724">
        <ele>974</ele>
        <time>2015-07-22T08:34:40.000Z</time>
      </trkpt>
      <trkpt lat="46.55929" lon="6.06738">
        <ele>974</ele>
        <time>2015-07-22T08:34:42.000Z</time>
      </trkpt>
      <trkpt lat="46.55944" lon="6.06784">
        <ele>974</ele>
        <time>2015-07-22T08:34:49.000Z</time>
      </trkpt>
      <trkpt lat="46.5596" lon="6.06813">
        <ele>974</ele>
        <time>2015-07-22T08:34:56.000Z</time>
      </trkpt>
      <trkpt lat="46.55972" lon="6.06831">
        <ele>974</ele>
        <time>2015-07-22T08:35:03.000Z</time>
      </trkpt>
      <trkpt lat="46.55974" lon="6.06829">
        <ele>974</ele>
        <time>2015-07-22T08:35:04.000Z</time>
      </trkpt>
      <trkpt lat="46.55977" lon="6.06826">
        <ele>974</ele>
        <time>2015-07-22T08:35:05.000Z</time>
      </trkpt>
      <trkpt lat="46.55991" lon="6.06798">
        <ele>974</ele>
        <time>2015-07-22T08:35:12.000Z</time>
      </trkpt>
      <trkpt lat="46.55997" lon="6.06781">
        <ele>974.40002441406</ele>
        <time>2015-07-22T08:35:16.000Z</time>
      </trkpt>
      <trkpt lat="46.55998" lon="6.06778">
        <ele>974.79998779297</ele>
        <time>2015-07-22T08:35:17.000Z</time>
      </trkpt>
      <trkpt lat="46.56" lon="6.06774">
        <ele>975.20001220703</ele>
        <time>2015-07-22T08:35:18.000Z</time>
      </trkpt>
      <trkpt lat="46.56001" lon="6.06771">
        <ele>975.59997558594</ele>
        <time>2015-07-22T08:35:19.000Z</time>
      </trkpt>
      <trkpt lat="46.56003" lon="6.06768">
        <ele>976</ele>
        <time>2015-07-22T08:35:20.000Z</time>
      </trkpt>
      <trkpt lat="46.56009" lon="6.06753">
        <ele>976.40002441406</ele>
        <time>2015-07-22T08:35:26.000Z</time>
      </trkpt>
      <trkpt lat="46.5601" lon="6.0675">
        <ele>977</ele>
        <time>2015-07-22T08:35:27.000Z</time>
      </trkpt>
      <trkpt lat="46.56011" lon="6.06748">
        <ele>977.40002441406</ele>
        <time>2015-07-22T08:35:28.000Z</time>
      </trkpt>
      <trkpt lat="46.56012" lon="6.06746">
        <ele>978</ele>
        <time>2015-07-22T08:35:29.000Z</time>
      </trkpt>
      <trkpt lat="46.56014" lon="6.06743">
        <ele>978.40002441406</ele>
        <time>2015-07-22T08:35:30.000Z</time>
      </trkpt>
      <trkpt lat="46.56019" lon="6.06734">
        <ele>978.79998779297</ele>
        <time>2015-07-22T08:35:35.000Z</time>
      </trkpt>
      <trkpt lat="46.5602" lon="6.06732">
        <ele>979.20001220703</ele>
        <time>2015-07-22T08:35:36.000Z</time>
      </trkpt>
      <trkpt lat="46.56021" lon="6.0673">
        <ele>979.59997558594</ele>
        <time>2015-07-22T08:35:37.000Z</time>
      </trkpt>
      <trkpt lat="46.56021" lon="6.06728">
        <ele>980</ele>
        <time>2015-07-22T08:35:38.000Z</time>
      </trkpt>
      <trkpt lat="46.56022" lon="6.06726">
        <ele>980.59997558594</ele>
        <time>2015-07-22T08:35:39.000Z</time>
      </trkpt>
      <trkpt lat="46.56026" lon="6.06713">
        <ele>980.59997558594</ele>
        <time>2015-07-22T08:35:46.000Z</time>
      </trkpt>
      <trkpt lat="46.56028" lon="6.06707">
        <ele>981</ele>
        <time>2015-07-22T08:35:48.000Z</time>
      </trkpt>
      <trkpt lat="46.56027" lon="6.06705">
        <ele>981.40002441406</ele>
        <time>2015-07-22T08:35:49.000Z</time>
      </trkpt>
      <trkpt lat="46.56027" lon="6.06702">
        <ele>981.79998779297</ele>
        <time>2015-07-22T08:35:50.000Z</time>
      </trkpt>
      <trkpt lat="46.56027" lon="6.067">
        <ele>982.20001220703</ele>
        <time>2015-07-22T08:35:51.000Z</time>
      </trkpt>
      <trkpt lat="46.56027" lon="6.06698">
        <ele>982.59997558594</ele>
        <time>2015-07-22T08:35:52.000Z</time>
      </trkpt>
      <trkpt lat="46.56028" lon="6.06682">
        <ele>983.20001220703</ele>
        <time>2015-07-22T08:35:58.000Z</time>
      </trkpt>
      <trkpt lat="46.56028" lon="6.0668">
        <ele>983.59997558594</ele>
        <time>2015-07-22T08:35:59.000Z</time>
      </trkpt>
      <trkpt lat="46.56028" lon="6.06677">
        <ele>984</ele>
        <time>2015-07-22T08:36:00.000Z</time>
      </trkpt>
      <trkpt lat="46.56027" lon="6.06675">
        <ele>984.40002441406</ele>
        <time>2015-07-22T08:36:01.000Z</time>
      </trkpt>
      <trkpt lat="46.56027" lon="6.06673">
        <ele>985</ele>
        <time>2015-07-22T08:36:02.000Z</time>
      </trkpt>
      <trkpt lat="46.56028" lon="6.0667">
        <ele>985</ele>
        <time>2015-07-22T08:36:03.000Z</time>
      </trkpt>
      <trkpt lat="46.56033" lon="6.06655">
        <ele>985.40002441406</ele>
        <time>2015-07-22T08:36:10.000Z</time>
      </trkpt>
      <trkpt lat="46.56034" lon="6.06653">
        <ele>985.79998779297</ele>
        <time>2015-07-22T08:36:11.000Z</time>
      </trkpt>
      <trkpt lat="46.56035" lon="6.06651">
        <ele>986.20001220703</ele>
        <time>2015-07-22T08:36:12.000Z</time>
      </trkpt>
      <trkpt lat="46.56036" lon="6.06649">
        <ele>986.79998779297</ele>
        <time>2015-07-22T08:36:13.000Z</time>
      </trkpt>
      <trkpt lat="46.56037" lon="6.06647">
        <ele>987.20001220703</ele>
        <time>2015-07-22T08:36:14.000Z</time>
      </trkpt>
      <trkpt lat="46.56044" lon="6.06639">
        <ele>987.59997558594</ele>
        <time>2015-07-22T08:36:20.000Z</time>
      </trkpt>
      <trkpt lat="46.56046" lon="6.06637">
        <ele>988.20001220703</ele>
        <time>2015-07-22T08:36:21.000Z</time>
      </trkpt>
      <trkpt lat="46.56047" lon="6.06635">
        <ele>988.59997558594</ele>
        <time>2015-07-22T08:36:22.000Z</time>
      </trkpt>
      <trkpt lat="46.56049" lon="6.06634">
        <ele>989</ele>
        <time>2015-07-22T08:36:23.000Z</time>
      </trkpt>
      <trkpt lat="46.5605" lon="6.06632">
        <ele>989.40002441406</ele>
        <time>2015-07-22T08:36:24.000Z</time>
      </trkpt>
      <trkpt lat="46.56058" lon="6.06624">
        <ele>989.40002441406</ele>
        <time>2015-07-22T08:36:30.000Z</time>
      </trkpt>
      <trkpt lat="46.5606" lon="6.06622">
        <ele>990</ele>
        <time>2015-07-22T08:36:32.000Z</time>
      </trkpt>
      <trkpt lat="46.56061" lon="6.0662">
        <ele>990.40002441406</ele>
        <time>2015-07-22T08:36:33.000Z</time>
      </trkpt>
      <trkpt lat="46.56063" lon="6.06618">
        <ele>990.79998779297</ele>
        <time>2015-07-22T08:36:34.000Z</time>
      </trkpt>
      <trkpt lat="46.56064" lon="6.06617">
        <ele>991.20001220703</ele>
        <time>2015-07-22T08:36:35.000Z</time>
      </trkpt>
      <trkpt lat="46.56065" lon="6.06615">
        <ele>991.59997558594</ele>
        <time>2015-07-22T08:36:36.000Z</time>
      </trkpt>
      <trkpt lat="46.56067" lon="6.06611">
        <ele>991.59997558594</ele>
        <time>2015-07-22T08:36:38.000Z</time>
      </trkpt>
      <trkpt lat="46.56072" lon="6.06606">
        <ele>992</ele>
        <time>2015-07-22T08:36:42.000Z</time>
      </trkpt>
      <trkpt lat="46.56074" lon="6.06604">
        <ele>992.40002441406</ele>
        <time>2015-07-22T08:36:43.000Z</time>
      </trkpt>
      <trkpt lat="46.56075" lon="6.06603">
        <ele>992.79998779297</ele>
        <time>2015-07-22T08:36:44.000Z</time>
      </trkpt>
      <trkpt lat="46.56076" lon="6.06602">
        <ele>993.40002441406</ele>
        <time>2015-07-22T08:36:45.000Z</time>
      </trkpt>
      <trkpt lat="46.56078" lon="6.066">
        <ele>993.79998779297</ele>
        <time>2015-07-22T08:36:46.000Z</time>
      </trkpt>
      <trkpt lat="46.5608" lon="6.06597">
        <ele>993.79998779297</ele>
        <time>2015-07-22T08:36:48.000Z</time>
      </trkpt>
      <trkpt lat="46.56088" lon="6.06591">
        <ele>994.20001220703</ele>
        <time>2015-07-22T08:36:53.000Z</time>
      </trkpt>
      <trkpt lat="46.56089" lon="6.0659">
        <ele>994.59997558594</ele>
        <time>2015-07-22T08:36:54.000Z</time>
      </trkpt>
      <trkpt lat="46.5609" lon="6.0659">
        <ele>995</ele>
        <time>2015-07-22T08:36:55.000Z</time>
      </trkpt>
      <trkpt lat="46.56092" lon="6.06589">
        <ele>995.40002441406</ele>
        <time>2015-07-22T08:36:56.000Z</time>
      </trkpt>
      <trkpt lat="46.56093" lon="6.06589">
        <ele>995.79998779297</ele>
        <time>2015-07-22T08:36:57.000Z</time>
      </trkpt>
      <trkpt lat="46.56107" lon="6.06586">
        <ele>996.20001220703</ele>
        <time>2015-07-22T08:37:06.000Z</time>
      </trkpt>
      <trkpt lat="46.56109" lon="6.06586">
        <ele>996.59997558594</ele>
        <time>2015-07-22T08:37:07.000Z</time>
      </trkpt>
      <trkpt lat="46.5611" lon="6.06585">
        <ele>997</ele>
        <time>2015-07-22T08:37:08.000Z</time>
      </trkpt>
      <trkpt lat="46.56111" lon="6.06585">
        <ele>997.40002441406</ele>
        <time>2015-07-22T08:37:09.000Z</time>
      </trkpt>
      <trkpt lat="46.56113" lon="6.06585">
        <ele>998</ele>
        <time>2015-07-22T08:37:10.000Z</time>
      </trkpt>
      <trkpt lat="46.56122" lon="6.06584">
        <ele>998.40002441406</ele>
        <time>2015-07-22T08:37:15.000Z</time>
      </trkpt>
      <trkpt lat="46.56124" lon="6.06584">
        <ele>998.79998779297</ele>
        <time>2015-07-22T08:37:16.000Z</time>
      </trkpt>
      <trkpt lat="46.56126" lon="6.06584">
        <ele>999.20001220703</ele>
        <time>2015-07-22T08:37:17.000Z</time>
      </trkpt>
      <trkpt lat="46.56128" lon="6.06585">
        <ele>999.59997558594</ele>
        <time>2015-07-22T08:37:18.000Z</time>
      </trkpt>
      <trkpt lat="46.56131" lon="6.06585">
        <ele>1000</ele>
        <time>2015-07-22T08:37:19.000Z</time>
      </trkpt>
      <trkpt lat="46.56136" lon="6.06586">
        <ele>1000</ele>
        <time>2015-07-22T08:37:23.000Z</time>
      </trkpt>
      <trkpt lat="46.5614" lon="6.06587">
        <ele>1000.4000244141</ele>
        <time>2015-07-22T08:37:25.000Z</time>
      </trkpt>
      <trkpt lat="46.56141" lon="6.06587">
        <ele>1001</ele>
        <time>2015-07-22T08:37:26.000Z</time>
      </trkpt>
      <trkpt lat="46.56143" lon="6.06587">
        <ele>1001.4000244141</ele>
        <time>2015-07-22T08:37:27.000Z</time>
      </trkpt>
      <trkpt lat="46.56144" lon="6.06587">
        <ele>1001.799987793</ele>
        <time>2015-07-22T08:37:28.000Z</time>
      </trkpt>
      <trkpt lat="46.56146" lon="6.06587">
        <ele>1002.200012207</ele>
        <time>2015-07-22T08:37:29.000Z</time>
      </trkpt>
      <trkpt lat="46.56154" lon="6.06589">
        <ele>1002.200012207</ele>
        <time>2015-07-22T08:37:34.000Z</time>
      </trkpt>
      <trkpt lat="46.5616" lon="6.06592">
        <ele>1002.5999755859</ele>
        <time>2015-07-22T08:37:38.000Z</time>
      </trkpt>
      <trkpt lat="46.56162" lon="6.06593">
        <ele>1003</ele>
        <time>2015-07-22T08:37:39.000Z</time>
      </trkpt>
      <trkpt lat="46.56163" lon="6.06594">
        <ele>1003.4000244141</ele>
        <time>2015-07-22T08:37:40.000Z</time>
      </trkpt>
      <trkpt lat="46.56165" lon="6.06595">
        <ele>1003.799987793</ele>
        <time>2015-07-22T08:37:41.000Z</time>
      </trkpt>
      <trkpt lat="46.56166" lon="6.06595">
        <ele>1004.200012207</ele>
        <time>2015-07-22T08:37:42.000Z</time>
      </trkpt>
      <trkpt lat="46.56168" lon="6.06596">
        <ele>1004.200012207</ele>
        <time>2015-07-22T08:37:43.000Z</time>
      </trkpt>
      <trkpt lat="46.56181" lon="6.06608">
        <ele>1004.200012207</ele>
        <time>2015-07-22T08:37:51.000Z</time>
      </trkpt>
      <trkpt lat="46.56188" lon="6.06617">
        <ele>1004.5999755859</ele>
        <time>2015-07-22T08:37:55.000Z</time>
      </trkpt>
      <trkpt lat="46.56189" lon="6.06619">
        <ele>1005</ele>
        <time>2015-07-22T08:37:56.000Z</time>
      </trkpt>
      <trkpt lat="46.56191" lon="6.06621">
        <ele>1005.4000244141</ele>
        <time>2015-07-22T08:37:57.000Z</time>
      </trkpt>
      <trkpt lat="46.56193" lon="6.06622">
        <ele>1006</ele>
        <time>2015-07-22T08:37:58.000Z</time>
      </trkpt>
      <trkpt lat="46.56195" lon="6.06624">
        <ele>1006.4000244141</ele>
        <time>2015-07-22T08:37:59.000Z</time>
      </trkpt>
      <trkpt lat="46.56207" lon="6.06642">
        <ele>1006.4000244141</ele>
        <time>2015-07-22T08:38:06.000Z</time>
      </trkpt>
      <trkpt lat="46.5622" lon="6.06661">
        <ele>1006.4000244141</ele>
        <time>2015-07-22T08:38:13.000Z</time>
      </trkpt>
      <trkpt lat="46.56235" lon="6.06676">
        <ele>1006.4000244141</ele>
        <time>2015-07-22T08:38:21.000Z</time>
      </trkpt>
      <trkpt lat="46.5625" lon="6.0669">
        <ele>1006.4000244141</ele>
        <time>2015-07-22T08:38:28.000Z</time>
      </trkpt>
      <trkpt lat="46.56254" lon="6.06693">
        <ele>1006.799987793</ele>
        <time>2015-07-22T08:38:30.000Z</time>
      </trkpt>
      <trkpt lat="46.56256" lon="6.06694">
        <ele>1007.200012207</ele>
        <time>2015-07-22T08:38:31.000Z</time>
      </trkpt>
      <trkpt lat="46.56258" lon="6.06695">
        <ele>1007.5999755859</ele>
        <time>2015-07-22T08:38:32.000Z</time>
      </trkpt>
      <trkpt lat="46.56261" lon="6.06696">
        <ele>1008</ele>
        <time>2015-07-22T08:38:33.000Z</time>
      </trkpt>
      <trkpt lat="46.56262" lon="6.06697">
        <ele>1008.4000244141</ele>
        <time>2015-07-22T08:38:34.000Z</time>
      </trkpt>
      <trkpt lat="46.56268" lon="6.067">
        <ele>1008.4000244141</ele>
        <time>2015-07-22T08:38:37.000Z</time>
      </trkpt>
      <trkpt lat="46.56277" lon="6.06707">
        <ele>1008.799987793</ele>
        <time>2015-07-22T08:38:42.000Z</time>
      </trkpt>
      <trkpt lat="46.5628" lon="6.06709">
        <ele>1009.4000244141</ele>
        <time>2015-07-22T08:38:43.000Z</time>
      </trkpt>
      <trkpt lat="46.56282" lon="6.0671">
        <ele>1009.799987793</ele>
        <time>2015-07-22T08:38:44.000Z</time>
      </trkpt>
      <trkpt lat="46.56284" lon="6.06712">
        <ele>1010.200012207</ele>
        <time>2015-07-22T08:38:45.000Z</time>
      </trkpt>
      <trkpt lat="46.56286" lon="6.06715">
        <ele>1010.799987793</ele>
        <time>2015-07-22T08:38:46.000Z</time>
      </trkpt>
      <trkpt lat="46.56284" lon="6.06732">
        <ele>1011.200012207</ele>
        <time>2015-07-22T08:38:52.000Z</time>
      </trkpt>
      <trkpt lat="46.56283" lon="6.06734">
        <ele>1011.5999755859</ele>
        <time>2015-07-22T08:38:53.000Z</time>
      </trkpt>
      <trkpt lat="46.56281" lon="6.06736">
        <ele>1012</ele>
        <time>2015-07-22T08:38:54.000Z</time>
      </trkpt>
      <trkpt lat="46.5628" lon="6.06738">
        <ele>1012.4000244141</ele>
        <time>2015-07-22T08:38:55.000Z</time>
      </trkpt>
      <trkpt lat="46.56278" lon="6.06739">
        <ele>1012.799987793</ele>
        <time>2015-07-22T08:38:56.000Z</time>
      </trkpt>
      <trkpt lat="46.56277" lon="6.06741">
        <ele>1012.799987793</ele>
        <time>2015-07-22T08:38:57.000Z</time>
      </trkpt>
      <trkpt lat="46.56272" lon="6.06748">
        <ele>1013.200012207</ele>
        <time>2015-07-22T08:39:01.000Z</time>
      </trkpt>
      <trkpt lat="46.56271" lon="6.0675">
        <ele>1013.5999755859</ele>
        <time>2015-07-22T08:39:02.000Z</time>
      </trkpt>
      <trkpt lat="46.56269" lon="6.06753">
        <ele>1014</ele>
        <time>2015-07-22T08:39:03.000Z</time>
      </trkpt>
      <trkpt lat="46.56268" lon="6.06755">
        <ele>1014.4000244141</ele>
        <time>2015-07-22T08:39:04.000Z</time>
      </trkpt>
      <trkpt lat="46.56267" lon="6.06758">
        <ele>1014.799987793</ele>
        <time>2015-07-22T08:39:05.000Z</time>
      </trkpt>
      <trkpt lat="46.56265" lon="6.06762">
        <ele>1014.799987793</ele>
        <time>2015-07-22T08:39:07.000Z</time>
      </trkpt>
      <trkpt lat="46.56259" lon="6.06782">
        <ele>1015.200012207</ele>
        <time>2015-07-22T08:39:14.000Z</time>
      </trkpt>
      <trkpt lat="46.56259" lon="6.06785">
        <ele>1015.799987793</ele>
        <time>2015-07-22T08:39:15.000Z</time>
      </trkpt>
      <trkpt lat="46.56259" lon="6.06788">
        <ele>1016.200012207</ele>
        <time>2015-07-22T08:39:16.000Z</time>
      </trkpt>
      <trkpt lat="46.56262" lon="6.06797">
        <ele>1016.5999755859</ele>
        <time>2015-07-22T08:39:20.000Z</time>
      </trkpt>
      <trkpt lat="46.56264" lon="6.06799">
        <ele>1016.5999755859</ele>
        <time>2015-07-22T08:39:21.000Z</time>
      </trkpt>
      <trkpt lat="46.56265" lon="6.06801">
        <ele>1017</ele>
        <time>2015-07-22T08:39:22.000Z</time>
      </trkpt>
      <trkpt lat="46.56271" lon="6.06803">
        <ele>1017.799987793</ele>
        <time>2015-07-22T08:39:26.000Z</time>
      </trkpt>
      <trkpt lat="46.56275" lon="6.06802">
        <ele>1018.5999755859</ele>
        <time>2015-07-22T08:39:28.000Z</time>
      </trkpt>
      <trkpt lat="46.56278" lon="6.068">
        <ele>1019</ele>
        <time>2015-07-22T08:39:30.000Z</time>
      </trkpt>
      <trkpt lat="46.56287" lon="6.06795">
        <ele>1019.4000244141</ele>
        <time>2015-07-22T08:39:35.000Z</time>
      </trkpt>
      <trkpt lat="46.56289" lon="6.06793">
        <ele>1019.799987793</ele>
        <time>2015-07-22T08:39:36.000Z</time>
      </trkpt>
      <trkpt lat="46.56291" lon="6.06792">
        <ele>1020.200012207</ele>
        <time>2015-07-22T08:39:37.000Z</time>
      </trkpt>
      <trkpt lat="46.56293" lon="6.0679">
        <ele>1020.5999755859</ele>
        <time>2015-07-22T08:39:38.000Z</time>
      </trkpt>
      <trkpt lat="46.56294" lon="6.06788">
        <ele>1021</ele>
        <time>2015-07-22T08:39:39.000Z</time>
      </trkpt>
      <trkpt lat="46.56303" lon="6.06782">
        <ele>1021</ele>
        <time>2015-07-22T08:39:44.000Z</time>
      </trkpt>
      <trkpt lat="46.56307" lon="6.06782">
        <ele>1021.5999755859</ele>
        <time>2015-07-22T08:39:46.000Z</time>
      </trkpt>
      <trkpt lat="46.56308" lon="6.06782">
        <ele>1022</ele>
        <time>2015-07-22T08:39:47.000Z</time>
      </trkpt>
      <trkpt lat="46.5631" lon="6.06783">
        <ele>1022.4000244141</ele>
        <time>2015-07-22T08:39:48.000Z</time>
      </trkpt>
      <trkpt lat="46.56312" lon="6.06783">
        <ele>1022.799987793</ele>
        <time>2015-07-22T08:39:49.000Z</time>
      </trkpt>
      <trkpt lat="46.56314" lon="6.06785">
        <ele>1023.200012207</ele>
        <time>2015-07-22T08:39:50.000Z</time>
      </trkpt>
      <trkpt lat="46.56324" lon="6.0679">
        <ele>1023.799987793</ele>
        <time>2015-07-22T08:39:56.000Z</time>
      </trkpt>
      <trkpt lat="46.56326" lon="6.06791">
        <ele>1024.1999511719</ele>
        <time>2015-07-22T08:39:57.000Z</time>
      </trkpt>
      <trkpt lat="46.56328" lon="6.06792">
        <ele>1024.5999755859</ele>
        <time>2015-07-22T08:39:58.000Z</time>
      </trkpt>
      <trkpt lat="46.56329" lon="6.06793">
        <ele>1025</ele>
        <time>2015-07-22T08:39:59.000Z</time>
      </trkpt>
      <trkpt lat="46.56331" lon="6.06794">
        <ele>1025.4000244141</ele>
        <time>2015-07-22T08:40:00.000Z</time>
      </trkpt>
      <trkpt lat="46.56342" lon="6.06801">
        <ele>1025.8000488281</ele>
        <time>2015-07-22T08:40:08.000Z</time>
      </trkpt>
      <trkpt lat="46.56343" lon="6.06803">
        <ele>1026.1999511719</ele>
        <time>2015-07-22T08:40:09.000Z</time>
      </trkpt>
      <trkpt lat="46.56345" lon="6.06804">
        <ele>1026.5999755859</ele>
        <time>2015-07-22T08:40:10.000Z</time>
      </trkpt>
      <trkpt lat="46.56346" lon="6.06806">
        <ele>1027</ele>
        <time>2015-07-22T08:40:11.000Z</time>
      </trkpt>
      <trkpt lat="46.56348" lon="6.06807">
        <ele>1027.5999755859</ele>
        <time>2015-07-22T08:40:12.000Z</time>
      </trkpt>
      <trkpt lat="46.56358" lon="6.06818">
        <ele>1028</ele>
        <time>2015-07-22T08:40:19.000Z</time>
      </trkpt>
      <trkpt lat="46.56359" lon="6.06819">
        <ele>1028.4000244141</ele>
        <time>2015-07-22T08:40:20.000Z</time>
      </trkpt>
      <trkpt lat="46.56361" lon="6.0682">
        <ele>1028.8000488281</ele>
        <time>2015-07-22T08:40:21.000Z</time>
      </trkpt>
      <trkpt lat="46.56362" lon="6.06822">
        <ele>1029.1999511719</ele>
        <time>2015-07-22T08:40:22.000Z</time>
      </trkpt>
      <trkpt lat="46.56363" lon="6.06823">
        <ele>1029.5999755859</ele>
        <time>2015-07-22T08:40:23.000Z</time>
      </trkpt>
      <trkpt lat="46.56374" lon="6.06829">
        <ele>1030</ele>
        <time>2015-07-22T08:40:30.000Z</time>
      </trkpt>
      <trkpt lat="46.56375" lon="6.06829">
        <ele>1030.4000244141</ele>
        <time>2015-07-22T08:40:31.000Z</time>
      </trkpt>
      <trkpt lat="46.56377" lon="6.0683">
        <ele>1030.8000488281</ele>
        <time>2015-07-22T08:40:32.000Z</time>
      </trkpt>
      <trkpt lat="46.56378" lon="6.0683">
        <ele>1031.1999511719</ele>
        <time>2015-07-22T08:40:33.000Z</time>
      </trkpt>
      <trkpt lat="46.56379" lon="6.06831">
        <ele>1031.5999755859</ele>
        <time>2015-07-22T08:40:34.000Z</time>
      </trkpt>
      <trkpt lat="46.56383" lon="6.06832">
        <ele>1031.5999755859</ele>
        <time>2015-07-22T08:40:36.000Z</time>
      </trkpt>
      <trkpt lat="46.56388" lon="6.06834">
        <ele>1032</ele>
        <time>2015-07-22T08:40:39.000Z</time>
      </trkpt>
      <trkpt lat="46.5639" lon="6.06835">
        <ele>1032.4000244141</ele>
        <time>2015-07-22T08:40:40.000Z</time>
      </trkpt>
      <trkpt lat="46.56391" lon="6.06836">
        <ele>1032.8000488281</ele>
        <time>2015-07-22T08:40:41.000Z</time>
      </trkpt>
      <trkpt lat="46.56393" lon="6.06837">
        <ele>1033.1999511719</ele>
        <time>2015-07-22T08:40:42.000Z</time>
      </trkpt>
      <trkpt lat="46.56395" lon="6.06838">
        <ele>1033.5999755859</ele>
        <time>2015-07-22T08:40:43.000Z</time>
      </trkpt>
      <trkpt lat="46.56398" lon="6.0684">
        <ele>1033.5999755859</ele>
        <time>2015-07-22T08:40:45.000Z</time>
      </trkpt>
      <trkpt lat="46.56399" lon="6.06841">
        <ele>1034</ele>
        <time>2015-07-22T08:40:46.000Z</time>
      </trkpt>
      <trkpt lat="46.56401" lon="6.06842">
        <ele>1034.4000244141</ele>
        <time>2015-07-22T08:40:47.000Z</time>
      </trkpt>
      <trkpt lat="46.56403" lon="6.06843">
        <ele>1035</ele>
        <time>2015-07-22T08:40:48.000Z</time>
      </trkpt>
      <trkpt lat="46.56404" lon="6.06844">
        <ele>1035.4000244141</ele>
        <time>2015-07-22T08:40:49.000Z</time>
      </trkpt>
      <trkpt lat="46.56405" lon="6.06845">
        <ele>1035.8000488281</ele>
        <time>2015-07-22T08:40:50.000Z</time>
      </trkpt>
      <trkpt lat="46.56411" lon="6.06849">
        <ele>1035.8000488281</ele>
        <time>2015-07-22T08:40:54.000Z</time>
      </trkpt>
      <trkpt lat="46.5642" lon="6.06857">
        <ele>1036.1999511719</ele>
        <time>2015-07-22T08:40:58.000Z</time>
      </trkpt>
      <trkpt lat="46.56422" lon="6.06859">
        <ele>1036.8000488281</ele>
        <time>2015-07-22T08:40:59.000Z</time>
      </trkpt>
      <trkpt lat="46.56423" lon="6.0686">
        <ele>1037.1999511719</ele>
        <time>2015-07-22T08:41:00.000Z</time>
      </trkpt>
      <trkpt lat="46.56425" lon="6.06861">
        <ele>1037.5999755859</ele>
        <time>2015-07-22T08:41:01.000Z</time>
      </trkpt>
      <trkpt lat="46.56426" lon="6.06862">
        <ele>1038</ele>
        <time>2015-07-22T08:41:02.000Z</time>
      </trkpt>
      <trkpt lat="46.56437" lon="6.06874">
        <ele>1038</ele>
        <time>2015-07-22T08:41:09.000Z</time>
      </trkpt>
      <trkpt lat="46.56452" lon="6.06889">
        <ele>1038</ele>
        <time>2015-07-22T08:41:17.000Z</time>
      </trkpt>
      <trkpt lat="46.56468" lon="6.06905">
        <ele>1038</ele>
        <time>2015-07-22T08:41:26.000Z</time>
      </trkpt>
      <trkpt lat="46.56479" lon="6.06916">
        <ele>1038</ele>
        <time>2015-07-22T08:41:34.000Z</time>
      </trkpt>
      <trkpt lat="46.56481" lon="6.06917">
        <ele>1038.4000244141</ele>
        <time>2015-07-22T08:41:35.000Z</time>
      </trkpt>
      <trkpt lat="46.56483" lon="6.06919">
        <ele>1039</ele>
        <time>2015-07-22T08:41:36.000Z</time>
      </trkpt>
      <trkpt lat="46.56484" lon="6.06921">
        <ele>1039.4000244141</ele>
        <time>2015-07-22T08:41:37.000Z</time>
      </trkpt>
      <trkpt lat="46.56486" lon="6.06922">
        <ele>1039.8000488281</ele>
        <time>2015-07-22T08:41:38.000Z</time>
      </trkpt>
      <trkpt lat="46.56488" lon="6.06924">
        <ele>1040.1999511719</ele>
        <time>2015-07-22T08:41:39.000Z</time>
      </trkpt>
      <trkpt lat="46.56494" lon="6.06931">
        <ele>1040.1999511719</ele>
        <time>2015-07-22T08:41:42.000Z</time>
      </trkpt>
      <trkpt lat="46.56506" lon="6.06936">
        <ele>1040.1999511719</ele>
        <time>2015-07-22T08:41:48.000Z</time>
      </trkpt>
      <trkpt lat="46.5651" lon="6.06936">
        <ele>1040.1999511719</ele>
        <time>2015-07-22T08:41:51.000Z</time>
      </trkpt>
      <trkpt lat="46.56512" lon="6.06934">
        <ele>1040.1999511719</ele>
        <time>2015-07-22T08:41:54.000Z</time>
      </trkpt>
      <trkpt lat="46.56512" lon="6.06933">
        <ele>1040.1999511719</ele>
        <time>2015-07-22T08:44:15.000Z</time>
      </trkpt>
      <trkpt lat="46.5651" lon="6.06933">
        <ele>1040.1999511719</ele>
        <time>2015-07-22T08:44:17.000Z</time>
      </trkpt>
      <trkpt lat="46.5651" lon="6.06943">
        <ele>1040.1999511719</ele>
        <time>2015-07-22T08:44:24.000Z</time>
      </trkpt>
      <trkpt lat="46.56515" lon="6.06959">
        <ele>1040.1999511719</ele>
        <time>2015-07-22T08:44:30.000Z</time>
      </trkpt>
      <trkpt lat="46.56529" lon="6.06975">
        <ele>1040.1999511719</ele>
        <time>2015-07-22T08:44:36.000Z</time>
      </trkpt>
      <trkpt lat="46.56534" lon="6.06981">
        <ele>1040.1999511719</ele>
        <time>2015-07-22T08:44:38.000Z</time>
      </trkpt>
      <trkpt lat="46.56539" lon="6.06986">
        <ele>1040.1999511719</ele>
        <time>2015-07-22T08:44:40.000Z</time>
      </trkpt>
      <trkpt lat="46.56556" lon="6.07008">
        <ele>1040.1999511719</ele>
        <time>2015-07-22T08:44:46.000Z</time>
      </trkpt>
      <trkpt lat="46.56587" lon="6.07048">
        <ele>1040.1999511719</ele>
        <time>2015-07-22T08:44:55.000Z</time>
      </trkpt>
      <trkpt lat="46.56615" lon="6.07094">
        <ele>1040.1999511719</ele>
        <time>2015-07-22T08:45:04.000Z</time>
      </trkpt>
      <trkpt lat="46.56641" lon="6.07135">
        <ele>1040.1999511719</ele>
        <time>2015-07-22T08:45:13.000Z</time>
      </trkpt>
      <trkpt lat="46.56671" lon="6.07173">
        <ele>1040.5999755859</ele>
        <time>2015-07-22T08:45:22.000Z</time>
      </trkpt>
      <trkpt lat="46.56675" lon="6.07177">
        <ele>1041</ele>
        <time>2015-07-22T08:45:23.000Z</time>
      </trkpt>
      <trkpt lat="46.56679" lon="6.0718">
        <ele>1041.4000244141</ele>
        <time>2015-07-22T08:45:24.000Z</time>
      </trkpt>
      <trkpt lat="46.56683" lon="6.07184">
        <ele>1041.8000488281</ele>
        <time>2015-07-22T08:45:25.000Z</time>
      </trkpt>
      <trkpt lat="46.56686" lon="6.07188">
        <ele>1042.1999511719</ele>
        <time>2015-07-22T08:45:26.000Z</time>
      </trkpt>
      <trkpt lat="46.56701" lon="6.07205">
        <ele>1042.1999511719</ele>
        <time>2015-07-22T08:45:31.000Z</time>
      </trkpt>
      <trkpt lat="46.56708" lon="6.07213">
        <ele>1042.5999755859</ele>
        <time>2015-07-22T08:45:34.000Z</time>
      </trkpt>
      <trkpt lat="46.56711" lon="6.07215">
        <ele>1043.1999511719</ele>
        <time>2015-07-22T08:45:35.000Z</time>
      </trkpt>
      <trkpt lat="46.56714" lon="6.07218">
        <ele>1043.5999755859</ele>
        <time>2015-07-22T08:45:36.000Z</time>
      </trkpt>
      <trkpt lat="46.56717" lon="6.0722">
        <ele>1044</ele>
        <time>2015-07-22T08:45:37.000Z</time>
      </trkpt>
      <trkpt lat="46.56719" lon="6.07224">
        <ele>1044.5999755859</ele>
        <time>2015-07-22T08:45:38.000Z</time>
      </trkpt>
      <trkpt lat="46.56726" lon="6.07241">
        <ele>1045</ele>
        <time>2015-07-22T08:45:43.000Z</time>
      </trkpt>
      <trkpt lat="46.56727" lon="6.07244">
        <ele>1045.4000244141</ele>
        <time>2015-07-22T08:45:44.000Z</time>
      </trkpt>
      <trkpt lat="46.56727" lon="6.07247">
        <ele>1045.8000488281</ele>
        <time>2015-07-22T08:45:45.000Z</time>
      </trkpt>
      <trkpt lat="46.56727" lon="6.0725">
        <ele>1046.1999511719</ele>
        <time>2015-07-22T08:45:46.000Z</time>
      </trkpt>
      <trkpt lat="46.56726" lon="6.07253">
        <ele>1046.5999755859</ele>
        <time>2015-07-22T08:45:47.000Z</time>
      </trkpt>
      <trkpt lat="46.56724" lon="6.0726">
        <ele>1046.5999755859</ele>
        <time>2015-07-22T08:45:49.000Z</time>
      </trkpt>
      <trkpt lat="46.56724" lon="6.07272">
        <ele>1047</ele>
        <time>2015-07-22T08:45:52.000Z</time>
      </trkpt>
      <trkpt lat="46.56723" lon="6.07276">
        <ele>1047.4000244141</ele>
        <time>2015-07-22T08:45:53.000Z</time>
      </trkpt>
      <trkpt lat="46.56722" lon="6.07279">
        <ele>1048</ele>
        <time>2015-07-22T08:45:54.000Z</time>
      </trkpt>
      <trkpt lat="46.5672" lon="6.07283">
        <ele>1048.4000244141</ele>
        <time>2015-07-22T08:45:55.000Z</time>
      </trkpt>
      <trkpt lat="46.56719" lon="6.07285">
        <ele>1048.8000488281</ele>
        <time>2015-07-22T08:45:56.000Z</time>
      </trkpt>
      <trkpt lat="46.56718" lon="6.07288">
        <ele>1048.8000488281</ele>
        <time>2015-07-22T08:45:57.000Z</time>
      </trkpt>
      <trkpt lat="46.56716" lon="6.07304">
        <ele>1049.1999511719</ele>
        <time>2015-07-22T08:46:02.000Z</time>
      </trkpt>
      <trkpt lat="46.56716" lon="6.07306">
        <ele>1049.5999755859</ele>
        <time>2015-07-22T08:46:03.000Z</time>
      </trkpt>
      <trkpt lat="46.56715" lon="6.0731">
        <ele>1050</ele>
        <time>2015-07-22T08:46:04.000Z</time>
      </trkpt>
      <trkpt lat="46.56715" lon="6.07313">
        <ele>1050.4000244141</ele>
        <time>2015-07-22T08:46:05.000Z</time>
      </trkpt>
      <trkpt lat="46.56715" lon="6.07316">
        <ele>1050.8000488281</ele>
        <time>2015-07-22T08:46:06.000Z</time>
      </trkpt>
      <trkpt lat="46.56715" lon="6.07322">
        <ele>1050.8000488281</ele>
        <time>2015-07-22T08:46:08.000Z</time>
      </trkpt>
      <trkpt lat="46.56713" lon="6.07348">
        <ele>1051.1999511719</ele>
        <time>2015-07-22T08:46:16.000Z</time>
      </trkpt>
      <trkpt lat="46.56712" lon="6.07351">
        <ele>1051.5999755859</ele>
        <time>2015-07-22T08:46:17.000Z</time>
      </trkpt>
      <trkpt lat="46.56711" lon="6.07354">
        <ele>1052</ele>
        <time>2015-07-22T08:46:18.000Z</time>
      </trkpt>
      <trkpt lat="46.56711" lon="6.07358">
        <ele>1052.4000244141</ele>
        <time>2015-07-22T08:46:19.000Z</time>
      </trkpt>
      <trkpt lat="46.56711" lon="6.07361">
        <ele>1052.8000488281</ele>
        <time>2015-07-22T08:46:20.000Z</time>
      </trkpt>
      <trkpt lat="46.56712" lon="6.07387">
        <ele>1052.8000488281</ele>
        <time>2015-07-22T08:46:28.000Z</time>
      </trkpt>
      <trkpt lat="46.56712" lon="6.07395">
        <ele>1053.4000244141</ele>
        <time>2015-07-22T08:46:30.000Z</time>
      </trkpt>
      <trkpt lat="46.56712" lon="6.07398">
        <ele>1053.8000488281</ele>
        <time>2015-07-22T08:46:31.000Z</time>
      </trkpt>
      <trkpt lat="46.56712" lon="6.07401">
        <ele>1054.4000244141</ele>
        <time>2015-07-22T08:46:32.000Z</time>
      </trkpt>
      <trkpt lat="46.56711" lon="6.07404">
        <ele>1054.8000488281</ele>
        <time>2015-07-22T08:46:33.000Z</time>
      </trkpt>
      <trkpt lat="46.56711" lon="6.07408">
        <ele>1055.1999511719</ele>
        <time>2015-07-22T08:46:34.000Z</time>
      </trkpt>
      <trkpt lat="46.56712" lon="6.07427">
        <ele>1055.5999755859</ele>
        <time>2015-07-22T08:46:40.000Z</time>
      </trkpt>
      <trkpt lat="46.56713" lon="6.0743">
        <ele>1056</ele>
        <time>2015-07-22T08:46:41.000Z</time>
      </trkpt>
      <trkpt lat="46.56713" lon="6.07434">
        <ele>1056.5999755859</ele>
        <time>2015-07-22T08:46:42.000Z</time>
      </trkpt>
      <trkpt lat="46.56714" lon="6.07437">
        <ele>1057</ele>
        <time>2015-07-22T08:46:43.000Z</time>
      </trkpt>
      <trkpt lat="46.56715" lon="6.0744">
        <ele>1057.4000244141</ele>
        <time>2015-07-22T08:46:44.000Z</time>
      </trkpt>
      <trkpt lat="46.56719" lon="6.07455">
        <ele>1057.4000244141</ele>
        <time>2015-07-22T08:46:49.000Z</time>
      </trkpt>
      <trkpt lat="46.5672" lon="6.07457">
        <ele>1057.8000488281</ele>
        <time>2015-07-22T08:46:50.000Z</time>
      </trkpt>
      <trkpt lat="46.56721" lon="6.0746">
        <ele>1058.1999511719</ele>
        <time>2015-07-22T08:46:51.000Z</time>
      </trkpt>
      <trkpt lat="46.56722" lon="6.07462">
        <ele>1058.5999755859</ele>
        <time>2015-07-22T08:46:52.000Z</time>
      </trkpt>
      <trkpt lat="46.56724" lon="6.07464">
        <ele>1059</ele>
        <time>2015-07-22T08:46:53.000Z</time>
      </trkpt>
      <trkpt lat="46.56725" lon="6.07467">
        <ele>1059.4000244141</ele>
        <time>2015-07-22T08:46:54.000Z</time>
      </trkpt>
      <trkpt lat="46.56731" lon="6.07474">
        <ele>1059.4000244141</ele>
        <time>2015-07-22T08:46:57.000Z</time>
      </trkpt>
      <trkpt lat="46.56745" lon="6.07492">
        <ele>1059.8000488281</ele>
        <time>2015-07-22T08:47:05.000Z</time>
      </trkpt>
      <trkpt lat="46.56747" lon="6.07495">
        <ele>1060.4000244141</ele>
        <time>2015-07-22T08:47:06.000Z</time>
      </trkpt>
      <trkpt lat="46.56748" lon="6.07497">
        <ele>1060.8000488281</ele>
        <time>2015-07-22T08:47:07.000Z</time>
      </trkpt>
      <trkpt lat="46.5675" lon="6.07499">
        <ele>1061.1999511719</ele>
        <time>2015-07-22T08:47:08.000Z</time>
      </trkpt>
      <trkpt lat="46.56752" lon="6.07502">
        <ele>1061.5999755859</ele>
        <time>2015-07-22T08:47:09.000Z</time>
      </trkpt>
      <trkpt lat="46.56763" lon="6.07513">
        <ele>1061.5999755859</ele>
        <time>2015-07-22T08:47:14.000Z</time>
      </trkpt>
      <trkpt lat="46.56779" lon="6.07529">
        <ele>1061.5999755859</ele>
        <time>2015-07-22T08:47:21.000Z</time>
      </trkpt>
      <trkpt lat="46.56798" lon="6.07553">
        <ele>1061.5999755859</ele>
        <time>2015-07-22T08:47:29.000Z</time>
      </trkpt>
      <trkpt lat="46.568" lon="6.07555">
        <ele>1062</ele>
        <time>2015-07-22T08:47:30.000Z</time>
      </trkpt>
      <trkpt lat="46.56802" lon="6.07559">
        <ele>1062.5999755859</ele>
        <time>2015-07-22T08:47:31.000Z</time>
      </trkpt>
      <trkpt lat="46.56804" lon="6.07563">
        <ele>1063</ele>
        <time>2015-07-22T08:47:32.000Z</time>
      </trkpt>
      <trkpt lat="46.56806" lon="6.07566">
        <ele>1063.4000244141</ele>
        <time>2015-07-22T08:47:33.000Z</time>
      </trkpt>
      <trkpt lat="46.56809" lon="6.07569">
        <ele>1063.8000488281</ele>
        <time>2015-07-22T08:47:34.000Z</time>
      </trkpt>
      <trkpt lat="46.56813" lon="6.07575">
        <ele>1063.8000488281</ele>
        <time>2015-07-22T08:47:36.000Z</time>
      </trkpt>
      <trkpt lat="46.56829" lon="6.07594">
        <ele>1063.8000488281</ele>
        <time>2015-07-22T08:47:42.000Z</time>
      </trkpt>
      <trkpt lat="46.56852" lon="6.07624">
        <ele>1063.8000488281</ele>
        <time>2015-07-22T08:47:48.000Z</time>
      </trkpt>
      <trkpt lat="46.56868" lon="6.07643">
        <ele>1063.4000244141</ele>
        <time>2015-07-22T08:47:51.000Z</time>
      </trkpt>
      <trkpt lat="46.56874" lon="6.0765">
        <ele>1062.8000488281</ele>
        <time>2015-07-22T08:47:52.000Z</time>
      </trkpt>
      <trkpt lat="46.5688" lon="6.07656">
        <ele>1062.4000244141</ele>
        <time>2015-07-22T08:47:53.000Z</time>
      </trkpt>
      <trkpt lat="46.56885" lon="6.07664">
        <ele>1062</ele>
        <time>2015-07-22T08:47:54.000Z</time>
      </trkpt>
      <trkpt lat="46.56891" lon="6.0767">
        <ele>1061.5999755859</ele>
        <time>2015-07-22T08:47:55.000Z</time>
      </trkpt>
      <trkpt lat="46.56904" lon="6.07684">
        <ele>1060.5999755859</ele>
        <time>2015-07-22T08:47:57.000Z</time>
      </trkpt>
      <trkpt lat="46.56912" lon="6.07691">
        <ele>1060</ele>
        <time>2015-07-22T08:47:58.000Z</time>
      </trkpt>
      <trkpt lat="46.5692" lon="6.07699">
        <ele>1059.5999755859</ele>
        <time>2015-07-22T08:47:59.000Z</time>
      </trkpt>
      <trkpt lat="46.56927" lon="6.07706">
        <ele>1059</ele>
        <time>2015-07-22T08:48:00.000Z</time>
      </trkpt>
      <trkpt lat="46.56935" lon="6.07713">
        <ele>1058.5999755859</ele>
        <time>2015-07-22T08:48:01.000Z</time>
      </trkpt>
      <trkpt lat="46.56942" lon="6.07721">
        <ele>1058</ele>
        <time>2015-07-22T08:48:02.000Z</time>
      </trkpt>
      <trkpt lat="46.56955" lon="6.07735">
        <ele>1057</ele>
        <time>2015-07-22T08:48:04.000Z</time>
      </trkpt>
      <trkpt lat="46.56962" lon="6.07743">
        <ele>1056.4000244141</ele>
        <time>2015-07-22T08:48:05.000Z</time>
      </trkpt>
      <trkpt lat="46.56968" lon="6.07751">
        <ele>1055.8000488281</ele>
        <time>2015-07-22T08:48:06.000Z</time>
      </trkpt>
      <trkpt lat="46.56974" lon="6.07757">
        <ele>1055.4000244141</ele>
        <time>2015-07-22T08:48:07.000Z</time>
      </trkpt>
      <trkpt lat="46.56981" lon="6.07763">
        <ele>1054.8000488281</ele>
        <time>2015-07-22T08:48:08.000Z</time>
      </trkpt>
      <trkpt lat="46.57001" lon="6.07779">
        <ele>1053.5999755859</ele>
        <time>2015-07-22T08:48:11.000Z</time>
      </trkpt>
      <trkpt lat="46.57013" lon="6.07795">
        <ele>1052.5999755859</ele>
        <time>2015-07-22T08:48:13.000Z</time>
      </trkpt>
      <trkpt lat="46.57022" lon="6.07813">
        <ele>1052</ele>
        <time>2015-07-22T08:48:15.000Z</time>
      </trkpt>
      <trkpt lat="46.57025" lon="6.07823">
        <ele>1052</ele>
        <time>2015-07-22T08:48:16.000Z</time>
      </trkpt>
      <trkpt lat="46.57028" lon="6.07831">
        <ele>1051.1999511719</ele>
        <time>2015-07-22T08:48:17.000Z</time>
      </trkpt>
      <trkpt lat="46.57031" lon="6.07847">
        <ele>1050.4000244141</ele>
        <time>2015-07-22T08:48:19.000Z</time>
      </trkpt>
      <trkpt lat="46.57031" lon="6.07853">
        <ele>1050.4000244141</ele>
        <time>2015-07-22T08:48:20.000Z</time>
      </trkpt>
      <trkpt lat="46.57032" lon="6.07859">
        <ele>1050</ele>
        <time>2015-07-22T08:48:21.000Z</time>
      </trkpt>
      <trkpt lat="46.57031" lon="6.07869">
        <ele>1050</ele>
        <time>2015-07-22T08:48:23.000Z</time>
      </trkpt>
      <trkpt lat="46.57029" lon="6.07884">
        <ele>1050</ele>
        <time>2015-07-22T08:48:26.000Z</time>
      </trkpt>
      <trkpt lat="46.57027" lon="6.07907">
        <ele>1050.4000244141</ele>
        <time>2015-07-22T08:48:31.000Z</time>
      </trkpt>
      <trkpt lat="46.57027" lon="6.0791">
        <ele>1050.4000244141</ele>
        <time>2015-07-22T08:48:32.000Z</time>
      </trkpt>
      <trkpt lat="46.57028" lon="6.07913">
        <ele>1051.4000244141</ele>
        <time>2015-07-22T08:48:33.000Z</time>
      </trkpt>
      <trkpt lat="46.57031" lon="6.07918">
        <ele>1052.1999511719</ele>
        <time>2015-07-22T08:48:35.000Z</time>
      </trkpt>
      <trkpt lat="46.57033" lon="6.07916">
        <ele>1052.1999511719</ele>
        <time>2015-07-22T08:48:36.000Z</time>
      </trkpt>
      <trkpt lat="46.57033" lon="6.07913">
        <ele>1052.1999511719</ele>
        <time>2015-07-22T08:48:37.000Z</time>
      </trkpt>
      <trkpt lat="46.57032" lon="6.07892">
        <ele>1052.1999511719</ele>
        <time>2015-07-22T08:48:41.000Z</time>
      </trkpt>
      <trkpt lat="46.57032" lon="6.07845">
        <ele>1052.1999511719</ele>
        <time>2015-07-22T08:48:48.000Z</time>
      </trkpt>
      <trkpt lat="46.57024" lon="6.07814">
        <ele>1052.1999511719</ele>
        <time>2015-07-22T08:48:52.000Z</time>
      </trkpt>
      <trkpt lat="46.57019" lon="6.07806">
        <ele>1051.8000488281</ele>
        <time>2015-07-22T08:48:53.000Z</time>
      </trkpt>
      <trkpt lat="46.57009" lon="6.07794">
        <ele>1051</ele>
        <time>2015-07-22T08:48:55.000Z</time>
      </trkpt>
      <trkpt lat="46.56998" lon="6.07786">
        <ele>1050</ele>
        <time>2015-07-22T08:48:57.000Z</time>
      </trkpt>
      <trkpt lat="46.56992" lon="6.07783">
        <ele>1050</ele>
        <time>2015-07-22T08:48:58.000Z</time>
      </trkpt>
      <trkpt lat="46.56982" lon="6.07777">
        <ele>1050</ele>
        <time>2015-07-22T08:49:00.000Z</time>
      </trkpt>
      <trkpt lat="46.5694" lon="6.07759">
        <ele>1050</ele>
        <time>2015-07-22T08:49:08.000Z</time>
      </trkpt>
      <trkpt lat="46.56896" lon="6.07728">
        <ele>1050</ele>
        <time>2015-07-22T08:49:16.000Z</time>
      </trkpt>
      <trkpt lat="46.56891" lon="6.07725">
        <ele>1049.5999755859</ele>
        <time>2015-07-22T08:49:17.000Z</time>
      </trkpt>
      <trkpt lat="46.56885" lon="6.07723">
        <ele>1049.1999511719</ele>
        <time>2015-07-22T08:49:18.000Z</time>
      </trkpt>
      <trkpt lat="46.56868" lon="6.07721">
        <ele>1048.5999755859</ele>
        <time>2015-07-22T08:49:21.000Z</time>
      </trkpt>
      <trkpt lat="46.56862" lon="6.07722">
        <ele>1048.1999511719</ele>
        <time>2015-07-22T08:49:22.000Z</time>
      </trkpt>
      <trkpt lat="46.56856" lon="6.07724">
        <ele>1047.8000488281</ele>
        <time>2015-07-22T08:49:23.000Z</time>
      </trkpt>
      <trkpt lat="46.56841" lon="6.07736">
        <ele>1047.8000488281</ele>
        <time>2015-07-22T08:49:26.000Z</time>
      </trkpt>
      <trkpt lat="46.56822" lon="6.0776">
        <ele>1047.8000488281</ele>
        <time>2015-07-22T08:49:30.000Z</time>
      </trkpt>
      <trkpt lat="46.56814" lon="6.07771">
        <ele>1047.8000488281</ele>
        <time>2015-07-22T08:49:32.000Z</time>
      </trkpt>
      <trkpt lat="46.56809" lon="6.07777">
        <ele>1047.1999511719</ele>
        <time>2015-07-22T08:49:33.000Z</time>
      </trkpt>
      <trkpt lat="46.56805" lon="6.07783">
        <ele>1046.8000488281</ele>
        <time>2015-07-22T08:49:34.000Z</time>
      </trkpt>
      <trkpt lat="46.56801" lon="6.07789">
        <ele>1046.4000244141</ele>
        <time>2015-07-22T08:49:35.000Z</time>
      </trkpt>
      <trkpt lat="46.56798" lon="6.07795">
        <ele>1046</ele>
        <time>2015-07-22T08:49:36.000Z</time>
      </trkpt>
      <trkpt lat="46.56794" lon="6.07801">
        <ele>1045.5999755859</ele>
        <time>2015-07-22T08:49:37.000Z</time>
      </trkpt>
      <trkpt lat="46.56782" lon="6.07821">
        <ele>1045.5999755859</ele>
        <time>2015-07-22T08:49:40.000Z</time>
      </trkpt>
      <trkpt lat="46.56748" lon="6.07871">
        <ele>1045.5999755859</ele>
        <time>2015-07-22T08:49:49.000Z</time>
      </trkpt>
      <trkpt lat="46.5672" lon="6.07911">
        <ele>1045.5999755859</ele>
        <time>2015-07-22T08:49:58.000Z</time>
      </trkpt>
      <trkpt lat="46.56692" lon="6.0795">
        <ele>1045.5999755859</ele>
        <time>2015-07-22T08:50:08.000Z</time>
      </trkpt>
      <trkpt lat="46.56687" lon="6.07964">
        <ele>1045.1999511719</ele>
        <time>2015-07-22T08:50:11.000Z</time>
      </trkpt>
      <trkpt lat="46.56687" lon="6.07967">
        <ele>1044.8000488281</ele>
        <time>2015-07-22T08:50:12.000Z</time>
      </trkpt>
      <trkpt lat="46.56688" lon="6.07969">
        <ele>1044.4000244141</ele>
        <time>2015-07-22T08:50:13.000Z</time>
      </trkpt>
      <trkpt lat="46.56689" lon="6.0797">
        <ele>1043.8000488281</ele>
        <time>2015-07-22T08:50:14.000Z</time>
      </trkpt>
      <trkpt lat="46.56692" lon="6.07971">
        <ele>1043.4000244141</ele>
        <time>2015-07-22T08:50:15.000Z</time>
      </trkpt>
      <trkpt lat="46.56696" lon="6.07974">
        <ele>1043.4000244141</ele>
        <time>2015-07-22T08:50:17.000Z</time>
      </trkpt>
      <trkpt lat="46.56712" lon="6.07996">
        <ele>1043</ele>
        <time>2015-07-22T08:50:25.000Z</time>
      </trkpt>
      <trkpt lat="46.56714" lon="6.08">
        <ele>1042.5999755859</ele>
        <time>2015-07-22T08:50:26.000Z</time>
      </trkpt>
      <trkpt lat="46.56717" lon="6.08004">
        <ele>1042.1999511719</ele>
        <time>2015-07-22T08:50:27.000Z</time>
      </trkpt>
      <trkpt lat="46.56719" lon="6.08007">
        <ele>1041.8000488281</ele>
        <time>2015-07-22T08:50:28.000Z</time>
      </trkpt>
      <trkpt lat="46.56722" lon="6.08012">
        <ele>1041.4000244141</ele>
        <time>2015-07-22T08:50:29.000Z</time>
      </trkpt>
      <trkpt lat="46.56729" lon="6.08023">
        <ele>1041.4000244141</ele>
        <time>2015-07-22T08:50:31.000Z</time>
      </trkpt>
      <trkpt lat="46.56731" lon="6.0803">
        <ele>1041.4000244141</ele>
        <time>2015-07-22T08:50:32.000Z</time>
      </trkpt>
      <trkpt lat="46.56735" lon="6.08063">
        <ele>1041.4000244141</ele>
        <time>2015-07-22T08:50:36.000Z</time>
      </trkpt>
      <trkpt lat="46.56731" lon="6.08088">
        <ele>1041.4000244141</ele>
        <time>2015-07-22T08:50:39.000Z</time>
      </trkpt>
      <trkpt lat="46.5673" lon="6.08097">
        <ele>1041</ele>
        <time>2015-07-22T08:50:40.000Z</time>
      </trkpt>
      <trkpt lat="46.56727" lon="6.08106">
        <ele>1040.5999755859</ele>
        <time>2015-07-22T08:50:41.000Z</time>
      </trkpt>
      <trkpt lat="46.56724" lon="6.08114">
        <ele>1040.1999511719</ele>
        <time>2015-07-22T08:50:42.000Z</time>
      </trkpt>
      <trkpt lat="46.56721" lon="6.08123">
        <ele>1039.8000488281</ele>
        <time>2015-07-22T08:50:43.000Z</time>
      </trkpt>
      <trkpt lat="46.56717" lon="6.08131">
        <ele>1039.4000244141</ele>
        <time>2015-07-22T08:50:44.000Z</time>
      </trkpt>
      <trkpt lat="46.56714" lon="6.08138">
        <ele>1039.4000244141</ele>
        <time>2015-07-22T08:50:45.000Z</time>
      </trkpt>
      <trkpt lat="46.56704" lon="6.0816">
        <ele>1039.4000244141</ele>
        <time>2015-07-22T08:50:49.000Z</time>
      </trkpt>
      <trkpt lat="46.56692" lon="6.08186">
        <ele>1039.4000244141</ele>
        <time>2015-07-22T08:50:56.000Z</time>
      </trkpt>
      <trkpt lat="46.56681" lon="6.08216">
        <ele>1039.8000488281</ele>
        <time>2015-07-22T08:51:03.000Z</time>
      </trkpt>
      <trkpt lat="46.5668" lon="6.08221">
        <ele>1040.1999511719</ele>
        <time>2015-07-22T08:51:04.000Z</time>
      </trkpt>
      <trkpt lat="46.56678" lon="6.08225">
        <ele>1040.5999755859</ele>
        <time>2015-07-22T08:51:05.000Z</time>
      </trkpt>
      <trkpt lat="46.56676" lon="6.0823">
        <ele>1041</ele>
        <time>2015-07-22T08:51:06.000Z</time>
      </trkpt>
      <trkpt lat="46.56674" lon="6.08234">
        <ele>1041.4000244141</ele>
        <time>2015-07-22T08:51:07.000Z</time>
      </trkpt>
      <trkpt lat="46.56665" lon="6.08263">
        <ele>1041.4000244141</ele>
        <time>2015-07-22T08:51:13.000Z</time>
      </trkpt>
      <trkpt lat="46.56656" lon="6.08286">
        <ele>1041.4000244141</ele>
        <time>2015-07-22T08:51:19.000Z</time>
      </trkpt>
      <trkpt lat="46.56653" lon="6.083">
        <ele>1041.4000244141</ele>
        <time>2015-07-22T08:51:25.000Z</time>
      </trkpt>
      <trkpt lat="46.5665" lon="6.08305">
        <ele>1041.4000244141</ele>
        <time>2015-07-22T08:51:28.000Z</time>
      </trkpt>
      <trkpt lat="46.56646" lon="6.08311">
        <ele>1041.4000244141</ele>
        <time>2015-07-22T08:51:32.000Z</time>
      </trkpt>
      <trkpt lat="46.56643" lon="6.0832">
        <ele>1041.8000488281</ele>
        <time>2015-07-22T08:51:36.000Z</time>
      </trkpt>
      <trkpt lat="46.56641" lon="6.08324">
        <ele>1042.1999511719</ele>
        <time>2015-07-22T08:51:38.000Z</time>
      </trkpt>
      <trkpt lat="46.56639" lon="6.08329">
        <ele>1042.8000488281</ele>
        <time>2015-07-22T08:51:40.000Z</time>
      </trkpt>
      <trkpt lat="46.56638" lon="6.08331">
        <ele>1042.8000488281</ele>
        <time>2015-07-22T08:51:41.000Z</time>
      </trkpt>
      <trkpt lat="46.56638" lon="6.08335">
        <ele>1043.1999511719</ele>
        <time>2015-07-22T08:51:42.000Z</time>
      </trkpt>
      <trkpt lat="46.56635" lon="6.0834">
        <ele>1043.8000488281</ele>
        <time>2015-07-22T08:51:44.000Z</time>
      </trkpt>
      <trkpt lat="46.56631" lon="6.08345">
        <ele>1043.8000488281</ele>
        <time>2015-07-22T08:51:46.000Z</time>
      </trkpt>
      <trkpt lat="46.56618" lon="6.08373">
        <ele>1044.1999511719</ele>
        <time>2015-07-22T08:51:54.000Z</time>
      </trkpt>
      <trkpt lat="46.56616" lon="6.0838">
        <ele>1044.5999755859</ele>
        <time>2015-07-22T08:51:56.000Z</time>
      </trkpt>
      <trkpt lat="46.56613" lon="6.08388">
        <ele>1045</ele>
        <time>2015-07-22T08:51:58.000Z</time>
      </trkpt>
      <trkpt lat="46.56614" lon="6.08392">
        <ele>1045</ele>
        <time>2015-07-22T08:51:59.000Z</time>
      </trkpt>
      <trkpt lat="46.56613" lon="6.08397">
        <ele>1045.4000244141</ele>
        <time>2015-07-22T08:52:00.000Z</time>
      </trkpt>
      <trkpt lat="46.56612" lon="6.08401">
        <ele>1045.4000244141</ele>
        <time>2015-07-22T08:52:01.000Z</time>
      </trkpt>
      <trkpt lat="46.5661" lon="6.08405">
        <ele>1045.8000488281</ele>
        <time>2015-07-22T08:52:02.000Z</time>
      </trkpt>
      <trkpt lat="46.56602" lon="6.08431">
        <ele>1045.8000488281</ele>
        <time>2015-07-22T08:52:10.000Z</time>
      </trkpt>
      <trkpt lat="46.56599" lon="6.08445">
        <ele>1045.8000488281</ele>
        <time>2015-07-22T08:52:16.000Z</time>
      </trkpt>
      <trkpt lat="46.56601" lon="6.08449">
        <ele>1045.8000488281</ele>
        <time>2015-07-22T08:52:18.000Z</time>
      </trkpt>
      <trkpt lat="46.56604" lon="6.08447">
        <ele>1045.8000488281</ele>
        <time>2015-07-22T08:52:20.000Z</time>
      </trkpt>
      <trkpt lat="46.56604" lon="6.08436">
        <ele>1045.8000488281</ele>
        <time>2015-07-22T08:52:24.000Z</time>
      </trkpt>
      <trkpt lat="46.56607" lon="6.08413">
        <ele>1045.8000488281</ele>
        <time>2015-07-22T08:52:33.000Z</time>
      </trkpt>
      <trkpt lat="46.56616" lon="6.08384">
        <ele>1045.8000488281</ele>
        <time>2015-07-22T08:52:41.000Z</time>
      </trkpt>
      <trkpt lat="46.56627" lon="6.08356">
        <ele>1045.8000488281</ele>
        <time>2015-07-22T08:52:48.000Z</time>
      </trkpt>
      <trkpt lat="46.5663" lon="6.08346">
        <ele>1045.8000488281</ele>
        <time>2015-07-22T08:52:52.000Z</time>
      </trkpt>
      <trkpt lat="46.56629" lon="6.08345">
        <ele>1045.8000488281</ele>
        <time>2015-07-22T08:53:00.000Z</time>
      </trkpt>
      <trkpt lat="46.56629" lon="6.08345">
        <ele>1045.4000244141</ele>
        <time>2015-07-22T08:53:25.000Z</time>
      </trkpt>
      <trkpt lat="46.56629" lon="6.08345">
        <ele>1045</ele>
        <time>2015-07-22T08:53:27.000Z</time>
      </trkpt>
      <trkpt lat="46.56629" lon="6.08345">
        <ele>1044.5999755859</ele>
        <time>2015-07-22T08:53:29.000Z</time>
      </trkpt>
      <trkpt lat="46.56629" lon="6.08345">
        <ele>1044.1999511719</ele>
        <time>2015-07-22T08:53:31.000Z</time>
      </trkpt>
      <trkpt lat="46.56629" lon="6.08345">
        <ele>1043.8000488281</ele>
        <time>2015-07-22T08:53:33.000Z</time>
      </trkpt>
      <trkpt lat="46.56627" lon="6.08348">
        <ele>1043.8000488281</ele>
        <time>2015-07-22T08:54:45.000Z</time>
      </trkpt>
      <trkpt lat="46.56626" lon="6.08352">
        <ele>1043.8000488281</ele>
        <time>2015-07-22T08:54:46.000Z</time>
      </trkpt>
      <trkpt lat="46.56616" lon="6.08376">
        <ele>1043.8000488281</ele>
        <time>2015-07-22T08:54:52.000Z</time>
      </trkpt>
      <trkpt lat="46.56604" lon="6.08417">
        <ele>1044.5999755859</ele>
        <time>2015-07-22T08:55:01.000Z</time>
      </trkpt>
      <trkpt lat="46.56603" lon="6.08421">
        <ele>1044.5999755859</ele>
        <time>2015-07-22T08:55:02.000Z</time>
      </trkpt>
      <trkpt lat="46.56601" lon="6.08426">
        <ele>1045</ele>
        <time>2015-07-22T08:55:03.000Z</time>
      </trkpt>
      <trkpt lat="46.56598" lon="6.08433">
        <ele>1046</ele>
        <time>2015-07-22T08:55:05.000Z</time>
      </trkpt>
      <trkpt lat="46.56596" lon="6.08443">
        <ele>1046</ele>
        <time>2015-07-22T08:55:08.000Z</time>
      </trkpt>
      <trkpt lat="46.56603" lon="6.08466">
        <ele>1046</ele>
        <time>2015-07-22T08:55:14.000Z</time>
      </trkpt>
      <trkpt lat="46.56605" lon="6.08489">
        <ele>1046</ele>
        <time>2015-07-22T08:55:18.000Z</time>
      </trkpt>
      <trkpt lat="46.56607" lon="6.08504">
        <ele>1046</ele>
        <time>2015-07-22T08:55:20.000Z</time>
      </trkpt>
      <trkpt lat="46.56621" lon="6.08554">
        <ele>1045.4000244141</ele>
        <time>2015-07-22T08:55:27.000Z</time>
      </trkpt>
      <trkpt lat="46.56626" lon="6.08568">
        <ele>1045</ele>
        <time>2015-07-22T08:55:29.000Z</time>
      </trkpt>
      <trkpt lat="46.56632" lon="6.08582">
        <ele>1044.5999755859</ele>
        <time>2015-07-22T08:55:31.000Z</time>
      </trkpt>
      <trkpt lat="46.56638" lon="6.08595">
        <ele>1044.1999511719</ele>
        <time>2015-07-22T08:55:33.000Z</time>
      </trkpt>
      <trkpt lat="46.56645" lon="6.0861">
        <ele>1043.5999755859</ele>
        <time>2015-07-22T08:55:35.000Z</time>
      </trkpt>
      <trkpt lat="46.56659" lon="6.08647">
        <ele>1043.5999755859</ele>
        <time>2015-07-22T08:55:40.000Z</time>
      </trkpt>
      <trkpt lat="46.56686" lon="6.08712">
        <ele>1043.5999755859</ele>
        <time>2015-07-22T08:55:49.000Z</time>
      </trkpt>
      <trkpt lat="46.56705" lon="6.08761">
        <ele>1043.5999755859</ele>
        <time>2015-07-22T08:55:56.000Z</time>
      </trkpt>
      <trkpt lat="46.56719" lon="6.08803">
        <ele>1043.5999755859</ele>
        <time>2015-07-22T08:56:03.000Z</time>
      </trkpt>
      <trkpt lat="46.56734" lon="6.08845">
        <ele>1044</ele>
        <time>2015-07-22T08:56:11.000Z</time>
      </trkpt>
      <trkpt lat="46.56736" lon="6.08849">
        <ele>1044.5999755859</ele>
        <time>2015-07-22T08:56:12.000Z</time>
      </trkpt>
      <trkpt lat="46.56737" lon="6.08854">
        <ele>1045</ele>
        <time>2015-07-22T08:56:13.000Z</time>
      </trkpt>
      <trkpt lat="46.56739" lon="6.08859">
        <ele>1045.4000244141</ele>
        <time>2015-07-22T08:56:14.000Z</time>
      </trkpt>
      <trkpt lat="46.5674" lon="6.08864">
        <ele>1045.8000488281</ele>
        <time>2015-07-22T08:56:15.000Z</time>
      </trkpt>
      <trkpt lat="46.5675" lon="6.08891">
        <ele>1045.8000488281</ele>
        <time>2015-07-22T08:56:21.000Z</time>
      </trkpt>
      <trkpt lat="46.56759" lon="6.08905">
        <ele>1045.8000488281</ele>
        <time>2015-07-22T08:56:25.000Z</time>
      </trkpt>
      <trkpt lat="46.56764" lon="6.08911">
        <ele>1046.1999511719</ele>
        <time>2015-07-22T08:56:27.000Z</time>
      </trkpt>
      <trkpt lat="46.56767" lon="6.08915">
        <ele>1046.5999755859</ele>
        <time>2015-07-22T08:56:28.000Z</time>
      </trkpt>
      <trkpt lat="46.5677" lon="6.08918">
        <ele>1047</ele>
        <time>2015-07-22T08:56:29.000Z</time>
      </trkpt>
      <trkpt lat="46.56773" lon="6.08921">
        <ele>1047.4000244141</ele>
        <time>2015-07-22T08:56:30.000Z</time>
      </trkpt>
      <trkpt lat="46.56776" lon="6.08924">
        <ele>1048</ele>
        <time>2015-07-22T08:56:31.000Z</time>
      </trkpt>
      <trkpt lat="46.56779" lon="6.08927">
        <ele>1048</ele>
        <time>2015-07-22T08:56:32.000Z</time>
      </trkpt>
      <trkpt lat="46.56799" lon="6.08953">
        <ele>1048</ele>
        <time>2015-07-22T08:56:39.000Z</time>
      </trkpt>
      <trkpt lat="46.56807" lon="6.08982">
        <ele>1048</ele>
        <time>2015-07-22T08:56:44.000Z</time>
      </trkpt>
      <trkpt lat="46.5681" lon="6.08988">
        <ele>1048</ele>
        <time>2015-07-22T08:56:45.000Z</time>
      </trkpt>
      <trkpt lat="46.56822" lon="6.09024">
        <ele>1048.4000244141</ele>
        <time>2015-07-22T08:56:51.000Z</time>
      </trkpt>
      <trkpt lat="46.56824" lon="6.0903">
        <ele>1048.8000488281</ele>
        <time>2015-07-22T08:56:52.000Z</time>
      </trkpt>
      <trkpt lat="46.56827" lon="6.09036">
        <ele>1049.1999511719</ele>
        <time>2015-07-22T08:56:53.000Z</time>
      </trkpt>
      <trkpt lat="46.56829" lon="6.09042">
        <ele>1049.8000488281</ele>
        <time>2015-07-22T08:56:54.000Z</time>
      </trkpt>
      <trkpt lat="46.56831" lon="6.09048">
        <ele>1050.1999511719</ele>
        <time>2015-07-22T08:56:55.000Z</time>
      </trkpt>
      <trkpt lat="46.56848" lon="6.09088">
        <ele>1050.1999511719</ele>
        <time>2015-07-22T08:57:02.000Z</time>
      </trkpt>
      <trkpt lat="46.56868" lon="6.09128">
        <ele>1050.1999511719</ele>
        <time>2015-07-22T08:57:10.000Z</time>
      </trkpt>
      <trkpt lat="46.5689" lon="6.09162">
        <ele>1050.1999511719</ele>
        <time>2015-07-22T08:57:15.000Z</time>
      </trkpt>
      <trkpt lat="46.56906" lon="6.09183">
        <ele>1049.8000488281</ele>
        <time>2015-07-22T08:57:18.000Z</time>
      </trkpt>
      <trkpt lat="46.56911" lon="6.09188">
        <ele>1049.4000244141</ele>
        <time>2015-07-22T08:57:19.000Z</time>
      </trkpt>
      <trkpt lat="46.56918" lon="6.09193">
        <ele>1049</ele>
        <time>2015-07-22T08:57:20.000Z</time>
      </trkpt>
      <trkpt lat="46.56924" lon="6.09198">
        <ele>1048.4000244141</ele>
        <time>2015-07-22T08:57:21.000Z</time>
      </trkpt>
      <trkpt lat="46.5693" lon="6.09201">
        <ele>1048</ele>
        <time>2015-07-22T08:57:22.000Z</time>
      </trkpt>
      <trkpt lat="46.56941" lon="6.09206">
        <ele>1048</ele>
        <time>2015-07-22T08:57:24.000Z</time>
      </trkpt>
      <trkpt lat="46.56968" lon="6.09217">
        <ele>1048</ele>
        <time>2015-07-22T08:57:30.000Z</time>
      </trkpt>
      <trkpt lat="46.56972" lon="6.0922">
        <ele>1048</ele>
        <time>2015-07-22T08:57:31.000Z</time>
      </trkpt>
      <trkpt lat="46.56991" lon="6.09235">
        <ele>1048</ele>
        <time>2015-07-22T08:57:35.000Z</time>
      </trkpt>
      <trkpt lat="46.57015" lon="6.09255">
        <ele>1047.5999755859</ele>
        <time>2015-07-22T08:57:39.000Z</time>
      </trkpt>
      <trkpt lat="46.57021" lon="6.0926">
        <ele>1047</ele>
        <time>2015-07-22T08:57:40.000Z</time>
      </trkpt>
      <trkpt lat="46.57026" lon="6.09267">
        <ele>1046.5999755859</ele>
        <time>2015-07-22T08:57:41.000Z</time>
      </trkpt>
      <trkpt lat="46.57031" lon="6.09274">
        <ele>1046.1999511719</ele>
        <time>2015-07-22T08:57:42.000Z</time>
      </trkpt>
      <trkpt lat="46.57036" lon="6.09284">
        <ele>1045.5999755859</ele>
        <time>2015-07-22T08:57:43.000Z</time>
      </trkpt>
      <trkpt lat="46.57062" lon="6.09316">
        <ele>1045.5999755859</ele>
        <time>2015-07-22T08:57:48.000Z</time>
      </trkpt>
      <trkpt lat="46.5709" lon="6.09345">
        <ele>1045.5999755859</ele>
        <time>2015-07-22T08:57:54.000Z</time>
      </trkpt>
      <trkpt lat="46.57114" lon="6.09376">
        <ele>1045.5999755859</ele>
        <time>2015-07-22T08:58:01.000Z</time>
      </trkpt>
      <trkpt lat="46.57126" lon="6.0939">
        <ele>1045.5999755859</ele>
        <time>2015-07-22T08:58:06.000Z</time>
      </trkpt>
      <trkpt lat="46.57142" lon="6.09412">
        <ele>1045.5999755859</ele>
        <time>2015-07-22T08:58:14.000Z</time>
      </trkpt>
      <trkpt lat="46.57138" lon="6.09418">
        <ele>1045.5999755859</ele>
        <time>2015-07-22T08:58:17.000Z</time>
      </trkpt>
      <trkpt lat="46.57135" lon="6.09409">
        <ele>1045.5999755859</ele>
        <time>2015-07-22T08:58:20.000Z</time>
      </trkpt>
      <trkpt lat="46.57134" lon="6.09404">
        <ele>1045.5999755859</ele>
        <time>2015-07-22T08:58:21.000Z</time>
      </trkpt>
      <trkpt lat="46.57121" lon="6.09383">
        <ele>1045.5999755859</ele>
        <time>2015-07-22T08:58:27.000Z</time>
      </trkpt>
      <trkpt lat="46.57118" lon="6.09368">
        <ele>1045.5999755859</ele>
        <time>2015-07-22T08:58:33.000Z</time>
      </trkpt>
      <trkpt lat="46.5713" lon="6.09352">
        <ele>1045.5999755859</ele>
        <time>2015-07-22T08:58:38.000Z</time>
      </trkpt>
      <trkpt lat="46.57135" lon="6.09345">
        <ele>1045.5999755859</ele>
        <time>2015-07-22T08:58:40.000Z</time>
      </trkpt>
      <trkpt lat="46.5714" lon="6.09337">
        <ele>1045.5999755859</ele>
        <time>2015-07-22T08:58:42.000Z</time>
      </trkpt>
      <trkpt lat="46.57149" lon="6.09318">
        <ele>1045.1999511719</ele>
        <time>2015-07-22T08:58:47.000Z</time>
      </trkpt>
      <trkpt lat="46.57151" lon="6.09315">
        <ele>1044.8000488281</ele>
        <time>2015-07-22T08:58:48.000Z</time>
      </trkpt>
      <trkpt lat="46.57153" lon="6.09312">
        <ele>1044.4000244141</ele>
        <time>2015-07-22T08:58:49.000Z</time>
      </trkpt>
      <trkpt lat="46.57155" lon="6.09309">
        <ele>1044</ele>
        <time>2015-07-22T08:58:50.000Z</time>
      </trkpt>
      <trkpt lat="46.57157" lon="6.09306">
        <ele>1043.5999755859</ele>
        <time>2015-07-22T08:58:51.000Z</time>
      </trkpt>
      <trkpt lat="46.57164" lon="6.09295">
        <ele>1043.5999755859</ele>
        <time>2015-07-22T08:58:55.000Z</time>
      </trkpt>
      <trkpt lat="46.57177" lon="6.09271">
        <ele>1043.5999755859</ele>
        <time>2015-07-22T08:59:01.000Z</time>
      </trkpt>
      <trkpt lat="46.57179" lon="6.09266">
        <ele>1043</ele>
        <time>2015-07-22T08:59:02.000Z</time>
      </trkpt>
      <trkpt lat="46.57181" lon="6.09261">
        <ele>1042.4000244141</ele>
        <time>2015-07-22T08:59:03.000Z</time>
      </trkpt>
      <trkpt lat="46.57183" lon="6.09256">
        <ele>1042</ele>
        <time>2015-07-22T08:59:04.000Z</time>
      </trkpt>
      <trkpt lat="46.57185" lon="6.09251">
        <ele>1041.4000244141</ele>
        <time>2015-07-22T08:59:05.000Z</time>
      </trkpt>
      <trkpt lat="46.57186" lon="6.09247">
        <ele>1041</ele>
        <time>2015-07-22T08:59:06.000Z</time>
      </trkpt>
      <trkpt lat="46.57187" lon="6.09245">
        <ele>1041</ele>
        <time>2015-07-22T08:59:07.000Z</time>
      </trkpt>
      <trkpt lat="46.57188" lon="6.09245">
        <ele>1041</ele>
        <time>2015-07-22T08:59:11.000Z</time>
      </trkpt>
      <trkpt lat="46.57188" lon="6.09245">
        <ele>1039</ele>
        <time>2015-07-22T09:05:02.000Z</time>
      </trkpt>
      <trkpt lat="46.57186" lon="6.09255">
        <ele>1039</ele>
        <time>2015-07-22T09:05:12.000Z</time>
      </trkpt>
      <trkpt lat="46.57178" lon="6.09267">
        <ele>1039</ele>
        <time>2015-07-22T09:05:20.000Z</time>
      </trkpt>
      <trkpt lat="46.57176" lon="6.09272">
        <ele>1039.4000244141</ele>
        <time>2015-07-22T09:05:24.000Z</time>
      </trkpt>
      <trkpt lat="46.57174" lon="6.09275">
        <ele>1039.8000488281</ele>
        <time>2015-07-22T09:05:26.000Z</time>
      </trkpt>
      <trkpt lat="46.57173" lon="6.09278">
        <ele>1040.4000244141</ele>
        <time>2015-07-22T09:05:28.000Z</time>
      </trkpt>
      <trkpt lat="46.57173" lon="6.09279">
        <ele>1040.4000244141</ele>
        <time>2015-07-22T09:05:29.000Z</time>
      </trkpt>
      <trkpt lat="46.57172" lon="6.0928">
        <ele>1040.8000488281</ele>
        <time>2015-07-22T09:05:30.000Z</time>
      </trkpt>
      <trkpt lat="46.57171" lon="6.09283">
        <ele>1041.1999511719</ele>
        <time>2015-07-22T09:05:32.000Z</time>
      </trkpt>
      <trkpt lat="46.57168" lon="6.09288">
        <ele>1041.1999511719</ele>
        <time>2015-07-22T09:05:37.000Z</time>
      </trkpt>
      <trkpt lat="46.57167" lon="6.09289">
        <ele>1041.8000488281</ele>
        <time>2015-07-22T09:05:38.000Z</time>
      </trkpt>
      <trkpt lat="46.57166" lon="6.09292">
        <ele>1042.1999511719</ele>
        <time>2015-07-22T09:05:40.000Z</time>
      </trkpt>
      <trkpt lat="46.57165" lon="6.09295">
        <ele>1042.5999755859</ele>
        <time>2015-07-22T09:05:42.000Z</time>
      </trkpt>
      <trkpt lat="46.57162" lon="6.09296">
        <ele>1043</ele>
        <time>2015-07-22T09:05:44.000Z</time>
      </trkpt>
      <trkpt lat="46.57161" lon="6.09297">
        <ele>1043.5999755859</ele>
        <time>2015-07-22T09:05:45.000Z</time>
      </trkpt>
      <trkpt lat="46.57157" lon="6.09307">
        <ele>1043.5999755859</ele>
        <time>2015-07-22T09:05:54.000Z</time>
      </trkpt>
      <trkpt lat="46.57154" lon="6.09316">
        <ele>1043.5999755859</ele>
        <time>2015-07-22T09:06:04.000Z</time>
      </trkpt>
      <trkpt lat="46.57144" lon="6.09332">
        <ele>1043.5999755859</ele>
        <time>2015-07-22T09:06:12.000Z</time>
      </trkpt>
      <trkpt lat="46.57132" lon="6.09352">
        <ele>1043.5999755859</ele>
        <time>2015-07-22T09:06:19.000Z</time>
      </trkpt>
      <trkpt lat="46.57122" lon="6.09365">
        <ele>1044</ele>
        <time>2015-07-22T09:06:24.000Z</time>
      </trkpt>
      <trkpt lat="46.57121" lon="6.09367">
        <ele>1044.4000244141</ele>
        <time>2015-07-22T09:06:25.000Z</time>
      </trkpt>
      <trkpt lat="46.57119" lon="6.0937">
        <ele>1044.8000488281</ele>
        <time>2015-07-22T09:06:26.000Z</time>
      </trkpt>
      <trkpt lat="46.57117" lon="6.09373">
        <ele>1045.1999511719</ele>
        <time>2015-07-22T09:06:27.000Z</time>
      </trkpt>
      <trkpt lat="46.57116" lon="6.09376">
        <ele>1045.5999755859</ele>
        <time>2015-07-22T09:06:28.000Z</time>
      </trkpt>
      <trkpt lat="46.57116" lon="6.09381">
        <ele>1045.5999755859</ele>
        <time>2015-07-22T09:06:31.000Z</time>
      </trkpt>
      <trkpt lat="46.57118" lon="6.09382">
        <ele>1045.5999755859</ele>
        <time>2015-07-22T09:06:32.000Z</time>
      </trkpt>
      <trkpt lat="46.57124" lon="6.09388">
        <ele>1045.5999755859</ele>
        <time>2015-07-22T09:06:35.000Z</time>
      </trkpt>
      <trkpt lat="46.57129" lon="6.09393">
        <ele>1046</ele>
        <time>2015-07-22T09:06:37.000Z</time>
      </trkpt>
      <trkpt lat="46.57131" lon="6.09396">
        <ele>1046.4000244141</ele>
        <time>2015-07-22T09:06:38.000Z</time>
      </trkpt>
      <trkpt lat="46.57133" lon="6.09399">
        <ele>1046.8000488281</ele>
        <time>2015-07-22T09:06:39.000Z</time>
      </trkpt>
      <trkpt lat="46.57135" lon="6.09402">
        <ele>1047.1999511719</ele>
        <time>2015-07-22T09:06:40.000Z</time>
      </trkpt>
      <trkpt lat="46.57137" lon="6.09406">
        <ele>1047.5999755859</ele>
        <time>2015-07-22T09:06:41.000Z</time>
      </trkpt>
      <trkpt lat="46.5715" lon="6.09422">
        <ele>1047.5999755859</ele>
        <time>2015-07-22T09:06:46.000Z</time>
      </trkpt>
      <trkpt lat="46.57167" lon="6.09439">
        <ele>1047.5999755859</ele>
        <time>2015-07-22T09:06:53.000Z</time>
      </trkpt>
      <trkpt lat="46.57169" lon="6.0944">
        <ele>1048</ele>
        <time>2015-07-22T09:06:54.000Z</time>
      </trkpt>
      <trkpt lat="46.5717" lon="6.09442">
        <ele>1048.4000244141</ele>
        <time>2015-07-22T09:06:55.000Z</time>
      </trkpt>
      <trkpt lat="46.57172" lon="6.09444">
        <ele>1049</ele>
        <time>2015-07-22T09:06:56.000Z</time>
      </trkpt>
      <trkpt lat="46.57174" lon="6.09446">
        <ele>1049.4000244141</ele>
        <time>2015-07-22T09:06:57.000Z</time>
      </trkpt>
      <trkpt lat="46.57176" lon="6.09447">
        <ele>1049.8000488281</ele>
        <time>2015-07-22T09:06:58.000Z</time>
      </trkpt>
      <trkpt lat="46.57182" lon="6.09452">
        <ele>1049.8000488281</ele>
        <time>2015-07-22T09:07:01.000Z</time>
      </trkpt>
      <trkpt lat="46.57183" lon="6.09453">
        <ele>1050.1999511719</ele>
        <time>2015-07-22T09:07:02.000Z</time>
      </trkpt>
      <trkpt lat="46.57185" lon="6.09455">
        <ele>1050.5999755859</ele>
        <time>2015-07-22T09:07:03.000Z</time>
      </trkpt>
      <trkpt lat="46.57186" lon="6.09456">
        <ele>1051.1999511719</ele>
        <time>2015-07-22T09:07:04.000Z</time>
      </trkpt>
      <trkpt lat="46.57188" lon="6.09458">
        <ele>1051.5999755859</ele>
        <time>2015-07-22T09:07:05.000Z</time>
      </trkpt>
      <trkpt lat="46.5719" lon="6.0946">
        <ele>1052</ele>
        <time>2015-07-22T09:07:06.000Z</time>
      </trkpt>
      <trkpt lat="46.57199" lon="6.09471">
        <ele>1052.4000244141</ele>
        <time>2015-07-22T09:07:12.000Z</time>
      </trkpt>
      <trkpt lat="46.57201" lon="6.09473">
        <ele>1053</ele>
        <time>2015-07-22T09:07:13.000Z</time>
      </trkpt>
      <trkpt lat="46.57202" lon="6.09475">
        <ele>1053.4000244141</ele>
        <time>2015-07-22T09:07:14.000Z</time>
      </trkpt>
      <trkpt lat="46.57205" lon="6.09477">
        <ele>1053.8000488281</ele>
        <time>2015-07-22T09:07:15.000Z</time>
      </trkpt>
      <trkpt lat="46.57206" lon="6.09479">
        <ele>1054.4000244141</ele>
        <time>2015-07-22T09:07:16.000Z</time>
      </trkpt>
      <trkpt lat="46.57212" lon="6.09492">
        <ele>1054.4000244141</ele>
        <time>2015-07-22T09:07:21.000Z</time>
      </trkpt>
      <trkpt lat="46.57213" lon="6.09494">
        <ele>1054.8000488281</ele>
        <time>2015-07-22T09:07:22.000Z</time>
      </trkpt>
      <trkpt lat="46.57214" lon="6.09499">
        <ele>1055.5999755859</ele>
        <time>2015-07-22T09:07:24.000Z</time>
      </trkpt>
      <trkpt lat="46.57215" lon="6.09501">
        <ele>1056</ele>
        <time>2015-07-22T09:07:25.000Z</time>
      </trkpt>
      <trkpt lat="46.57216" lon="6.09504">
        <ele>1056.4000244141</ele>
        <time>2015-07-22T09:07:26.000Z</time>
      </trkpt>
      <trkpt lat="46.57217" lon="6.09515">
        <ele>1056.4000244141</ele>
        <time>2015-07-22T09:07:30.000Z</time>
      </trkpt>
      <trkpt lat="46.57225" lon="6.09539">
        <ele>1056.4000244141</ele>
        <time>2015-07-22T09:07:37.000Z</time>
      </trkpt>
      <trkpt lat="46.57234" lon="6.09562">
        <ele>1056.4000244141</ele>
        <time>2015-07-22T09:07:44.000Z</time>
      </trkpt>
      <trkpt lat="46.57235" lon="6.09565">
        <ele>1057</ele>
        <time>2015-07-22T09:07:45.000Z</time>
      </trkpt>
      <trkpt lat="46.57237" lon="6.09567">
        <ele>1057.4000244141</ele>
        <time>2015-07-22T09:07:46.000Z</time>
      </trkpt>
      <trkpt lat="46.57238" lon="6.09569">
        <ele>1057.8000488281</ele>
        <time>2015-07-22T09:07:47.000Z</time>
      </trkpt>
      <trkpt lat="46.57239" lon="6.09572">
        <ele>1058.1999511719</ele>
        <time>2015-07-22T09:07:48.000Z</time>
      </trkpt>
      <trkpt lat="46.57241" lon="6.09575">
        <ele>1058.5999755859</ele>
        <time>2015-07-22T09:07:49.000Z</time>
      </trkpt>
      <trkpt lat="46.57242" lon="6.09578">
        <ele>1058.5999755859</ele>
        <time>2015-07-22T09:07:50.000Z</time>
      </trkpt>
      <trkpt lat="46.57255" lon="6.09607">
        <ele>1059</ele>
        <time>2015-07-22T09:07:59.000Z</time>
      </trkpt>
      <trkpt lat="46.57257" lon="6.0961">
        <ele>1059.4000244141</ele>
        <time>2015-07-22T09:08:00.000Z</time>
      </trkpt>
      <trkpt lat="46.57259" lon="6.09614">
        <ele>1059.8000488281</ele>
        <time>2015-07-22T09:08:01.000Z</time>
      </trkpt>
      <trkpt lat="46.57261" lon="6.09618">
        <ele>1060.1999511719</ele>
        <time>2015-07-22T09:08:02.000Z</time>
      </trkpt>
      <trkpt lat="46.57263" lon="6.0962">
        <ele>1060.5999755859</ele>
        <time>2015-07-22T09:08:03.000Z</time>
      </trkpt>
      <trkpt lat="46.57267" lon="6.09631">
        <ele>1060.5999755859</ele>
        <time>2015-07-22T09:08:06.000Z</time>
      </trkpt>
      <trkpt lat="46.57277" lon="6.0966">
        <ele>1060.5999755859</ele>
        <time>2015-07-22T09:08:13.000Z</time>
      </trkpt>
      <trkpt lat="46.5729" lon="6.09696">
        <ele>1060.5999755859</ele>
        <time>2015-07-22T09:08:21.000Z</time>
      </trkpt>
      <trkpt lat="46.57298" lon="6.09726">
        <ele>1060.5999755859</ele>
        <time>2015-07-22T09:08:28.000Z</time>
      </trkpt>
      <trkpt lat="46.57314" lon="6.09754">
        <ele>1060.5999755859</ele>
        <time>2015-07-22T09:08:36.000Z</time>
      </trkpt>
      <trkpt lat="46.57319" lon="6.09754">
        <ele>1060.5999755859</ele>
        <time>2015-07-22T09:08:37.000Z</time>
      </trkpt>
      <trkpt lat="46.57334" lon="6.09752">
        <ele>1061</ele>
        <time>2015-07-22T09:08:41.000Z</time>
      </trkpt>
      <trkpt lat="46.57337" lon="6.09754">
        <ele>1061.4000244141</ele>
        <time>2015-07-22T09:08:42.000Z</time>
      </trkpt>
      <trkpt lat="46.5734" lon="6.09756">
        <ele>1061.8000488281</ele>
        <time>2015-07-22T09:08:43.000Z</time>
      </trkpt>
      <trkpt lat="46.57344" lon="6.09758">
        <ele>1062.1999511719</ele>
        <time>2015-07-22T09:08:44.000Z</time>
      </trkpt>
      <trkpt lat="46.57348" lon="6.09759">
        <ele>1062.8000488281</ele>
        <time>2015-07-22T09:08:45.000Z</time>
      </trkpt>
      <trkpt lat="46.57362" lon="6.09761">
        <ele>1062.8000488281</ele>
        <time>2015-07-22T09:08:49.000Z</time>
      </trkpt>
      <trkpt lat="46.57392" lon="6.09769">
        <ele>1062.8000488281</ele>
        <time>2015-07-22T09:08:57.000Z</time>
      </trkpt>
      <trkpt lat="46.57394" lon="6.0977">
        <ele>1063.1999511719</ele>
        <time>2015-07-22T09:08:58.000Z</time>
      </trkpt>
      <trkpt lat="46.57398" lon="6.09771">
        <ele>1063.8000488281</ele>
        <time>2015-07-22T09:08:59.000Z</time>
      </trkpt>
      <trkpt lat="46.57401" lon="6.09773">
        <ele>1064.1999511719</ele>
        <time>2015-07-22T09:09:00.000Z</time>
      </trkpt>
      <trkpt lat="46.57404" lon="6.09774">
        <ele>1064.8000488281</ele>
        <time>2015-07-22T09:09:01.000Z</time>
      </trkpt>
      <trkpt lat="46.57408" lon="6.09775">
        <ele>1065.1999511719</ele>
        <time>2015-07-22T09:09:02.000Z</time>
      </trkpt>
      <trkpt lat="46.57419" lon="6.09782">
        <ele>1065.1999511719</ele>
        <time>2015-07-22T09:09:06.000Z</time>
      </trkpt>
      <trkpt lat="46.57447" lon="6.09797">
        <ele>1065.8000488281</ele>
        <time>2015-07-22T09:09:15.000Z</time>
      </trkpt>
      <trkpt lat="46.57449" lon="6.09798">
        <ele>1066.1999511719</ele>
        <time>2015-07-22T09:09:16.000Z</time>
      </trkpt>
      <trkpt lat="46.57452" lon="6.098">
        <ele>1066.5999755859</ele>
        <time>2015-07-22T09:09:17.000Z</time>
      </trkpt>
      <trkpt lat="46.57455" lon="6.09801">
        <ele>1067.1999511719</ele>
        <time>2015-07-22T09:09:18.000Z</time>
      </trkpt>
      <trkpt lat="46.57458" lon="6.09802">
        <ele>1067.5999755859</ele>
        <time>2015-07-22T09:09:19.000Z</time>
      </trkpt>
      <trkpt lat="46.57475" lon="6.09817">
        <ele>1067.5999755859</ele>
        <time>2015-07-22T09:09:25.000Z</time>
      </trkpt>
      <trkpt lat="46.57479" lon="6.09827">
        <ele>1068.1999511719</ele>
        <time>2015-07-22T09:09:28.000Z</time>
      </trkpt>
      <trkpt lat="46.57479" lon="6.09831">
        <ele>1068.5999755859</ele>
        <time>2015-07-22T09:09:29.000Z</time>
      </trkpt>
      <trkpt lat="46.57479" lon="6.09835">
        <ele>1069.1999511719</ele>
        <time>2015-07-22T09:09:30.000Z</time>
      </trkpt>
      <trkpt lat="46.57479" lon="6.09839">
        <ele>1069.5999755859</ele>
        <time>2015-07-22T09:09:31.000Z</time>
      </trkpt>
      <trkpt lat="46.57479" lon="6.09843">
        <ele>1070</ele>
        <time>2015-07-22T09:09:32.000Z</time>
      </trkpt>
      <trkpt lat="46.57479" lon="6.09865">
        <ele>1070</ele>
        <time>2015-07-22T09:09:37.000Z</time>
      </trkpt>
      <trkpt lat="46.5748" lon="6.0991">
        <ele>1070</ele>
        <time>2015-07-22T09:09:46.000Z</time>
      </trkpt>
      <trkpt lat="46.57488" lon="6.09938">
        <ele>1070</ele>
        <time>2015-07-22T09:09:51.000Z</time>
      </trkpt>
      <trkpt lat="46.57493" lon="6.09957">
        <ele>1070.5999755859</ele>
        <time>2015-07-22T09:09:55.000Z</time>
      </trkpt>
      <trkpt lat="46.57494" lon="6.09962">
        <ele>1071</ele>
        <time>2015-07-22T09:09:56.000Z</time>
      </trkpt>
      <trkpt lat="46.57495" lon="6.09967">
        <ele>1071.4000244141</ele>
        <time>2015-07-22T09:09:57.000Z</time>
      </trkpt>
      <trkpt lat="46.57496" lon="6.09972">
        <ele>1072</ele>
        <time>2015-07-22T09:09:58.000Z</time>
      </trkpt>
      <trkpt lat="46.57498" lon="6.09977">
        <ele>1072.4000244141</ele>
        <time>2015-07-22T09:09:59.000Z</time>
      </trkpt>
      <trkpt lat="46.57507" lon="6.10007">
        <ele>1072.4000244141</ele>
        <time>2015-07-22T09:10:05.000Z</time>
      </trkpt>
      <trkpt lat="46.5751" lon="6.10017">
        <ele>1072.8000488281</ele>
        <time>2015-07-22T09:10:07.000Z</time>
      </trkpt>
      <trkpt lat="46.57512" lon="6.10021">
        <ele>1073.1999511719</ele>
        <time>2015-07-22T09:10:08.000Z</time>
      </trkpt>
      <trkpt lat="46.57513" lon="6.10025">
        <ele>1073.8000488281</ele>
        <time>2015-07-22T09:10:09.000Z</time>
      </trkpt>
      <trkpt lat="46.57515" lon="6.1003">
        <ele>1074.1999511719</ele>
        <time>2015-07-22T09:10:10.000Z</time>
      </trkpt>
      <trkpt lat="46.57517" lon="6.10034">
        <ele>1074.5999755859</ele>
        <time>2015-07-22T09:10:11.000Z</time>
      </trkpt>
      <trkpt lat="46.5752" lon="6.10048">
        <ele>1074.5999755859</ele>
        <time>2015-07-22T09:10:14.000Z</time>
      </trkpt>
      <trkpt lat="46.57522" lon="6.1007">
        <ele>1075</ele>
        <time>2015-07-22T09:10:19.000Z</time>
      </trkpt>
      <trkpt lat="46.5752" lon="6.10073">
        <ele>1075.4000244141</ele>
        <time>2015-07-22T09:10:20.000Z</time>
      </trkpt>
      <trkpt lat="46.57516" lon="6.10078">
        <ele>1075.8000488281</ele>
        <time>2015-07-22T09:10:21.000Z</time>
      </trkpt>
      <trkpt lat="46.57514" lon="6.10081">
        <ele>1076.1999511719</ele>
        <time>2015-07-22T09:10:22.000Z</time>
      </trkpt>
      <trkpt lat="46.57511" lon="6.10085">
        <ele>1076.5999755859</ele>
        <time>2015-07-22T09:10:23.000Z</time>
      </trkpt>
      <trkpt lat="46.57508" lon="6.10089">
        <ele>1076.5999755859</ele>
        <time>2015-07-22T09:10:24.000Z</time>
      </trkpt>
      <trkpt lat="46.57504" lon="6.10101">
        <ele>1076.5999755859</ele>
        <time>2015-07-22T09:10:26.000Z</time>
      </trkpt>
      <trkpt lat="46.57506" lon="6.1013">
        <ele>1076.5999755859</ele>
        <time>2015-07-22T09:10:32.000Z</time>
      </trkpt>
      <trkpt lat="46.57514" lon="6.10156">
        <ele>1077</ele>
        <time>2015-07-22T09:10:37.000Z</time>
      </trkpt>
      <trkpt lat="46.57515" lon="6.1016">
        <ele>1077.4000244141</ele>
        <time>2015-07-22T09:10:38.000Z</time>
      </trkpt>
      <trkpt lat="46.57516" lon="6.10164">
        <ele>1078</ele>
        <time>2015-07-22T09:10:39.000Z</time>
      </trkpt>
      <trkpt lat="46.57518" lon="6.10168">
        <ele>1078.4000244141</ele>
        <time>2015-07-22T09:10:40.000Z</time>
      </trkpt>
      <trkpt lat="46.5752" lon="6.10172">
        <ele>1078.8000488281</ele>
        <time>2015-07-22T09:10:41.000Z</time>
      </trkpt>
      <trkpt lat="46.57525" lon="6.1019">
        <ele>1078.8000488281</ele>
        <time>2015-07-22T09:10:45.000Z</time>
      </trkpt>
      <trkpt lat="46.57527" lon="6.102">
        <ele>1079.1999511719</ele>
        <time>2015-07-22T09:10:47.000Z</time>
      </trkpt>
      <trkpt lat="46.57527" lon="6.10205">
        <ele>1079.5999755859</ele>
        <time>2015-07-22T09:10:48.000Z</time>
      </trkpt>
      <trkpt lat="46.57528" lon="6.1021">
        <ele>1080</ele>
        <time>2015-07-22T09:10:49.000Z</time>
      </trkpt>
      <trkpt lat="46.57528" lon="6.10215">
        <ele>1080.5999755859</ele>
        <time>2015-07-22T09:10:50.000Z</time>
      </trkpt>
      <trkpt lat="46.57528" lon="6.10221">
        <ele>1081</ele>
        <time>2015-07-22T09:10:51.000Z</time>
      </trkpt>
      <trkpt lat="46.57529" lon="6.10227">
        <ele>1081</ele>
        <time>2015-07-22T09:10:52.000Z</time>
      </trkpt>
      <trkpt lat="46.57535" lon="6.10252">
        <ele>1081</ele>
        <time>2015-07-22T09:10:55.000Z</time>
      </trkpt>
      <trkpt lat="46.57539" lon="6.1026">
        <ele>1081</ele>
        <time>2015-07-22T09:10:56.000Z</time>
      </trkpt>
      <trkpt lat="46.57549" lon="6.10275">
        <ele>1080.4000244141</ele>
        <time>2015-07-22T09:10:58.000Z</time>
      </trkpt>
      <trkpt lat="46.57555" lon="6.10281">
        <ele>1080</ele>
        <time>2015-07-22T09:10:59.000Z</time>
      </trkpt>
      <trkpt lat="46.57561" lon="6.10287">
        <ele>1079.5999755859</ele>
        <time>2015-07-22T09:11:00.000Z</time>
      </trkpt>
      <trkpt lat="46.57568" lon="6.10292">
        <ele>1079.1999511719</ele>
        <time>2015-07-22T09:11:01.000Z</time>
      </trkpt>
      <trkpt lat="46.57575" lon="6.10298">
        <ele>1078.8000488281</ele>
        <time>2015-07-22T09:11:02.000Z</time>
      </trkpt>
      <trkpt lat="46.57593" lon="6.10312">
        <ele>1078.8000488281</ele>
        <time>2015-07-22T09:11:05.000Z</time>
      </trkpt>
      <trkpt lat="46.5761" lon="6.10323">
        <ele>1078.8000488281</ele>
        <time>2015-07-22T09:11:09.000Z</time>
      </trkpt>
      <trkpt lat="46.57629" lon="6.10336">
        <ele>1078.8000488281</ele>
        <time>2015-07-22T09:11:15.000Z</time>
      </trkpt>
      <trkpt lat="46.57637" lon="6.10343">
        <ele>1079.1999511719</ele>
        <time>2015-07-22T09:11:18.000Z</time>
      </trkpt>
      <trkpt lat="46.5764" lon="6.10346">
        <ele>1079.5999755859</ele>
        <time>2015-07-22T09:11:19.000Z</time>
      </trkpt>
      <trkpt lat="46.57643" lon="6.10349">
        <ele>1080.1999511719</ele>
        <time>2015-07-22T09:11:20.000Z</time>
      </trkpt>
      <trkpt lat="46.57646" lon="6.10352">
        <ele>1080.5999755859</ele>
        <time>2015-07-22T09:11:21.000Z</time>
      </trkpt>
      <trkpt lat="46.57648" lon="6.10355">
        <ele>1081</ele>
        <time>2015-07-22T09:11:22.000Z</time>
      </trkpt>
      <trkpt lat="46.57654" lon="6.10362">
        <ele>1081</ele>
        <time>2015-07-22T09:11:24.000Z</time>
      </trkpt>
      <trkpt lat="46.57674" lon="6.10387">
        <ele>1081</ele>
        <time>2015-07-22T09:11:32.000Z</time>
      </trkpt>
      <trkpt lat="46.57676" lon="6.1039">
        <ele>1081.4000244141</ele>
        <time>2015-07-22T09:11:33.000Z</time>
      </trkpt>
      <trkpt lat="46.57677" lon="6.10393">
        <ele>1081.8000488281</ele>
        <time>2015-07-22T09:11:34.000Z</time>
      </trkpt>
      <trkpt lat="46.57679" lon="6.10396">
        <ele>1082.1999511719</ele>
        <time>2015-07-22T09:11:35.000Z</time>
      </trkpt>
      <trkpt lat="46.57681" lon="6.10399">
        <ele>1082.5999755859</ele>
        <time>2015-07-22T09:11:36.000Z</time>
      </trkpt>
      <trkpt lat="46.57683" lon="6.10402">
        <ele>1083</ele>
        <time>2015-07-22T09:11:37.000Z</time>
      </trkpt>
      <trkpt lat="46.5769" lon="6.10413">
        <ele>1083</ele>
        <time>2015-07-22T09:11:40.000Z</time>
      </trkpt>
      <trkpt lat="46.57711" lon="6.10448">
        <ele>1083</ele>
        <time>2015-07-22T09:11:47.000Z</time>
      </trkpt>
      <trkpt lat="46.57741" lon="6.10494">
        <ele>1083</ele>
        <time>2015-07-22T09:11:55.000Z</time>
      </trkpt>
      <trkpt lat="46.57772" lon="6.10538">
        <ele>1083</ele>
        <time>2015-07-22T09:12:02.000Z</time>
      </trkpt>
      <trkpt lat="46.57776" lon="6.10545">
        <ele>1082.5999755859</ele>
        <time>2015-07-22T09:12:03.000Z</time>
      </trkpt>
      <trkpt lat="46.57783" lon="6.10553">
        <ele>1082</ele>
        <time>2015-07-22T09:12:04.000Z</time>
      </trkpt>
      <trkpt lat="46.57788" lon="6.1056">
        <ele>1081.5999755859</ele>
        <time>2015-07-22T09:12:05.000Z</time>
      </trkpt>
      <trkpt lat="46.57795" lon="6.10565">
        <ele>1081.1999511719</ele>
        <time>2015-07-22T09:12:06.000Z</time>
      </trkpt>
      <trkpt lat="46.57803" lon="6.10568">
        <ele>1080.5999755859</ele>
        <time>2015-07-22T09:12:07.000Z</time>
      </trkpt>
      <trkpt lat="46.57829" lon="6.10576">
        <ele>1080</ele>
        <time>2015-07-22T09:12:10.000Z</time>
      </trkpt>
      <trkpt lat="46.57838" lon="6.10577">
        <ele>1079.5999755859</ele>
        <time>2015-07-22T09:12:11.000Z</time>
      </trkpt>
      <trkpt lat="46.57846" lon="6.10577">
        <ele>1079</ele>
        <time>2015-07-22T09:12:12.000Z</time>
      </trkpt>
      <trkpt lat="46.57853" lon="6.10577">
        <ele>1078.4000244141</ele>
        <time>2015-07-22T09:12:13.000Z</time>
      </trkpt>
      <trkpt lat="46.5786" lon="6.10577">
        <ele>1077.5999755859</ele>
        <time>2015-07-22T09:12:14.000Z</time>
      </trkpt>
      <trkpt lat="46.57864" lon="6.10578">
        <ele>1077</ele>
        <time>2015-07-22T09:12:15.000Z</time>
      </trkpt>
      <trkpt lat="46.57865" lon="6.10577">
        <ele>1076.4000244141</ele>
        <time>2015-07-22T09:12:16.000Z</time>
      </trkpt>
      <trkpt lat="46.57868" lon="6.10575">
        <ele>1075.5999755859</ele>
        <time>2015-07-22T09:12:17.000Z</time>
      </trkpt>
      <trkpt lat="46.57871" lon="6.10573">
        <ele>1075.5999755859</ele>
        <time>2015-07-22T09:12:18.000Z</time>
      </trkpt>
      <trkpt lat="46.57896" lon="6.10561">
        <ele>1075.5999755859</ele>
        <time>2015-07-22T09:12:24.000Z</time>
      </trkpt>
      <trkpt lat="46.57909" lon="6.10554">
        <ele>1075.1999511719</ele>
        <time>2015-07-22T09:12:27.000Z</time>
      </trkpt>
      <trkpt lat="46.57914" lon="6.10553">
        <ele>1074.8000488281</ele>
        <time>2015-07-22T09:12:28.000Z</time>
      </trkpt>
      <trkpt lat="46.57919" lon="6.10552">
        <ele>1074.4000244141</ele>
        <time>2015-07-22T09:12:29.000Z</time>
      </trkpt>
      <trkpt lat="46.57925" lon="6.10551">
        <ele>1073.8000488281</ele>
        <time>2015-07-22T09:12:30.000Z</time>
      </trkpt>
      <trkpt lat="46.57931" lon="6.10552">
        <ele>1073.4000244141</ele>
        <time>2015-07-22T09:12:31.000Z</time>
      </trkpt>
      <trkpt lat="46.57963" lon="6.10548">
        <ele>1073</ele>
        <time>2015-07-22T09:12:36.000Z</time>
      </trkpt>
      <trkpt lat="46.57971" lon="6.10549">
        <ele>1072.5999755859</ele>
        <time>2015-07-22T09:12:37.000Z</time>
      </trkpt>
      <trkpt lat="46.5798" lon="6.1055">
        <ele>1072.1999511719</ele>
        <time>2015-07-22T09:12:38.000Z</time>
      </trkpt>
      <trkpt lat="46.57988" lon="6.10551">
        <ele>1071.8000488281</ele>
        <time>2015-07-22T09:12:39.000Z</time>
      </trkpt>
      <trkpt lat="46.57997" lon="6.10551">
        <ele>1071.1999511719</ele>
        <time>2015-07-22T09:12:40.000Z</time>
      </trkpt>
      <trkpt lat="46.58006" lon="6.10552">
        <ele>1070.8000488281</ele>
        <time>2015-07-22T09:12:41.000Z</time>
      </trkpt>
      <trkpt lat="46.58015" lon="6.10554">
        <ele>1070.1999511719</ele>
        <time>2015-07-22T09:12:42.000Z</time>
      </trkpt>
      <trkpt lat="46.58024" lon="6.10555">
        <ele>1069.8000488281</ele>
        <time>2015-07-22T09:12:43.000Z</time>
      </trkpt>
      <trkpt lat="46.58033" lon="6.10557">
        <ele>1069.1999511719</ele>
        <time>2015-07-22T09:12:44.000Z</time>
      </trkpt>
      <trkpt lat="46.58041" lon="6.1056">
        <ele>1068.8000488281</ele>
        <time>2015-07-22T09:12:45.000Z</time>
      </trkpt>
      <trkpt lat="46.58049" lon="6.10563">
        <ele>1068.4000244141</ele>
        <time>2015-07-22T09:12:46.000Z</time>
      </trkpt>
      <trkpt lat="46.58057" lon="6.10566">
        <ele>1068</ele>
        <time>2015-07-22T09:12:47.000Z</time>
      </trkpt>
      <trkpt lat="46.58064" lon="6.10573">
        <ele>1067.5999755859</ele>
        <time>2015-07-22T09:12:48.000Z</time>
      </trkpt>
      <trkpt lat="46.58071" lon="6.10579">
        <ele>1067</ele>
        <time>2015-07-22T09:12:49.000Z</time>
      </trkpt>
      <trkpt lat="46.58076" lon="6.10587">
        <ele>1067</ele>
        <time>2015-07-22T09:12:50.000Z</time>
      </trkpt>
      <trkpt lat="46.58088" lon="6.10601">
        <ele>1067</ele>
        <time>2015-07-22T09:12:52.000Z</time>
      </trkpt>
      <trkpt lat="46.58104" lon="6.1062">
        <ele>1067</ele>
        <time>2015-07-22T09:12:55.000Z</time>
      </trkpt>
      <trkpt lat="46.58121" lon="6.10637">
        <ele>1067</ele>
        <time>2015-07-22T09:12:59.000Z</time>
      </trkpt>
      <trkpt lat="46.58128" lon="6.10644">
        <ele>1067</ele>
        <time>2015-07-22T09:13:01.000Z</time>
      </trkpt>
      <trkpt lat="46.58145" lon="6.10666">
        <ele>1067.5999755859</ele>
        <time>2015-07-22T09:13:07.000Z</time>
      </trkpt>
      <trkpt lat="46.58147" lon="6.1067">
        <ele>1068</ele>
        <time>2015-07-22T09:13:08.000Z</time>
      </trkpt>
      <trkpt lat="46.58153" lon="6.10677">
        <ele>1068.8000488281</ele>
        <time>2015-07-22T09:13:10.000Z</time>
      </trkpt>
      <trkpt lat="46.58156" lon="6.1068">
        <ele>1069.1999511719</ele>
        <time>2015-07-22T09:13:11.000Z</time>
      </trkpt>
      <trkpt lat="46.58167" lon="6.10693">
        <ele>1069.5999755859</ele>
        <time>2015-07-22T09:13:15.000Z</time>
      </trkpt>
      <trkpt lat="46.5817" lon="6.10696">
        <ele>1070</ele>
        <time>2015-07-22T09:13:16.000Z</time>
      </trkpt>
      <trkpt lat="46.58173" lon="6.10699">
        <ele>1070.4000244141</ele>
        <time>2015-07-22T09:13:17.000Z</time>
      </trkpt>
      <trkpt lat="46.58176" lon="6.10702">
        <ele>1070.8000488281</ele>
        <time>2015-07-22T09:13:18.000Z</time>
      </trkpt>
      <trkpt lat="46.58178" lon="6.10705">
        <ele>1071.1999511719</ele>
        <time>2015-07-22T09:13:19.000Z</time>
      </trkpt>
      <trkpt lat="46.58202" lon="6.10725">
        <ele>1071.1999511719</ele>
        <time>2015-07-22T09:13:26.000Z</time>
      </trkpt>
      <trkpt lat="46.58233" lon="6.10747">
        <ele>1071.1999511719</ele>
        <time>2015-07-22T09:13:32.000Z</time>
      </trkpt>
      <trkpt lat="46.58244" lon="6.10752">
        <ele>1071.1999511719</ele>
        <time>2015-07-22T09:13:34.000Z</time>
      </trkpt>
      <trkpt lat="46.58257" lon="6.10753">
        <ele>1071.1999511719</ele>
        <time>2015-07-22T09:13:36.000Z</time>
      </trkpt>
      <trkpt lat="46.58264" lon="6.10752">
        <ele>1071.1999511719</ele>
        <time>2015-07-22T09:13:37.000Z</time>
      </trkpt>
      <trkpt lat="46.58284" lon="6.10745">
        <ele>1071.1999511719</ele>
        <time>2015-07-22T09:13:40.000Z</time>
      </trkpt>
      <trkpt lat="46.58329" lon="6.10721">
        <ele>1071.1999511719</ele>
        <time>2015-07-22T09:13:47.000Z</time>
      </trkpt>
      <trkpt lat="46.58345" lon="6.10709">
        <ele>1070.8000488281</ele>
        <time>2015-07-22T09:13:50.000Z</time>
      </trkpt>
      <trkpt lat="46.5835" lon="6.10705">
        <ele>1070.1999511719</ele>
        <time>2015-07-22T09:13:51.000Z</time>
      </trkpt>
      <trkpt lat="46.58354" lon="6.107">
        <ele>1069.8000488281</ele>
        <time>2015-07-22T09:13:52.000Z</time>
      </trkpt>
      <trkpt lat="46.58358" lon="6.10696">
        <ele>1069.4000244141</ele>
        <time>2015-07-22T09:13:53.000Z</time>
      </trkpt>
      <trkpt lat="46.58363" lon="6.10691">
        <ele>1068.8000488281</ele>
        <time>2015-07-22T09:13:54.000Z</time>
      </trkpt>
      <trkpt lat="46.58384" lon="6.10661">
        <ele>1068.8000488281</ele>
        <time>2015-07-22T09:14:00.000Z</time>
      </trkpt>
      <trkpt lat="46.5839" lon="6.10644">
        <ele>1068.8000488281</ele>
        <time>2015-07-22T09:14:03.000Z</time>
      </trkpt>
      <trkpt lat="46.58396" lon="6.10625">
        <ele>1068.8000488281</ele>
        <time>2015-07-22T09:14:06.000Z</time>
      </trkpt>
      <trkpt lat="46.58407" lon="6.10574">
        <ele>1068.8000488281</ele>
        <time>2015-07-22T09:14:13.000Z</time>
      </trkpt>
      <trkpt lat="46.58416" lon="6.10524">
        <ele>1068.8000488281</ele>
        <time>2015-07-22T09:14:19.000Z</time>
      </trkpt>
      <trkpt lat="46.5842" lon="6.10467">
        <ele>1068.8000488281</ele>
        <time>2015-07-22T09:14:26.000Z</time>
      </trkpt>
      <trkpt lat="46.58427" lon="6.10433">
        <ele>1068.8000488281</ele>
        <time>2015-07-22T09:14:30.000Z</time>
      </trkpt>
      <trkpt lat="46.58431" lon="6.10417">
        <ele>1068.8000488281</ele>
        <time>2015-07-22T09:14:32.000Z</time>
      </trkpt>
      <trkpt lat="46.58434" lon="6.1041">
        <ele>1068.4000244141</ele>
        <time>2015-07-22T09:14:33.000Z</time>
      </trkpt>
      <trkpt lat="46.58437" lon="6.10405">
        <ele>1068</ele>
        <time>2015-07-22T09:14:34.000Z</time>
      </trkpt>
      <trkpt lat="46.58441" lon="6.104">
        <ele>1067.5999755859</ele>
        <time>2015-07-22T09:14:35.000Z</time>
      </trkpt>
      <trkpt lat="46.58446" lon="6.10396">
        <ele>1067.1999511719</ele>
        <time>2015-07-22T09:14:36.000Z</time>
      </trkpt>
      <trkpt lat="46.5845" lon="6.10392">
        <ele>1066.8000488281</ele>
        <time>2015-07-22T09:14:37.000Z</time>
      </trkpt>
      <trkpt lat="46.58459" lon="6.10387">
        <ele>1066.8000488281</ele>
        <time>2015-07-22T09:14:39.000Z</time>
      </trkpt>
      <trkpt lat="46.58474" lon="6.10379">
        <ele>1066.8000488281</ele>
        <time>2015-07-22T09:14:42.000Z</time>
      </trkpt>
      <trkpt lat="46.585" lon="6.10361">
        <ele>1066.8000488281</ele>
        <time>2015-07-22T09:14:47.000Z</time>
      </trkpt>
      <trkpt lat="46.5851" lon="6.1035">
        <ele>1066.8000488281</ele>
        <time>2015-07-22T09:14:49.000Z</time>
      </trkpt>
      <trkpt lat="46.58525" lon="6.10328">
        <ele>1066.8000488281</ele>
        <time>2015-07-22T09:14:52.000Z</time>
      </trkpt>
      <trkpt lat="46.58535" lon="6.10312">
        <ele>1066.4000244141</ele>
        <time>2015-07-22T09:14:54.000Z</time>
      </trkpt>
      <trkpt lat="46.5854" lon="6.10303">
        <ele>1066</ele>
        <time>2015-07-22T09:14:55.000Z</time>
      </trkpt>
      <trkpt lat="46.58545" lon="6.10295">
        <ele>1065.4000244141</ele>
        <time>2015-07-22T09:14:56.000Z</time>
      </trkpt>
      <trkpt lat="46.5855" lon="6.10285">
        <ele>1065</ele>
        <time>2015-07-22T09:14:57.000Z</time>
      </trkpt>
      <trkpt lat="46.58555" lon="6.10276">
        <ele>1064.4000244141</ele>
        <time>2015-07-22T09:14:58.000Z</time>
      </trkpt>
      <trkpt lat="46.58561" lon="6.10266">
        <ele>1064</ele>
        <time>2015-07-22T09:14:59.000Z</time>
      </trkpt>
      <trkpt lat="46.58566" lon="6.10257">
        <ele>1063.4000244141</ele>
        <time>2015-07-22T09:15:00.000Z</time>
      </trkpt>
      <trkpt lat="46.58572" lon="6.10247">
        <ele>1063</ele>
        <time>2015-07-22T09:15:01.000Z</time>
      </trkpt>
      <trkpt lat="46.58577" lon="6.10237">
        <ele>1062.4000244141</ele>
        <time>2015-07-22T09:15:02.000Z</time>
      </trkpt>
      <trkpt lat="46.58593" lon="6.10208">
        <ele>1062</ele>
        <time>2015-07-22T09:15:05.000Z</time>
      </trkpt>
      <trkpt lat="46.58598" lon="6.10198">
        <ele>1061.4000244141</ele>
        <time>2015-07-22T09:15:06.000Z</time>
      </trkpt>
      <trkpt lat="46.58604" lon="6.10188">
        <ele>1061</ele>
        <time>2015-07-22T09:15:07.000Z</time>
      </trkpt>
      <trkpt lat="46.58608" lon="6.10179">
        <ele>1060.5999755859</ele>
        <time>2015-07-22T09:15:08.000Z</time>
      </trkpt>
      <trkpt lat="46.58613" lon="6.10171">
        <ele>1060.1999511719</ele>
        <time>2015-07-22T09:15:09.000Z</time>
      </trkpt>
      <trkpt lat="46.58621" lon="6.10165">
        <ele>1059.5999755859</ele>
        <time>2015-07-22T09:15:11.000Z</time>
      </trkpt>
      <trkpt lat="46.58626" lon="6.10167">
        <ele>1059.1999511719</ele>
        <time>2015-07-22T09:15:12.000Z</time>
      </trkpt>
      <trkpt lat="46.5863" lon="6.10172">
        <ele>1058.5999755859</ele>
        <time>2015-07-22T09:15:13.000Z</time>
      </trkpt>
      <trkpt lat="46.58633" lon="6.1018">
        <ele>1058</ele>
        <time>2015-07-22T09:15:14.000Z</time>
      </trkpt>
      <trkpt lat="46.58635" lon="6.10188">
        <ele>1057.5999755859</ele>
        <time>2015-07-22T09:15:15.000Z</time>
      </trkpt>
      <trkpt lat="46.58637" lon="6.10196">
        <ele>1057.5999755859</ele>
        <time>2015-07-22T09:15:16.000Z</time>
      </trkpt>
      <trkpt lat="46.58642" lon="6.10211">
        <ele>1057.5999755859</ele>
        <time>2015-07-22T09:15:18.000Z</time>
      </trkpt>
      <trkpt lat="46.58645" lon="6.10218">
        <ele>1057.5999755859</ele>
        <time>2015-07-22T09:15:19.000Z</time>
      </trkpt>
      <trkpt lat="46.58661" lon="6.10247">
        <ele>1057.5999755859</ele>
        <time>2015-07-22T09:15:23.000Z</time>
      </trkpt>
      <trkpt lat="46.58669" lon="6.10259">
        <ele>1057.1999511719</ele>
        <time>2015-07-22T09:15:25.000Z</time>
      </trkpt>
      <trkpt lat="46.58674" lon="6.10264">
        <ele>1056.8000488281</ele>
        <time>2015-07-22T09:15:26.000Z</time>
      </trkpt>
      <trkpt lat="46.58679" lon="6.1027">
        <ele>1056.4000244141</ele>
        <time>2015-07-22T09:15:27.000Z</time>
      </trkpt>
      <trkpt lat="46.58684" lon="6.10275">
        <ele>1056</ele>
        <time>2015-07-22T09:15:28.000Z</time>
      </trkpt>
      <trkpt lat="46.5869" lon="6.10279">
        <ele>1055.5999755859</ele>
        <time>2015-07-22T09:15:29.000Z</time>
      </trkpt>
      <trkpt lat="46.58716" lon="6.10302">
        <ele>1055.1999511719</ele>
        <time>2015-07-22T09:15:34.000Z</time>
      </trkpt>
      <trkpt lat="46.5872" lon="6.10305">
        <ele>1054.5999755859</ele>
        <time>2015-07-22T09:15:35.000Z</time>
      </trkpt>
      <trkpt lat="46.58722" lon="6.10307">
        <ele>1054.1999511719</ele>
        <time>2015-07-22T09:15:36.000Z</time>
      </trkpt>
      <trkpt lat="46.58724" lon="6.10309">
        <ele>1053.8000488281</ele>
        <time>2015-07-22T09:15:37.000Z</time>
      </trkpt>
      <trkpt lat="46.58725" lon="6.1031">
        <ele>1053.4000244141</ele>
        <time>2015-07-22T09:15:38.000Z</time>
      </trkpt>
      <trkpt lat="46.58725" lon="6.10309">
        <ele>1053.4000244141</ele>
        <time>2015-07-22T09:15:44.000Z</time>
      </trkpt>
      <trkpt lat="46.58725" lon="6.10309">
        <ele>1053.4000244141</ele>
        <time>2015-07-22T09:16:26.000Z</time>
      </trkpt>
      <trkpt lat="46.58725" lon="6.10309">
        <ele>1053</ele>
        <time>2015-07-22T09:16:32.000Z</time>
      </trkpt>
      <trkpt lat="46.58725" lon="6.10309">
        <ele>1052.5999755859</ele>
        <time>2015-07-22T09:16:33.000Z</time>
      </trkpt>
      <trkpt lat="46.58725" lon="6.10309">
        <ele>1052.1999511719</ele>
        <time>2015-07-22T09:16:34.000Z</time>
      </trkpt>
      <trkpt lat="46.58725" lon="6.10309">
        <ele>1051.5999755859</ele>
        <time>2015-07-22T09:16:35.000Z</time>
      </trkpt>
      <trkpt lat="46.58725" lon="6.10309">
        <ele>1051.1999511719</ele>
        <time>2015-07-22T09:16:36.000Z</time>
      </trkpt>
      <trkpt lat="46.58726" lon="6.1031">
        <ele>1051.1999511719</ele>
        <time>2015-07-22T09:16:56.000Z</time>
      </trkpt>
      <trkpt lat="46.58728" lon="6.10312">
        <ele>1051.1999511719</ele>
        <time>2015-07-22T09:16:58.000Z</time>
      </trkpt>
      <trkpt lat="46.58743" lon="6.10327">
        <ele>1051.1999511719</ele>
        <time>2015-07-22T09:17:06.000Z</time>
      </trkpt>
      <trkpt lat="46.58762" lon="6.10344">
        <ele>1051.1999511719</ele>
        <time>2015-07-22T09:17:11.000Z</time>
      </trkpt>
      <trkpt lat="46.58767" lon="6.10348">
        <ele>1051.1999511719</ele>
        <time>2015-07-22T09:17:12.000Z</time>
      </trkpt>
      <trkpt lat="46.58778" lon="6.10356">
        <ele>1050.8000488281</ele>
        <time>2015-07-22T09:17:14.000Z</time>
      </trkpt>
      <trkpt lat="46.58784" lon="6.10361">
        <ele>1050.4000244141</ele>
        <time>2015-07-22T09:17:15.000Z</time>
      </trkpt>
      <trkpt lat="46.5879" lon="6.10367">
        <ele>1050</ele>
        <time>2015-07-22T09:17:16.000Z</time>
      </trkpt>
      <trkpt lat="46.58797" lon="6.10372">
        <ele>1049.5999755859</ele>
        <time>2015-07-22T09:17:17.000Z</time>
      </trkpt>
      <trkpt lat="46.58804" lon="6.10377">
        <ele>1049.1999511719</ele>
        <time>2015-07-22T09:17:18.000Z</time>
      </trkpt>
      <trkpt lat="46.58812" lon="6.10381">
        <ele>1048.8000488281</ele>
        <time>2015-07-22T09:17:19.000Z</time>
      </trkpt>
      <trkpt lat="46.5882" lon="6.10385">
        <ele>1048.1999511719</ele>
        <time>2015-07-22T09:17:20.000Z</time>
      </trkpt>
      <trkpt lat="46.58828" lon="6.10388">
        <ele>1047.8000488281</ele>
        <time>2015-07-22T09:17:21.000Z</time>
      </trkpt>
      <trkpt lat="46.58836" lon="6.10391">
        <ele>1047.4000244141</ele>
        <time>2015-07-22T09:17:22.000Z</time>
      </trkpt>
      <trkpt lat="46.58844" lon="6.10394">
        <ele>1047</ele>
        <time>2015-07-22T09:17:23.000Z</time>
      </trkpt>
      <trkpt lat="46.58861" lon="6.104">
        <ele>1047</ele>
        <time>2015-07-22T09:17:25.000Z</time>
      </trkpt>
      <trkpt lat="46.58903" lon="6.10414">
        <ele>1047</ele>
        <time>2015-07-22T09:17:31.000Z</time>
      </trkpt>
      <trkpt lat="46.58945" lon="6.10435">
        <ele>1047</ele>
        <time>2015-07-22T09:17:38.000Z</time>
      </trkpt>
      <trkpt lat="46.5895" lon="6.10439">
        <ele>1046.4000244141</ele>
        <time>2015-07-22T09:17:39.000Z</time>
      </trkpt>
      <trkpt lat="46.58954" lon="6.10441">
        <ele>1046</ele>
        <time>2015-07-22T09:17:40.000Z</time>
      </trkpt>
      <trkpt lat="46.58957" lon="6.10442">
        <ele>1045.5999755859</ele>
        <time>2015-07-22T09:17:41.000Z</time>
      </trkpt>
      <trkpt lat="46.58959" lon="6.10443">
        <ele>1045.1999511719</ele>
        <time>2015-07-22T09:17:42.000Z</time>
      </trkpt>
      <trkpt lat="46.5896" lon="6.10443">
        <ele>1044.8000488281</ele>
        <time>2015-07-22T09:17:43.000Z</time>
      </trkpt>
      <trkpt lat="46.58962" lon="6.10443">
        <ele>1044.8000488281</ele>
        <time>2015-07-22T09:17:44.000Z</time>
      </trkpt>
      <trkpt lat="46.58964" lon="6.10437">
        <ele>1044.8000488281</ele>
        <time>2015-07-22T09:17:46.000Z</time>
      </trkpt>
      <trkpt lat="46.58967" lon="6.10426">
        <ele>1044.8000488281</ele>
        <time>2015-07-22T09:17:51.000Z</time>
      </trkpt>
      <trkpt lat="46.58977" lon="6.10402">
        <ele>1044.8000488281</ele>
        <time>2015-07-22T09:17:58.000Z</time>
      </trkpt>
      <trkpt lat="46.58976" lon="6.10398">
        <ele>1044.8000488281</ele>
        <time>2015-07-22T09:18:02.000Z</time>
      </trkpt>
      <trkpt lat="46.58972" lon="6.10412">
        <ele>1044.8000488281</ele>
        <time>2015-07-22T09:18:08.000Z</time>
      </trkpt>
      <trkpt lat="46.58967" lon="6.10412">
        <ele>1044.8000488281</ele>
        <time>2015-07-22T09:18:11.000Z</time>
      </trkpt>
      <trkpt lat="46.58966" lon="6.1041">
        <ele>1044.8000488281</ele>
        <time>2015-07-22T09:18:12.000Z</time>
      </trkpt>
      <trkpt lat="46.58972" lon="6.10406">
        <ele>1044.8000488281</ele>
        <time>2015-07-22T09:18:15.000Z</time>
      </trkpt>
      <trkpt lat="46.58973" lon="6.10407">
        <ele>1044.8000488281</ele>
        <time>2015-07-22T09:18:16.000Z</time>
      </trkpt>
      <trkpt lat="46.58974" lon="6.10408">
        <ele>1044.8000488281</ele>
        <time>2015-07-22T09:18:21.000Z</time>
      </trkpt>
      <trkpt lat="46.58975" lon="6.10404">
        <ele>1044.8000488281</ele>
        <time>2015-07-22T09:19:12.000Z</time>
      </trkpt>
      <trkpt lat="46.58976" lon="6.104">
        <ele>1044.8000488281</ele>
        <time>2015-07-22T09:19:13.000Z</time>
      </trkpt>
      <trkpt lat="46.58975" lon="6.10389">
        <ele>1044.8000488281</ele>
        <time>2015-07-22T09:19:16.000Z</time>
      </trkpt>
      <trkpt lat="46.58972" lon="6.10386">
        <ele>1044.8000488281</ele>
        <time>2015-07-22T09:19:17.000Z</time>
      </trkpt>
      <trkpt lat="46.58956" lon="6.1037">
        <ele>1044.8000488281</ele>
        <time>2015-07-22T09:19:24.000Z</time>
      </trkpt>
      <trkpt lat="46.58942" lon="6.10354">
        <ele>1044.8000488281</ele>
        <time>2015-07-22T09:19:30.000Z</time>
      </trkpt>
      <trkpt lat="46.5894" lon="6.10352">
        <ele>1045.1999511719</ele>
        <time>2015-07-22T09:19:33.000Z</time>
      </trkpt>
      <trkpt lat="46.5894" lon="6.10351">
        <ele>1045.5999755859</ele>
        <time>2015-07-22T09:19:34.000Z</time>
      </trkpt>
      <trkpt lat="46.5894" lon="6.10351">
        <ele>1046</ele>
        <time>2015-07-22T09:19:35.000Z</time>
      </trkpt>
      <trkpt lat="46.5894" lon="6.10351">
        <ele>1046.4000244141</ele>
        <time>2015-07-22T09:19:36.000Z</time>
      </trkpt>
      <trkpt lat="46.5894" lon="6.10351">
        <ele>1047</ele>
        <time>2015-07-22T09:19:37.000Z</time>
      </trkpt>
      <trkpt lat="46.58942" lon="6.10347">
        <ele>1047</ele>
        <time>2015-07-22T09:19:48.000Z</time>
      </trkpt>
      <trkpt lat="46.58943" lon="6.10343">
        <ele>1047</ele>
        <time>2015-07-22T09:19:49.000Z</time>
      </trkpt>
      <trkpt lat="46.5895" lon="6.10326">
        <ele>1047</ele>
        <time>2015-07-22T09:19:53.000Z</time>
      </trkpt>
      <trkpt lat="46.58959" lon="6.10297">
        <ele>1047</ele>
        <time>2015-07-22T09:20:00.000Z</time>
      </trkpt>
      <trkpt lat="46.58966" lon="6.10273">
        <ele>1047</ele>
        <time>2015-07-22T09:20:07.000Z</time>
      </trkpt>
      <trkpt lat="46.58976" lon="6.10247">
        <ele>1047</ele>
        <time>2015-07-22T09:20:14.000Z</time>
      </trkpt>
      <trkpt lat="46.58978" lon="6.10243">
        <ele>1047.8000488281</ele>
        <time>2015-07-22T09:20:15.000Z</time>
      </trkpt>
      <trkpt lat="46.5898" lon="6.10237">
        <ele>1048.8000488281</ele>
        <time>2015-07-22T09:20:17.000Z</time>
      </trkpt>
      <trkpt lat="46.58982" lon="6.1023">
        <ele>1049.1999511719</ele>
        <time>2015-07-22T09:20:19.000Z</time>
      </trkpt>
      <trkpt lat="46.58988" lon="6.10207">
        <ele>1049.1999511719</ele>
        <time>2015-07-22T09:20:27.000Z</time>
      </trkpt>
      <trkpt lat="46.58989" lon="6.10205">
        <ele>1049.1999511719</ele>
        <time>2015-07-22T09:20:32.000Z</time>
      </trkpt>
      <trkpt lat="46.58993" lon="6.10206">
        <ele>1049.1999511719</ele>
        <time>2015-07-22T09:20:55.000Z</time>
      </trkpt>
      <trkpt lat="46.58999" lon="6.10207">
        <ele>1049.1999511719</ele>
        <time>2015-07-22T09:20:56.000Z</time>
      </trkpt>
      <trkpt lat="46.59006" lon="6.10206">
        <ele>1049.1999511719</ele>
        <time>2015-07-22T09:20:58.000Z</time>
      </trkpt>
      <trkpt lat="46.59013" lon="6.10203">
        <ele>1049.1999511719</ele>
        <time>2015-07-22T09:21:00.000Z</time>
      </trkpt>
      <trkpt lat="46.59028" lon="6.10197">
        <ele>1049.1999511719</ele>
        <time>2015-07-22T09:21:08.000Z</time>
      </trkpt>
      <trkpt lat="46.5904" lon="6.1019">
        <ele>1049.1999511719</ele>
        <time>2015-07-22T09:21:13.000Z</time>
      </trkpt>
      <trkpt lat="46.59053" lon="6.10185">
        <ele>1049.1999511719</ele>
        <time>2015-07-22T09:21:18.000Z</time>
      </trkpt>
      <trkpt lat="46.5906" lon="6.10178">
        <ele>1049.1999511719</ele>
        <time>2015-07-22T09:21:22.000Z</time>
      </trkpt>
      <trkpt lat="46.59067" lon="6.10173">
        <ele>1048</ele>
        <time>2015-07-22T09:21:25.000Z</time>
      </trkpt>
      <trkpt lat="46.59074" lon="6.10168">
        <ele>1047.1999511719</ele>
        <time>2015-07-22T09:21:27.000Z</time>
      </trkpt>
      <trkpt lat="46.59085" lon="6.10157">
        <ele>1047.1999511719</ele>
        <time>2015-07-22T09:21:30.000Z</time>
      </trkpt>
      <trkpt lat="46.59104" lon="6.10122">
        <ele>1047.1999511719</ele>
        <time>2015-07-22T09:21:39.000Z</time>
      </trkpt>
      <trkpt lat="46.59118" lon="6.10096">
        <ele>1047.1999511719</ele>
        <time>2015-07-22T09:21:45.000Z</time>
      </trkpt>
      <trkpt lat="46.59124" lon="6.10075">
        <ele>1047.1999511719</ele>
        <time>2015-07-22T09:21:49.000Z</time>
      </trkpt>
      <trkpt lat="46.59129" lon="6.10064">
        <ele>1046.1999511719</ele>
        <time>2015-07-22T09:21:51.000Z</time>
      </trkpt>
      <trkpt lat="46.59134" lon="6.10053">
        <ele>1045.1999511719</ele>
        <time>2015-07-22T09:21:53.000Z</time>
      </trkpt>
      <trkpt lat="46.59137" lon="6.10039">
        <ele>1044.8000488281</ele>
        <time>2015-07-22T09:21:55.000Z</time>
      </trkpt>
      <trkpt lat="46.59137" lon="6.10032">
        <ele>1044.8000488281</ele>
        <time>2015-07-22T09:21:56.000Z</time>
      </trkpt>
      <trkpt lat="46.59137" lon="6.10017">
        <ele>1044.8000488281</ele>
        <time>2015-07-22T09:21:59.000Z</time>
      </trkpt>
      <trkpt lat="46.59137" lon="6.09994">
        <ele>1044.8000488281</ele>
        <time>2015-07-22T09:22:05.000Z</time>
      </trkpt>
      <trkpt lat="46.59133" lon="6.09978">
        <ele>1044.8000488281</ele>
        <time>2015-07-22T09:22:11.000Z</time>
      </trkpt>
      <trkpt lat="46.59127" lon="6.09958">
        <ele>1044.8000488281</ele>
        <time>2015-07-22T09:22:19.000Z</time>
      </trkpt>
      <trkpt lat="46.59124" lon="6.09926">
        <ele>1044.8000488281</ele>
        <time>2015-07-22T09:22:28.000Z</time>
      </trkpt>
      <trkpt lat="46.59117" lon="6.09893">
        <ele>1044.8000488281</ele>
        <time>2015-07-22T09:22:34.000Z</time>
      </trkpt>
      <trkpt lat="46.5912" lon="6.09871">
        <ele>1044.8000488281</ele>
        <time>2015-07-22T09:22:38.000Z</time>
      </trkpt>
      <trkpt lat="46.59122" lon="6.09862">
        <ele>1044.8000488281</ele>
        <time>2015-07-22T09:22:41.000Z</time>
      </trkpt>
      <trkpt lat="46.59123" lon="6.0986">
        <ele>1044.8000488281</ele>
        <time>2015-07-22T09:22:45.000Z</time>
      </trkpt>
      <trkpt lat="46.59123" lon="6.0986">
        <ele>1044.1999511719</ele>
        <time>2015-07-22T09:22:52.000Z</time>
      </trkpt>
      <trkpt lat="46.59123" lon="6.09859">
        <ele>1043.1999511719</ele>
        <time>2015-07-22T09:22:54.000Z</time>
      </trkpt>
      <trkpt lat="46.59125" lon="6.09856">
        <ele>1043.1999511719</ele>
        <time>2015-07-22T09:22:55.000Z</time>
      </trkpt>
      <trkpt lat="46.59126" lon="6.09852">
        <ele>1042.8000488281</ele>
        <time>2015-07-22T09:22:56.000Z</time>
      </trkpt>
      <trkpt lat="46.59128" lon="6.09849">
        <ele>1042.8000488281</ele>
        <time>2015-07-22T09:22:57.000Z</time>
      </trkpt>
      <trkpt lat="46.59129" lon="6.09846">
        <ele>1042.4000244141</ele>
        <time>2015-07-22T09:22:58.000Z</time>
      </trkpt>
      <trkpt lat="46.59135" lon="6.09821">
        <ele>1042.4000244141</ele>
        <time>2015-07-22T09:23:04.000Z</time>
      </trkpt>
      <trkpt lat="46.59148" lon="6.09794">
        <ele>1042.4000244141</ele>
        <time>2015-07-22T09:23:10.000Z</time>
      </trkpt>
      <trkpt lat="46.59153" lon="6.09783">
        <ele>1041.4000244141</ele>
        <time>2015-07-22T09:23:12.000Z</time>
      </trkpt>
      <trkpt lat="46.59159" lon="6.09773">
        <ele>1041</ele>
        <time>2015-07-22T09:23:14.000Z</time>
      </trkpt>
      <trkpt lat="46.59162" lon="6.09765">
        <ele>1041</ele>
        <time>2015-07-22T09:23:15.000Z</time>
      </trkpt>
      <trkpt lat="46.59166" lon="6.09757">
        <ele>1039.8000488281</ele>
        <time>2015-07-22T09:23:16.000Z</time>
      </trkpt>
      <trkpt lat="46.59177" lon="6.09742">
        <ele>1038.5999755859</ele>
        <time>2015-07-22T09:23:18.000Z</time>
      </trkpt>
      <trkpt lat="46.59183" lon="6.0973">
        <ele>1037.1999511719</ele>
        <time>2015-07-22T09:23:20.000Z</time>
      </trkpt>
      <trkpt lat="46.59189" lon="6.09721">
        <ele>1037.1999511719</ele>
        <time>2015-07-22T09:23:22.000Z</time>
      </trkpt>
      <trkpt lat="46.59196" lon="6.09706">
        <ele>1037.1999511719</ele>
        <time>2015-07-22T09:23:25.000Z</time>
      </trkpt>
      <trkpt lat="46.59199" lon="6.09701">
        <ele>1036.1999511719</ele>
        <time>2015-07-22T09:23:26.000Z</time>
      </trkpt>
      <trkpt lat="46.59204" lon="6.09692">
        <ele>1035.5999755859</ele>
        <time>2015-07-22T09:23:28.000Z</time>
      </trkpt>
      <trkpt lat="46.59209" lon="6.09685">
        <ele>1034.5999755859</ele>
        <time>2015-07-22T09:23:30.000Z</time>
      </trkpt>
      <trkpt lat="46.59216" lon="6.09677">
        <ele>1034.5999755859</ele>
        <time>2015-07-22T09:23:32.000Z</time>
      </trkpt>
      <trkpt lat="46.59235" lon="6.09655">
        <ele>1034.5999755859</ele>
        <time>2015-07-22T09:23:38.000Z</time>
      </trkpt>
      <trkpt lat="46.5925" lon="6.0963">
        <ele>1034.1999511719</ele>
        <time>2015-07-22T09:23:44.000Z</time>
      </trkpt>
      <trkpt lat="46.59256" lon="6.09623">
        <ele>1033.1999511719</ele>
        <time>2015-07-22T09:23:46.000Z</time>
      </trkpt>
      <trkpt lat="46.5926" lon="6.09615">
        <ele>1032.4000244141</ele>
        <time>2015-07-22T09:23:48.000Z</time>
      </trkpt>
      <trkpt lat="46.59266" lon="6.09603">
        <ele>1032.4000244141</ele>
        <time>2015-07-22T09:23:51.000Z</time>
      </trkpt>
      <trkpt lat="46.59283" lon="6.09579">
        <ele>1032</ele>
        <time>2015-07-22T09:23:56.000Z</time>
      </trkpt>
      <trkpt lat="46.59288" lon="6.09573">
        <ele>1031.5999755859</ele>
        <time>2015-07-22T09:23:58.000Z</time>
      </trkpt>
      <trkpt lat="46.59289" lon="6.0957">
        <ele>1031.5999755859</ele>
        <time>2015-07-22T09:23:59.000Z</time>
      </trkpt>
      <trkpt lat="46.5929" lon="6.09567">
        <ele>1030.8000488281</ele>
        <time>2015-07-22T09:24:00.000Z</time>
      </trkpt>
      <trkpt lat="46.59293" lon="6.09559">
        <ele>1030.4000244141</ele>
        <time>2015-07-22T09:24:02.000Z</time>
      </trkpt>
      <trkpt lat="46.59298" lon="6.09541">
        <ele>1030.4000244141</ele>
        <time>2015-07-22T09:24:05.000Z</time>
      </trkpt>
      <trkpt lat="46.59307" lon="6.09504">
        <ele>1030.4000244141</ele>
        <time>2015-07-22T09:24:11.000Z</time>
      </trkpt>
      <trkpt lat="46.59315" lon="6.09461">
        <ele>1030.4000244141</ele>
        <time>2015-07-22T09:24:18.000Z</time>
      </trkpt>
      <trkpt lat="46.59325" lon="6.09414">
        <ele>1030.4000244141</ele>
        <time>2015-07-22T09:24:26.000Z</time>
      </trkpt>
      <trkpt lat="46.59329" lon="6.09393">
        <ele>1030</ele>
        <time>2015-07-22T09:24:29.000Z</time>
      </trkpt>
      <trkpt lat="46.59332" lon="6.09378">
        <ele>1029.1999511719</ele>
        <time>2015-07-22T09:24:31.000Z</time>
      </trkpt>
      <trkpt lat="46.59333" lon="6.0937">
        <ele>1029.1999511719</ele>
        <time>2015-07-22T09:24:32.000Z</time>
      </trkpt>
      <trkpt lat="46.59334" lon="6.09363">
        <ele>1028.8000488281</ele>
        <time>2015-07-22T09:24:33.000Z</time>
      </trkpt>
      <trkpt lat="46.59337" lon="6.0935">
        <ele>1028.1999511719</ele>
        <time>2015-07-22T09:24:35.000Z</time>
      </trkpt>
      <trkpt lat="46.5934" lon="6.09326">
        <ele>1028.1999511719</ele>
        <time>2015-07-22T09:24:39.000Z</time>
      </trkpt>
      <trkpt lat="46.59347" lon="6.09281">
        <ele>1028.1999511719</ele>
        <time>2015-07-22T09:24:47.000Z</time>
      </trkpt>
      <trkpt lat="46.59357" lon="6.09255">
        <ele>1028.1999511719</ele>
        <time>2015-07-22T09:24:52.000Z</time>
      </trkpt>
      <trkpt lat="46.5936" lon="6.0925">
        <ele>1028.1999511719</ele>
        <time>2015-07-22T09:24:53.000Z</time>
      </trkpt>
      <trkpt lat="46.59367" lon="6.09238">
        <ele>1027.4000244141</ele>
        <time>2015-07-22T09:24:55.000Z</time>
      </trkpt>
      <trkpt lat="46.59373" lon="6.09225">
        <ele>1026.5999755859</ele>
        <time>2015-07-22T09:24:57.000Z</time>
      </trkpt>
      <trkpt lat="46.59377" lon="6.09211">
        <ele>1026.1999511719</ele>
        <time>2015-07-22T09:24:59.000Z</time>
      </trkpt>
      <trkpt lat="46.59379" lon="6.09204">
        <ele>1026.1999511719</ele>
        <time>2015-07-22T09:25:00.000Z</time>
      </trkpt>
      <trkpt lat="46.59394" lon="6.09164">
        <ele>1025.4000244141</ele>
        <time>2015-07-22T09:25:05.000Z</time>
      </trkpt>
      <trkpt lat="46.59397" lon="6.09154">
        <ele>1025.4000244141</ele>
        <time>2015-07-22T09:25:06.000Z</time>
      </trkpt>
      <trkpt lat="46.59401" lon="6.09144">
        <ele>1024.4000244141</ele>
        <time>2015-07-22T09:25:07.000Z</time>
      </trkpt>
      <trkpt lat="46.5941" lon="6.0914">
        <ele>1024.4000244141</ele>
        <time>2015-07-22T09:25:08.000Z</time>
      </trkpt>
      <trkpt lat="46.59419" lon="6.09138">
        <ele>1023.4000244141</ele>
        <time>2015-07-22T09:25:09.000Z</time>
      </trkpt>
      <trkpt lat="46.59437" lon="6.09143">
        <ele>1022.200012207</ele>
        <time>2015-07-22T09:25:11.000Z</time>
      </trkpt>
      <trkpt lat="46.59445" lon="6.09145">
        <ele>1022.200012207</ele>
        <time>2015-07-22T09:25:12.000Z</time>
      </trkpt>
      <trkpt lat="46.59453" lon="6.09146">
        <ele>1021.200012207</ele>
        <time>2015-07-22T09:25:13.000Z</time>
      </trkpt>
      <trkpt lat="46.5947" lon="6.09146">
        <ele>1020.200012207</ele>
        <time>2015-07-22T09:25:15.000Z</time>
      </trkpt>
      <trkpt lat="46.59487" lon="6.09144">
        <ele>1019</ele>
        <time>2015-07-22T09:25:17.000Z</time>
      </trkpt>
      <trkpt lat="46.59505" lon="6.09143">
        <ele>1018.5999755859</ele>
        <time>2015-07-22T09:25:19.000Z</time>
      </trkpt>
      <trkpt lat="46.59524" lon="6.0914">
        <ele>1017.5999755859</ele>
        <time>2015-07-22T09:25:21.000Z</time>
      </trkpt>
      <trkpt lat="46.59542" lon="6.09136">
        <ele>1016.5999755859</ele>
        <time>2015-07-22T09:25:23.000Z</time>
      </trkpt>
      <trkpt lat="46.59551" lon="6.09134">
        <ele>1016.5999755859</ele>
        <time>2015-07-22T09:25:24.000Z</time>
      </trkpt>
      <trkpt lat="46.59578" lon="6.09128">
        <ele>1015.799987793</ele>
        <time>2015-07-22T09:25:27.000Z</time>
      </trkpt>
      <trkpt lat="46.59595" lon="6.09124">
        <ele>1015.4000244141</ele>
        <time>2015-07-22T09:25:29.000Z</time>
      </trkpt>
      <trkpt lat="46.59611" lon="6.09118">
        <ele>1014.5999755859</ele>
        <time>2015-07-22T09:25:31.000Z</time>
      </trkpt>
      <trkpt lat="46.59619" lon="6.09116">
        <ele>1014.5999755859</ele>
        <time>2015-07-22T09:25:32.000Z</time>
      </trkpt>
      <trkpt lat="46.59627" lon="6.09114">
        <ele>1014.200012207</ele>
        <time>2015-07-22T09:25:33.000Z</time>
      </trkpt>
      <trkpt lat="46.59643" lon="6.09109">
        <ele>1013.4000244141</ele>
        <time>2015-07-22T09:25:35.000Z</time>
      </trkpt>
      <trkpt lat="46.59658" lon="6.09105">
        <ele>1012.4000244141</ele>
        <time>2015-07-22T09:25:37.000Z</time>
      </trkpt>
      <trkpt lat="46.59674" lon="6.09101">
        <ele>1012</ele>
        <time>2015-07-22T09:25:39.000Z</time>
      </trkpt>
      <trkpt lat="46.5969" lon="6.09098">
        <ele>1011.5999755859</ele>
        <time>2015-07-22T09:25:41.000Z</time>
      </trkpt>
      <trkpt lat="46.59698" lon="6.09095">
        <ele>1011.5999755859</ele>
        <time>2015-07-22T09:25:42.000Z</time>
      </trkpt>
      <trkpt lat="46.59705" lon="6.09093">
        <ele>1011.200012207</ele>
        <time>2015-07-22T09:25:43.000Z</time>
      </trkpt>
      <trkpt lat="46.5972" lon="6.09086">
        <ele>1010.4000244141</ele>
        <time>2015-07-22T09:25:45.000Z</time>
      </trkpt>
      <trkpt lat="46.59735" lon="6.09079">
        <ele>1009.799987793</ele>
        <time>2015-07-22T09:25:47.000Z</time>
      </trkpt>
      <trkpt lat="46.59749" lon="6.0907">
        <ele>1009.200012207</ele>
        <time>2015-07-22T09:25:49.000Z</time>
      </trkpt>
      <trkpt lat="46.59761" lon="6.0906">
        <ele>1008.5999755859</ele>
        <time>2015-07-22T09:25:51.000Z</time>
      </trkpt>
      <trkpt lat="46.59773" lon="6.0905">
        <ele>1007.799987793</ele>
        <time>2015-07-22T09:25:53.000Z</time>
      </trkpt>
      <trkpt lat="46.59783" lon="6.09041">
        <ele>1007.799987793</ele>
        <time>2015-07-22T09:25:55.000Z</time>
      </trkpt>
      <trkpt lat="46.59794" lon="6.09032">
        <ele>1007.4000244141</ele>
        <time>2015-07-22T09:25:57.000Z</time>
      </trkpt>
      <trkpt lat="46.59803" lon="6.09025">
        <ele>1007</ele>
        <time>2015-07-22T09:25:59.000Z</time>
      </trkpt>
      <trkpt lat="46.59813" lon="6.09019">
        <ele>1006.4000244141</ele>
        <time>2015-07-22T09:26:01.000Z</time>
      </trkpt>
      <trkpt lat="46.59819" lon="6.09016">
        <ele>1006.4000244141</ele>
        <time>2015-07-22T09:26:02.000Z</time>
      </trkpt>
      <trkpt lat="46.59823" lon="6.09014">
        <ele>1006</ele>
        <time>2015-07-22T09:26:03.000Z</time>
      </trkpt>
      <trkpt lat="46.59833" lon="6.09011">
        <ele>1005.5999755859</ele>
        <time>2015-07-22T09:26:05.000Z</time>
      </trkpt>
      <trkpt lat="46.59839" lon="6.09011">
        <ele>1005.5999755859</ele>
        <time>2015-07-22T09:26:06.000Z</time>
      </trkpt>
      <trkpt lat="46.59849" lon="6.09012">
        <ele>1005.5999755859</ele>
        <time>2015-07-22T09:26:08.000Z</time>
      </trkpt>
      <trkpt lat="46.59864" lon="6.09017">
        <ele>1005</ele>
        <time>2015-07-22T09:26:11.000Z</time>
      </trkpt>
      <trkpt lat="46.59869" lon="6.0902">
        <ele>1005</ele>
        <time>2015-07-22T09:26:12.000Z</time>
      </trkpt>
      <trkpt lat="46.59874" lon="6.09023">
        <ele>1004.4000244141</ele>
        <time>2015-07-22T09:26:13.000Z</time>
      </trkpt>
      <trkpt lat="46.59878" lon="6.09027">
        <ele>1004.4000244141</ele>
        <time>2015-07-22T09:26:14.000Z</time>
      </trkpt>
      <trkpt lat="46.59882" lon="6.0903">
        <ele>1003.799987793</ele>
        <time>2015-07-22T09:26:15.000Z</time>
      </trkpt>
      <trkpt lat="46.59891" lon="6.09037">
        <ele>1003.200012207</ele>
        <time>2015-07-22T09:26:17.000Z</time>
      </trkpt>
      <trkpt lat="46.599" lon="6.09044">
        <ele>1002.5999755859</ele>
        <time>2015-07-22T09:26:19.000Z</time>
      </trkpt>
      <trkpt lat="46.59908" lon="6.09051">
        <ele>1002.5999755859</ele>
        <time>2015-07-22T09:26:21.000Z</time>
      </trkpt>
      <trkpt lat="46.59946" lon="6.0908">
        <ele>1002.5999755859</ele>
        <time>2015-07-22T09:26:30.000Z</time>
      </trkpt>
      <trkpt lat="46.59977" lon="6.09102">
        <ele>1002.5999755859</ele>
        <time>2015-07-22T09:26:38.000Z</time>
      </trkpt>
      <trkpt lat="46.59981" lon="6.09105">
        <ele>1003</ele>
        <time>2015-07-22T09:26:39.000Z</time>
      </trkpt>
      <trkpt lat="46.59988" lon="6.09109">
        <ele>1003.4000244141</ele>
        <time>2015-07-22T09:26:41.000Z</time>
      </trkpt>
      <trkpt lat="46.59995" lon="6.09114">
        <ele>1003.799987793</ele>
        <time>2015-07-22T09:26:43.000Z</time>
      </trkpt>
      <trkpt lat="46.60002" lon="6.09118">
        <ele>1004.200012207</ele>
        <time>2015-07-22T09:26:45.000Z</time>
      </trkpt>
      <trkpt lat="46.60008" lon="6.09124">
        <ele>1004.5999755859</ele>
        <time>2015-07-22T09:26:47.000Z</time>
      </trkpt>
      <trkpt lat="46.60017" lon="6.09135">
        <ele>1004.5999755859</ele>
        <time>2015-07-22T09:26:50.000Z</time>
      </trkpt>
      <trkpt lat="46.60024" lon="6.09148">
        <ele>1005</ele>
        <time>2015-07-22T09:26:53.000Z</time>
      </trkpt>
      <trkpt lat="46.60029" lon="6.09158">
        <ele>1005.4000244141</ele>
        <time>2015-07-22T09:26:55.000Z</time>
      </trkpt>
      <trkpt lat="46.60033" lon="6.09169">
        <ele>1005.799987793</ele>
        <time>2015-07-22T09:26:57.000Z</time>
      </trkpt>
      <trkpt lat="46.60038" lon="6.09181">
        <ele>1006.200012207</ele>
        <time>2015-07-22T09:26:59.000Z</time>
      </trkpt>
      <trkpt lat="46.60043" lon="6.09193">
        <ele>1006.5999755859</ele>
        <time>2015-07-22T09:27:01.000Z</time>
      </trkpt>
      <trkpt lat="46.60054" lon="6.09217">
        <ele>1006.5999755859</ele>
        <time>2015-07-22T09:27:05.000Z</time>
      </trkpt>
      <trkpt lat="46.60082" lon="6.09282">
        <ele>1006.5999755859</ele>
        <time>2015-07-22T09:27:16.000Z</time>
      </trkpt>
      <trkpt lat="46.60103" lon="6.0933">
        <ele>1006.5999755859</ele>
        <time>2015-07-22T09:27:24.000Z</time>
      </trkpt>
      <trkpt lat="46.60105" lon="6.09337">
        <ele>1006.5999755859</ele>
        <time>2015-07-22T09:27:25.000Z</time>
      </trkpt>
      <trkpt lat="46.60103" lon="6.0935">
        <ele>1006.5999755859</ele>
        <time>2015-07-22T09:27:27.000Z</time>
      </trkpt>
      <trkpt lat="46.60094" lon="6.09362">
        <ele>1006.5999755859</ele>
        <time>2015-07-22T09:27:30.000Z</time>
      </trkpt>
      <trkpt lat="46.6009" lon="6.09366">
        <ele>1006.5999755859</ele>
        <time>2015-07-22T09:27:31.000Z</time>
      </trkpt>
      <trkpt lat="46.60067" lon="6.09388">
        <ele>1006.5999755859</ele>
        <time>2015-07-22T09:27:37.000Z</time>
      </trkpt>
      <trkpt lat="46.60064" lon="6.09393">
        <ele>1006.5999755859</ele>
        <time>2015-07-22T09:27:38.000Z</time>
      </trkpt>
      <trkpt lat="46.60052" lon="6.09405">
        <ele>1007</ele>
        <time>2015-07-22T09:27:41.000Z</time>
      </trkpt>
      <trkpt lat="46.60044" lon="6.09412">
        <ele>1007.4000244141</ele>
        <time>2015-07-22T09:27:43.000Z</time>
      </trkpt>
      <trkpt lat="46.60036" lon="6.09419">
        <ele>1008</ele>
        <time>2015-07-22T09:27:45.000Z</time>
      </trkpt>
      <trkpt lat="46.60028" lon="6.09425">
        <ele>1008.4000244141</ele>
        <time>2015-07-22T09:27:47.000Z</time>
      </trkpt>
      <trkpt lat="46.60021" lon="6.0943">
        <ele>1008.799987793</ele>
        <time>2015-07-22T09:27:49.000Z</time>
      </trkpt>
      <trkpt lat="46.60014" lon="6.09435">
        <ele>1009.200012207</ele>
        <time>2015-07-22T09:27:51.000Z</time>
      </trkpt>
      <trkpt lat="46.60007" lon="6.0944">
        <ele>1009.5999755859</ele>
        <time>2015-07-22T09:27:53.000Z</time>
      </trkpt>
      <trkpt lat="46.59999" lon="6.09444">
        <ele>1010</ele>
        <time>2015-07-22T09:27:55.000Z</time>
      </trkpt>
      <trkpt lat="46.59992" lon="6.0945">
        <ele>1010.4000244141</ele>
        <time>2015-07-22T09:27:57.000Z</time>
      </trkpt>
      <trkpt lat="46.59985" lon="6.09455">
        <ele>1010.799987793</ele>
        <time>2015-07-22T09:27:59.000Z</time>
      </trkpt>
      <trkpt lat="46.59977" lon="6.0946">
        <ele>1011.200012207</ele>
        <time>2015-07-22T09:28:01.000Z</time>
      </trkpt>
      <trkpt lat="46.59969" lon="6.09467">
        <ele>1011.799987793</ele>
        <time>2015-07-22T09:28:03.000Z</time>
      </trkpt>
      <trkpt lat="46.59965" lon="6.09471">
        <ele>1011.799987793</ele>
        <time>2015-07-22T09:28:04.000Z</time>
      </trkpt>
      <trkpt lat="46.59962" lon="6.09477">
        <ele>1012.200012207</ele>
        <time>2015-07-22T09:28:05.000Z</time>
      </trkpt>
      <trkpt lat="46.59955" lon="6.09488">
        <ele>1012.5999755859</ele>
        <time>2015-07-22T09:28:07.000Z</time>
      </trkpt>
      <trkpt lat="46.59952" lon="6.09493">
        <ele>1012.5999755859</ele>
        <time>2015-07-22T09:28:08.000Z</time>
      </trkpt>
      <trkpt lat="46.5995" lon="6.09498">
        <ele>1013.200012207</ele>
        <time>2015-07-22T09:28:09.000Z</time>
      </trkpt>
      <trkpt lat="46.59939" lon="6.09522">
        <ele>1013.200012207</ele>
        <time>2015-07-22T09:28:14.000Z</time>
      </trkpt>
      <trkpt lat="46.59926" lon="6.09558">
        <ele>1013.5999755859</ele>
        <time>2015-07-22T09:28:20.000Z</time>
      </trkpt>
      <trkpt lat="46.59924" lon="6.09564">
        <ele>1014.200012207</ele>
        <time>2015-07-22T09:28:21.000Z</time>
      </trkpt>
      <trkpt lat="46.59922" lon="6.0957">
        <ele>1014.5999755859</ele>
        <time>2015-07-22T09:28:22.000Z</time>
      </trkpt>
      <trkpt lat="46.5992" lon="6.09575">
        <ele>1015.200012207</ele>
        <time>2015-07-22T09:28:23.000Z</time>
      </trkpt>
      <trkpt lat="46.59918" lon="6.0958">
        <ele>1015.5999755859</ele>
        <time>2015-07-22T09:28:24.000Z</time>
      </trkpt>
      <trkpt lat="46.5991" lon="6.09604">
        <ele>1015.5999755859</ele>
        <time>2015-07-22T09:28:28.000Z</time>
      </trkpt>
      <trkpt lat="46.59898" lon="6.09641">
        <ele>1015.5999755859</ele>
        <time>2015-07-22T09:28:36.000Z</time>
      </trkpt>
      <trkpt lat="46.59899" lon="6.09641">
        <ele>1015.5999755859</ele>
        <time>2015-07-22T09:28:39.000Z</time>
      </trkpt>
      <trkpt lat="46.59905" lon="6.09661">
        <ele>1015.5999755859</ele>
        <time>2015-07-22T09:28:56.000Z</time>
      </trkpt>
      <trkpt lat="46.5991" lon="6.09676">
        <ele>1015.5999755859</ele>
        <time>2015-07-22T09:29:00.000Z</time>
      </trkpt>
      <trkpt lat="46.59911" lon="6.09684">
        <ele>1015.5999755859</ele>
        <time>2015-07-22T09:29:02.000Z</time>
      </trkpt>
      <trkpt lat="46.59917" lon="6.09718">
        <ele>1015.5999755859</ele>
        <time>2015-07-22T09:29:10.000Z</time>
      </trkpt>
      <trkpt lat="46.59927" lon="6.09759">
        <ele>1015.5999755859</ele>
        <time>2015-07-22T09:29:17.000Z</time>
      </trkpt>
      <trkpt lat="46.59932" lon="6.09792">
        <ele>1015.5999755859</ele>
        <time>2015-07-22T09:29:23.000Z</time>
      </trkpt>
      <trkpt lat="46.59931" lon="6.09823">
        <ele>1015.5999755859</ele>
        <time>2015-07-22T09:29:28.000Z</time>
      </trkpt>
      <trkpt lat="46.59931" lon="6.09859">
        <ele>1015.5999755859</ele>
        <time>2015-07-22T09:29:34.000Z</time>
      </trkpt>
      <trkpt lat="46.59943" lon="6.0991">
        <ele>1015.5999755859</ele>
        <time>2015-07-22T09:29:41.000Z</time>
      </trkpt>
      <trkpt lat="46.59953" lon="6.0995">
        <ele>1016</ele>
        <time>2015-07-22T09:29:47.000Z</time>
      </trkpt>
      <trkpt lat="46.59954" lon="6.09956">
        <ele>1016.5999755859</ele>
        <time>2015-07-22T09:29:48.000Z</time>
      </trkpt>
      <trkpt lat="46.59955" lon="6.09962">
        <ele>1017</ele>
        <time>2015-07-22T09:29:49.000Z</time>
      </trkpt>
      <trkpt lat="46.59955" lon="6.09967">
        <ele>1017.5999755859</ele>
        <time>2015-07-22T09:29:50.000Z</time>
      </trkpt>
      <trkpt lat="46.59954" lon="6.09971">
        <ele>1018</ele>
        <time>2015-07-22T09:29:51.000Z</time>
      </trkpt>
      <trkpt lat="46.59953" lon="6.09982">
        <ele>1018</ele>
        <time>2015-07-22T09:29:53.000Z</time>
      </trkpt>
      <trkpt lat="46.59956" lon="6.09999">
        <ele>1018</ele>
        <time>2015-07-22T09:29:58.000Z</time>
      </trkpt>
      <trkpt lat="46.59961" lon="6.1">
        <ele>1018</ele>
        <time>2015-07-22T09:31:08.000Z</time>
      </trkpt>
      <trkpt lat="46.59965" lon="6.10004">
        <ele>1018</ele>
        <time>2015-07-22T09:31:22.000Z</time>
      </trkpt>
      <trkpt lat="46.59985" lon="6.10027">
        <ele>1018</ele>
        <time>2015-07-22T09:31:27.000Z</time>
      </trkpt>
      <trkpt lat="46.6" lon="6.10057">
        <ele>1018</ele>
        <time>2015-07-22T09:31:33.000Z</time>
      </trkpt>
      <trkpt lat="46.6002" lon="6.10097">
        <ele>1018</ele>
        <time>2015-07-22T09:31:40.000Z</time>
      </trkpt>
      <trkpt lat="46.60038" lon="6.10134">
        <ele>1018</ele>
        <time>2015-07-22T09:31:47.000Z</time>
      </trkpt>
      <trkpt lat="46.60053" lon="6.10156">
        <ele>1018</ele>
        <time>2015-07-22T09:31:52.000Z</time>
      </trkpt>
      <trkpt lat="46.60057" lon="6.10158">
        <ele>1018</ele>
        <time>2015-07-22T09:31:53.000Z</time>
      </trkpt>
      <trkpt lat="46.60081" lon="6.10172">
        <ele>1018</ele>
        <time>2015-07-22T09:31:59.000Z</time>
      </trkpt>
      <trkpt lat="46.60087" lon="6.10177">
        <ele>1018</ele>
        <time>2015-07-22T09:32:04.000Z</time>
      </trkpt>
      <trkpt lat="46.60089" lon="6.10181">
        <ele>1018.4000244141</ele>
        <time>2015-07-22T09:32:11.000Z</time>
      </trkpt>
      <trkpt lat="46.6009" lon="6.10181">
        <ele>1018.799987793</ele>
        <time>2015-07-22T09:32:12.000Z</time>
      </trkpt>
      <trkpt lat="46.60092" lon="6.10182">
        <ele>1019.200012207</ele>
        <time>2015-07-22T09:32:13.000Z</time>
      </trkpt>
      <trkpt lat="46.60094" lon="6.10183">
        <ele>1019.5999755859</ele>
        <time>2015-07-22T09:32:14.000Z</time>
      </trkpt>
      <trkpt lat="46.60097" lon="6.10185">
        <ele>1020</ele>
        <time>2015-07-22T09:32:15.000Z</time>
      </trkpt>
      <trkpt lat="46.60113" lon="6.10203">
        <ele>1020</ele>
        <time>2015-07-22T09:32:21.000Z</time>
      </trkpt>
      <trkpt lat="46.60127" lon="6.10225">
        <ele>1020</ele>
        <time>2015-07-22T09:32:26.000Z</time>
      </trkpt>
      <trkpt lat="46.60148" lon="6.10256">
        <ele>1020</ele>
        <time>2015-07-22T09:32:33.000Z</time>
      </trkpt>
      <trkpt lat="46.60167" lon="6.10282">
        <ele>1020</ele>
        <time>2015-07-22T09:32:39.000Z</time>
      </trkpt>
      <trkpt lat="46.60172" lon="6.10291">
        <ele>1020</ele>
        <time>2015-07-22T09:32:41.000Z</time>
      </trkpt>
      <trkpt lat="46.60175" lon="6.10311">
        <ele>1020</ele>
        <time>2015-07-22T09:32:45.000Z</time>
      </trkpt>
      <trkpt lat="46.60174" lon="6.10317">
        <ele>1020</ele>
        <time>2015-07-22T09:32:46.000Z</time>
      </trkpt>
      <trkpt lat="46.60174" lon="6.10341">
        <ele>1020.4000244141</ele>
        <time>2015-07-22T09:32:50.000Z</time>
      </trkpt>
      <trkpt lat="46.60174" lon="6.10347">
        <ele>1020.799987793</ele>
        <time>2015-07-22T09:32:51.000Z</time>
      </trkpt>
      <trkpt lat="46.60174" lon="6.10354">
        <ele>1021.200012207</ele>
        <time>2015-07-22T09:32:52.000Z</time>
      </trkpt>
      <trkpt lat="46.60173" lon="6.1036">
        <ele>1021.5999755859</ele>
        <time>2015-07-22T09:32:53.000Z</time>
      </trkpt>
      <trkpt lat="46.60171" lon="6.10366">
        <ele>1022</ele>
        <time>2015-07-22T09:32:54.000Z</time>
      </trkpt>
      <trkpt lat="46.60164" lon="6.10376">
        <ele>1022</ele>
        <time>2015-07-22T09:32:56.000Z</time>
      </trkpt>
      <trkpt lat="46.60149" lon="6.10386">
        <ele>1022</ele>
        <time>2015-07-22T09:33:00.000Z</time>
      </trkpt>
      <trkpt lat="46.60146" lon="6.10388">
        <ele>1022</ele>
        <time>2015-07-22T09:33:01.000Z</time>
      </trkpt>
      <trkpt lat="46.60139" lon="6.10397">
        <ele>1022.5999755859</ele>
        <time>2015-07-22T09:33:05.000Z</time>
      </trkpt>
      <trkpt lat="46.60137" lon="6.10399">
        <ele>1023</ele>
        <time>2015-07-22T09:33:06.000Z</time>
      </trkpt>
      <trkpt lat="46.60135" lon="6.10401">
        <ele>1023.4000244141</ele>
        <time>2015-07-22T09:33:07.000Z</time>
      </trkpt>
      <trkpt lat="46.60133" lon="6.10403">
        <ele>1023.799987793</ele>
        <time>2015-07-22T09:33:08.000Z</time>
      </trkpt>
      <trkpt lat="46.60131" lon="6.10404">
        <ele>1024.4000244141</ele>
        <time>2015-07-22T09:33:09.000Z</time>
      </trkpt>
      <trkpt lat="46.60121" lon="6.10413">
        <ele>1024.4000244141</ele>
        <time>2015-07-22T09:33:13.000Z</time>
      </trkpt>
      <trkpt lat="46.60107" lon="6.1043">
        <ele>1024.4000244141</ele>
        <time>2015-07-22T09:33:18.000Z</time>
      </trkpt>
      <trkpt lat="46.60094" lon="6.10459">
        <ele>1024.4000244141</ele>
        <time>2015-07-22T09:33:24.000Z</time>
      </trkpt>
      <trkpt lat="46.60091" lon="6.10464">
        <ele>1024.4000244141</ele>
        <time>2015-07-22T09:33:25.000Z</time>
      </trkpt>
      <trkpt lat="46.60077" lon="6.10488">
        <ele>1024.4000244141</ele>
        <time>2015-07-22T09:33:30.000Z</time>
      </trkpt>
      <trkpt lat="46.60072" lon="6.10495">
        <ele>1024</ele>
        <time>2015-07-22T09:33:32.000Z</time>
      </trkpt>
      <trkpt lat="46.60069" lon="6.10498">
        <ele>1023.4000244141</ele>
        <time>2015-07-22T09:33:33.000Z</time>
      </trkpt>
      <trkpt lat="46.60067" lon="6.10501">
        <ele>1023</ele>
        <time>2015-07-22T09:33:34.000Z</time>
      </trkpt>
      <trkpt lat="46.60065" lon="6.10505">
        <ele>1022.5999755859</ele>
        <time>2015-07-22T09:33:35.000Z</time>
      </trkpt>
      <trkpt lat="46.60063" lon="6.10508">
        <ele>1022.200012207</ele>
        <time>2015-07-22T09:33:36.000Z</time>
      </trkpt>
      <trkpt lat="46.60058" lon="6.10517">
        <ele>1022.200012207</ele>
        <time>2015-07-22T09:33:40.000Z</time>
      </trkpt>
      <trkpt lat="46.60057" lon="6.10519">
        <ele>1022.200012207</ele>
        <time>2015-07-22T09:33:44.000Z</time>
      </trkpt>
      <trkpt lat="46.60047" lon="6.10533">
        <ele>1022.200012207</ele>
        <time>2015-07-22T09:33:58.000Z</time>
      </trkpt>
      <trkpt lat="46.60037" lon="6.10561">
        <ele>1022.200012207</ele>
        <time>2015-07-22T09:34:06.000Z</time>
      </trkpt>
      <trkpt lat="46.60035" lon="6.1058">
        <ele>1022.200012207</ele>
        <time>2015-07-22T09:34:11.000Z</time>
      </trkpt>
      <trkpt lat="46.60042" lon="6.106">
        <ele>1022.200012207</ele>
        <time>2015-07-22T09:34:15.000Z</time>
      </trkpt>
      <trkpt lat="46.60051" lon="6.10635">
        <ele>1021.799987793</ele>
        <time>2015-07-22T09:34:19.000Z</time>
      </trkpt>
      <trkpt lat="46.60053" lon="6.10645">
        <ele>1021.200012207</ele>
        <time>2015-07-22T09:34:20.000Z</time>
      </trkpt>
      <trkpt lat="46.60054" lon="6.10654">
        <ele>1020.799987793</ele>
        <time>2015-07-22T09:34:21.000Z</time>
      </trkpt>
      <trkpt lat="46.60056" lon="6.10664">
        <ele>1020.4000244141</ele>
        <time>2015-07-22T09:34:22.000Z</time>
      </trkpt>
      <trkpt lat="46.60059" lon="6.10674">
        <ele>1019.799987793</ele>
        <time>2015-07-22T09:34:23.000Z</time>
      </trkpt>
      <trkpt lat="46.60062" lon="6.10682">
        <ele>1019.799987793</ele>
        <time>2015-07-22T09:34:24.000Z</time>
      </trkpt>
      <trkpt lat="46.60073" lon="6.10723">
        <ele>1019.799987793</ele>
        <time>2015-07-22T09:34:29.000Z</time>
      </trkpt>
      <trkpt lat="46.60075" lon="6.10738">
        <ele>1019.799987793</ele>
        <time>2015-07-22T09:34:31.000Z</time>
      </trkpt>
      <trkpt lat="46.60075" lon="6.10759">
        <ele>1019.799987793</ele>
        <time>2015-07-22T09:34:34.000Z</time>
      </trkpt>
      <trkpt lat="46.60073" lon="6.10774">
        <ele>1019.799987793</ele>
        <time>2015-07-22T09:34:36.000Z</time>
      </trkpt>
      <trkpt lat="46.60067" lon="6.10827">
        <ele>1019.799987793</ele>
        <time>2015-07-22T09:34:43.000Z</time>
      </trkpt>
      <trkpt lat="46.60062" lon="6.10857">
        <ele>1019.799987793</ele>
        <time>2015-07-22T09:34:47.000Z</time>
      </trkpt>
      <trkpt lat="46.60055" lon="6.10879">
        <ele>1019.799987793</ele>
        <time>2015-07-22T09:34:50.000Z</time>
      </trkpt>
      <trkpt lat="46.60038" lon="6.10922">
        <ele>1019.799987793</ele>
        <time>2015-07-22T09:34:56.000Z</time>
      </trkpt>
      <trkpt lat="46.60022" lon="6.10983">
        <ele>1019.799987793</ele>
        <time>2015-07-22T09:35:04.000Z</time>
      </trkpt>
      <trkpt lat="46.60006" lon="6.11045">
        <ele>1019.799987793</ele>
        <time>2015-07-22T09:35:13.000Z</time>
      </trkpt>
      <trkpt lat="46.60002" lon="6.11065">
        <ele>1020.4000244141</ele>
        <time>2015-07-22T09:35:16.000Z</time>
      </trkpt>
      <trkpt lat="46.6" lon="6.11072">
        <ele>1020.799987793</ele>
        <time>2015-07-22T09:35:17.000Z</time>
      </trkpt>
      <trkpt lat="46.59998" lon="6.11077">
        <ele>1021.200012207</ele>
        <time>2015-07-22T09:35:18.000Z</time>
      </trkpt>
      <trkpt lat="46.59996" lon="6.11083">
        <ele>1021.5999755859</ele>
        <time>2015-07-22T09:35:19.000Z</time>
      </trkpt>
      <trkpt lat="46.59995" lon="6.11089">
        <ele>1022</ele>
        <time>2015-07-22T09:35:20.000Z</time>
      </trkpt>
      <trkpt lat="46.59993" lon="6.11095">
        <ele>1022.4000244141</ele>
        <time>2015-07-22T09:35:21.000Z</time>
      </trkpt>
      <trkpt lat="46.59992" lon="6.111">
        <ele>1023</ele>
        <time>2015-07-22T09:35:22.000Z</time>
      </trkpt>
      <trkpt lat="46.59991" lon="6.11105">
        <ele>1023.4000244141</ele>
        <time>2015-07-22T09:35:23.000Z</time>
      </trkpt>
      <trkpt lat="46.59989" lon="6.1111">
        <ele>1023.799987793</ele>
        <time>2015-07-22T09:35:24.000Z</time>
      </trkpt>
      <trkpt lat="46.59987" lon="6.11119">
        <ele>1024.1999511719</ele>
        <time>2015-07-22T09:35:26.000Z</time>
      </trkpt>
      <trkpt lat="46.59984" lon="6.11133">
        <ele>1024.5999755859</ele>
        <time>2015-07-22T09:35:29.000Z</time>
      </trkpt>
      <trkpt lat="46.59983" lon="6.11138">
        <ele>1025</ele>
        <time>2015-07-22T09:35:30.000Z</time>
      </trkpt>
      <trkpt lat="46.59981" lon="6.11142">
        <ele>1025.5999755859</ele>
        <time>2015-07-22T09:35:31.000Z</time>
      </trkpt>
      <trkpt lat="46.5998" lon="6.11146">
        <ele>1026</ele>
        <time>2015-07-22T09:35:32.000Z</time>
      </trkpt>
      <trkpt lat="46.59978" lon="6.11151">
        <ele>1026.4000244141</ele>
        <time>2015-07-22T09:35:33.000Z</time>
      </trkpt>
      <trkpt lat="46.59973" lon="6.11172">
        <ele>1026.8000488281</ele>
        <time>2015-07-22T09:35:38.000Z</time>
      </trkpt>
      <trkpt lat="46.59973" lon="6.11176">
        <ele>1027.1999511719</ele>
        <time>2015-07-22T09:35:39.000Z</time>
      </trkpt>
      <trkpt lat="46.59972" lon="6.1118">
        <ele>1027.5999755859</ele>
        <time>2015-07-22T09:35:40.000Z</time>
      </trkpt>
      <trkpt lat="46.59971" lon="6.11184">
        <ele>1028</ele>
        <time>2015-07-22T09:35:41.000Z</time>
      </trkpt>
      <trkpt lat="46.5997" lon="6.11188">
        <ele>1028.5999755859</ele>
        <time>2015-07-22T09:35:42.000Z</time>
      </trkpt>
      <trkpt lat="46.59969" lon="6.11199">
        <ele>1029</ele>
        <time>2015-07-22T09:35:45.000Z</time>
      </trkpt>
      <trkpt lat="46.59969" lon="6.11204">
        <ele>1029.4000244141</ele>
        <time>2015-07-22T09:35:46.000Z</time>
      </trkpt>
      <trkpt lat="46.59969" lon="6.11207">
        <ele>1029.8000488281</ele>
        <time>2015-07-22T09:35:47.000Z</time>
      </trkpt>
      <trkpt lat="46.59968" lon="6.11211">
        <ele>1030.1999511719</ele>
        <time>2015-07-22T09:35:48.000Z</time>
      </trkpt>
      <trkpt lat="46.59967" lon="6.11215">
        <ele>1030.5999755859</ele>
        <time>2015-07-22T09:35:49.000Z</time>
      </trkpt>
      <trkpt lat="46.59965" lon="6.1123">
        <ele>1031</ele>
        <time>2015-07-22T09:35:53.000Z</time>
      </trkpt>
      <trkpt lat="46.59965" lon="6.11234">
        <ele>1031.5999755859</ele>
        <time>2015-07-22T09:35:54.000Z</time>
      </trkpt>
      <trkpt lat="46.59964" lon="6.11238">
        <ele>1032</ele>
        <time>2015-07-22T09:35:55.000Z</time>
      </trkpt>
      <trkpt lat="46.59964" lon="6.11242">
        <ele>1032.4000244141</ele>
        <time>2015-07-22T09:35:56.000Z</time>
      </trkpt>
      <trkpt lat="46.59963" lon="6.11246">
        <ele>1032.8000488281</ele>
        <time>2015-07-22T09:35:57.000Z</time>
      </trkpt>
      <trkpt lat="46.59959" lon="6.11269">
        <ele>1033.1999511719</ele>
        <time>2015-07-22T09:36:03.000Z</time>
      </trkpt>
      <trkpt lat="46.59958" lon="6.11273">
        <ele>1033.5999755859</ele>
        <time>2015-07-22T09:36:04.000Z</time>
      </trkpt>
      <trkpt lat="46.59957" lon="6.11277">
        <ele>1034</ele>
        <time>2015-07-22T09:36:05.000Z</time>
      </trkpt>
      <trkpt lat="46.59956" lon="6.1128">
        <ele>1034.5999755859</ele>
        <time>2015-07-22T09:36:06.000Z</time>
      </trkpt>
      <trkpt lat="46.59954" lon="6.11284">
        <ele>1035</ele>
        <time>2015-07-22T09:36:07.000Z</time>
      </trkpt>
      <trkpt lat="46.59949" lon="6.11302">
        <ele>1035</ele>
        <time>2015-07-22T09:36:12.000Z</time>
      </trkpt>
      <trkpt lat="46.59939" lon="6.11327">
        <ele>1035</ele>
        <time>2015-07-22T09:36:19.000Z</time>
      </trkpt>
      <trkpt lat="46.59931" lon="6.11344">
        <ele>1035</ele>
        <time>2015-07-22T09:36:23.000Z</time>
      </trkpt>
      <trkpt lat="46.59927" lon="6.1135">
        <ele>1035</ele>
        <time>2015-07-22T09:36:24.000Z</time>
      </trkpt>
      <trkpt lat="46.59914" lon="6.11368">
        <ele>1035</ele>
        <time>2015-07-22T09:36:27.000Z</time>
      </trkpt>
      <trkpt lat="46.59908" lon="6.11374">
        <ele>1035</ele>
        <time>2015-07-22T09:36:28.000Z</time>
      </trkpt>
      <trkpt lat="46.59902" lon="6.11386">
        <ele>1035</ele>
        <time>2015-07-22T09:36:30.000Z</time>
      </trkpt>
      <trkpt lat="46.59905" lon="6.11393">
        <ele>1035</ele>
        <time>2015-07-22T09:36:31.000Z</time>
      </trkpt>
      <trkpt lat="46.59918" lon="6.11406">
        <ele>1035</ele>
        <time>2015-07-22T09:36:34.000Z</time>
      </trkpt>
      <trkpt lat="46.59923" lon="6.1141">
        <ele>1035</ele>
        <time>2015-07-22T09:36:35.000Z</time>
      </trkpt>
      <trkpt lat="46.59933" lon="6.11417">
        <ele>1034.5999755859</ele>
        <time>2015-07-22T09:36:37.000Z</time>
      </trkpt>
      <trkpt lat="46.59937" lon="6.11421">
        <ele>1034.1999511719</ele>
        <time>2015-07-22T09:36:38.000Z</time>
      </trkpt>
      <trkpt lat="46.59941" lon="6.11424">
        <ele>1033.8000488281</ele>
        <time>2015-07-22T09:36:39.000Z</time>
      </trkpt>
      <trkpt lat="46.59945" lon="6.11427">
        <ele>1033.4000244141</ele>
        <time>2015-07-22T09:36:40.000Z</time>
      </trkpt>
      <trkpt lat="46.59948" lon="6.11431">
        <ele>1033</ele>
        <time>2015-07-22T09:36:41.000Z</time>
      </trkpt>
      <trkpt lat="46.59969" lon="6.11445">
        <ele>1033</ele>
        <time>2015-07-22T09:36:47.000Z</time>
      </trkpt>
      <trkpt lat="46.59998" lon="6.11457">
        <ele>1033</ele>
        <time>2015-07-22T09:36:54.000Z</time>
      </trkpt>
      <trkpt lat="46.60028" lon="6.11464">
        <ele>1032.5999755859</ele>
        <time>2015-07-22T09:36:59.000Z</time>
      </trkpt>
      <trkpt lat="46.60036" lon="6.11466">
        <ele>1032</ele>
        <time>2015-07-22T09:37:00.000Z</time>
      </trkpt>
      <trkpt lat="46.60043" lon="6.11467">
        <ele>1031.5999755859</ele>
        <time>2015-07-22T09:37:01.000Z</time>
      </trkpt>
      <trkpt lat="46.6005" lon="6.11468">
        <ele>1031.1999511719</ele>
        <time>2015-07-22T09:37:02.000Z</time>
      </trkpt>
      <trkpt lat="46.60057" lon="6.11469">
        <ele>1030.8000488281</ele>
        <time>2015-07-22T09:37:03.000Z</time>
      </trkpt>
      <trkpt lat="46.60071" lon="6.11468">
        <ele>1030.8000488281</ele>
        <time>2015-07-22T09:37:05.000Z</time>
      </trkpt>
      <trkpt lat="46.60077" lon="6.11468">
        <ele>1030.8000488281</ele>
        <time>2015-07-22T09:37:06.000Z</time>
      </trkpt>
      <trkpt lat="46.6009" lon="6.11463">
        <ele>1030.8000488281</ele>
        <time>2015-07-22T09:37:08.000Z</time>
      </trkpt>
      <trkpt lat="46.60101" lon="6.11458">
        <ele>1030.8000488281</ele>
        <time>2015-07-22T09:37:10.000Z</time>
      </trkpt>
      <trkpt lat="46.60143" lon="6.11435">
        <ele>1030.8000488281</ele>
        <time>2015-07-22T09:37:18.000Z</time>
      </trkpt>
      <trkpt lat="46.60156" lon="6.11426">
        <ele>1030.8000488281</ele>
        <time>2015-07-22T09:37:21.000Z</time>
      </trkpt>
      <trkpt lat="46.6016" lon="6.11424">
        <ele>1031.1999511719</ele>
        <time>2015-07-22T09:37:22.000Z</time>
      </trkpt>
      <trkpt lat="46.60164" lon="6.11422">
        <ele>1031.8000488281</ele>
        <time>2015-07-22T09:37:23.000Z</time>
      </trkpt>
      <trkpt lat="46.60168" lon="6.11419">
        <ele>1032.1999511719</ele>
        <time>2015-07-22T09:37:24.000Z</time>
      </trkpt>
      <trkpt lat="46.60172" lon="6.11414">
        <ele>1032.5999755859</ele>
        <time>2015-07-22T09:37:25.000Z</time>
      </trkpt>
      <trkpt lat="46.6018" lon="6.11404">
        <ele>1033</ele>
        <time>2015-07-22T09:37:27.000Z</time>
      </trkpt>
      <trkpt lat="46.60188" lon="6.11393">
        <ele>1033</ele>
        <time>2015-07-22T09:37:29.000Z</time>
      </trkpt>
      <trkpt lat="46.60216" lon="6.11356">
        <ele>1033</ele>
        <time>2015-07-22T09:37:35.000Z</time>
      </trkpt>
      <trkpt lat="46.6025" lon="6.11317">
        <ele>1033</ele>
        <time>2015-07-22T09:37:43.000Z</time>
      </trkpt>
      <trkpt lat="46.6028" lon="6.11291">
        <ele>1032.5999755859</ele>
        <time>2015-07-22T09:37:49.000Z</time>
      </trkpt>
      <trkpt lat="46.60284" lon="6.11287">
        <ele>1032.1999511719</ele>
        <time>2015-07-22T09:37:50.000Z</time>
      </trkpt>
      <trkpt lat="46.60289" lon="6.11283">
        <ele>1031.8000488281</ele>
        <time>2015-07-22T09:37:51.000Z</time>
      </trkpt>
      <trkpt lat="46.60294" lon="6.11279">
        <ele>1031.4000244141</ele>
        <time>2015-07-22T09:37:52.000Z</time>
      </trkpt>
      <trkpt lat="46.60299" lon="6.11275">
        <ele>1031</ele>
        <time>2015-07-22T09:37:53.000Z</time>
      </trkpt>
      <trkpt lat="46.6032" lon="6.11259">
        <ele>1031</ele>
        <time>2015-07-22T09:37:57.000Z</time>
      </trkpt>
      <trkpt lat="46.60344" lon="6.11238">
        <ele>1031.4000244141</ele>
        <time>2015-07-22T09:38:03.000Z</time>
      </trkpt>
      <trkpt lat="46.60348" lon="6.11236">
        <ele>1031.8000488281</ele>
        <time>2015-07-22T09:38:04.000Z</time>
      </trkpt>
      <trkpt lat="46.60351" lon="6.11233">
        <ele>1032.1999511719</ele>
        <time>2015-07-22T09:38:05.000Z</time>
      </trkpt>
      <trkpt lat="46.60355" lon="6.11229">
        <ele>1032.5999755859</ele>
        <time>2015-07-22T09:38:06.000Z</time>
      </trkpt>
      <trkpt lat="46.60358" lon="6.11226">
        <ele>1033</ele>
        <time>2015-07-22T09:38:07.000Z</time>
      </trkpt>
      <trkpt lat="46.60367" lon="6.11216">
        <ele>1033</ele>
        <time>2015-07-22T09:38:10.000Z</time>
      </trkpt>
      <trkpt lat="46.60382" lon="6.11195">
        <ele>1033.4000244141</ele>
        <time>2015-07-22T09:38:15.000Z</time>
      </trkpt>
      <trkpt lat="46.60385" lon="6.1119">
        <ele>1033.8000488281</ele>
        <time>2015-07-22T09:38:16.000Z</time>
      </trkpt>
      <trkpt lat="46.60389" lon="6.11186">
        <ele>1034.1999511719</ele>
        <time>2015-07-22T09:38:17.000Z</time>
      </trkpt>
      <trkpt lat="46.60392" lon="6.11182">
        <ele>1034.5999755859</ele>
        <time>2015-07-22T09:38:18.000Z</time>
      </trkpt>
      <trkpt lat="46.60396" lon="6.11178">
        <ele>1035.1999511719</ele>
        <time>2015-07-22T09:38:19.000Z</time>
      </trkpt>
      <trkpt lat="46.60403" lon="6.1117">
        <ele>1035.1999511719</ele>
        <time>2015-07-22T09:38:21.000Z</time>
      </trkpt>
      <trkpt lat="46.60415" lon="6.11161">
        <ele>1035.1999511719</ele>
        <time>2015-07-22T09:38:24.000Z</time>
      </trkpt>
      <trkpt lat="46.60427" lon="6.11153">
        <ele>1035.1999511719</ele>
        <time>2015-07-22T09:38:27.000Z</time>
      </trkpt>
      <trkpt lat="46.60441" lon="6.11154">
        <ele>1035.1999511719</ele>
        <time>2015-07-22T09:38:30.000Z</time>
      </trkpt>
      <trkpt lat="46.60445" lon="6.11155">
        <ele>1035.1999511719</ele>
        <time>2015-07-22T09:38:31.000Z</time>
      </trkpt>
      <trkpt lat="46.60473" lon="6.11159">
        <ele>1035.1999511719</ele>
        <time>2015-07-22T09:38:37.000Z</time>
      </trkpt>
      <trkpt lat="46.60483" lon="6.11161">
        <ele>1035.1999511719</ele>
        <time>2015-07-22T09:38:39.000Z</time>
      </trkpt>
      <trkpt lat="46.60501" lon="6.11163">
        <ele>1035.1999511719</ele>
        <time>2015-07-22T09:38:43.000Z</time>
      </trkpt>
      <trkpt lat="46.60513" lon="6.11167">
        <ele>1035.5999755859</ele>
        <time>2015-07-22T09:38:46.000Z</time>
      </trkpt>
      <trkpt lat="46.60518" lon="6.11168">
        <ele>1036</ele>
        <time>2015-07-22T09:38:47.000Z</time>
      </trkpt>
      <trkpt lat="46.60522" lon="6.11171">
        <ele>1036.4000244141</ele>
        <time>2015-07-22T09:38:48.000Z</time>
      </trkpt>
      <trkpt lat="46.60527" lon="6.11174">
        <ele>1036.8000488281</ele>
        <time>2015-07-22T09:38:49.000Z</time>
      </trkpt>
      <trkpt lat="46.60532" lon="6.11177">
        <ele>1037.1999511719</ele>
        <time>2015-07-22T09:38:50.000Z</time>
      </trkpt>
      <trkpt lat="46.60561" lon="6.11193">
        <ele>1037.1999511719</ele>
        <time>2015-07-22T09:38:56.000Z</time>
      </trkpt>
      <trkpt lat="46.60592" lon="6.11211">
        <ele>1037.1999511719</ele>
        <time>2015-07-22T09:39:03.000Z</time>
      </trkpt>
      <trkpt lat="46.60632" lon="6.1124">
        <ele>1037.1999511719</ele>
        <time>2015-07-22T09:39:12.000Z</time>
      </trkpt>
      <trkpt lat="46.60663" lon="6.11266">
        <ele>1037.1999511719</ele>
        <time>2015-07-22T09:39:19.000Z</time>
      </trkpt>
      <trkpt lat="46.60671" lon="6.11273">
        <ele>1037.1999511719</ele>
        <time>2015-07-22T09:39:21.000Z</time>
      </trkpt>
      <trkpt lat="46.60675" lon="6.11275">
        <ele>1037.5999755859</ele>
        <time>2015-07-22T09:39:22.000Z</time>
      </trkpt>
      <trkpt lat="46.6068" lon="6.11277">
        <ele>1038</ele>
        <time>2015-07-22T09:39:23.000Z</time>
      </trkpt>
      <trkpt lat="46.60685" lon="6.11279">
        <ele>1038.4000244141</ele>
        <time>2015-07-22T09:39:24.000Z</time>
      </trkpt>
      <trkpt lat="46.60689" lon="6.11281">
        <ele>1038.8000488281</ele>
        <time>2015-07-22T09:39:25.000Z</time>
      </trkpt>
      <trkpt lat="46.60693" lon="6.11282">
        <ele>1039.1999511719</ele>
        <time>2015-07-22T09:39:26.000Z</time>
      </trkpt>
      <trkpt lat="46.60703" lon="6.11287">
        <ele>1039.1999511719</ele>
        <time>2015-07-22T09:39:29.000Z</time>
      </trkpt>
      <trkpt lat="46.60713" lon="6.11292">
        <ele>1039.5999755859</ele>
        <time>2015-07-22T09:39:32.000Z</time>
      </trkpt>
      <trkpt lat="46.60716" lon="6.11293">
        <ele>1040</ele>
        <time>2015-07-22T09:39:33.000Z</time>
      </trkpt>
      <trkpt lat="46.60718" lon="6.11294">
        <ele>1040.4000244141</ele>
        <time>2015-07-22T09:39:34.000Z</time>
      </trkpt>
      <trkpt lat="46.60721" lon="6.11295">
        <ele>1040.8000488281</ele>
        <time>2015-07-22T09:39:35.000Z</time>
      </trkpt>
      <trkpt lat="46.60723" lon="6.11296">
        <ele>1041.4000244141</ele>
        <time>2015-07-22T09:39:36.000Z</time>
      </trkpt>
      <trkpt lat="46.60736" lon="6.113">
        <ele>1041.8000488281</ele>
        <time>2015-07-22T09:39:39.000Z</time>
      </trkpt>
      <trkpt lat="46.60741" lon="6.11301">
        <ele>1042.1999511719</ele>
        <time>2015-07-22T09:39:40.000Z</time>
      </trkpt>
      <trkpt lat="46.60746" lon="6.11302">
        <ele>1042.5999755859</ele>
        <time>2015-07-22T09:39:41.000Z</time>
      </trkpt>
      <trkpt lat="46.6075" lon="6.11303">
        <ele>1043</ele>
        <time>2015-07-22T09:39:42.000Z</time>
      </trkpt>
      <trkpt lat="46.60753" lon="6.11304">
        <ele>1043.4000244141</ele>
        <time>2015-07-22T09:39:43.000Z</time>
      </trkpt>
      <trkpt lat="46.60776" lon="6.11314">
        <ele>1043.4000244141</ele>
        <time>2015-07-22T09:39:49.000Z</time>
      </trkpt>
      <trkpt lat="46.60786" lon="6.11328">
        <ele>1043.4000244141</ele>
        <time>2015-07-22T09:39:53.000Z</time>
      </trkpt>
      <trkpt lat="46.60795" lon="6.11346">
        <ele>1043.8000488281</ele>
        <time>2015-07-22T09:39:57.000Z</time>
      </trkpt>
      <trkpt lat="46.60797" lon="6.1135">
        <ele>1044.1999511719</ele>
        <time>2015-07-22T09:39:58.000Z</time>
      </trkpt>
      <trkpt lat="46.60799" lon="6.11355">
        <ele>1044.8000488281</ele>
        <time>2015-07-22T09:39:59.000Z</time>
      </trkpt>
      <trkpt lat="46.60801" lon="6.1136">
        <ele>1045.1999511719</ele>
        <time>2015-07-22T09:40:00.000Z</time>
      </trkpt>
      <trkpt lat="46.60803" lon="6.11364">
        <ele>1045.5999755859</ele>
        <time>2015-07-22T09:40:01.000Z</time>
      </trkpt>
      <trkpt lat="46.60809" lon="6.11379">
        <ele>1045.5999755859</ele>
        <time>2015-07-22T09:40:05.000Z</time>
      </trkpt>
      <trkpt lat="46.60824" lon="6.11395">
        <ele>1045.5999755859</ele>
        <time>2015-07-22T09:40:10.000Z</time>
      </trkpt>
      <trkpt lat="46.60847" lon="6.11435">
        <ele>1045.5999755859</ele>
        <time>2015-07-22T09:40:17.000Z</time>
      </trkpt>
      <trkpt lat="46.60855" lon="6.11463">
        <ele>1045.5999755859</ele>
        <time>2015-07-22T09:40:21.000Z</time>
      </trkpt>
      <trkpt lat="46.60853" lon="6.11486">
        <ele>1045.5999755859</ele>
        <time>2015-07-22T09:40:25.000Z</time>
      </trkpt>
      <trkpt lat="46.60846" lon="6.11499">
        <ele>1045.5999755859</ele>
        <time>2015-07-22T09:40:29.000Z</time>
      </trkpt>
      <trkpt lat="46.60839" lon="6.11511">
        <ele>1046</ele>
        <time>2015-07-22T09:40:33.000Z</time>
      </trkpt>
      <trkpt lat="46.60837" lon="6.11515">
        <ele>1046.4000244141</ele>
        <time>2015-07-22T09:40:34.000Z</time>
      </trkpt>
      <trkpt lat="46.60836" lon="6.11519">
        <ele>1046.8000488281</ele>
        <time>2015-07-22T09:40:35.000Z</time>
      </trkpt>
      <trkpt lat="46.60833" lon="6.11523">
        <ele>1047.1999511719</ele>
        <time>2015-07-22T09:40:36.000Z</time>
      </trkpt>
      <trkpt lat="46.60832" lon="6.11526">
        <ele>1047.5999755859</ele>
        <time>2015-07-22T09:40:37.000Z</time>
      </trkpt>
      <trkpt lat="46.60826" lon="6.1154">
        <ele>1047.5999755859</ele>
        <time>2015-07-22T09:40:41.000Z</time>
      </trkpt>
      <trkpt lat="46.60818" lon="6.11566">
        <ele>1048.1999511719</ele>
        <time>2015-07-22T09:40:47.000Z</time>
      </trkpt>
      <trkpt lat="46.60815" lon="6.11571">
        <ele>1048.5999755859</ele>
        <time>2015-07-22T09:40:48.000Z</time>
      </trkpt>
      <trkpt lat="46.60813" lon="6.11576">
        <ele>1049</ele>
        <time>2015-07-22T09:40:49.000Z</time>
      </trkpt>
      <trkpt lat="46.60811" lon="6.11581">
        <ele>1049.4000244141</ele>
        <time>2015-07-22T09:40:50.000Z</time>
      </trkpt>
      <trkpt lat="46.60808" lon="6.11586">
        <ele>1049.8000488281</ele>
        <time>2015-07-22T09:40:51.000Z</time>
      </trkpt>
      <trkpt lat="46.60802" lon="6.11596">
        <ele>1049.8000488281</ele>
        <time>2015-07-22T09:40:53.000Z</time>
      </trkpt>
      <trkpt lat="46.60792" lon="6.11624">
        <ele>1049.8000488281</ele>
        <time>2015-07-22T09:40:59.000Z</time>
      </trkpt>
      <trkpt lat="46.60793" lon="6.11664">
        <ele>1049.8000488281</ele>
        <time>2015-07-22T09:41:05.000Z</time>
      </trkpt>
      <trkpt lat="46.60799" lon="6.11696">
        <ele>1049.8000488281</ele>
        <time>2015-07-22T09:41:10.000Z</time>
      </trkpt>
      <trkpt lat="46.6081" lon="6.11729">
        <ele>1049.8000488281</ele>
        <time>2015-07-22T09:41:15.000Z</time>
      </trkpt>
      <trkpt lat="46.60813" lon="6.11735">
        <ele>1049.8000488281</ele>
        <time>2015-07-22T09:41:16.000Z</time>
      </trkpt>
      <trkpt lat="46.6082" lon="6.11759">
        <ele>1049.8000488281</ele>
        <time>2015-07-22T09:41:20.000Z</time>
      </trkpt>
      <trkpt lat="46.60822" lon="6.11766">
        <ele>1049.8000488281</ele>
        <time>2015-07-22T09:41:21.000Z</time>
      </trkpt>
      <trkpt lat="46.60828" lon="6.11789">
        <ele>1049.8000488281</ele>
        <time>2015-07-22T09:41:26.000Z</time>
      </trkpt>
      <trkpt lat="46.60829" lon="6.11793">
        <ele>1050.1999511719</ele>
        <time>2015-07-22T09:41:27.000Z</time>
      </trkpt>
      <trkpt lat="46.60831" lon="6.11797">
        <ele>1050.5999755859</ele>
        <time>2015-07-22T09:41:28.000Z</time>
      </trkpt>
      <trkpt lat="46.60833" lon="6.11801">
        <ele>1051</ele>
        <time>2015-07-22T09:41:29.000Z</time>
      </trkpt>
      <trkpt lat="46.60835" lon="6.11805">
        <ele>1051.4000244141</ele>
        <time>2015-07-22T09:41:30.000Z</time>
      </trkpt>
      <trkpt lat="46.60837" lon="6.11808">
        <ele>1051.8000488281</ele>
        <time>2015-07-22T09:41:31.000Z</time>
      </trkpt>
      <trkpt lat="46.6084" lon="6.11822">
        <ele>1051.8000488281</ele>
        <time>2015-07-22T09:41:34.000Z</time>
      </trkpt>
      <trkpt lat="46.60848" lon="6.11843">
        <ele>1052.4000244141</ele>
        <time>2015-07-22T09:41:39.000Z</time>
      </trkpt>
      <trkpt lat="46.6085" lon="6.11848">
        <ele>1052.8000488281</ele>
        <time>2015-07-22T09:41:40.000Z</time>
      </trkpt>
      <trkpt lat="46.60852" lon="6.11853">
        <ele>1053.1999511719</ele>
        <time>2015-07-22T09:41:41.000Z</time>
      </trkpt>
      <trkpt lat="46.60854" lon="6.11857">
        <ele>1053.5999755859</ele>
        <time>2015-07-22T09:41:42.000Z</time>
      </trkpt>
      <trkpt lat="46.60857" lon="6.11862">
        <ele>1054</ele>
        <time>2015-07-22T09:41:43.000Z</time>
      </trkpt>
      <trkpt lat="46.60863" lon="6.11877">
        <ele>1054</ele>
        <time>2015-07-22T09:41:46.000Z</time>
      </trkpt>
      <trkpt lat="46.60865" lon="6.11898">
        <ele>1054</ele>
        <time>2015-07-22T09:41:49.000Z</time>
      </trkpt>
      <trkpt lat="46.60867" lon="6.11905">
        <ele>1054</ele>
        <time>2015-07-22T09:41:50.000Z</time>
      </trkpt>
      <trkpt lat="46.60875" lon="6.11923">
        <ele>1053.5999755859</ele>
        <time>2015-07-22T09:41:53.000Z</time>
      </trkpt>
      <trkpt lat="46.60879" lon="6.11928">
        <ele>1053.1999511719</ele>
        <time>2015-07-22T09:41:54.000Z</time>
      </trkpt>
      <trkpt lat="46.60882" lon="6.11934">
        <ele>1052.8000488281</ele>
        <time>2015-07-22T09:41:55.000Z</time>
      </trkpt>
      <trkpt lat="46.60885" lon="6.1194">
        <ele>1052.4000244141</ele>
        <time>2015-07-22T09:41:56.000Z</time>
      </trkpt>
      <trkpt lat="46.60887" lon="6.11945">
        <ele>1052</ele>
        <time>2015-07-22T09:41:57.000Z</time>
      </trkpt>
      <trkpt lat="46.60893" lon="6.1196">
        <ele>1052</ele>
        <time>2015-07-22T09:42:00.000Z</time>
      </trkpt>
      <trkpt lat="46.60908" lon="6.11992">
        <ele>1052</ele>
        <time>2015-07-22T09:42:07.000Z</time>
      </trkpt>
      <trkpt lat="46.6091" lon="6.11997">
        <ele>1052</ele>
        <time>2015-07-22T09:42:08.000Z</time>
      </trkpt>
      <trkpt lat="46.60921" lon="6.12015">
        <ele>1052</ele>
        <time>2015-07-22T09:42:12.000Z</time>
      </trkpt>
      <trkpt lat="46.60924" lon="6.12018">
        <ele>1052.4000244141</ele>
        <time>2015-07-22T09:42:13.000Z</time>
      </trkpt>
      <trkpt lat="46.60927" lon="6.12021">
        <ele>1053</ele>
        <time>2015-07-22T09:42:14.000Z</time>
      </trkpt>
      <trkpt lat="46.60929" lon="6.12025">
        <ele>1053.4000244141</ele>
        <time>2015-07-22T09:42:15.000Z</time>
      </trkpt>
      <trkpt lat="46.60933" lon="6.12029">
        <ele>1053.8000488281</ele>
        <time>2015-07-22T09:42:16.000Z</time>
      </trkpt>
      <trkpt lat="46.60935" lon="6.12032">
        <ele>1054.1999511719</ele>
        <time>2015-07-22T09:42:17.000Z</time>
      </trkpt>
      <trkpt lat="46.60958" lon="6.12045">
        <ele>1054.1999511719</ele>
        <time>2015-07-22T09:42:24.000Z</time>
      </trkpt>
      <trkpt lat="46.60963" lon="6.12048">
        <ele>1054.1999511719</ele>
        <time>2015-07-22T09:42:25.000Z</time>
      </trkpt>
      <trkpt lat="46.60978" lon="6.12061">
        <ele>1054.1999511719</ele>
        <time>2015-07-22T09:42:28.000Z</time>
      </trkpt>
      <trkpt lat="46.60987" lon="6.1207">
        <ele>1054.1999511719</ele>
        <time>2015-07-22T09:42:30.000Z</time>
      </trkpt>
      <trkpt lat="46.60997" lon="6.12084">
        <ele>1054.1999511719</ele>
        <time>2015-07-22T09:42:33.000Z</time>
      </trkpt>
      <trkpt lat="46.61016" lon="6.12118">
        <ele>1054.1999511719</ele>
        <time>2015-07-22T09:42:40.000Z</time>
      </trkpt>
      <trkpt lat="46.61032" lon="6.12145">
        <ele>1053.8000488281</ele>
        <time>2015-07-22T09:42:44.000Z</time>
      </trkpt>
      <trkpt lat="46.61037" lon="6.12155">
        <ele>1053.4000244141</ele>
        <time>2015-07-22T09:42:45.000Z</time>
      </trkpt>
      <trkpt lat="46.61041" lon="6.12163">
        <ele>1053</ele>
        <time>2015-07-22T09:42:46.000Z</time>
      </trkpt>
      <trkpt lat="46.61045" lon="6.12168">
        <ele>1052.5999755859</ele>
        <time>2015-07-22T09:42:47.000Z</time>
      </trkpt>
      <trkpt lat="46.61052" lon="6.12173">
        <ele>1052</ele>
        <time>2015-07-22T09:42:48.000Z</time>
      </trkpt>
      <trkpt lat="46.61057" lon="6.12177">
        <ele>1052</ele>
        <time>2015-07-22T09:42:49.000Z</time>
      </trkpt>
      <trkpt lat="46.61081" lon="6.1219">
        <ele>1052</ele>
        <time>2015-07-22T09:42:54.000Z</time>
      </trkpt>
      <trkpt lat="46.61085" lon="6.12192">
        <ele>1052</ele>
        <time>2015-07-22T09:42:55.000Z</time>
      </trkpt>
      <trkpt lat="46.61094" lon="6.12197">
        <ele>1052</ele>
        <time>2015-07-22T09:42:58.000Z</time>
      </trkpt>
      <trkpt lat="46.61109" lon="6.1221">
        <ele>1052</ele>
        <time>2015-07-22T09:43:03.000Z</time>
      </trkpt>
      <trkpt lat="46.61111" lon="6.12215">
        <ele>1052</ele>
        <time>2015-07-22T09:43:04.000Z</time>
      </trkpt>
      <trkpt lat="46.61127" lon="6.12245">
        <ele>1052</ele>
        <time>2015-07-22T09:43:10.000Z</time>
      </trkpt>
      <trkpt lat="46.61136" lon="6.12252">
        <ele>1052.5999755859</ele>
        <time>2015-07-22T09:43:13.000Z</time>
      </trkpt>
      <trkpt lat="46.6114" lon="6.12254">
        <ele>1053</ele>
        <time>2015-07-22T09:43:14.000Z</time>
      </trkpt>
      <trkpt lat="46.61142" lon="6.12255">
        <ele>1053.4000244141</ele>
        <time>2015-07-22T09:43:15.000Z</time>
      </trkpt>
      <trkpt lat="46.61146" lon="6.12256">
        <ele>1053.8000488281</ele>
        <time>2015-07-22T09:43:16.000Z</time>
      </trkpt>
      <trkpt lat="46.61149" lon="6.12256">
        <ele>1054.1999511719</ele>
        <time>2015-07-22T09:43:17.000Z</time>
      </trkpt>
      <trkpt lat="46.6116" lon="6.12258">
        <ele>1054.1999511719</ele>
        <time>2015-07-22T09:43:20.000Z</time>
      </trkpt>
      <trkpt lat="46.61164" lon="6.12257">
        <ele>1054.1999511719</ele>
        <time>2015-07-22T09:43:21.000Z</time>
      </trkpt>
      <trkpt lat="46.61177" lon="6.12255">
        <ele>1054.1999511719</ele>
        <time>2015-07-22T09:43:25.000Z</time>
      </trkpt>
      <trkpt lat="46.6118" lon="6.12253">
        <ele>1054.1999511719</ele>
        <time>2015-07-22T09:43:26.000Z</time>
      </trkpt>
      <trkpt lat="46.61197" lon="6.12242">
        <ele>1054.1999511719</ele>
        <time>2015-07-22T09:43:31.000Z</time>
      </trkpt>
      <trkpt lat="46.61199" lon="6.1224">
        <ele>1054.5999755859</ele>
        <time>2015-07-22T09:43:32.000Z</time>
      </trkpt>
      <trkpt lat="46.61202" lon="6.12238">
        <ele>1055</ele>
        <time>2015-07-22T09:43:33.000Z</time>
      </trkpt>
      <trkpt lat="46.61204" lon="6.12236">
        <ele>1055.5999755859</ele>
        <time>2015-07-22T09:43:34.000Z</time>
      </trkpt>
      <trkpt lat="46.61206" lon="6.12233">
        <ele>1056</ele>
        <time>2015-07-22T09:43:35.000Z</time>
      </trkpt>
      <trkpt lat="46.61209" lon="6.12231">
        <ele>1056.4000244141</ele>
        <time>2015-07-22T09:43:36.000Z</time>
      </trkpt>
      <trkpt lat="46.61213" lon="6.12229">
        <ele>1056.4000244141</ele>
        <time>2015-07-22T09:43:37.000Z</time>
      </trkpt>
      <trkpt lat="46.61231" lon="6.12221">
        <ele>1056.4000244141</ele>
        <time>2015-07-22T09:43:42.000Z</time>
      </trkpt>
      <trkpt lat="46.61241" lon="6.12215">
        <ele>1056.4000244141</ele>
        <time>2015-07-22T09:43:46.000Z</time>
      </trkpt>
      <trkpt lat="46.61247" lon="6.1221">
        <ele>1056.8000488281</ele>
        <time>2015-07-22T09:43:48.000Z</time>
      </trkpt>
      <trkpt lat="46.6125" lon="6.12205">
        <ele>1057.1999511719</ele>
        <time>2015-07-22T09:43:49.000Z</time>
      </trkpt>
      <trkpt lat="46.61252" lon="6.12202">
        <ele>1057.5999755859</ele>
        <time>2015-07-22T09:43:50.000Z</time>
      </trkpt>
      <trkpt lat="46.61254" lon="6.12199">
        <ele>1058.1999511719</ele>
        <time>2015-07-22T09:43:51.000Z</time>
      </trkpt>
      <trkpt lat="46.61255" lon="6.12197">
        <ele>1058.5999755859</ele>
        <time>2015-07-22T09:43:52.000Z</time>
      </trkpt>
      <trkpt lat="46.61257" lon="6.12197">
        <ele>1058.5999755859</ele>
        <time>2015-07-22T09:43:53.000Z</time>
      </trkpt>
      <trkpt lat="46.61261" lon="6.12195">
        <ele>1059</ele>
        <time>2015-07-22T09:43:56.000Z</time>
      </trkpt>
      <trkpt lat="46.61263" lon="6.12193">
        <ele>1059.4000244141</ele>
        <time>2015-07-22T09:43:57.000Z</time>
      </trkpt>
      <trkpt lat="46.61265" lon="6.12193">
        <ele>1059.8000488281</ele>
        <time>2015-07-22T09:43:58.000Z</time>
      </trkpt>
      <trkpt lat="46.61267" lon="6.12193">
        <ele>1060.1999511719</ele>
        <time>2015-07-22T09:43:59.000Z</time>
      </trkpt>
      <trkpt lat="46.61269" lon="6.12193">
        <ele>1060.5999755859</ele>
        <time>2015-07-22T09:44:00.000Z</time>
      </trkpt>
      <trkpt lat="46.61279" lon="6.12194">
        <ele>1060.5999755859</ele>
        <time>2015-07-22T09:44:06.000Z</time>
      </trkpt>
      <trkpt lat="46.61281" lon="6.12194">
        <ele>1060.5999755859</ele>
        <time>2015-07-22T09:44:07.000Z</time>
      </trkpt>
      <trkpt lat="46.61283" lon="6.12194">
        <ele>1060.5999755859</ele>
        <time>2015-07-22T09:44:08.000Z</time>
      </trkpt>
      <trkpt lat="46.61293" lon="6.12189">
        <ele>1060.5999755859</ele>
        <time>2015-07-22T09:44:12.000Z</time>
      </trkpt>
      <trkpt lat="46.61296" lon="6.12185">
        <ele>1061</ele>
        <time>2015-07-22T09:44:14.000Z</time>
      </trkpt>
      <trkpt lat="46.61297" lon="6.12183">
        <ele>1061.4000244141</ele>
        <time>2015-07-22T09:44:15.000Z</time>
      </trkpt>
      <trkpt lat="46.61298" lon="6.12181">
        <ele>1061.8000488281</ele>
        <time>2015-07-22T09:44:16.000Z</time>
      </trkpt>
      <trkpt lat="46.613" lon="6.12179">
        <ele>1062.1999511719</ele>
        <time>2015-07-22T09:44:17.000Z</time>
      </trkpt>
      <trkpt lat="46.61302" lon="6.12176">
        <ele>1062.8000488281</ele>
        <time>2015-07-22T09:44:18.000Z</time>
      </trkpt>
      <trkpt lat="46.61306" lon="6.12173">
        <ele>1062.8000488281</ele>
        <time>2015-07-22T09:44:19.000Z</time>
      </trkpt>
      <trkpt lat="46.61312" lon="6.12164">
        <ele>1062.8000488281</ele>
        <time>2015-07-22T09:44:22.000Z</time>
      </trkpt>
      <trkpt lat="46.61316" lon="6.12159">
        <ele>1062.8000488281</ele>
        <time>2015-07-22T09:44:25.000Z</time>
      </trkpt>
      <trkpt lat="46.61323" lon="6.12149">
        <ele>1063.1999511719</ele>
        <time>2015-07-22T09:44:29.000Z</time>
      </trkpt>
      <trkpt lat="46.61324" lon="6.12147">
        <ele>1063.5999755859</ele>
        <time>2015-07-22T09:44:30.000Z</time>
      </trkpt>
      <trkpt lat="46.61326" lon="6.12144">
        <ele>1064.1999511719</ele>
        <time>2015-07-22T09:44:31.000Z</time>
      </trkpt>
      <trkpt lat="46.61328" lon="6.12143">
        <ele>1064.5999755859</ele>
        <time>2015-07-22T09:44:32.000Z</time>
      </trkpt>
      <trkpt lat="46.6133" lon="6.12141">
        <ele>1065</ele>
        <time>2015-07-22T09:44:33.000Z</time>
      </trkpt>
      <trkpt lat="46.61334" lon="6.12139">
        <ele>1065</ele>
        <time>2015-07-22T09:44:36.000Z</time>
      </trkpt>
      <trkpt lat="46.6134" lon="6.12137">
        <ele>1065.4000244141</ele>
        <time>2015-07-22T09:44:40.000Z</time>
      </trkpt>
      <trkpt lat="46.61342" lon="6.12137">
        <ele>1065.8000488281</ele>
        <time>2015-07-22T09:44:41.000Z</time>
      </trkpt>
      <trkpt lat="46.61344" lon="6.12137">
        <ele>1066.1999511719</ele>
        <time>2015-07-22T09:44:42.000Z</time>
      </trkpt>
      <trkpt lat="46.61346" lon="6.12137">
        <ele>1066.5999755859</ele>
        <time>2015-07-22T09:44:43.000Z</time>
      </trkpt>
      <trkpt lat="46.61348" lon="6.12137">
        <ele>1067</ele>
        <time>2015-07-22T09:44:44.000Z</time>
      </trkpt>
      <trkpt lat="46.61366" lon="6.12132">
        <ele>1067</ele>
        <time>2015-07-22T09:44:50.000Z</time>
      </trkpt>
      <trkpt lat="46.61383" lon="6.12114">
        <ele>1067</ele>
        <time>2015-07-22T09:44:56.000Z</time>
      </trkpt>
      <trkpt lat="46.61392" lon="6.12101">
        <ele>1067</ele>
        <time>2015-07-22T09:45:01.000Z</time>
      </trkpt>
      <trkpt lat="46.61405" lon="6.12087">
        <ele>1067</ele>
        <time>2015-07-22T09:45:05.000Z</time>
      </trkpt>
      <trkpt lat="46.61416" lon="6.12072">
        <ele>1067</ele>
        <time>2015-07-22T09:45:10.000Z</time>
      </trkpt>
      <trkpt lat="46.61425" lon="6.12055">
        <ele>1067</ele>
        <time>2015-07-22T09:45:15.000Z</time>
      </trkpt>
      <trkpt lat="46.61433" lon="6.12046">
        <ele>1067</ele>
        <time>2015-07-22T09:45:18.000Z</time>
      </trkpt>
      <trkpt lat="46.61442" lon="6.12039">
        <ele>1067</ele>
        <time>2015-07-22T09:45:20.000Z</time>
      </trkpt>
      <trkpt lat="46.61465" lon="6.12028">
        <ele>1067</ele>
        <time>2015-07-22T09:45:25.000Z</time>
      </trkpt>
      <trkpt lat="46.61477" lon="6.12022">
        <ele>1067</ele>
        <time>2015-07-22T09:45:30.000Z</time>
      </trkpt>
      <trkpt lat="46.61486" lon="6.12021">
        <ele>1067</ele>
        <time>2015-07-22T09:45:33.000Z</time>
      </trkpt>
      <trkpt lat="46.61507" lon="6.12023">
        <ele>1067</ele>
        <time>2015-07-22T09:45:37.000Z</time>
      </trkpt>
      <trkpt lat="46.61513" lon="6.12025">
        <ele>1067</ele>
        <time>2015-07-22T09:45:38.000Z</time>
      </trkpt>
      <trkpt lat="46.61533" lon="6.12029">
        <ele>1067</ele>
        <time>2015-07-22T09:45:42.000Z</time>
      </trkpt>
      <trkpt lat="46.61538" lon="6.12028">
        <ele>1067</ele>
        <time>2015-07-22T09:45:43.000Z</time>
      </trkpt>
      <trkpt lat="46.61553" lon="6.12021">
        <ele>1067</ele>
        <time>2015-07-22T09:45:47.000Z</time>
      </trkpt>
      <trkpt lat="46.61572" lon="6.11998">
        <ele>1067</ele>
        <time>2015-07-22T09:45:52.000Z</time>
      </trkpt>
      <trkpt lat="46.61586" lon="6.11977">
        <ele>1067</ele>
        <time>2015-07-22T09:45:57.000Z</time>
      </trkpt>
      <trkpt lat="46.61606" lon="6.11954">
        <ele>1067</ele>
        <time>2015-07-22T09:46:03.000Z</time>
      </trkpt>
      <trkpt lat="46.6161" lon="6.11951">
        <ele>1067</ele>
        <time>2015-07-22T09:46:04.000Z</time>
      </trkpt>
      <trkpt lat="46.61625" lon="6.11945">
        <ele>1067</ele>
        <time>2015-07-22T09:46:08.000Z</time>
      </trkpt>
      <trkpt lat="46.61641" lon="6.11943">
        <ele>1067</ele>
        <time>2015-07-22T09:46:12.000Z</time>
      </trkpt>
      <trkpt lat="46.61648" lon="6.11942">
        <ele>1067.5999755859</ele>
        <time>2015-07-22T09:46:14.000Z</time>
      </trkpt>
      <trkpt lat="46.61651" lon="6.11941">
        <ele>1068</ele>
        <time>2015-07-22T09:46:15.000Z</time>
      </trkpt>
      <trkpt lat="46.61655" lon="6.11941">
        <ele>1068.4000244141</ele>
        <time>2015-07-22T09:46:16.000Z</time>
      </trkpt>
      <trkpt lat="46.61658" lon="6.11941">
        <ele>1068.8000488281</ele>
        <time>2015-07-22T09:46:17.000Z</time>
      </trkpt>
      <trkpt lat="46.61661" lon="6.11941">
        <ele>1069.4000244141</ele>
        <time>2015-07-22T09:46:18.000Z</time>
      </trkpt>
      <trkpt lat="46.61683" lon="6.11941">
        <ele>1069.4000244141</ele>
        <time>2015-07-22T09:46:23.000Z</time>
      </trkpt>
      <trkpt lat="46.61708" lon="6.11935">
        <ele>1069.4000244141</ele>
        <time>2015-07-22T09:46:29.000Z</time>
      </trkpt>
      <trkpt lat="46.6173" lon="6.11915">
        <ele>1069.4000244141</ele>
        <time>2015-07-22T09:46:35.000Z</time>
      </trkpt>
      <trkpt lat="46.61748" lon="6.11888">
        <ele>1069.4000244141</ele>
        <time>2015-07-22T09:46:42.000Z</time>
      </trkpt>
      <trkpt lat="46.61756" lon="6.11859">
        <ele>1069.4000244141</ele>
        <time>2015-07-22T09:46:47.000Z</time>
      </trkpt>
      <trkpt lat="46.61771" lon="6.11818">
        <ele>1069.4000244141</ele>
        <time>2015-07-22T09:46:54.000Z</time>
      </trkpt>
      <trkpt lat="46.61781" lon="6.11785">
        <ele>1069.4000244141</ele>
        <time>2015-07-22T09:46:59.000Z</time>
      </trkpt>
      <trkpt lat="46.61798" lon="6.11745">
        <ele>1069.4000244141</ele>
        <time>2015-07-22T09:47:06.000Z</time>
      </trkpt>
      <trkpt lat="46.61803" lon="6.11733">
        <ele>1069.4000244141</ele>
        <time>2015-07-22T09:47:08.000Z</time>
      </trkpt>
      <trkpt lat="46.61813" lon="6.11708">
        <ele>1069.4000244141</ele>
        <time>2015-07-22T09:47:12.000Z</time>
      </trkpt>
      <trkpt lat="46.61819" lon="6.11696">
        <ele>1069.4000244141</ele>
        <time>2015-07-22T09:47:14.000Z</time>
      </trkpt>
      <trkpt lat="46.61831" lon="6.11669">
        <ele>1069.4000244141</ele>
        <time>2015-07-22T09:47:18.000Z</time>
      </trkpt>
      <trkpt lat="46.61842" lon="6.11637">
        <ele>1069.4000244141</ele>
        <time>2015-07-22T09:47:23.000Z</time>
      </trkpt>
      <trkpt lat="46.61851" lon="6.11603">
        <ele>1069.4000244141</ele>
        <time>2015-07-22T09:47:27.000Z</time>
      </trkpt>
      <trkpt lat="46.6186" lon="6.1156">
        <ele>1069.4000244141</ele>
        <time>2015-07-22T09:47:33.000Z</time>
      </trkpt>
      <trkpt lat="46.61869" lon="6.11527">
        <ele>1069.4000244141</ele>
        <time>2015-07-22T09:47:38.000Z</time>
      </trkpt>
      <trkpt lat="46.61876" lon="6.11521">
        <ele>1069.4000244141</ele>
        <time>2015-07-22T09:47:40.000Z</time>
      </trkpt>
      <trkpt lat="46.61883" lon="6.11521">
        <ele>1069.4000244141</ele>
        <time>2015-07-22T09:47:42.000Z</time>
      </trkpt>
      <trkpt lat="46.61903" lon="6.1153">
        <ele>1069.4000244141</ele>
        <time>2015-07-22T09:47:49.000Z</time>
      </trkpt>
      <trkpt lat="46.61922" lon="6.11532">
        <ele>1069.4000244141</ele>
        <time>2015-07-22T09:47:55.000Z</time>
      </trkpt>
      <trkpt lat="46.61938" lon="6.11538">
        <ele>1069.4000244141</ele>
        <time>2015-07-22T09:48:00.000Z</time>
      </trkpt>
      <trkpt lat="46.61945" lon="6.11541">
        <ele>1069.8000488281</ele>
        <time>2015-07-22T09:48:02.000Z</time>
      </trkpt>
      <trkpt lat="46.61949" lon="6.1154">
        <ele>1070.1999511719</ele>
        <time>2015-07-22T09:48:03.000Z</time>
      </trkpt>
      <trkpt lat="46.61952" lon="6.11539">
        <ele>1070.5999755859</ele>
        <time>2015-07-22T09:48:04.000Z</time>
      </trkpt>
      <trkpt lat="46.61955" lon="6.11539">
        <ele>1071</ele>
        <time>2015-07-22T09:48:05.000Z</time>
      </trkpt>
      <trkpt lat="46.61958" lon="6.11538">
        <ele>1071.4000244141</ele>
        <time>2015-07-22T09:48:06.000Z</time>
      </trkpt>
      <trkpt lat="46.61971" lon="6.11536">
        <ele>1071.4000244141</ele>
        <time>2015-07-22T09:48:10.000Z</time>
      </trkpt>
      <trkpt lat="46.61982" lon="6.11526">
        <ele>1071.4000244141</ele>
        <time>2015-07-22T09:48:16.000Z</time>
      </trkpt>
      <trkpt lat="46.61988" lon="6.11526">
        <ele>1071.8000488281</ele>
        <time>2015-07-22T09:48:21.000Z</time>
      </trkpt>
      <trkpt lat="46.61988" lon="6.11528">
        <ele>1072.1999511719</ele>
        <time>2015-07-22T09:48:22.000Z</time>
      </trkpt>
      <trkpt lat="46.61987" lon="6.11529">
        <ele>1072.8000488281</ele>
        <time>2015-07-22T09:48:23.000Z</time>
      </trkpt>
      <trkpt lat="46.61984" lon="6.1153">
        <ele>1073.1999511719</ele>
        <time>2015-07-22T09:48:24.000Z</time>
      </trkpt>
      <trkpt lat="46.61982" lon="6.11532">
        <ele>1073.5999755859</ele>
        <time>2015-07-22T09:48:25.000Z</time>
      </trkpt>
      <trkpt lat="46.61977" lon="6.11543">
        <ele>1073.5999755859</ele>
        <time>2015-07-22T09:48:27.000Z</time>
      </trkpt>
      <trkpt lat="46.61978" lon="6.1157">
        <ele>1073.5999755859</ele>
        <time>2015-07-22T09:48:32.000Z</time>
      </trkpt>
      <trkpt lat="46.6198" lon="6.11576">
        <ele>1073.5999755859</ele>
        <time>2015-07-22T09:48:33.000Z</time>
      </trkpt>
      <trkpt lat="46.61982" lon="6.1158">
        <ele>1073.1999511719</ele>
        <time>2015-07-22T09:48:34.000Z</time>
      </trkpt>
      <trkpt lat="46.61984" lon="6.11585">
        <ele>1072.8000488281</ele>
        <time>2015-07-22T09:48:35.000Z</time>
      </trkpt>
      <trkpt lat="46.61986" lon="6.1159">
        <ele>1072.4000244141</ele>
        <time>2015-07-22T09:48:36.000Z</time>
      </trkpt>
      <trkpt lat="46.61988" lon="6.11595">
        <ele>1071.8000488281</ele>
        <time>2015-07-22T09:48:37.000Z</time>
      </trkpt>
      <trkpt lat="46.61989" lon="6.116">
        <ele>1071.4000244141</ele>
        <time>2015-07-22T09:48:38.000Z</time>
      </trkpt>
      <trkpt lat="46.61994" lon="6.11609">
        <ele>1071.4000244141</ele>
        <time>2015-07-22T09:48:41.000Z</time>
      </trkpt>
      <trkpt lat="46.62" lon="6.11613">
        <ele>1071.4000244141</ele>
        <time>2015-07-22T09:48:47.000Z</time>
      </trkpt>
      <trkpt lat="46.62" lon="6.11614">
        <ele>1071.4000244141</ele>
        <time>2015-07-22T09:48:58.000Z</time>
      </trkpt>
      <trkpt lat="46.61999" lon="6.11612">
        <ele>1071.4000244141</ele>
        <time>2015-07-22T09:49:55.000Z</time>
      </trkpt>
      <trkpt lat="46.61998" lon="6.11609">
        <ele>1071.4000244141</ele>
        <time>2015-07-22T09:49:56.000Z</time>
      </trkpt>
      <trkpt lat="46.61988" lon="6.11594">
        <ele>1071.4000244141</ele>
        <time>2015-07-22T09:50:00.000Z</time>
      </trkpt>
      <trkpt lat="46.61983" lon="6.11576">
        <ele>1071.4000244141</ele>
        <time>2015-07-22T09:50:05.000Z</time>
      </trkpt>
      <trkpt lat="46.6198" lon="6.1156">
        <ele>1071.4000244141</ele>
        <time>2015-07-22T09:50:10.000Z</time>
      </trkpt>
      <trkpt lat="46.61975" lon="6.11535">
        <ele>1071.4000244141</ele>
        <time>2015-07-22T09:50:18.000Z</time>
      </trkpt>
      <trkpt lat="46.61987" lon="6.11526">
        <ele>1071.4000244141</ele>
        <time>2015-07-22T09:50:24.000Z</time>
      </trkpt>
      <trkpt lat="46.61995" lon="6.11525">
        <ele>1071.4000244141</ele>
        <time>2015-07-22T09:50:27.000Z</time>
      </trkpt>
      <trkpt lat="46.61998" lon="6.11523">
        <ele>1071.4000244141</ele>
        <time>2015-07-22T09:50:28.000Z</time>
      </trkpt>
      <trkpt lat="46.62009" lon="6.11521">
        <ele>1071.8000488281</ele>
        <time>2015-07-22T09:50:32.000Z</time>
      </trkpt>
      <trkpt lat="46.6201" lon="6.11521">
        <ele>1072.4000244141</ele>
        <time>2015-07-22T09:50:33.000Z</time>
      </trkpt>
      <trkpt lat="46.62012" lon="6.11521">
        <ele>1072.8000488281</ele>
        <time>2015-07-22T09:50:34.000Z</time>
      </trkpt>
      <trkpt lat="46.62015" lon="6.1152">
        <ele>1073.1999511719</ele>
        <time>2015-07-22T09:50:35.000Z</time>
      </trkpt>
      <trkpt lat="46.62017" lon="6.1152">
        <ele>1073.8000488281</ele>
        <time>2015-07-22T09:50:36.000Z</time>
      </trkpt>
      <trkpt lat="46.62022" lon="6.11521">
        <ele>1073.8000488281</ele>
        <time>2015-07-22T09:50:39.000Z</time>
      </trkpt>
      <trkpt lat="46.62029" lon="6.11519">
        <ele>1074.1999511719</ele>
        <time>2015-07-22T09:50:43.000Z</time>
      </trkpt>
      <trkpt lat="46.6203" lon="6.11518">
        <ele>1074.8000488281</ele>
        <time>2015-07-22T09:50:44.000Z</time>
      </trkpt>
      <trkpt lat="46.62031" lon="6.11517">
        <ele>1075.1999511719</ele>
        <time>2015-07-22T09:50:45.000Z</time>
      </trkpt>
      <trkpt lat="46.62032" lon="6.11516">
        <ele>1075.5999755859</ele>
        <time>2015-07-22T09:50:46.000Z</time>
      </trkpt>
      <trkpt lat="46.62033" lon="6.11515">
        <ele>1076.1999511719</ele>
        <time>2015-07-22T09:50:47.000Z</time>
      </trkpt>
      <trkpt lat="46.62042" lon="6.11508">
        <ele>1076.1999511719</ele>
        <time>2015-07-22T09:50:52.000Z</time>
      </trkpt>
      <trkpt lat="46.62063" lon="6.11495">
        <ele>1075.8000488281</ele>
        <time>2015-07-22T09:50:58.000Z</time>
      </trkpt>
      <trkpt lat="46.62067" lon="6.1149">
        <ele>1075.4000244141</ele>
        <time>2015-07-22T09:50:59.000Z</time>
      </trkpt>
      <trkpt lat="46.62071" lon="6.11487">
        <ele>1075</ele>
        <time>2015-07-22T09:51:00.000Z</time>
      </trkpt>
      <trkpt lat="46.62075" lon="6.11484">
        <ele>1074.5999755859</ele>
        <time>2015-07-22T09:51:01.000Z</time>
      </trkpt>
      <trkpt lat="46.62079" lon="6.11483">
        <ele>1074</ele>
        <time>2015-07-22T09:51:02.000Z</time>
      </trkpt>
      <trkpt lat="46.62084" lon="6.11482">
        <ele>1074</ele>
        <time>2015-07-22T09:51:03.000Z</time>
      </trkpt>
      <trkpt lat="46.62107" lon="6.11474">
        <ele>1073.5999755859</ele>
        <time>2015-07-22T09:51:09.000Z</time>
      </trkpt>
      <trkpt lat="46.6211" lon="6.11473">
        <ele>1073.1999511719</ele>
        <time>2015-07-22T09:51:10.000Z</time>
      </trkpt>
      <trkpt lat="46.62113" lon="6.11471">
        <ele>1072.8000488281</ele>
        <time>2015-07-22T09:51:11.000Z</time>
      </trkpt>
      <trkpt lat="46.62115" lon="6.11469">
        <ele>1072.1999511719</ele>
        <time>2015-07-22T09:51:12.000Z</time>
      </trkpt>
      <trkpt lat="46.62116" lon="6.11466">
        <ele>1071.8000488281</ele>
        <time>2015-07-22T09:51:13.000Z</time>
      </trkpt>
      <trkpt lat="46.62118" lon="6.11462">
        <ele>1071.8000488281</ele>
        <time>2015-07-22T09:51:14.000Z</time>
      </trkpt>
      <trkpt lat="46.62127" lon="6.11446">
        <ele>1071.4000244141</ele>
        <time>2015-07-22T09:51:18.000Z</time>
      </trkpt>
      <trkpt lat="46.6213" lon="6.11442">
        <ele>1071</ele>
        <time>2015-07-22T09:51:19.000Z</time>
      </trkpt>
      <trkpt lat="46.62131" lon="6.11438">
        <ele>1070.5999755859</ele>
        <time>2015-07-22T09:51:20.000Z</time>
      </trkpt>
      <trkpt lat="46.62133" lon="6.11434">
        <ele>1070.1999511719</ele>
        <time>2015-07-22T09:51:21.000Z</time>
      </trkpt>
      <trkpt lat="46.62135" lon="6.11431">
        <ele>1069.8000488281</ele>
        <time>2015-07-22T09:51:22.000Z</time>
      </trkpt>
      <trkpt lat="46.62137" lon="6.11427">
        <ele>1069.1999511719</ele>
        <time>2015-07-22T09:51:23.000Z</time>
      </trkpt>
      <trkpt lat="46.62139" lon="6.11424">
        <ele>1068.8000488281</ele>
        <time>2015-07-22T09:51:24.000Z</time>
      </trkpt>
      <trkpt lat="46.62141" lon="6.11421">
        <ele>1068.4000244141</ele>
        <time>2015-07-22T09:51:25.000Z</time>
      </trkpt>
      <trkpt lat="46.62142" lon="6.11419">
        <ele>1067.8000488281</ele>
        <time>2015-07-22T09:51:26.000Z</time>
      </trkpt>
      <trkpt lat="46.62143" lon="6.11417">
        <ele>1067.4000244141</ele>
        <time>2015-07-22T09:51:27.000Z</time>
      </trkpt>
      <trkpt lat="46.62147" lon="6.11413">
        <ele>1067.4000244141</ele>
        <time>2015-07-22T09:51:30.000Z</time>
      </trkpt>
      <trkpt lat="46.62156" lon="6.11408">
        <ele>1067.4000244141</ele>
        <time>2015-07-22T09:51:33.000Z</time>
      </trkpt>
      <trkpt lat="46.62159" lon="6.11407">
        <ele>1067.4000244141</ele>
        <time>2015-07-22T09:51:34.000Z</time>
      </trkpt>
      <trkpt lat="46.62174" lon="6.11412">
        <ele>1067.4000244141</ele>
        <time>2015-07-22T09:51:39.000Z</time>
      </trkpt>
      <trkpt lat="46.62191" lon="6.11415">
        <ele>1067</ele>
        <time>2015-07-22T09:51:43.000Z</time>
      </trkpt>
      <trkpt lat="46.62194" lon="6.11416">
        <ele>1066.4000244141</ele>
        <time>2015-07-22T09:51:44.000Z</time>
      </trkpt>
      <trkpt lat="46.62196" lon="6.11416">
        <ele>1066</ele>
        <time>2015-07-22T09:51:45.000Z</time>
      </trkpt>
      <trkpt lat="46.62198" lon="6.11417">
        <ele>1065.5999755859</ele>
        <time>2015-07-22T09:51:46.000Z</time>
      </trkpt>
      <trkpt lat="46.622" lon="6.11417">
        <ele>1065.1999511719</ele>
        <time>2015-07-22T09:51:47.000Z</time>
      </trkpt>
      <trkpt lat="46.62204" lon="6.11417">
        <ele>1065.1999511719</ele>
        <time>2015-07-22T09:51:50.000Z</time>
      </trkpt>
      <trkpt lat="46.62207" lon="6.11418">
        <ele>1065.5999755859</ele>
        <time>2015-07-22T09:51:52.000Z</time>
      </trkpt>
      <trkpt lat="46.62208" lon="6.11418">
        <ele>1066</ele>
        <time>2015-07-22T09:51:53.000Z</time>
      </trkpt>
      <trkpt lat="46.62209" lon="6.11418">
        <ele>1066.4000244141</ele>
        <time>2015-07-22T09:51:54.000Z</time>
      </trkpt>
      <trkpt lat="46.62211" lon="6.11418">
        <ele>1067</ele>
        <time>2015-07-22T09:51:55.000Z</time>
      </trkpt>
      <trkpt lat="46.62213" lon="6.11417">
        <ele>1067.4000244141</ele>
        <time>2015-07-22T09:51:56.000Z</time>
      </trkpt>
      <trkpt lat="46.6222" lon="6.11417">
        <ele>1067.8000488281</ele>
        <time>2015-07-22T09:52:00.000Z</time>
      </trkpt>
      <trkpt lat="46.62223" lon="6.11416">
        <ele>1068.1999511719</ele>
        <time>2015-07-22T09:52:01.000Z</time>
      </trkpt>
      <trkpt lat="46.62226" lon="6.11415">
        <ele>1068.8000488281</ele>
        <time>2015-07-22T09:52:02.000Z</time>
      </trkpt>
      <trkpt lat="46.6223" lon="6.11414">
        <ele>1069.1999511719</ele>
        <time>2015-07-22T09:52:03.000Z</time>
      </trkpt>
      <trkpt lat="46.62233" lon="6.11414">
        <ele>1069.5999755859</ele>
        <time>2015-07-22T09:52:04.000Z</time>
      </trkpt>
      <trkpt lat="46.62234" lon="6.11413">
        <ele>1069.5999755859</ele>
        <time>2015-07-22T09:52:05.000Z</time>
      </trkpt>
      <trkpt lat="46.62242" lon="6.11405">
        <ele>1069.5999755859</ele>
        <time>2015-07-22T09:52:10.000Z</time>
      </trkpt>
      <trkpt lat="46.62244" lon="6.11403">
        <ele>1069.5999755859</ele>
        <time>2015-07-22T09:52:11.000Z</time>
      </trkpt>
      <trkpt lat="46.62256" lon="6.11394">
        <ele>1069.5999755859</ele>
        <time>2015-07-22T09:52:18.000Z</time>
      </trkpt>
      <trkpt lat="46.62258" lon="6.11394">
        <ele>1069.5999755859</ele>
        <time>2015-07-22T09:52:19.000Z</time>
      </trkpt>
      <trkpt lat="46.62263" lon="6.11394">
        <ele>1069.5999755859</ele>
        <time>2015-07-22T09:52:22.000Z</time>
      </trkpt>
      <trkpt lat="46.62267" lon="6.11393">
        <ele>1070</ele>
        <time>2015-07-22T09:52:24.000Z</time>
      </trkpt>
      <trkpt lat="46.62269" lon="6.11392">
        <ele>1070.4000244141</ele>
        <time>2015-07-22T09:52:25.000Z</time>
      </trkpt>
      <trkpt lat="46.62271" lon="6.11391">
        <ele>1070.8000488281</ele>
        <time>2015-07-22T09:52:26.000Z</time>
      </trkpt>
      <trkpt lat="46.62273" lon="6.1139">
        <ele>1071.1999511719</ele>
        <time>2015-07-22T09:52:27.000Z</time>
      </trkpt>
      <trkpt lat="46.62274" lon="6.1139">
        <ele>1071.5999755859</ele>
        <time>2015-07-22T09:52:28.000Z</time>
      </trkpt>
      <trkpt lat="46.62286" lon="6.11384">
        <ele>1071.5999755859</ele>
        <time>2015-07-22T09:52:33.000Z</time>
      </trkpt>
      <trkpt lat="46.62298" lon="6.11374">
        <ele>1071.5999755859</ele>
        <time>2015-07-22T09:52:39.000Z</time>
      </trkpt>
      <trkpt lat="46.62315" lon="6.11358">
        <ele>1071.5999755859</ele>
        <time>2015-07-22T09:52:47.000Z</time>
      </trkpt>
      <trkpt lat="46.62329" lon="6.11341">
        <ele>1071.5999755859</ele>
        <time>2015-07-22T09:52:54.000Z</time>
      </trkpt>
      <trkpt lat="46.62335" lon="6.11328">
        <ele>1071.5999755859</ele>
        <time>2015-07-22T09:53:00.000Z</time>
      </trkpt>
      <trkpt lat="46.62337" lon="6.11325">
        <ele>1071.5999755859</ele>
        <time>2015-07-22T09:53:01.000Z</time>
      </trkpt>
      <trkpt lat="46.62347" lon="6.11306">
        <ele>1071.5999755859</ele>
        <time>2015-07-22T09:53:06.000Z</time>
      </trkpt>
      <trkpt lat="46.62362" lon="6.11284">
        <ele>1071.5999755859</ele>
        <time>2015-07-22T09:53:13.000Z</time>
      </trkpt>
      <trkpt lat="46.62373" lon="6.11285">
        <ele>1071.5999755859</ele>
        <time>2015-07-22T09:53:17.000Z</time>
      </trkpt>
      <trkpt lat="46.6239" lon="6.11288">
        <ele>1071.5999755859</ele>
        <time>2015-07-22T09:53:23.000Z</time>
      </trkpt>
      <trkpt lat="46.62408" lon="6.11288">
        <ele>1072</ele>
        <time>2015-07-22T09:53:30.000Z</time>
      </trkpt>
      <trkpt lat="46.6241" lon="6.11288">
        <ele>1072.4000244141</ele>
        <time>2015-07-22T09:53:31.000Z</time>
      </trkpt>
      <trkpt lat="46.62413" lon="6.11288">
        <ele>1073</ele>
        <time>2015-07-22T09:53:32.000Z</time>
      </trkpt>
      <trkpt lat="46.62416" lon="6.11288">
        <ele>1073.4000244141</ele>
        <time>2015-07-22T09:53:33.000Z</time>
      </trkpt>
      <trkpt lat="46.6242" lon="6.11289">
        <ele>1073.8000488281</ele>
        <time>2015-07-22T09:53:34.000Z</time>
      </trkpt>
      <trkpt lat="46.62423" lon="6.11288">
        <ele>1073.8000488281</ele>
        <time>2015-07-22T09:53:35.000Z</time>
      </trkpt>
      <trkpt lat="46.62445" lon="6.11286">
        <ele>1073.8000488281</ele>
        <time>2015-07-22T09:53:41.000Z</time>
      </trkpt>
      <trkpt lat="46.6245" lon="6.11286">
        <ele>1074.1999511719</ele>
        <time>2015-07-22T09:53:42.000Z</time>
      </trkpt>
      <trkpt lat="46.62454" lon="6.11287">
        <ele>1074.5999755859</ele>
        <time>2015-07-22T09:53:43.000Z</time>
      </trkpt>
      <trkpt lat="46.62457" lon="6.11287">
        <ele>1075</ele>
        <time>2015-07-22T09:53:44.000Z</time>
      </trkpt>
      <trkpt lat="46.6246" lon="6.11288">
        <ele>1075.4000244141</ele>
        <time>2015-07-22T09:53:45.000Z</time>
      </trkpt>
      <trkpt lat="46.62465" lon="6.11288">
        <ele>1075.8000488281</ele>
        <time>2015-07-22T09:53:46.000Z</time>
      </trkpt>
      <trkpt lat="46.62474" lon="6.11289">
        <ele>1075.8000488281</ele>
        <time>2015-07-22T09:53:48.000Z</time>
      </trkpt>
      <trkpt lat="46.6251" lon="6.11294">
        <ele>1075.8000488281</ele>
        <time>2015-07-22T09:53:56.000Z</time>
      </trkpt>
      <trkpt lat="46.62535" lon="6.113">
        <ele>1076.4000244141</ele>
        <time>2015-07-22T09:54:02.000Z</time>
      </trkpt>
      <trkpt lat="46.62539" lon="6.11301">
        <ele>1076.8000488281</ele>
        <time>2015-07-22T09:54:03.000Z</time>
      </trkpt>
      <trkpt lat="46.62544" lon="6.11302">
        <ele>1077.1999511719</ele>
        <time>2015-07-22T09:54:04.000Z</time>
      </trkpt>
      <trkpt lat="46.62547" lon="6.11303">
        <ele>1077.5999755859</ele>
        <time>2015-07-22T09:54:05.000Z</time>
      </trkpt>
      <trkpt lat="46.62553" lon="6.11305">
        <ele>1078.1999511719</ele>
        <time>2015-07-22T09:54:06.000Z</time>
      </trkpt>
      <trkpt lat="46.62567" lon="6.1131">
        <ele>1078.1999511719</ele>
        <time>2015-07-22T09:54:09.000Z</time>
      </trkpt>
      <trkpt lat="46.62596" lon="6.11323">
        <ele>1078.1999511719</ele>
        <time>2015-07-22T09:54:16.000Z</time>
      </trkpt>
      <trkpt lat="46.62608" lon="6.11326">
        <ele>1078.1999511719</ele>
        <time>2015-07-22T09:54:20.000Z</time>
      </trkpt>
      <trkpt lat="46.62627" lon="6.1132">
        <ele>1078.1999511719</ele>
        <time>2015-07-22T09:54:25.000Z</time>
      </trkpt>
      <trkpt lat="46.62643" lon="6.11314">
        <ele>1078.5999755859</ele>
        <time>2015-07-22T09:54:30.000Z</time>
      </trkpt>
      <trkpt lat="46.62647" lon="6.11313">
        <ele>1079</ele>
        <time>2015-07-22T09:54:31.000Z</time>
      </trkpt>
      <trkpt lat="46.62651" lon="6.11313">
        <ele>1079.4000244141</ele>
        <time>2015-07-22T09:54:32.000Z</time>
      </trkpt>
      <trkpt lat="46.62659" lon="6.11312">
        <ele>1079.8000488281</ele>
        <time>2015-07-22T09:54:34.000Z</time>
      </trkpt>
      <trkpt lat="46.62664" lon="6.11309">
        <ele>1080.1999511719</ele>
        <time>2015-07-22T09:54:36.000Z</time>
      </trkpt>
      <trkpt lat="46.6268" lon="6.11305">
        <ele>1080.5999755859</ele>
        <time>2015-07-22T09:54:42.000Z</time>
      </trkpt>
      <trkpt lat="46.62682" lon="6.11305">
        <ele>1081.1999511719</ele>
        <time>2015-07-22T09:54:43.000Z</time>
      </trkpt>
      <trkpt lat="46.62684" lon="6.11304">
        <ele>1081.5999755859</ele>
        <time>2015-07-22T09:54:44.000Z</time>
      </trkpt>
      <trkpt lat="46.62686" lon="6.11303">
        <ele>1082</ele>
        <time>2015-07-22T09:54:45.000Z</time>
      </trkpt>
      <trkpt lat="46.62689" lon="6.11303">
        <ele>1082.5999755859</ele>
        <time>2015-07-22T09:54:46.000Z</time>
      </trkpt>
      <trkpt lat="46.62696" lon="6.11303">
        <ele>1083</ele>
        <time>2015-07-22T09:54:51.000Z</time>
      </trkpt>
      <trkpt lat="46.62698" lon="6.11304">
        <ele>1083.4000244141</ele>
        <time>2015-07-22T09:54:52.000Z</time>
      </trkpt>
      <trkpt lat="46.627" lon="6.11305">
        <ele>1083.8000488281</ele>
        <time>2015-07-22T09:54:53.000Z</time>
      </trkpt>
      <trkpt lat="46.62702" lon="6.11306">
        <ele>1084.1999511719</ele>
        <time>2015-07-22T09:54:54.000Z</time>
      </trkpt>
      <trkpt lat="46.62704" lon="6.11306">
        <ele>1084.5999755859</ele>
        <time>2015-07-22T09:54:55.000Z</time>
      </trkpt>
      <trkpt lat="46.6271" lon="6.11309">
        <ele>1085</ele>
        <time>2015-07-22T09:54:59.000Z</time>
      </trkpt>
      <trkpt lat="46.62711" lon="6.11308">
        <ele>1085.4000244141</ele>
        <time>2015-07-22T09:55:00.000Z</time>
      </trkpt>
      <trkpt lat="46.62713" lon="6.11309">
        <ele>1085.8000488281</ele>
        <time>2015-07-22T09:55:01.000Z</time>
      </trkpt>
      <trkpt lat="46.62714" lon="6.1131">
        <ele>1086.1999511719</ele>
        <time>2015-07-22T09:55:02.000Z</time>
      </trkpt>
      <trkpt lat="46.62715" lon="6.11311">
        <ele>1086.5999755859</ele>
        <time>2015-07-22T09:55:03.000Z</time>
      </trkpt>
      <trkpt lat="46.62717" lon="6.11313">
        <ele>1087.1999511719</ele>
        <time>2015-07-22T09:55:05.000Z</time>
      </trkpt>
      <trkpt lat="46.62719" lon="6.11314">
        <ele>1087.5999755859</ele>
        <time>2015-07-22T09:55:06.000Z</time>
      </trkpt>
      <trkpt lat="46.62722" lon="6.11315">
        <ele>1088</ele>
        <time>2015-07-22T09:55:07.000Z</time>
      </trkpt>
      <trkpt lat="46.62724" lon="6.11315">
        <ele>1088.4000244141</ele>
        <time>2015-07-22T09:55:08.000Z</time>
      </trkpt>
      <trkpt lat="46.62725" lon="6.11316">
        <ele>1088.8000488281</ele>
        <time>2015-07-22T09:55:09.000Z</time>
      </trkpt>
      <trkpt lat="46.62731" lon="6.11322">
        <ele>1089.1999511719</ele>
        <time>2015-07-22T09:55:13.000Z</time>
      </trkpt>
      <trkpt lat="46.62732" lon="6.11323">
        <ele>1089.8000488281</ele>
        <time>2015-07-22T09:55:14.000Z</time>
      </trkpt>
      <trkpt lat="46.62734" lon="6.11324">
        <ele>1090.1999511719</ele>
        <time>2015-07-22T09:55:15.000Z</time>
      </trkpt>
      <trkpt lat="46.62736" lon="6.11325">
        <ele>1090.5999755859</ele>
        <time>2015-07-22T09:55:16.000Z</time>
      </trkpt>
      <trkpt lat="46.62737" lon="6.11326">
        <ele>1091.1999511719</ele>
        <time>2015-07-22T09:55:17.000Z</time>
      </trkpt>
      <trkpt lat="46.62743" lon="6.11331">
        <ele>1091.1999511719</ele>
        <time>2015-07-22T09:55:21.000Z</time>
      </trkpt>
      <trkpt lat="46.62745" lon="6.11333">
        <ele>1091.5999755859</ele>
        <time>2015-07-22T09:55:22.000Z</time>
      </trkpt>
      <trkpt lat="46.62747" lon="6.11334">
        <ele>1092</ele>
        <time>2015-07-22T09:55:23.000Z</time>
      </trkpt>
      <trkpt lat="46.62748" lon="6.11335">
        <ele>1092.4000244141</ele>
        <time>2015-07-22T09:55:24.000Z</time>
      </trkpt>
      <trkpt lat="46.6275" lon="6.11336">
        <ele>1092.8000488281</ele>
        <time>2015-07-22T09:55:25.000Z</time>
      </trkpt>
      <trkpt lat="46.62751" lon="6.11338">
        <ele>1093.1999511719</ele>
        <time>2015-07-22T09:55:26.000Z</time>
      </trkpt>
      <trkpt lat="46.62753" lon="6.11341">
        <ele>1093.1999511719</ele>
        <time>2015-07-22T09:55:28.000Z</time>
      </trkpt>
      <trkpt lat="46.62766" lon="6.11363">
        <ele>1093.1999511719</ele>
        <time>2015-07-22T09:55:36.000Z</time>
      </trkpt>
      <trkpt lat="46.62787" lon="6.11397">
        <ele>1093.1999511719</ele>
        <time>2015-07-22T09:55:43.000Z</time>
      </trkpt>
      <trkpt lat="46.62798" lon="6.11414">
        <ele>1093.1999511719</ele>
        <time>2015-07-22T09:55:46.000Z</time>
      </trkpt>
      <trkpt lat="46.62799" lon="6.1142">
        <ele>1093.1999511719</ele>
        <time>2015-07-22T09:55:48.000Z</time>
      </trkpt>
      <trkpt lat="46.62802" lon="6.11436">
        <ele>1093.1999511719</ele>
        <time>2015-07-22T09:55:54.000Z</time>
      </trkpt>
      <trkpt lat="46.62799" lon="6.11464">
        <ele>1093.1999511719</ele>
        <time>2015-07-22T09:56:00.000Z</time>
      </trkpt>
      <trkpt lat="46.62796" lon="6.11506">
        <ele>1093.1999511719</ele>
        <time>2015-07-22T09:56:08.000Z</time>
      </trkpt>
      <trkpt lat="46.62802" lon="6.11532">
        <ele>1093.1999511719</ele>
        <time>2015-07-22T09:56:14.000Z</time>
      </trkpt>
      <trkpt lat="46.62807" lon="6.11543">
        <ele>1093.5999755859</ele>
        <time>2015-07-22T09:56:17.000Z</time>
      </trkpt>
      <trkpt lat="46.62808" lon="6.11546">
        <ele>1094</ele>
        <time>2015-07-22T09:56:18.000Z</time>
      </trkpt>
      <trkpt lat="46.6281" lon="6.1155">
        <ele>1094.4000244141</ele>
        <time>2015-07-22T09:56:19.000Z</time>
      </trkpt>
      <trkpt lat="46.62811" lon="6.11553">
        <ele>1094.8000488281</ele>
        <time>2015-07-22T09:56:20.000Z</time>
      </trkpt>
      <trkpt lat="46.62812" lon="6.11555">
        <ele>1095.1999511719</ele>
        <time>2015-07-22T09:56:21.000Z</time>
      </trkpt>
      <trkpt lat="46.62818" lon="6.1157">
        <ele>1095.1999511719</ele>
        <time>2015-07-22T09:56:26.000Z</time>
      </trkpt>
      <trkpt lat="46.6282" lon="6.11574">
        <ele>1095.5999755859</ele>
        <time>2015-07-22T09:56:28.000Z</time>
      </trkpt>
      <trkpt lat="46.6282" lon="6.11576">
        <ele>1096</ele>
        <time>2015-07-22T09:56:29.000Z</time>
      </trkpt>
      <trkpt lat="46.62821" lon="6.11579">
        <ele>1096.4000244141</ele>
        <time>2015-07-22T09:56:30.000Z</time>
      </trkpt>
      <trkpt lat="46.62822" lon="6.11582">
        <ele>1096.8000488281</ele>
        <time>2015-07-22T09:56:31.000Z</time>
      </trkpt>
      <trkpt lat="46.62823" lon="6.11586">
        <ele>1097.4000244141</ele>
        <time>2015-07-22T09:56:32.000Z</time>
      </trkpt>
      <trkpt lat="46.62824" lon="6.1159">
        <ele>1097.4000244141</ele>
        <time>2015-07-22T09:56:33.000Z</time>
      </trkpt>
      <trkpt lat="46.62836" lon="6.11629">
        <ele>1097.4000244141</ele>
        <time>2015-07-22T09:56:41.000Z</time>
      </trkpt>
      <trkpt lat="46.62843" lon="6.11658">
        <ele>1097.8000488281</ele>
        <time>2015-07-22T09:56:47.000Z</time>
      </trkpt>
      <trkpt lat="46.62843" lon="6.11661">
        <ele>1098.1999511719</ele>
        <time>2015-07-22T09:56:48.000Z</time>
      </trkpt>
      <trkpt lat="46.62843" lon="6.11664">
        <ele>1098.5999755859</ele>
        <time>2015-07-22T09:56:49.000Z</time>
      </trkpt>
      <trkpt lat="46.62844" lon="6.11668">
        <ele>1099</ele>
        <time>2015-07-22T09:56:50.000Z</time>
      </trkpt>
      <trkpt lat="46.62844" lon="6.11671">
        <ele>1099.4000244141</ele>
        <time>2015-07-22T09:56:51.000Z</time>
      </trkpt>
      <trkpt lat="46.62848" lon="6.11689">
        <ele>1099.4000244141</ele>
        <time>2015-07-22T09:56:55.000Z</time>
      </trkpt>
      <trkpt lat="46.62852" lon="6.11706">
        <ele>1099.4000244141</ele>
        <time>2015-07-22T09:56:59.000Z</time>
      </trkpt>
      <trkpt lat="46.62862" lon="6.11726">
        <ele>1099.4000244141</ele>
        <time>2015-07-22T09:57:05.000Z</time>
      </trkpt>
      <trkpt lat="46.62865" lon="6.11739">
        <ele>1099.8000488281</ele>
        <time>2015-07-22T09:57:08.000Z</time>
      </trkpt>
      <trkpt lat="46.62865" lon="6.11744">
        <ele>1100.4000244141</ele>
        <time>2015-07-22T09:57:09.000Z</time>
      </trkpt>
      <trkpt lat="46.62865" lon="6.11748">
        <ele>1100.8000488281</ele>
        <time>2015-07-22T09:57:10.000Z</time>
      </trkpt>
      <trkpt lat="46.62866" lon="6.11754">
        <ele>1101.1999511719</ele>
        <time>2015-07-22T09:57:11.000Z</time>
      </trkpt>
      <trkpt lat="46.62866" lon="6.11759">
        <ele>1101.5999755859</ele>
        <time>2015-07-22T09:57:12.000Z</time>
      </trkpt>
      <trkpt lat="46.62859" lon="6.11783">
        <ele>1101.5999755859</ele>
        <time>2015-07-22T09:57:17.000Z</time>
      </trkpt>
      <trkpt lat="46.62852" lon="6.11805">
        <ele>1101.5999755859</ele>
        <time>2015-07-22T09:57:22.000Z</time>
      </trkpt>
      <trkpt lat="46.62847" lon="6.11837">
        <ele>1101.5999755859</ele>
        <time>2015-07-22T09:57:29.000Z</time>
      </trkpt>
      <trkpt lat="46.62844" lon="6.11866">
        <ele>1101.5999755859</ele>
        <time>2015-07-22T09:57:35.000Z</time>
      </trkpt>
      <trkpt lat="46.62845" lon="6.11871">
        <ele>1102</ele>
        <time>2015-07-22T09:57:36.000Z</time>
      </trkpt>
      <trkpt lat="46.62845" lon="6.11874">
        <ele>1102.4000244141</ele>
        <time>2015-07-22T09:57:37.000Z</time>
      </trkpt>
      <trkpt lat="46.62846" lon="6.11879">
        <ele>1102.8000488281</ele>
        <time>2015-07-22T09:57:38.000Z</time>
      </trkpt>
      <trkpt lat="46.62847" lon="6.11882">
        <ele>1103.1999511719</ele>
        <time>2015-07-22T09:57:39.000Z</time>
      </trkpt>
      <trkpt lat="46.62848" lon="6.11886">
        <ele>1103.8000488281</ele>
        <time>2015-07-22T09:57:40.000Z</time>
      </trkpt>
      <trkpt lat="46.62847" lon="6.11897">
        <ele>1103.8000488281</ele>
        <time>2015-07-22T09:57:42.000Z</time>
      </trkpt>
      <trkpt lat="46.62847" lon="6.11901">
        <ele>1104.1999511719</ele>
        <time>2015-07-22T09:57:43.000Z</time>
      </trkpt>
      <trkpt lat="46.62848" lon="6.11905">
        <ele>1104.5999755859</ele>
        <time>2015-07-22T09:57:44.000Z</time>
      </trkpt>
      <trkpt lat="46.62847" lon="6.11909">
        <ele>1105</ele>
        <time>2015-07-22T09:57:45.000Z</time>
      </trkpt>
      <trkpt lat="46.62847" lon="6.11912">
        <ele>1105.5999755859</ele>
        <time>2015-07-22T09:57:46.000Z</time>
      </trkpt>
      <trkpt lat="46.62848" lon="6.11915">
        <ele>1106</ele>
        <time>2015-07-22T09:57:47.000Z</time>
      </trkpt>
      <trkpt lat="46.62847" lon="6.11926">
        <ele>1106</ele>
        <time>2015-07-22T09:57:50.000Z</time>
      </trkpt>
      <trkpt lat="46.62846" lon="6.11951">
        <ele>1106</ele>
        <time>2015-07-22T09:57:56.000Z</time>
      </trkpt>
      <trkpt lat="46.62846" lon="6.11958">
        <ele>1106.4000244141</ele>
        <time>2015-07-22T09:57:58.000Z</time>
      </trkpt>
      <trkpt lat="46.62847" lon="6.11963">
        <ele>1106.8000488281</ele>
        <time>2015-07-22T09:57:59.000Z</time>
      </trkpt>
      <trkpt lat="46.62848" lon="6.11967">
        <ele>1107.4000244141</ele>
        <time>2015-07-22T09:58:00.000Z</time>
      </trkpt>
      <trkpt lat="46.62849" lon="6.11971">
        <ele>1107.8000488281</ele>
        <time>2015-07-22T09:58:01.000Z</time>
      </trkpt>
      <trkpt lat="46.6285" lon="6.11975">
        <ele>1108.1999511719</ele>
        <time>2015-07-22T09:58:02.000Z</time>
      </trkpt>
      <trkpt lat="46.62857" lon="6.12003">
        <ele>1108.5999755859</ele>
        <time>2015-07-22T09:58:10.000Z</time>
      </trkpt>
      <trkpt lat="46.62858" lon="6.12005">
        <ele>1109</ele>
        <time>2015-07-22T09:58:11.000Z</time>
      </trkpt>
      <trkpt lat="46.62859" lon="6.12007">
        <ele>1109.5999755859</ele>
        <time>2015-07-22T09:58:12.000Z</time>
      </trkpt>
      <trkpt lat="46.6286" lon="6.1201">
        <ele>1110</ele>
        <time>2015-07-22T09:58:13.000Z</time>
      </trkpt>
      <trkpt lat="46.62862" lon="6.12013">
        <ele>1110.4000244141</ele>
        <time>2015-07-22T09:58:14.000Z</time>
      </trkpt>
      <trkpt lat="46.62863" lon="6.1202">
        <ele>1110.4000244141</ele>
        <time>2015-07-22T09:58:17.000Z</time>
      </trkpt>
      <trkpt lat="46.62858" lon="6.12031">
        <ele>1110.8000488281</ele>
        <time>2015-07-22T09:58:22.000Z</time>
      </trkpt>
      <trkpt lat="46.62858" lon="6.12033">
        <ele>1111.1999511719</ele>
        <time>2015-07-22T09:58:23.000Z</time>
      </trkpt>
      <trkpt lat="46.62857" lon="6.12035">
        <ele>1111.5999755859</ele>
        <time>2015-07-22T09:58:24.000Z</time>
      </trkpt>
      <trkpt lat="46.62857" lon="6.12037">
        <ele>1112</ele>
        <time>2015-07-22T09:58:25.000Z</time>
      </trkpt>
      <trkpt lat="46.62856" lon="6.12038">
        <ele>1112.4000244141</ele>
        <time>2015-07-22T09:58:26.000Z</time>
      </trkpt>
      <trkpt lat="46.62855" lon="6.12051">
        <ele>1112.8000488281</ele>
        <time>2015-07-22T09:58:31.000Z</time>
      </trkpt>
      <trkpt lat="46.62855" lon="6.12053">
        <ele>1113.4000244141</ele>
        <time>2015-07-22T09:58:32.000Z</time>
      </trkpt>
      <trkpt lat="46.62854" lon="6.12055">
        <ele>1113.8000488281</ele>
        <time>2015-07-22T09:58:33.000Z</time>
      </trkpt>
      <trkpt lat="46.62853" lon="6.12057">
        <ele>1114.1999511719</ele>
        <time>2015-07-22T09:58:34.000Z</time>
      </trkpt>
      <trkpt lat="46.62853" lon="6.12059">
        <ele>1114.5999755859</ele>
        <time>2015-07-22T09:58:35.000Z</time>
      </trkpt>
      <trkpt lat="46.62852" lon="6.12066">
        <ele>1115</ele>
        <time>2015-07-22T09:58:38.000Z</time>
      </trkpt>
      <trkpt lat="46.62852" lon="6.12068">
        <ele>1115.4000244141</ele>
        <time>2015-07-22T09:58:39.000Z</time>
      </trkpt>
      <trkpt lat="46.62852" lon="6.12071">
        <ele>1115.8000488281</ele>
        <time>2015-07-22T09:58:40.000Z</time>
      </trkpt>
      <trkpt lat="46.62853" lon="6.12073">
        <ele>1116.1999511719</ele>
        <time>2015-07-22T09:58:41.000Z</time>
      </trkpt>
      <trkpt lat="46.62853" lon="6.12075">
        <ele>1116.5999755859</ele>
        <time>2015-07-22T09:58:42.000Z</time>
      </trkpt>
      <trkpt lat="46.62861" lon="6.12087">
        <ele>1116.5999755859</ele>
        <time>2015-07-22T09:58:49.000Z</time>
      </trkpt>
      <trkpt lat="46.62865" lon="6.12091">
        <ele>1117</ele>
        <time>2015-07-22T09:58:52.000Z</time>
      </trkpt>
      <trkpt lat="46.62866" lon="6.12092">
        <ele>1117.4000244141</ele>
        <time>2015-07-22T09:58:53.000Z</time>
      </trkpt>
      <trkpt lat="46.62868" lon="6.12092">
        <ele>1117.8000488281</ele>
        <time>2015-07-22T09:58:54.000Z</time>
      </trkpt>
      <trkpt lat="46.62869" lon="6.12093">
        <ele>1118.1999511719</ele>
        <time>2015-07-22T09:58:55.000Z</time>
      </trkpt>
      <trkpt lat="46.62871" lon="6.12093">
        <ele>1118.5999755859</ele>
        <time>2015-07-22T09:58:56.000Z</time>
      </trkpt>
      <trkpt lat="46.6288" lon="6.121">
        <ele>1118.5999755859</ele>
        <time>2015-07-22T09:59:01.000Z</time>
      </trkpt>
      <trkpt lat="46.62891" lon="6.12117">
        <ele>1118.5999755859</ele>
        <time>2015-07-22T09:59:08.000Z</time>
      </trkpt>
      <trkpt lat="46.62904" lon="6.12143">
        <ele>1119</ele>
        <time>2015-07-22T09:59:16.000Z</time>
      </trkpt>
      <trkpt lat="46.62906" lon="6.12147">
        <ele>1119.4000244141</ele>
        <time>2015-07-22T09:59:17.000Z</time>
      </trkpt>
      <trkpt lat="46.62907" lon="6.1215">
        <ele>1119.8000488281</ele>
        <time>2015-07-22T09:59:18.000Z</time>
      </trkpt>
      <trkpt lat="46.62908" lon="6.12153">
        <ele>1120.1999511719</ele>
        <time>2015-07-22T09:59:19.000Z</time>
      </trkpt>
      <trkpt lat="46.62909" lon="6.12155">
        <ele>1120.5999755859</ele>
        <time>2015-07-22T09:59:20.000Z</time>
      </trkpt>
      <trkpt lat="46.6291" lon="6.12164">
        <ele>1120.5999755859</ele>
        <time>2015-07-22T09:59:23.000Z</time>
      </trkpt>
      <trkpt lat="46.62915" lon="6.12184">
        <ele>1120.5999755859</ele>
        <time>2015-07-22T09:59:30.000Z</time>
      </trkpt>
      <trkpt lat="46.6292" lon="6.12204">
        <ele>1120.5999755859</ele>
        <time>2015-07-22T09:59:36.000Z</time>
      </trkpt>
      <trkpt lat="46.62923" lon="6.12212">
        <ele>1121</ele>
        <time>2015-07-22T09:59:38.000Z</time>
      </trkpt>
      <trkpt lat="46.62923" lon="6.12215">
        <ele>1121.4000244141</ele>
        <time>2015-07-22T09:59:39.000Z</time>
      </trkpt>
      <trkpt lat="46.62924" lon="6.12219">
        <ele>1122</ele>
        <time>2015-07-22T09:59:40.000Z</time>
      </trkpt>
      <trkpt lat="46.62925" lon="6.12222">
        <ele>1122.4000244141</ele>
        <time>2015-07-22T09:59:41.000Z</time>
      </trkpt>
      <trkpt lat="46.62926" lon="6.12225">
        <ele>1122.8000488281</ele>
        <time>2015-07-22T09:59:42.000Z</time>
      </trkpt>
      <trkpt lat="46.62937" lon="6.12247">
        <ele>1122.8000488281</ele>
        <time>2015-07-22T09:59:48.000Z</time>
      </trkpt>
      <trkpt lat="46.62951" lon="6.12265">
        <ele>1122.8000488281</ele>
        <time>2015-07-22T09:59:54.000Z</time>
      </trkpt>
      <trkpt lat="46.62961" lon="6.12284">
        <ele>1122.8000488281</ele>
        <time>2015-07-22T10:00:01.000Z</time>
      </trkpt>
      <trkpt lat="46.62963" lon="6.12288">
        <ele>1122.8000488281</ele>
        <time>2015-07-22T10:00:05.000Z</time>
      </trkpt>
      <trkpt lat="46.62964" lon="6.12303">
        <ele>1122.8000488281</ele>
        <time>2015-07-22T10:00:20.000Z</time>
      </trkpt>
      <trkpt lat="46.62965" lon="6.12305">
        <ele>1122.8000488281</ele>
        <time>2015-07-22T10:00:22.000Z</time>
      </trkpt>
      <trkpt lat="46.62966" lon="6.12313">
        <ele>1123.5999755859</ele>
        <time>2015-07-22T10:00:26.000Z</time>
      </trkpt>
      <trkpt lat="46.62967" lon="6.12317">
        <ele>1124.1999511719</ele>
        <time>2015-07-22T10:00:27.000Z</time>
      </trkpt>
      <trkpt lat="46.62968" lon="6.1232">
        <ele>1124.5999755859</ele>
        <time>2015-07-22T10:00:28.000Z</time>
      </trkpt>
      <trkpt lat="46.62969" lon="6.12322">
        <ele>1125</ele>
        <time>2015-07-22T10:00:29.000Z</time>
      </trkpt>
      <trkpt lat="46.62973" lon="6.12338">
        <ele>1125</ele>
        <time>2015-07-22T10:00:33.000Z</time>
      </trkpt>
      <trkpt lat="46.62981" lon="6.12361">
        <ele>1125</ele>
        <time>2015-07-22T10:00:39.000Z</time>
      </trkpt>
      <trkpt lat="46.62984" lon="6.12385">
        <ele>1125</ele>
        <time>2015-07-22T10:00:45.000Z</time>
      </trkpt>
      <trkpt lat="46.62985" lon="6.12397">
        <ele>1125.4000244141</ele>
        <time>2015-07-22T10:00:48.000Z</time>
      </trkpt>
      <trkpt lat="46.62986" lon="6.12401">
        <ele>1125.8000488281</ele>
        <time>2015-07-22T10:00:49.000Z</time>
      </trkpt>
      <trkpt lat="46.62986" lon="6.12405">
        <ele>1126.1999511719</ele>
        <time>2015-07-22T10:00:50.000Z</time>
      </trkpt>
      <trkpt lat="46.62987" lon="6.12409">
        <ele>1126.5999755859</ele>
        <time>2015-07-22T10:00:51.000Z</time>
      </trkpt>
      <trkpt lat="46.62987" lon="6.12413">
        <ele>1127</ele>
        <time>2015-07-22T10:00:52.000Z</time>
      </trkpt>
      <trkpt lat="46.62992" lon="6.12432">
        <ele>1127</ele>
        <time>2015-07-22T10:00:57.000Z</time>
      </trkpt>
      <trkpt lat="46.63" lon="6.12446">
        <ele>1127.4000244141</ele>
        <time>2015-07-22T10:01:02.000Z</time>
      </trkpt>
      <trkpt lat="46.63002" lon="6.12448">
        <ele>1128</ele>
        <time>2015-07-22T10:01:03.000Z</time>
      </trkpt>
      <trkpt lat="46.63005" lon="6.12451">
        <ele>1128.4000244141</ele>
        <time>2015-07-22T10:01:04.000Z</time>
      </trkpt>
      <trkpt lat="46.63008" lon="6.12453">
        <ele>1128.8000488281</ele>
        <time>2015-07-22T10:01:05.000Z</time>
      </trkpt>
      <trkpt lat="46.6301" lon="6.12455">
        <ele>1129.4000244141</ele>
        <time>2015-07-22T10:01:06.000Z</time>
      </trkpt>
      <trkpt lat="46.63014" lon="6.12456">
        <ele>1129.4000244141</ele>
        <time>2015-07-22T10:01:08.000Z</time>
      </trkpt>
      <trkpt lat="46.63023" lon="6.12456">
        <ele>1129.4000244141</ele>
        <time>2015-07-22T10:01:11.000Z</time>
      </trkpt>
      <trkpt lat="46.63033" lon="6.12458">
        <ele>1129.4000244141</ele>
        <time>2015-07-22T10:01:14.000Z</time>
      </trkpt>
      <trkpt lat="46.6305" lon="6.12464">
        <ele>1129.4000244141</ele>
        <time>2015-07-22T10:01:20.000Z</time>
      </trkpt>
      <trkpt lat="46.63072" lon="6.12471">
        <ele>1129.4000244141</ele>
        <time>2015-07-22T10:01:25.000Z</time>
      </trkpt>
      <trkpt lat="46.63086" lon="6.12475">
        <ele>1129.4000244141</ele>
        <time>2015-07-22T10:01:30.000Z</time>
      </trkpt>
      <trkpt lat="46.63096" lon="6.12479">
        <ele>1129.8000488281</ele>
        <time>2015-07-22T10:01:33.000Z</time>
      </trkpt>
      <trkpt lat="46.63097" lon="6.12481">
        <ele>1130.1999511719</ele>
        <time>2015-07-22T10:01:34.000Z</time>
      </trkpt>
      <trkpt lat="46.63099" lon="6.12482">
        <ele>1130.5999755859</ele>
        <time>2015-07-22T10:01:35.000Z</time>
      </trkpt>
      <trkpt lat="46.63101" lon="6.12483">
        <ele>1131.1999511719</ele>
        <time>2015-07-22T10:01:36.000Z</time>
      </trkpt>
      <trkpt lat="46.63102" lon="6.12484">
        <ele>1131.5999755859</ele>
        <time>2015-07-22T10:01:37.000Z</time>
      </trkpt>
      <trkpt lat="46.63112" lon="6.12492">
        <ele>1131.5999755859</ele>
        <time>2015-07-22T10:01:42.000Z</time>
      </trkpt>
      <trkpt lat="46.6312" lon="6.12506">
        <ele>1131.5999755859</ele>
        <time>2015-07-22T10:01:49.000Z</time>
      </trkpt>
      <trkpt lat="46.63129" lon="6.12518">
        <ele>1131.5999755859</ele>
        <time>2015-07-22T10:01:54.000Z</time>
      </trkpt>
      <trkpt lat="46.63143" lon="6.12536">
        <ele>1131.5999755859</ele>
        <time>2015-07-22T10:02:00.000Z</time>
      </trkpt>
      <trkpt lat="46.63152" lon="6.12554">
        <ele>1131.1999511719</ele>
        <time>2015-07-22T10:02:04.000Z</time>
      </trkpt>
      <trkpt lat="46.63154" lon="6.12558">
        <ele>1130.5999755859</ele>
        <time>2015-07-22T10:02:05.000Z</time>
      </trkpt>
      <trkpt lat="46.63157" lon="6.12563">
        <ele>1130.1999511719</ele>
        <time>2015-07-22T10:02:06.000Z</time>
      </trkpt>
      <trkpt lat="46.63159" lon="6.12568">
        <ele>1129.8000488281</ele>
        <time>2015-07-22T10:02:07.000Z</time>
      </trkpt>
      <trkpt lat="46.63161" lon="6.12574">
        <ele>1129.4000244141</ele>
        <time>2015-07-22T10:02:08.000Z</time>
      </trkpt>
      <trkpt lat="46.63164" lon="6.12579">
        <ele>1129.4000244141</ele>
        <time>2015-07-22T10:02:09.000Z</time>
      </trkpt>
      <trkpt lat="46.63175" lon="6.12599">
        <ele>1129</ele>
        <time>2015-07-22T10:02:12.000Z</time>
      </trkpt>
      <trkpt lat="46.63179" lon="6.12606">
        <ele>1128.4000244141</ele>
        <time>2015-07-22T10:02:13.000Z</time>
      </trkpt>
      <trkpt lat="46.63181" lon="6.12613">
        <ele>1128</ele>
        <time>2015-07-22T10:02:14.000Z</time>
      </trkpt>
      <trkpt lat="46.63184" lon="6.12622">
        <ele>1127.4000244141</ele>
        <time>2015-07-22T10:02:15.000Z</time>
      </trkpt>
      <trkpt lat="46.63187" lon="6.12629">
        <ele>1127</ele>
        <time>2015-07-22T10:02:16.000Z</time>
      </trkpt>
      <trkpt lat="46.63193" lon="6.1264">
        <ele>1127</ele>
        <time>2015-07-22T10:02:18.000Z</time>
      </trkpt>
      <trkpt lat="46.63202" lon="6.12661">
        <ele>1127</ele>
        <time>2015-07-22T10:02:21.000Z</time>
      </trkpt>
      <trkpt lat="46.63204" lon="6.12669">
        <ele>1126.5999755859</ele>
        <time>2015-07-22T10:02:22.000Z</time>
      </trkpt>
      <trkpt lat="46.63207" lon="6.12678">
        <ele>1126.1999511719</ele>
        <time>2015-07-22T10:02:23.000Z</time>
      </trkpt>
      <trkpt lat="46.63209" lon="6.12688">
        <ele>1125.5999755859</ele>
        <time>2015-07-22T10:02:24.000Z</time>
      </trkpt>
      <trkpt lat="46.63211" lon="6.12697">
        <ele>1125.1999511719</ele>
        <time>2015-07-22T10:02:25.000Z</time>
      </trkpt>
      <trkpt lat="46.63214" lon="6.12704">
        <ele>1124.8000488281</ele>
        <time>2015-07-22T10:02:26.000Z</time>
      </trkpt>
      <trkpt lat="46.63218" lon="6.1271">
        <ele>1124.8000488281</ele>
        <time>2015-07-22T10:02:27.000Z</time>
      </trkpt>
      <trkpt lat="46.63231" lon="6.12731">
        <ele>1124.8000488281</ele>
        <time>2015-07-22T10:02:32.000Z</time>
      </trkpt>
      <trkpt lat="46.63239" lon="6.12741">
        <ele>1124.8000488281</ele>
        <time>2015-07-22T10:02:37.000Z</time>
      </trkpt>
      <trkpt lat="46.63262" lon="6.12767">
        <ele>1124.4000244141</ele>
        <time>2015-07-22T10:02:43.000Z</time>
      </trkpt>
      <trkpt lat="46.63267" lon="6.1277">
        <ele>1124</ele>
        <time>2015-07-22T10:02:44.000Z</time>
      </trkpt>
      <trkpt lat="46.63271" lon="6.12773">
        <ele>1123.5999755859</ele>
        <time>2015-07-22T10:02:45.000Z</time>
      </trkpt>
      <trkpt lat="46.63274" lon="6.12776">
        <ele>1123.1999511719</ele>
        <time>2015-07-22T10:02:46.000Z</time>
      </trkpt>
      <trkpt lat="46.63277" lon="6.1278">
        <ele>1122.8000488281</ele>
        <time>2015-07-22T10:02:47.000Z</time>
      </trkpt>
      <trkpt lat="46.63292" lon="6.12803">
        <ele>1122.8000488281</ele>
        <time>2015-07-22T10:02:52.000Z</time>
      </trkpt>
      <trkpt lat="46.63306" lon="6.12821">
        <ele>1122.8000488281</ele>
        <time>2015-07-22T10:02:57.000Z</time>
      </trkpt>
      <trkpt lat="46.63326" lon="6.12844">
        <ele>1122.8000488281</ele>
        <time>2015-07-22T10:03:04.000Z</time>
      </trkpt>
      <trkpt lat="46.6335" lon="6.12867">
        <ele>1122.8000488281</ele>
        <time>2015-07-22T10:03:11.000Z</time>
      </trkpt>
      <trkpt lat="46.63368" lon="6.12903">
        <ele>1122.8000488281</ele>
        <time>2015-07-22T10:03:19.000Z</time>
      </trkpt>
      <trkpt lat="46.63378" lon="6.12927">
        <ele>1122.8000488281</ele>
        <time>2015-07-22T10:03:24.000Z</time>
      </trkpt>
      <trkpt lat="46.63396" lon="6.12949">
        <ele>1122.8000488281</ele>
        <time>2015-07-22T10:03:30.000Z</time>
      </trkpt>
      <trkpt lat="46.63401" lon="6.12961">
        <ele>1122.8000488281</ele>
        <time>2015-07-22T10:03:32.000Z</time>
      </trkpt>
      <trkpt lat="46.63405" lon="6.12975">
        <ele>1122.8000488281</ele>
        <time>2015-07-22T10:03:34.000Z</time>
      </trkpt>
      <trkpt lat="46.63409" lon="6.13007">
        <ele>1122.8000488281</ele>
        <time>2015-07-22T10:03:39.000Z</time>
      </trkpt>
      <trkpt lat="46.6341" lon="6.1305">
        <ele>1122.8000488281</ele>
        <time>2015-07-22T10:03:45.000Z</time>
      </trkpt>
      <trkpt lat="46.63413" lon="6.13067">
        <ele>1122.8000488281</ele>
        <time>2015-07-22T10:03:49.000Z</time>
      </trkpt>
      <trkpt lat="46.63415" lon="6.13095">
        <ele>1122.8000488281</ele>
        <time>2015-07-22T10:03:54.000Z</time>
      </trkpt>
      <trkpt lat="46.63425" lon="6.13131">
        <ele>1122.8000488281</ele>
        <time>2015-07-22T10:03:59.000Z</time>
      </trkpt>
      <trkpt lat="46.63436" lon="6.13158">
        <ele>1122.1999511719</ele>
        <time>2015-07-22T10:04:03.000Z</time>
      </trkpt>
      <trkpt lat="46.63439" lon="6.13166">
        <ele>1121.8000488281</ele>
        <time>2015-07-22T10:04:04.000Z</time>
      </trkpt>
      <trkpt lat="46.63441" lon="6.13174">
        <ele>1121.1999511719</ele>
        <time>2015-07-22T10:04:05.000Z</time>
      </trkpt>
      <trkpt lat="46.63443" lon="6.13183">
        <ele>1120.8000488281</ele>
        <time>2015-07-22T10:04:06.000Z</time>
      </trkpt>
      <trkpt lat="46.63445" lon="6.13191">
        <ele>1120.1999511719</ele>
        <time>2015-07-22T10:04:07.000Z</time>
      </trkpt>
      <trkpt lat="46.63448" lon="6.13206">
        <ele>1120.1999511719</ele>
        <time>2015-07-22T10:04:09.000Z</time>
      </trkpt>
      <trkpt lat="46.63451" lon="6.13212">
        <ele>1120.1999511719</ele>
        <time>2015-07-22T10:04:10.000Z</time>
      </trkpt>
      <trkpt lat="46.63455" lon="6.13218">
        <ele>1120.1999511719</ele>
        <time>2015-07-22T10:04:11.000Z</time>
      </trkpt>
      <trkpt lat="46.63465" lon="6.13228">
        <ele>1120.1999511719</ele>
        <time>2015-07-22T10:04:13.000Z</time>
      </trkpt>
      <trkpt lat="46.63473" lon="6.1324">
        <ele>1119.8000488281</ele>
        <time>2015-07-22T10:04:15.000Z</time>
      </trkpt>
      <trkpt lat="46.63476" lon="6.13246">
        <ele>1119.1999511719</ele>
        <time>2015-07-22T10:04:16.000Z</time>
      </trkpt>
      <trkpt lat="46.63479" lon="6.13252">
        <ele>1118.8000488281</ele>
        <time>2015-07-22T10:04:17.000Z</time>
      </trkpt>
      <trkpt lat="46.63481" lon="6.13258">
        <ele>1118.1999511719</ele>
        <time>2015-07-22T10:04:18.000Z</time>
      </trkpt>
      <trkpt lat="46.63482" lon="6.13267">
        <ele>1117.4000244141</ele>
        <time>2015-07-22T10:04:19.000Z</time>
      </trkpt>
      <trkpt lat="46.63485" lon="6.13273">
        <ele>1116.5999755859</ele>
        <time>2015-07-22T10:04:20.000Z</time>
      </trkpt>
      <trkpt lat="46.63488" lon="6.13279">
        <ele>1115.8000488281</ele>
        <time>2015-07-22T10:04:21.000Z</time>
      </trkpt>
      <trkpt lat="46.63492" lon="6.13284">
        <ele>1115</ele>
        <time>2015-07-22T10:04:22.000Z</time>
      </trkpt>
      <trkpt lat="46.63497" lon="6.13291">
        <ele>1114.4000244141</ele>
        <time>2015-07-22T10:04:23.000Z</time>
      </trkpt>
      <trkpt lat="46.63507" lon="6.13302">
        <ele>1112.8000488281</ele>
        <time>2015-07-22T10:04:25.000Z</time>
      </trkpt>
      <trkpt lat="46.63511" lon="6.13306">
        <ele>1111.8000488281</ele>
        <time>2015-07-22T10:04:26.000Z</time>
      </trkpt>
      <trkpt lat="46.63515" lon="6.13313">
        <ele>1110.8000488281</ele>
        <time>2015-07-22T10:04:27.000Z</time>
      </trkpt>
      <trkpt lat="46.63522" lon="6.13319">
        <ele>1109.5999755859</ele>
        <time>2015-07-22T10:04:28.000Z</time>
      </trkpt>
      <trkpt lat="46.63527" lon="6.13324">
        <ele>1108.5999755859</ele>
        <time>2015-07-22T10:04:29.000Z</time>
      </trkpt>
      <trkpt lat="46.63532" lon="6.13329">
        <ele>1107.4000244141</ele>
        <time>2015-07-22T10:04:30.000Z</time>
      </trkpt>
      <trkpt lat="46.63536" lon="6.13336">
        <ele>1106.4000244141</ele>
        <time>2015-07-22T10:04:31.000Z</time>
      </trkpt>
      <trkpt lat="46.63541" lon="6.13339">
        <ele>1105.1999511719</ele>
        <time>2015-07-22T10:04:32.000Z</time>
      </trkpt>
      <trkpt lat="46.63548" lon="6.1334">
        <ele>1104.1999511719</ele>
        <time>2015-07-22T10:04:33.000Z</time>
      </trkpt>
      <trkpt lat="46.63556" lon="6.13339">
        <ele>1104.1999511719</ele>
        <time>2015-07-22T10:04:34.000Z</time>
      </trkpt>
      <trkpt lat="46.63561" lon="6.13337">
        <ele>1103.5999755859</ele>
        <time>2015-07-22T10:04:35.000Z</time>
      </trkpt>
      <trkpt lat="46.63567" lon="6.13334">
        <ele>1103.1999511719</ele>
        <time>2015-07-22T10:04:36.000Z</time>
      </trkpt>
      <trkpt lat="46.63573" lon="6.13332">
        <ele>1102.5999755859</ele>
        <time>2015-07-22T10:04:37.000Z</time>
      </trkpt>
      <trkpt lat="46.6358" lon="6.13331">
        <ele>1102.1999511719</ele>
        <time>2015-07-22T10:04:38.000Z</time>
      </trkpt>
      <trkpt lat="46.63586" lon="6.13329">
        <ele>1101.8000488281</ele>
        <time>2015-07-22T10:04:39.000Z</time>
      </trkpt>
      <trkpt lat="46.63598" lon="6.13324">
        <ele>1101.8000488281</ele>
        <time>2015-07-22T10:04:41.000Z</time>
      </trkpt>
      <trkpt lat="46.63607" lon="6.1332">
        <ele>1101.8000488281</ele>
        <time>2015-07-22T10:04:43.000Z</time>
      </trkpt>
      <trkpt lat="46.63625" lon="6.13315">
        <ele>1101.8000488281</ele>
        <time>2015-07-22T10:04:49.000Z</time>
      </trkpt>
      <trkpt lat="46.63639" lon="6.13314">
        <ele>1101.8000488281</ele>
        <time>2015-07-22T10:04:53.000Z</time>
      </trkpt>
      <trkpt lat="46.63642" lon="6.13315">
        <ele>1101.8000488281</ele>
        <time>2015-07-22T10:04:54.000Z</time>
      </trkpt>
      <trkpt lat="46.63659" lon="6.13334">
        <ele>1101.8000488281</ele>
        <time>2015-07-22T10:05:00.000Z</time>
      </trkpt>
      <trkpt lat="46.63685" lon="6.13354">
        <ele>1101.8000488281</ele>
        <time>2015-07-22T10:05:06.000Z</time>
      </trkpt>
      <trkpt lat="46.63708" lon="6.13355">
        <ele>1101.8000488281</ele>
        <time>2015-07-22T10:05:10.000Z</time>
      </trkpt>
      <trkpt lat="46.63713" lon="6.13355">
        <ele>1101.1999511719</ele>
        <time>2015-07-22T10:05:11.000Z</time>
      </trkpt>
      <trkpt lat="46.63718" lon="6.13355">
        <ele>1100.8000488281</ele>
        <time>2015-07-22T10:05:12.000Z</time>
      </trkpt>
      <trkpt lat="46.63723" lon="6.13356">
        <ele>1100.4000244141</ele>
        <time>2015-07-22T10:05:13.000Z</time>
      </trkpt>
      <trkpt lat="46.63728" lon="6.13356">
        <ele>1099.8000488281</ele>
        <time>2015-07-22T10:05:14.000Z</time>
      </trkpt>
      <trkpt lat="46.63734" lon="6.13356">
        <ele>1099.4000244141</ele>
        <time>2015-07-22T10:05:15.000Z</time>
      </trkpt>
      <trkpt lat="46.63741" lon="6.13354">
        <ele>1099.4000244141</ele>
        <time>2015-07-22T10:05:16.000Z</time>
      </trkpt>
      <trkpt lat="46.6378" lon="6.13355">
        <ele>1099.4000244141</ele>
        <time>2015-07-22T10:05:22.000Z</time>
      </trkpt>
      <trkpt lat="46.63803" lon="6.13357">
        <ele>1099.4000244141</ele>
        <time>2015-07-22T10:05:27.000Z</time>
      </trkpt>
      <trkpt lat="46.63838" lon="6.13367">
        <ele>1099.4000244141</ele>
        <time>2015-07-22T10:05:33.000Z</time>
      </trkpt>
      <trkpt lat="46.63862" lon="6.13377">
        <ele>1099</ele>
        <time>2015-07-22T10:05:36.000Z</time>
      </trkpt>
      <trkpt lat="46.63868" lon="6.13382">
        <ele>1098.5999755859</ele>
        <time>2015-07-22T10:05:37.000Z</time>
      </trkpt>
      <trkpt lat="46.63873" lon="6.13388">
        <ele>1098.1999511719</ele>
        <time>2015-07-22T10:05:38.000Z</time>
      </trkpt>
      <trkpt lat="46.63877" lon="6.13396">
        <ele>1097.8000488281</ele>
        <time>2015-07-22T10:05:39.000Z</time>
      </trkpt>
      <trkpt lat="46.6388" lon="6.13404">
        <ele>1097.4000244141</ele>
        <time>2015-07-22T10:05:40.000Z</time>
      </trkpt>
      <trkpt lat="46.63886" lon="6.1342">
        <ele>1097</ele>
        <time>2015-07-22T10:05:42.000Z</time>
      </trkpt>
      <trkpt lat="46.63887" lon="6.13428">
        <ele>1096.4000244141</ele>
        <time>2015-07-22T10:05:43.000Z</time>
      </trkpt>
      <trkpt lat="46.63888" lon="6.13437">
        <ele>1096</ele>
        <time>2015-07-22T10:05:44.000Z</time>
      </trkpt>
      <trkpt lat="46.63888" lon="6.13446">
        <ele>1095.5999755859</ele>
        <time>2015-07-22T10:05:45.000Z</time>
      </trkpt>
      <trkpt lat="46.63888" lon="6.13455">
        <ele>1095.1999511719</ele>
        <time>2015-07-22T10:05:46.000Z</time>
      </trkpt>
      <trkpt lat="46.63887" lon="6.13473">
        <ele>1095.1999511719</ele>
        <time>2015-07-22T10:05:48.000Z</time>
      </trkpt>
      <trkpt lat="46.63882" lon="6.13523">
        <ele>1095.1999511719</ele>
        <time>2015-07-22T10:05:53.000Z</time>
      </trkpt>
      <trkpt lat="46.63881" lon="6.13534">
        <ele>1094.8000488281</ele>
        <time>2015-07-22T10:05:54.000Z</time>
      </trkpt>
      <trkpt lat="46.63879" lon="6.13544">
        <ele>1094.4000244141</ele>
        <time>2015-07-22T10:05:55.000Z</time>
      </trkpt>
      <trkpt lat="46.63878" lon="6.13553">
        <ele>1093.8000488281</ele>
        <time>2015-07-22T10:05:56.000Z</time>
      </trkpt>
      <trkpt lat="46.63876" lon="6.13562">
        <ele>1093.4000244141</ele>
        <time>2015-07-22T10:05:57.000Z</time>
      </trkpt>
      <trkpt lat="46.63873" lon="6.13571">
        <ele>1093</ele>
        <time>2015-07-22T10:05:58.000Z</time>
      </trkpt>
      <trkpt lat="46.63869" lon="6.13586">
        <ele>1093</ele>
        <time>2015-07-22T10:06:00.000Z</time>
      </trkpt>
      <trkpt lat="46.63866" lon="6.13611">
        <ele>1093</ele>
        <time>2015-07-22T10:06:03.000Z</time>
      </trkpt>
      <trkpt lat="46.63867" lon="6.13631">
        <ele>1093</ele>
        <time>2015-07-22T10:06:05.000Z</time>
      </trkpt>
      <trkpt lat="46.6387" lon="6.13648">
        <ele>1092.5999755859</ele>
        <time>2015-07-22T10:06:07.000Z</time>
      </trkpt>
      <trkpt lat="46.63872" lon="6.13658">
        <ele>1092.1999511719</ele>
        <time>2015-07-22T10:06:08.000Z</time>
      </trkpt>
      <trkpt lat="46.63874" lon="6.13668">
        <ele>1091.8000488281</ele>
        <time>2015-07-22T10:06:09.000Z</time>
      </trkpt>
      <trkpt lat="46.63875" lon="6.13678">
        <ele>1091.4000244141</ele>
        <time>2015-07-22T10:06:10.000Z</time>
      </trkpt>
      <trkpt lat="46.63877" lon="6.1369">
        <ele>1090.8000488281</ele>
        <time>2015-07-22T10:06:11.000Z</time>
      </trkpt>
      <trkpt lat="46.63879" lon="6.13701">
        <ele>1090.4000244141</ele>
        <time>2015-07-22T10:06:12.000Z</time>
      </trkpt>
      <trkpt lat="46.6388" lon="6.13712">
        <ele>1090</ele>
        <time>2015-07-22T10:06:13.000Z</time>
      </trkpt>
      <trkpt lat="46.63883" lon="6.13725">
        <ele>1089.5999755859</ele>
        <time>2015-07-22T10:06:14.000Z</time>
      </trkpt>
      <trkpt lat="46.63885" lon="6.13736">
        <ele>1089.1999511719</ele>
        <time>2015-07-22T10:06:15.000Z</time>
      </trkpt>
      <trkpt lat="46.63884" lon="6.13748">
        <ele>1088.8000488281</ele>
        <time>2015-07-22T10:06:16.000Z</time>
      </trkpt>
      <trkpt lat="46.63883" lon="6.13761">
        <ele>1088.4000244141</ele>
        <time>2015-07-22T10:06:17.000Z</time>
      </trkpt>
      <trkpt lat="46.6388" lon="6.13774">
        <ele>1088</ele>
        <time>2015-07-22T10:06:18.000Z</time>
      </trkpt>
      <trkpt lat="46.63876" lon="6.13786">
        <ele>1087.1999511719</ele>
        <time>2015-07-22T10:06:19.000Z</time>
      </trkpt>
      <trkpt lat="46.6387" lon="6.13798">
        <ele>1086.5999755859</ele>
        <time>2015-07-22T10:06:20.000Z</time>
      </trkpt>
      <trkpt lat="46.63866" lon="6.13809">
        <ele>1085.8000488281</ele>
        <time>2015-07-22T10:06:21.000Z</time>
      </trkpt>
      <trkpt lat="46.63861" lon="6.13819">
        <ele>1085.1999511719</ele>
        <time>2015-07-22T10:06:22.000Z</time>
      </trkpt>
      <trkpt lat="46.63857" lon="6.13828">
        <ele>1084.4000244141</ele>
        <time>2015-07-22T10:06:23.000Z</time>
      </trkpt>
      <trkpt lat="46.63851" lon="6.13843">
        <ele>1084.4000244141</ele>
        <time>2015-07-22T10:06:25.000Z</time>
      </trkpt>
      <trkpt lat="46.63849" lon="6.13849">
        <ele>1084.4000244141</ele>
        <time>2015-07-22T10:06:26.000Z</time>
      </trkpt>
      <trkpt lat="46.63848" lon="6.13869">
        <ele>1084.4000244141</ele>
        <time>2015-07-22T10:06:29.000Z</time>
      </trkpt>
      <trkpt lat="46.63847" lon="6.13876">
        <ele>1084.4000244141</ele>
        <time>2015-07-22T10:06:30.000Z</time>
      </trkpt>
      <trkpt lat="46.63841" lon="6.13911">
        <ele>1084.4000244141</ele>
        <time>2015-07-22T10:06:36.000Z</time>
      </trkpt>
      <trkpt lat="46.63841" lon="6.13926">
        <ele>1084.4000244141</ele>
        <time>2015-07-22T10:06:38.000Z</time>
      </trkpt>
      <trkpt lat="46.63841" lon="6.13942">
        <ele>1085</ele>
        <time>2015-07-22T10:06:40.000Z</time>
      </trkpt>
      <trkpt lat="46.63842" lon="6.13949">
        <ele>1085.4000244141</ele>
        <time>2015-07-22T10:06:41.000Z</time>
      </trkpt>
      <trkpt lat="46.63843" lon="6.13955">
        <ele>1085.8000488281</ele>
        <time>2015-07-22T10:06:42.000Z</time>
      </trkpt>
      <trkpt lat="46.63844" lon="6.13962">
        <ele>1086.4000244141</ele>
        <time>2015-07-22T10:06:43.000Z</time>
      </trkpt>
      <trkpt lat="46.63845" lon="6.13969">
        <ele>1086.8000488281</ele>
        <time>2015-07-22T10:06:44.000Z</time>
      </trkpt>
      <trkpt lat="46.63846" lon="6.13986">
        <ele>1086.8000488281</ele>
        <time>2015-07-22T10:06:46.000Z</time>
      </trkpt>
      <trkpt lat="46.63847" lon="6.14011">
        <ele>1086.8000488281</ele>
        <time>2015-07-22T10:06:49.000Z</time>
      </trkpt>
      <trkpt lat="46.63852" lon="6.14038">
        <ele>1086.8000488281</ele>
        <time>2015-07-22T10:06:52.000Z</time>
      </trkpt>
      <trkpt lat="46.63854" lon="6.14048">
        <ele>1086.4000244141</ele>
        <time>2015-07-22T10:06:53.000Z</time>
      </trkpt>
      <trkpt lat="46.63855" lon="6.14058">
        <ele>1085.8000488281</ele>
        <time>2015-07-22T10:06:54.000Z</time>
      </trkpt>
      <trkpt lat="46.63856" lon="6.14067">
        <ele>1085.4000244141</ele>
        <time>2015-07-22T10:06:55.000Z</time>
      </trkpt>
      <trkpt lat="46.63856" lon="6.14075">
        <ele>1085</ele>
        <time>2015-07-22T10:06:56.000Z</time>
      </trkpt>
      <trkpt lat="46.63855" lon="6.14083">
        <ele>1084.4000244141</ele>
        <time>2015-07-22T10:06:57.000Z</time>
      </trkpt>
      <trkpt lat="46.63848" lon="6.14121">
        <ele>1084.4000244141</ele>
        <time>2015-07-22T10:07:02.000Z</time>
      </trkpt>
      <trkpt lat="46.63834" lon="6.14161">
        <ele>1084.4000244141</ele>
        <time>2015-07-22T10:07:09.000Z</time>
      </trkpt>
      <trkpt lat="46.63828" lon="6.14181">
        <ele>1084.4000244141</ele>
        <time>2015-07-22T10:07:13.000Z</time>
      </trkpt>
      <trkpt lat="46.63821" lon="6.14195">
        <ele>1084.8000488281</ele>
        <time>2015-07-22T10:07:16.000Z</time>
      </trkpt>
      <trkpt lat="46.63818" lon="6.142">
        <ele>1085.1999511719</ele>
        <time>2015-07-22T10:07:17.000Z</time>
      </trkpt>
      <trkpt lat="46.63814" lon="6.14205">
        <ele>1085.5999755859</ele>
        <time>2015-07-22T10:07:18.000Z</time>
      </trkpt>
      <trkpt lat="46.6381" lon="6.1421">
        <ele>1086</ele>
        <time>2015-07-22T10:07:19.000Z</time>
      </trkpt>
      <trkpt lat="46.63805" lon="6.14215">
        <ele>1086.4000244141</ele>
        <time>2015-07-22T10:07:20.000Z</time>
      </trkpt>
      <trkpt lat="46.63784" lon="6.14244">
        <ele>1086.4000244141</ele>
        <time>2015-07-22T10:07:25.000Z</time>
      </trkpt>
      <trkpt lat="46.63775" lon="6.14258">
        <ele>1086.4000244141</ele>
        <time>2015-07-22T10:07:28.000Z</time>
      </trkpt>
      <trkpt lat="46.63772" lon="6.14261">
        <ele>1087</ele>
        <time>2015-07-22T10:07:29.000Z</time>
      </trkpt>
      <trkpt lat="46.6377" lon="6.14264">
        <ele>1087.4000244141</ele>
        <time>2015-07-22T10:07:30.000Z</time>
      </trkpt>
      <trkpt lat="46.63768" lon="6.14267">
        <ele>1087.8000488281</ele>
        <time>2015-07-22T10:07:31.000Z</time>
      </trkpt>
      <trkpt lat="46.63765" lon="6.14269">
        <ele>1088.4000244141</ele>
        <time>2015-07-22T10:07:32.000Z</time>
      </trkpt>
      <trkpt lat="46.63762" lon="6.14272">
        <ele>1088.8000488281</ele>
        <time>2015-07-22T10:07:33.000Z</time>
      </trkpt>
      <trkpt lat="46.63754" lon="6.14278">
        <ele>1088.8000488281</ele>
        <time>2015-07-22T10:07:36.000Z</time>
      </trkpt>
      <trkpt lat="46.63748" lon="6.14283">
        <ele>1089.4000244141</ele>
        <time>2015-07-22T10:07:39.000Z</time>
      </trkpt>
      <trkpt lat="46.63747" lon="6.14284">
        <ele>1089.8000488281</ele>
        <time>2015-07-22T10:07:40.000Z</time>
      </trkpt>
      <trkpt lat="46.63746" lon="6.14285">
        <ele>1090.1999511719</ele>
        <time>2015-07-22T10:07:41.000Z</time>
      </trkpt>
      <trkpt lat="46.63745" lon="6.14286">
        <ele>1090.5999755859</ele>
        <time>2015-07-22T10:07:42.000Z</time>
      </trkpt>
      <trkpt lat="46.63744" lon="6.14287">
        <ele>1091.1999511719</ele>
        <time>2015-07-22T10:07:43.000Z</time>
      </trkpt>
      <trkpt lat="46.63741" lon="6.14289">
        <ele>1091.5999755859</ele>
        <time>2015-07-22T10:07:45.000Z</time>
      </trkpt>
      <trkpt lat="46.6374" lon="6.1429">
        <ele>1092</ele>
        <time>2015-07-22T10:07:46.000Z</time>
      </trkpt>
      <trkpt lat="46.63738" lon="6.14291">
        <ele>1092.4000244141</ele>
        <time>2015-07-22T10:07:47.000Z</time>
      </trkpt>
      <trkpt lat="46.63736" lon="6.14294">
        <ele>1093.1999511719</ele>
        <time>2015-07-22T10:07:49.000Z</time>
      </trkpt>
      <trkpt lat="46.63734" lon="6.14295">
        <ele>1093.1999511719</ele>
        <time>2015-07-22T10:07:50.000Z</time>
      </trkpt>
      <trkpt lat="46.63731" lon="6.14297">
        <ele>1093.5999755859</ele>
        <time>2015-07-22T10:07:52.000Z</time>
      </trkpt>
      <trkpt lat="46.6373" lon="6.14298">
        <ele>1094</ele>
        <time>2015-07-22T10:07:53.000Z</time>
      </trkpt>
      <trkpt lat="46.63728" lon="6.14299">
        <ele>1094.4000244141</ele>
        <time>2015-07-22T10:07:54.000Z</time>
      </trkpt>
      <trkpt lat="46.63727" lon="6.143">
        <ele>1094.8000488281</ele>
        <time>2015-07-22T10:07:55.000Z</time>
      </trkpt>
      <trkpt lat="46.63726" lon="6.14301">
        <ele>1095.1999511719</ele>
        <time>2015-07-22T10:07:56.000Z</time>
      </trkpt>
      <trkpt lat="46.63722" lon="6.14302">
        <ele>1095.1999511719</ele>
        <time>2015-07-22T10:07:58.000Z</time>
      </trkpt>
      <trkpt lat="46.63709" lon="6.14315">
        <ele>1095.5999755859</ele>
        <time>2015-07-22T10:08:05.000Z</time>
      </trkpt>
      <trkpt lat="46.63707" lon="6.14318">
        <ele>1096.1999511719</ele>
        <time>2015-07-22T10:08:06.000Z</time>
      </trkpt>
      <trkpt lat="46.63705" lon="6.1432">
        <ele>1096.5999755859</ele>
        <time>2015-07-22T10:08:07.000Z</time>
      </trkpt>
      <trkpt lat="46.63702" lon="6.14323">
        <ele>1097</ele>
        <time>2015-07-22T10:08:08.000Z</time>
      </trkpt>
      <trkpt lat="46.637" lon="6.14325">
        <ele>1097.4000244141</ele>
        <time>2015-07-22T10:08:09.000Z</time>
      </trkpt>
      <trkpt lat="46.63693" lon="6.14333">
        <ele>1097.4000244141</ele>
        <time>2015-07-22T10:08:12.000Z</time>
      </trkpt>
      <trkpt lat="46.63674" lon="6.14359">
        <ele>1097.4000244141</ele>
        <time>2015-07-22T10:08:18.000Z</time>
      </trkpt>
      <trkpt lat="46.63665" lon="6.14377">
        <ele>1097.4000244141</ele>
        <time>2015-07-22T10:08:21.000Z</time>
      </trkpt>
      <trkpt lat="46.63659" lon="6.1439">
        <ele>1097.4000244141</ele>
        <time>2015-07-22T10:08:23.000Z</time>
      </trkpt>
      <trkpt lat="46.63651" lon="6.14403">
        <ele>1097</ele>
        <time>2015-07-22T10:08:25.000Z</time>
      </trkpt>
      <trkpt lat="46.63647" lon="6.14407">
        <ele>1096.5999755859</ele>
        <time>2015-07-22T10:08:26.000Z</time>
      </trkpt>
      <trkpt lat="46.63641" lon="6.14411">
        <ele>1096.1999511719</ele>
        <time>2015-07-22T10:08:27.000Z</time>
      </trkpt>
      <trkpt lat="46.63636" lon="6.14415">
        <ele>1095.8000488281</ele>
        <time>2015-07-22T10:08:28.000Z</time>
      </trkpt>
      <trkpt lat="46.63632" lon="6.14418">
        <ele>1095.1999511719</ele>
        <time>2015-07-22T10:08:29.000Z</time>
      </trkpt>
      <trkpt lat="46.63619" lon="6.14422">
        <ele>1095.1999511719</ele>
        <time>2015-07-22T10:08:32.000Z</time>
      </trkpt>
      <trkpt lat="46.63615" lon="6.14424">
        <ele>1095.1999511719</ele>
        <time>2015-07-22T10:08:33.000Z</time>
      </trkpt>
      <trkpt lat="46.63587" lon="6.14436">
        <ele>1095.1999511719</ele>
        <time>2015-07-22T10:08:39.000Z</time>
      </trkpt>
      <trkpt lat="46.63556" lon="6.14453">
        <ele>1095.1999511719</ele>
        <time>2015-07-22T10:08:45.000Z</time>
      </trkpt>
      <trkpt lat="46.63552" lon="6.14457">
        <ele>1095.1999511719</ele>
        <time>2015-07-22T10:08:46.000Z</time>
      </trkpt>
      <trkpt lat="46.63532" lon="6.14482">
        <ele>1095.1999511719</ele>
        <time>2015-07-22T10:08:52.000Z</time>
      </trkpt>
      <trkpt lat="46.6352" lon="6.14512">
        <ele>1095.1999511719</ele>
        <time>2015-07-22T10:08:58.000Z</time>
      </trkpt>
      <trkpt lat="46.63512" lon="6.14534">
        <ele>1095.1999511719</ele>
        <time>2015-07-22T10:09:03.000Z</time>
      </trkpt>
      <trkpt lat="46.63506" lon="6.14544">
        <ele>1095.8000488281</ele>
        <time>2015-07-22T10:09:05.000Z</time>
      </trkpt>
      <trkpt lat="46.63501" lon="6.1455">
        <ele>1096.1999511719</ele>
        <time>2015-07-22T10:09:06.000Z</time>
      </trkpt>
      <trkpt lat="46.63498" lon="6.14555">
        <ele>1096.5999755859</ele>
        <time>2015-07-22T10:09:07.000Z</time>
      </trkpt>
      <trkpt lat="46.63494" lon="6.14559">
        <ele>1097.1999511719</ele>
        <time>2015-07-22T10:09:08.000Z</time>
      </trkpt>
      <trkpt lat="46.63491" lon="6.14565">
        <ele>1097.5999755859</ele>
        <time>2015-07-22T10:09:09.000Z</time>
      </trkpt>
      <trkpt lat="46.6348" lon="6.14579">
        <ele>1097.5999755859</ele>
        <time>2015-07-22T10:09:12.000Z</time>
      </trkpt>
      <trkpt lat="46.63475" lon="6.14585">
        <ele>1097.5999755859</ele>
        <time>2015-07-22T10:09:13.000Z</time>
      </trkpt>
      <trkpt lat="46.63471" lon="6.14591">
        <ele>1097.5999755859</ele>
        <time>2015-07-22T10:09:14.000Z</time>
      </trkpt>
      <trkpt lat="46.63443" lon="6.14623">
        <ele>1097.5999755859</ele>
        <time>2015-07-22T10:09:21.000Z</time>
      </trkpt>
      <trkpt lat="46.63427" lon="6.14644">
        <ele>1098</ele>
        <time>2015-07-22T10:09:26.000Z</time>
      </trkpt>
      <trkpt lat="46.63423" lon="6.14648">
        <ele>1098.4000244141</ele>
        <time>2015-07-22T10:09:27.000Z</time>
      </trkpt>
      <trkpt lat="46.6342" lon="6.14651">
        <ele>1098.8000488281</ele>
        <time>2015-07-22T10:09:28.000Z</time>
      </trkpt>
      <trkpt lat="46.63417" lon="6.14655">
        <ele>1099.1999511719</ele>
        <time>2015-07-22T10:09:29.000Z</time>
      </trkpt>
      <trkpt lat="46.63415" lon="6.14658">
        <ele>1099.5999755859</ele>
        <time>2015-07-22T10:09:30.000Z</time>
      </trkpt>
      <trkpt lat="46.63408" lon="6.14667">
        <ele>1099.5999755859</ele>
        <time>2015-07-22T10:09:33.000Z</time>
      </trkpt>
      <trkpt lat="46.63398" lon="6.14683">
        <ele>1100</ele>
        <time>2015-07-22T10:09:38.000Z</time>
      </trkpt>
      <trkpt lat="46.63396" lon="6.14686">
        <ele>1100.4000244141</ele>
        <time>2015-07-22T10:09:39.000Z</time>
      </trkpt>
      <trkpt lat="46.63394" lon="6.1469">
        <ele>1101</ele>
        <time>2015-07-22T10:09:40.000Z</time>
      </trkpt>
      <trkpt lat="46.63392" lon="6.14692">
        <ele>1101.4000244141</ele>
        <time>2015-07-22T10:09:41.000Z</time>
      </trkpt>
      <trkpt lat="46.63392" lon="6.14694">
        <ele>1101.8000488281</ele>
        <time>2015-07-22T10:09:42.000Z</time>
      </trkpt>
      <trkpt lat="46.6339" lon="6.14701">
        <ele>1102.1999511719</ele>
        <time>2015-07-22T10:09:44.000Z</time>
      </trkpt>
      <trkpt lat="46.63389" lon="6.14703">
        <ele>1102.5999755859</ele>
        <time>2015-07-22T10:09:45.000Z</time>
      </trkpt>
      <trkpt lat="46.63387" lon="6.14707">
        <ele>1103</ele>
        <time>2015-07-22T10:09:46.000Z</time>
      </trkpt>
      <trkpt lat="46.63386" lon="6.14709">
        <ele>1103.5999755859</ele>
        <time>2015-07-22T10:09:47.000Z</time>
      </trkpt>
      <trkpt lat="46.63385" lon="6.14712">
        <ele>1104</ele>
        <time>2015-07-22T10:09:48.000Z</time>
      </trkpt>
      <trkpt lat="46.63379" lon="6.14715">
        <ele>1104</ele>
        <time>2015-07-22T10:09:51.000Z</time>
      </trkpt>
      <trkpt lat="46.6337" lon="6.14724">
        <ele>1104.4000244141</ele>
        <time>2015-07-22T10:09:55.000Z</time>
      </trkpt>
      <trkpt lat="46.63368" lon="6.14726">
        <ele>1104.8000488281</ele>
        <time>2015-07-22T10:09:56.000Z</time>
      </trkpt>
      <trkpt lat="46.63367" lon="6.14728">
        <ele>1105.1999511719</ele>
        <time>2015-07-22T10:09:57.000Z</time>
      </trkpt>
      <trkpt lat="46.63364" lon="6.14729">
        <ele>1105.5999755859</ele>
        <time>2015-07-22T10:09:58.000Z</time>
      </trkpt>
      <trkpt lat="46.63363" lon="6.14731">
        <ele>1106.1999511719</ele>
        <time>2015-07-22T10:09:59.000Z</time>
      </trkpt>
      <trkpt lat="46.63362" lon="6.14732">
        <ele>1106.1999511719</ele>
        <time>2015-07-22T10:10:00.000Z</time>
      </trkpt>
      <trkpt lat="46.63354" lon="6.14737">
        <ele>1106.5999755859</ele>
        <time>2015-07-22T10:10:05.000Z</time>
      </trkpt>
      <trkpt lat="46.63353" lon="6.14738">
        <ele>1107</ele>
        <time>2015-07-22T10:10:06.000Z</time>
      </trkpt>
      <trkpt lat="46.63351" lon="6.1474">
        <ele>1107.4000244141</ele>
        <time>2015-07-22T10:10:07.000Z</time>
      </trkpt>
      <trkpt lat="46.63347" lon="6.14746">
        <ele>1107.8000488281</ele>
        <time>2015-07-22T10:10:08.000Z</time>
      </trkpt>
      <trkpt lat="46.63346" lon="6.14747">
        <ele>1108.4000244141</ele>
        <time>2015-07-22T10:10:09.000Z</time>
      </trkpt>
      <trkpt lat="46.63343" lon="6.14751">
        <ele>1108.8000488281</ele>
        <time>2015-07-22T10:10:12.000Z</time>
      </trkpt>
      <trkpt lat="46.63342" lon="6.14753">
        <ele>1109.1999511719</ele>
        <time>2015-07-22T10:10:13.000Z</time>
      </trkpt>
      <trkpt lat="46.63342" lon="6.14754">
        <ele>1109.5999755859</ele>
        <time>2015-07-22T10:10:14.000Z</time>
      </trkpt>
      <trkpt lat="46.63339" lon="6.14755">
        <ele>1110</ele>
        <time>2015-07-22T10:10:15.000Z</time>
      </trkpt>
      <trkpt lat="46.63337" lon="6.14756">
        <ele>1110.4000244141</ele>
        <time>2015-07-22T10:10:16.000Z</time>
      </trkpt>
      <trkpt lat="46.63317" lon="6.14759">
        <ele>1110.4000244141</ele>
        <time>2015-07-22T10:10:22.000Z</time>
      </trkpt>
      <trkpt lat="46.63296" lon="6.14759">
        <ele>1110.4000244141</ele>
        <time>2015-07-22T10:10:29.000Z</time>
      </trkpt>
      <trkpt lat="46.63276" lon="6.14759">
        <ele>1110.4000244141</ele>
        <time>2015-07-22T10:10:35.000Z</time>
      </trkpt>
      <trkpt lat="46.63273" lon="6.1476">
        <ele>1111</ele>
        <time>2015-07-22T10:10:36.000Z</time>
      </trkpt>
      <trkpt lat="46.6327" lon="6.1476">
        <ele>1111.4000244141</ele>
        <time>2015-07-22T10:10:37.000Z</time>
      </trkpt>
      <trkpt lat="46.63267" lon="6.14761">
        <ele>1111.8000488281</ele>
        <time>2015-07-22T10:10:38.000Z</time>
      </trkpt>
      <trkpt lat="46.63263" lon="6.14761">
        <ele>1112.1999511719</ele>
        <time>2015-07-22T10:10:39.000Z</time>
      </trkpt>
      <trkpt lat="46.63261" lon="6.14761">
        <ele>1112.5999755859</ele>
        <time>2015-07-22T10:10:40.000Z</time>
      </trkpt>
      <trkpt lat="46.63255" lon="6.14762">
        <ele>1112.5999755859</ele>
        <time>2015-07-22T10:10:42.000Z</time>
      </trkpt>
      <trkpt lat="46.63245" lon="6.14763">
        <ele>1112.5999755859</ele>
        <time>2015-07-22T10:10:48.000Z</time>
      </trkpt>
      <trkpt lat="46.63243" lon="6.14763">
        <ele>1113</ele>
        <time>2015-07-22T10:10:49.000Z</time>
      </trkpt>
      <trkpt lat="46.63243" lon="6.14763">
        <ele>1113.4000244141</ele>
        <time>2015-07-22T10:10:50.000Z</time>
      </trkpt>
      <trkpt lat="46.63242" lon="6.14764">
        <ele>1113.8000488281</ele>
        <time>2015-07-22T10:10:51.000Z</time>
      </trkpt>
      <trkpt lat="46.6324" lon="6.14763">
        <ele>1114.1999511719</ele>
        <time>2015-07-22T10:10:52.000Z</time>
      </trkpt>
      <trkpt lat="46.63239" lon="6.14763">
        <ele>1114.5999755859</ele>
        <time>2015-07-22T10:10:53.000Z</time>
      </trkpt>
      <trkpt lat="46.63232" lon="6.14766">
        <ele>1114.5999755859</ele>
        <time>2015-07-22T10:10:57.000Z</time>
      </trkpt>
      <trkpt lat="46.63231" lon="6.14766">
        <ele>1115</ele>
        <time>2015-07-22T10:10:58.000Z</time>
      </trkpt>
      <trkpt lat="46.6323" lon="6.14765">
        <ele>1115.4000244141</ele>
        <time>2015-07-22T10:10:59.000Z</time>
      </trkpt>
      <trkpt lat="46.63229" lon="6.14765">
        <ele>1116</ele>
        <time>2015-07-22T10:11:00.000Z</time>
      </trkpt>
      <trkpt lat="46.63228" lon="6.14764">
        <ele>1116.4000244141</ele>
        <time>2015-07-22T10:11:01.000Z</time>
      </trkpt>
      <trkpt lat="46.63227" lon="6.14763">
        <ele>1116.8000488281</ele>
        <time>2015-07-22T10:11:02.000Z</time>
      </trkpt>
      <trkpt lat="46.6322" lon="6.14761">
        <ele>1116.8000488281</ele>
        <time>2015-07-22T10:11:06.000Z</time>
      </trkpt>
      <trkpt lat="46.63217" lon="6.14763">
        <ele>1117.1999511719</ele>
        <time>2015-07-22T10:11:07.000Z</time>
      </trkpt>
      <trkpt lat="46.63216" lon="6.14762">
        <ele>1117.5999755859</ele>
        <time>2015-07-22T10:11:08.000Z</time>
      </trkpt>
      <trkpt lat="46.63214" lon="6.14762">
        <ele>1118</ele>
        <time>2015-07-22T10:11:09.000Z</time>
      </trkpt>
      <trkpt lat="46.63214" lon="6.14761">
        <ele>1118.4000244141</ele>
        <time>2015-07-22T10:11:10.000Z</time>
      </trkpt>
      <trkpt lat="46.63213" lon="6.1476">
        <ele>1118.8000488281</ele>
        <time>2015-07-22T10:11:11.000Z</time>
      </trkpt>
      <trkpt lat="46.63209" lon="6.14757">
        <ele>1118.8000488281</ele>
        <time>2015-07-22T10:11:13.000Z</time>
      </trkpt>
      <trkpt lat="46.63207" lon="6.14756">
        <ele>1119.1999511719</ele>
        <time>2015-07-22T10:11:14.000Z</time>
      </trkpt>
      <trkpt lat="46.63205" lon="6.14755">
        <ele>1119.5999755859</ele>
        <time>2015-07-22T10:11:15.000Z</time>
      </trkpt>
      <trkpt lat="46.63202" lon="6.14754">
        <ele>1120</ele>
        <time>2015-07-22T10:11:16.000Z</time>
      </trkpt>
      <trkpt lat="46.632" lon="6.14753">
        <ele>1120.4000244141</ele>
        <time>2015-07-22T10:11:17.000Z</time>
      </trkpt>
      <trkpt lat="46.63198" lon="6.14751">
        <ele>1120.8000488281</ele>
        <time>2015-07-22T10:11:18.000Z</time>
      </trkpt>
      <trkpt lat="46.63192" lon="6.14745">
        <ele>1121.1999511719</ele>
        <time>2015-07-22T10:11:23.000Z</time>
      </trkpt>
      <trkpt lat="46.6319" lon="6.14745">
        <ele>1121.8000488281</ele>
        <time>2015-07-22T10:11:24.000Z</time>
      </trkpt>
      <trkpt lat="46.63188" lon="6.14744">
        <ele>1122.1999511719</ele>
        <time>2015-07-22T10:11:25.000Z</time>
      </trkpt>
      <trkpt lat="46.63187" lon="6.14743">
        <ele>1122.5999755859</ele>
        <time>2015-07-22T10:11:26.000Z</time>
      </trkpt>
      <trkpt lat="46.63185" lon="6.14741">
        <ele>1123</ele>
        <time>2015-07-22T10:11:27.000Z</time>
      </trkpt>
      <trkpt lat="46.6318" lon="6.14731">
        <ele>1123.4000244141</ele>
        <time>2015-07-22T10:11:33.000Z</time>
      </trkpt>
      <trkpt lat="46.63177" lon="6.14729">
        <ele>1123.8000488281</ele>
        <time>2015-07-22T10:11:34.000Z</time>
      </trkpt>
      <trkpt lat="46.63176" lon="6.14727">
        <ele>1124.1999511719</ele>
        <time>2015-07-22T10:11:35.000Z</time>
      </trkpt>
      <trkpt lat="46.63176" lon="6.14725">
        <ele>1124.5999755859</ele>
        <time>2015-07-22T10:11:36.000Z</time>
      </trkpt>
      <trkpt lat="46.63175" lon="6.14722">
        <ele>1125</ele>
        <time>2015-07-22T10:11:37.000Z</time>
      </trkpt>
      <trkpt lat="46.63167" lon="6.14712">
        <ele>1125</ele>
        <time>2015-07-22T10:11:42.000Z</time>
      </trkpt>
      <trkpt lat="46.63155" lon="6.14681">
        <ele>1125</ele>
        <time>2015-07-22T10:11:51.000Z</time>
      </trkpt>
      <trkpt lat="46.63152" lon="6.14671">
        <ele>1125.5999755859</ele>
        <time>2015-07-22T10:11:55.000Z</time>
      </trkpt>
      <trkpt lat="46.63151" lon="6.14668">
        <ele>1126</ele>
        <time>2015-07-22T10:11:56.000Z</time>
      </trkpt>
      <trkpt lat="46.6315" lon="6.14665">
        <ele>1126.4000244141</ele>
        <time>2015-07-22T10:11:57.000Z</time>
      </trkpt>
      <trkpt lat="46.63149" lon="6.14661">
        <ele>1126.8000488281</ele>
        <time>2015-07-22T10:11:58.000Z</time>
      </trkpt>
      <trkpt lat="46.63148" lon="6.14659">
        <ele>1127.4000244141</ele>
        <time>2015-07-22T10:11:59.000Z</time>
      </trkpt>
      <trkpt lat="46.63146" lon="6.14653">
        <ele>1127.4000244141</ele>
        <time>2015-07-22T10:12:01.000Z</time>
      </trkpt>
      <trkpt lat="46.63134" lon="6.14636">
        <ele>1127.8000488281</ele>
        <time>2015-07-22T10:12:09.000Z</time>
      </trkpt>
      <trkpt lat="46.63132" lon="6.14635">
        <ele>1128.1999511719</ele>
        <time>2015-07-22T10:12:10.000Z</time>
      </trkpt>
      <trkpt lat="46.63129" lon="6.14635">
        <ele>1128.5999755859</ele>
        <time>2015-07-22T10:12:11.000Z</time>
      </trkpt>
      <trkpt lat="46.63125" lon="6.14633">
        <ele>1129</ele>
        <time>2015-07-22T10:12:12.000Z</time>
      </trkpt>
      <trkpt lat="46.63122" lon="6.14633">
        <ele>1129.4000244141</ele>
        <time>2015-07-22T10:12:13.000Z</time>
      </trkpt>
      <trkpt lat="46.6312" lon="6.14633">
        <ele>1129.4000244141</ele>
        <time>2015-07-22T10:12:14.000Z</time>
      </trkpt>
      <trkpt lat="46.63111" lon="6.14636">
        <ele>1129.4000244141</ele>
        <time>2015-07-22T10:12:16.000Z</time>
      </trkpt>
      <trkpt lat="46.63088" lon="6.14639">
        <ele>1129.4000244141</ele>
        <time>2015-07-22T10:12:24.000Z</time>
      </trkpt>
      <trkpt lat="46.63085" lon="6.14639">
        <ele>1129.8000488281</ele>
        <time>2015-07-22T10:12:25.000Z</time>
      </trkpt>
      <trkpt lat="46.63083" lon="6.1464">
        <ele>1130.1999511719</ele>
        <time>2015-07-22T10:12:26.000Z</time>
      </trkpt>
      <trkpt lat="46.6308" lon="6.1464">
        <ele>1130.5999755859</ele>
        <time>2015-07-22T10:12:27.000Z</time>
      </trkpt>
      <trkpt lat="46.63077" lon="6.1464">
        <ele>1131</ele>
        <time>2015-07-22T10:12:28.000Z</time>
      </trkpt>
      <trkpt lat="46.63074" lon="6.14641">
        <ele>1131.4000244141</ele>
        <time>2015-07-22T10:12:29.000Z</time>
      </trkpt>
      <trkpt lat="46.63065" lon="6.14643">
        <ele>1131.4000244141</ele>
        <time>2015-07-22T10:12:32.000Z</time>
      </trkpt>
      <trkpt lat="46.6304" lon="6.14647">
        <ele>1131.4000244141</ele>
        <time>2015-07-22T10:12:41.000Z</time>
      </trkpt>
      <trkpt lat="46.63022" lon="6.14648">
        <ele>1131.8000488281</ele>
        <time>2015-07-22T10:12:48.000Z</time>
      </trkpt>
      <trkpt lat="46.63017" lon="6.14649">
        <ele>1132.5999755859</ele>
        <time>2015-07-22T10:12:50.000Z</time>
      </trkpt>
      <trkpt lat="46.63014" lon="6.14649">
        <ele>1133</ele>
        <time>2015-07-22T10:12:51.000Z</time>
      </trkpt>
      <trkpt lat="46.63011" lon="6.14651">
        <ele>1133</ele>
        <time>2015-07-22T10:12:52.000Z</time>
      </trkpt>
      <trkpt lat="46.63008" lon="6.14652">
        <ele>1133.4000244141</ele>
        <time>2015-07-22T10:12:53.000Z</time>
      </trkpt>
      <trkpt lat="46.62991" lon="6.14665">
        <ele>1133.4000244141</ele>
        <time>2015-07-22T10:13:01.000Z</time>
      </trkpt>
      <trkpt lat="46.62986" lon="6.14672">
        <ele>1133.8000488281</ele>
        <time>2015-07-22T10:13:04.000Z</time>
      </trkpt>
      <trkpt lat="46.62984" lon="6.14675">
        <ele>1134.1999511719</ele>
        <time>2015-07-22T10:13:05.000Z</time>
      </trkpt>
      <trkpt lat="46.62981" lon="6.14681">
        <ele>1134.8000488281</ele>
        <time>2015-07-22T10:13:07.000Z</time>
      </trkpt>
      <trkpt lat="46.62979" lon="6.14684">
        <ele>1135.5999755859</ele>
        <time>2015-07-22T10:13:08.000Z</time>
      </trkpt>
      <trkpt lat="46.62974" lon="6.14692">
        <ele>1136</ele>
        <time>2015-07-22T10:13:11.000Z</time>
      </trkpt>
      <trkpt lat="46.62972" lon="6.14696">
        <ele>1136.8000488281</ele>
        <time>2015-07-22T10:13:13.000Z</time>
      </trkpt>
      <trkpt lat="46.62972" lon="6.14698">
        <ele>1137.1999511719</ele>
        <time>2015-07-22T10:13:14.000Z</time>
      </trkpt>
      <trkpt lat="46.62972" lon="6.147">
        <ele>1137.5999755859</ele>
        <time>2015-07-22T10:13:15.000Z</time>
      </trkpt>
      <trkpt lat="46.62954" lon="6.14726">
        <ele>1137.5999755859</ele>
        <time>2015-07-22T10:13:24.000Z</time>
      </trkpt>
      <trkpt lat="46.62952" lon="6.14728">
        <ele>1138</ele>
        <time>2015-07-22T10:13:25.000Z</time>
      </trkpt>
      <trkpt lat="46.62949" lon="6.14731">
        <ele>1138.4000244141</ele>
        <time>2015-07-22T10:13:26.000Z</time>
      </trkpt>
      <trkpt lat="46.62947" lon="6.14733">
        <ele>1138.8000488281</ele>
        <time>2015-07-22T10:13:27.000Z</time>
      </trkpt>
      <trkpt lat="46.62945" lon="6.14734">
        <ele>1139.1999511719</ele>
        <time>2015-07-22T10:13:28.000Z</time>
      </trkpt>
      <trkpt lat="46.62941" lon="6.14737">
        <ele>1139.5999755859</ele>
        <time>2015-07-22T10:13:30.000Z</time>
      </trkpt>
      <trkpt lat="46.62937" lon="6.1474">
        <ele>1139.5999755859</ele>
        <time>2015-07-22T10:13:32.000Z</time>
      </trkpt>
      <trkpt lat="46.62924" lon="6.1475">
        <ele>1140</ele>
        <time>2015-07-22T10:13:38.000Z</time>
      </trkpt>
      <trkpt lat="46.62922" lon="6.14752">
        <ele>1140.4000244141</ele>
        <time>2015-07-22T10:13:39.000Z</time>
      </trkpt>
      <trkpt lat="46.62919" lon="6.14754">
        <ele>1140.8000488281</ele>
        <time>2015-07-22T10:13:40.000Z</time>
      </trkpt>
      <trkpt lat="46.62916" lon="6.14756">
        <ele>1141.4000244141</ele>
        <time>2015-07-22T10:13:41.000Z</time>
      </trkpt>
      <trkpt lat="46.62911" lon="6.1476">
        <ele>1141.8000488281</ele>
        <time>2015-07-22T10:13:43.000Z</time>
      </trkpt>
      <trkpt lat="46.629" lon="6.14769">
        <ele>1141.8000488281</ele>
        <time>2015-07-22T10:13:47.000Z</time>
      </trkpt>
      <trkpt lat="46.62888" lon="6.14786">
        <ele>1141.8000488281</ele>
        <time>2015-07-22T10:13:53.000Z</time>
      </trkpt>
      <trkpt lat="46.62887" lon="6.14789">
        <ele>1141.8000488281</ele>
        <time>2015-07-22T10:13:54.000Z</time>
      </trkpt>
      <trkpt lat="46.62883" lon="6.14807">
        <ele>1141.8000488281</ele>
        <time>2015-07-22T10:13:58.000Z</time>
      </trkpt>
      <trkpt lat="46.62881" lon="6.14814">
        <ele>1142.1999511719</ele>
        <time>2015-07-22T10:14:00.000Z</time>
      </trkpt>
      <trkpt lat="46.62877" lon="6.14821">
        <ele>1143</ele>
        <time>2015-07-22T10:14:02.000Z</time>
      </trkpt>
      <trkpt lat="46.62875" lon="6.14824">
        <ele>1143.4000244141</ele>
        <time>2015-07-22T10:14:03.000Z</time>
      </trkpt>
      <trkpt lat="46.62873" lon="6.14827">
        <ele>1143.8000488281</ele>
        <time>2015-07-22T10:14:04.000Z</time>
      </trkpt>
      <trkpt lat="46.62871" lon="6.1483">
        <ele>1143.8000488281</ele>
        <time>2015-07-22T10:14:05.000Z</time>
      </trkpt>
      <trkpt lat="46.62861" lon="6.14866">
        <ele>1143.8000488281</ele>
        <time>2015-07-22T10:14:14.000Z</time>
      </trkpt>
      <trkpt lat="46.6286" lon="6.14875">
        <ele>1144.1999511719</ele>
        <time>2015-07-22T10:14:16.000Z</time>
      </trkpt>
      <trkpt lat="46.62858" lon="6.1488">
        <ele>1144.5999755859</ele>
        <time>2015-07-22T10:14:17.000Z</time>
      </trkpt>
      <trkpt lat="46.62854" lon="6.14887">
        <ele>1145.5999755859</ele>
        <time>2015-07-22T10:14:19.000Z</time>
      </trkpt>
      <trkpt lat="46.62852" lon="6.14892">
        <ele>1146</ele>
        <time>2015-07-22T10:14:20.000Z</time>
      </trkpt>
      <trkpt lat="46.62851" lon="6.14895">
        <ele>1146</ele>
        <time>2015-07-22T10:14:21.000Z</time>
      </trkpt>
      <trkpt lat="46.6284" lon="6.14914">
        <ele>1146.4000244141</ele>
        <time>2015-07-22T10:14:27.000Z</time>
      </trkpt>
      <trkpt lat="46.62838" lon="6.14917">
        <ele>1146.8000488281</ele>
        <time>2015-07-22T10:14:28.000Z</time>
      </trkpt>
      <trkpt lat="46.62836" lon="6.14919">
        <ele>1147.1999511719</ele>
        <time>2015-07-22T10:14:29.000Z</time>
      </trkpt>
      <trkpt lat="46.62833" lon="6.14921">
        <ele>1147.5999755859</ele>
        <time>2015-07-22T10:14:30.000Z</time>
      </trkpt>
      <trkpt lat="46.62831" lon="6.14923">
        <ele>1148</ele>
        <time>2015-07-22T10:14:31.000Z</time>
      </trkpt>
      <trkpt lat="46.6283" lon="6.14923">
        <ele>1148</ele>
        <time>2015-07-22T10:14:32.000Z</time>
      </trkpt>
      <trkpt lat="46.62827" lon="6.14926">
        <ele>1148</ele>
        <time>2015-07-22T10:14:34.000Z</time>
      </trkpt>
      <trkpt lat="46.62807" lon="6.14937">
        <ele>1148</ele>
        <time>2015-07-22T10:14:42.000Z</time>
      </trkpt>
      <trkpt lat="46.62781" lon="6.14946">
        <ele>1148</ele>
        <time>2015-07-22T10:14:49.000Z</time>
      </trkpt>
      <trkpt lat="46.62774" lon="6.14948">
        <ele>1148.4000244141</ele>
        <time>2015-07-22T10:14:51.000Z</time>
      </trkpt>
      <trkpt lat="46.6277" lon="6.14949">
        <ele>1149</ele>
        <time>2015-07-22T10:14:52.000Z</time>
      </trkpt>
      <trkpt lat="46.62767" lon="6.14949">
        <ele>1149.4000244141</ele>
        <time>2015-07-22T10:14:53.000Z</time>
      </trkpt>
      <trkpt lat="46.62764" lon="6.1495">
        <ele>1149.8000488281</ele>
        <time>2015-07-22T10:14:54.000Z</time>
      </trkpt>
      <trkpt lat="46.6276" lon="6.14952">
        <ele>1150.1999511719</ele>
        <time>2015-07-22T10:14:55.000Z</time>
      </trkpt>
      <trkpt lat="46.62756" lon="6.14953">
        <ele>1150.1999511719</ele>
        <time>2015-07-22T10:14:56.000Z</time>
      </trkpt>
      <trkpt lat="46.62738" lon="6.14956">
        <ele>1150.1999511719</ele>
        <time>2015-07-22T10:15:02.000Z</time>
      </trkpt>
      <trkpt lat="46.62715" lon="6.14951">
        <ele>1150.1999511719</ele>
        <time>2015-07-22T10:15:09.000Z</time>
      </trkpt>
      <trkpt lat="46.6271" lon="6.14944">
        <ele>1150.5999755859</ele>
        <time>2015-07-22T10:15:11.000Z</time>
      </trkpt>
      <trkpt lat="46.62707" lon="6.14941">
        <ele>1151</ele>
        <time>2015-07-22T10:15:12.000Z</time>
      </trkpt>
      <trkpt lat="46.62704" lon="6.14938">
        <ele>1151.4000244141</ele>
        <time>2015-07-22T10:15:13.000Z</time>
      </trkpt>
      <trkpt lat="46.627" lon="6.14936">
        <ele>1151.8000488281</ele>
        <time>2015-07-22T10:15:14.000Z</time>
      </trkpt>
      <trkpt lat="46.62697" lon="6.14934">
        <ele>1152.1999511719</ele>
        <time>2015-07-22T10:15:15.000Z</time>
      </trkpt>
      <trkpt lat="46.62675" lon="6.14934">
        <ele>1152.1999511719</ele>
        <time>2015-07-22T10:15:21.000Z</time>
      </trkpt>
      <trkpt lat="46.62662" lon="6.14938">
        <ele>1152.5999755859</ele>
        <time>2015-07-22T10:15:25.000Z</time>
      </trkpt>
      <trkpt lat="46.62658" lon="6.14939">
        <ele>1153</ele>
        <time>2015-07-22T10:15:26.000Z</time>
      </trkpt>
      <trkpt lat="46.62654" lon="6.1494">
        <ele>1153.4000244141</ele>
        <time>2015-07-22T10:15:27.000Z</time>
      </trkpt>
      <trkpt lat="46.62652" lon="6.1494">
        <ele>1153.4000244141</ele>
        <time>2015-07-22T10:15:28.000Z</time>
      </trkpt>
      <trkpt lat="46.62649" lon="6.14941">
        <ele>1153.8000488281</ele>
        <time>2015-07-22T10:15:29.000Z</time>
      </trkpt>
      <trkpt lat="46.62647" lon="6.14942">
        <ele>1154.1999511719</ele>
        <time>2015-07-22T10:15:30.000Z</time>
      </trkpt>
      <trkpt lat="46.62636" lon="6.14943">
        <ele>1154.5999755859</ele>
        <time>2015-07-22T10:15:35.000Z</time>
      </trkpt>
      <trkpt lat="46.62633" lon="6.14943">
        <ele>1155.1999511719</ele>
        <time>2015-07-22T10:15:36.000Z</time>
      </trkpt>
      <trkpt lat="46.62628" lon="6.14943">
        <ele>1155.5999755859</ele>
        <time>2015-07-22T10:15:38.000Z</time>
      </trkpt>
      <trkpt lat="46.62626" lon="6.14943">
        <ele>1156.4000244141</ele>
        <time>2015-07-22T10:15:39.000Z</time>
      </trkpt>
      <trkpt lat="46.62613" lon="6.14942">
        <ele>1156.4000244141</ele>
        <time>2015-07-22T10:15:45.000Z</time>
      </trkpt>
      <trkpt lat="46.62611" lon="6.14942">
        <ele>1156.8000488281</ele>
        <time>2015-07-22T10:15:46.000Z</time>
      </trkpt>
      <trkpt lat="46.62609" lon="6.14941">
        <ele>1157.1999511719</ele>
        <time>2015-07-22T10:15:47.000Z</time>
      </trkpt>
      <trkpt lat="46.62608" lon="6.1494">
        <ele>1157.5999755859</ele>
        <time>2015-07-22T10:15:48.000Z</time>
      </trkpt>
      <trkpt lat="46.62606" lon="6.14939">
        <ele>1158</ele>
        <time>2015-07-22T10:15:49.000Z</time>
      </trkpt>
      <trkpt lat="46.62604" lon="6.14939">
        <ele>1158.5999755859</ele>
        <time>2015-07-22T10:15:50.000Z</time>
      </trkpt>
      <trkpt lat="46.62599" lon="6.14939">
        <ele>1159</ele>
        <time>2015-07-22T10:15:52.000Z</time>
      </trkpt>
      <trkpt lat="46.62597" lon="6.14939">
        <ele>1159.4000244141</ele>
        <time>2015-07-22T10:15:53.000Z</time>
      </trkpt>
      <trkpt lat="46.62596" lon="6.14938">
        <ele>1159.8000488281</ele>
        <time>2015-07-22T10:15:54.000Z</time>
      </trkpt>
      <trkpt lat="46.62594" lon="6.14937">
        <ele>1160.1999511719</ele>
        <time>2015-07-22T10:15:55.000Z</time>
      </trkpt>
      <trkpt lat="46.62592" lon="6.14937">
        <ele>1160.5999755859</ele>
        <time>2015-07-22T10:15:57.000Z</time>
      </trkpt>
      <trkpt lat="46.62585" lon="6.14934">
        <ele>1160.5999755859</ele>
        <time>2015-07-22T10:16:02.000Z</time>
      </trkpt>
      <trkpt lat="46.62582" lon="6.14933">
        <ele>1161.1999511719</ele>
        <time>2015-07-22T10:16:04.000Z</time>
      </trkpt>
      <trkpt lat="46.6258" lon="6.14932">
        <ele>1161.5999755859</ele>
        <time>2015-07-22T10:16:05.000Z</time>
      </trkpt>
      <trkpt lat="46.62578" lon="6.14932">
        <ele>1162</ele>
        <time>2015-07-22T10:16:06.000Z</time>
      </trkpt>
      <trkpt lat="46.62576" lon="6.14933">
        <ele>1162.4000244141</ele>
        <time>2015-07-22T10:16:07.000Z</time>
      </trkpt>
      <trkpt lat="46.62574" lon="6.14933">
        <ele>1162.8000488281</ele>
        <time>2015-07-22T10:16:08.000Z</time>
      </trkpt>
      <trkpt lat="46.6257" lon="6.14933">
        <ele>1162.8000488281</ele>
        <time>2015-07-22T10:16:11.000Z</time>
      </trkpt>
      <trkpt lat="46.62559" lon="6.14938">
        <ele>1163.1999511719</ele>
        <time>2015-07-22T10:16:17.000Z</time>
      </trkpt>
      <trkpt lat="46.62557" lon="6.14938">
        <ele>1163.8000488281</ele>
        <time>2015-07-22T10:16:18.000Z</time>
      </trkpt>
      <trkpt lat="46.62555" lon="6.14939">
        <ele>1163.8000488281</ele>
        <time>2015-07-22T10:16:19.000Z</time>
      </trkpt>
      <trkpt lat="46.62553" lon="6.14939">
        <ele>1164.5999755859</ele>
        <time>2015-07-22T10:16:20.000Z</time>
      </trkpt>
      <trkpt lat="46.62548" lon="6.14938">
        <ele>1165</ele>
        <time>2015-07-22T10:16:21.000Z</time>
      </trkpt>
      <trkpt lat="46.62529" lon="6.14938">
        <ele>1165</ele>
        <time>2015-07-22T10:16:29.000Z</time>
      </trkpt>
      <trkpt lat="46.62523" lon="6.14938">
        <ele>1165.4000244141</ele>
        <time>2015-07-22T10:16:32.000Z</time>
      </trkpt>
      <trkpt lat="46.62521" lon="6.14937">
        <ele>1165.8000488281</ele>
        <time>2015-07-22T10:16:33.000Z</time>
      </trkpt>
      <trkpt lat="46.62519" lon="6.14937">
        <ele>1166.4000244141</ele>
        <time>2015-07-22T10:16:34.000Z</time>
      </trkpt>
      <trkpt lat="46.62517" lon="6.14936">
        <ele>1166.8000488281</ele>
        <time>2015-07-22T10:16:35.000Z</time>
      </trkpt>
      <trkpt lat="46.62516" lon="6.14936">
        <ele>1167.1999511719</ele>
        <time>2015-07-22T10:16:36.000Z</time>
      </trkpt>
      <trkpt lat="46.62513" lon="6.14935">
        <ele>1167.1999511719</ele>
        <time>2015-07-22T10:16:38.000Z</time>
      </trkpt>
      <trkpt lat="46.62506" lon="6.14933">
        <ele>1167.5999755859</ele>
        <time>2015-07-22T10:16:42.000Z</time>
      </trkpt>
      <trkpt lat="46.62505" lon="6.14932">
        <ele>1168</ele>
        <time>2015-07-22T10:16:43.000Z</time>
      </trkpt>
      <trkpt lat="46.62503" lon="6.14931">
        <ele>1168.5999755859</ele>
        <time>2015-07-22T10:16:44.000Z</time>
      </trkpt>
      <trkpt lat="46.62499" lon="6.1493">
        <ele>1169.4000244141</ele>
        <time>2015-07-22T10:16:46.000Z</time>
      </trkpt>
      <trkpt lat="46.62489" lon="6.14923">
        <ele>1169.8000488281</ele>
        <time>2015-07-22T10:16:53.000Z</time>
      </trkpt>
      <trkpt lat="46.62487" lon="6.14922">
        <ele>1170.1999511719</ele>
        <time>2015-07-22T10:16:54.000Z</time>
      </trkpt>
      <trkpt lat="46.62486" lon="6.14921">
        <ele>1170.5999755859</ele>
        <time>2015-07-22T10:16:55.000Z</time>
      </trkpt>
      <trkpt lat="46.62485" lon="6.1492">
        <ele>1170.5999755859</ele>
        <time>2015-07-22T10:16:56.000Z</time>
      </trkpt>
      <trkpt lat="46.62485" lon="6.1492">
        <ele>1171.5999755859</ele>
        <time>2015-07-22T10:16:57.000Z</time>
      </trkpt>
      <trkpt lat="46.62476" lon="6.14922">
        <ele>1172</ele>
        <time>2015-07-22T10:17:03.000Z</time>
      </trkpt>
      <trkpt lat="46.62473" lon="6.14924">
        <ele>1172.8000488281</ele>
        <time>2015-07-22T10:17:05.000Z</time>
      </trkpt>
      <trkpt lat="46.62471" lon="6.14926">
        <ele>1172.8000488281</ele>
        <time>2015-07-22T10:17:06.000Z</time>
      </trkpt>
      <trkpt lat="46.6247" lon="6.14927">
        <ele>1173.5999755859</ele>
        <time>2015-07-22T10:17:07.000Z</time>
      </trkpt>
      <trkpt lat="46.62468" lon="6.14932">
        <ele>1173.5999755859</ele>
        <time>2015-07-22T10:17:10.000Z</time>
      </trkpt>
      <trkpt lat="46.62466" lon="6.14938">
        <ele>1173.5999755859</ele>
        <time>2015-07-22T10:17:13.000Z</time>
      </trkpt>
      <trkpt lat="46.62465" lon="6.14942">
        <ele>1174</ele>
        <time>2015-07-22T10:17:15.000Z</time>
      </trkpt>
      <trkpt lat="46.62465" lon="6.14944">
        <ele>1174.4000244141</ele>
        <time>2015-07-22T10:17:16.000Z</time>
      </trkpt>
      <trkpt lat="46.62465" lon="6.14946">
        <ele>1174.8000488281</ele>
        <time>2015-07-22T10:17:17.000Z</time>
      </trkpt>
      <trkpt lat="46.62465" lon="6.14948">
        <ele>1175.4000244141</ele>
        <time>2015-07-22T10:17:18.000Z</time>
      </trkpt>
      <trkpt lat="46.62465" lon="6.14951">
        <ele>1175.8000488281</ele>
        <time>2015-07-22T10:17:19.000Z</time>
      </trkpt>
      <trkpt lat="46.62467" lon="6.14962">
        <ele>1175.8000488281</ele>
        <time>2015-07-22T10:17:24.000Z</time>
      </trkpt>
      <trkpt lat="46.62469" lon="6.1497">
        <ele>1176.1999511719</ele>
        <time>2015-07-22T10:17:27.000Z</time>
      </trkpt>
      <trkpt lat="46.62469" lon="6.14972">
        <ele>1176.5999755859</ele>
        <time>2015-07-22T10:17:28.000Z</time>
      </trkpt>
      <trkpt lat="46.6247" lon="6.14978">
        <ele>1177</ele>
        <time>2015-07-22T10:17:30.000Z</time>
      </trkpt>
      <trkpt lat="46.6247" lon="6.14981">
        <ele>1177.8000488281</ele>
        <time>2015-07-22T10:17:31.000Z</time>
      </trkpt>
      <trkpt lat="46.62471" lon="6.14984">
        <ele>1177.8000488281</ele>
        <time>2015-07-22T10:17:32.000Z</time>
      </trkpt>
      <trkpt lat="46.62472" lon="6.15012">
        <ele>1177.8000488281</ele>
        <time>2015-07-22T10:17:42.000Z</time>
      </trkpt>
      <trkpt lat="46.62471" lon="6.15026">
        <ele>1178.5999755859</ele>
        <time>2015-07-22T10:17:48.000Z</time>
      </trkpt>
      <trkpt lat="46.6247" lon="6.15029">
        <ele>1179.1999511719</ele>
        <time>2015-07-22T10:17:49.000Z</time>
      </trkpt>
      <trkpt lat="46.6247" lon="6.15032">
        <ele>1179.5999755859</ele>
        <time>2015-07-22T10:17:50.000Z</time>
      </trkpt>
      <trkpt lat="46.62469" lon="6.15034">
        <ele>1180</ele>
        <time>2015-07-22T10:17:51.000Z</time>
      </trkpt>
      <trkpt lat="46.62465" lon="6.15049">
        <ele>1180.8000488281</ele>
        <time>2015-07-22T10:17:57.000Z</time>
      </trkpt>
      <trkpt lat="46.62464" lon="6.15052">
        <ele>1181.4000244141</ele>
        <time>2015-07-22T10:17:58.000Z</time>
      </trkpt>
      <trkpt lat="46.62463" lon="6.15055">
        <ele>1181.8000488281</ele>
        <time>2015-07-22T10:17:59.000Z</time>
      </trkpt>
      <trkpt lat="46.62453" lon="6.15077">
        <ele>1183</ele>
        <time>2015-07-22T10:18:08.000Z</time>
      </trkpt>
      <trkpt lat="46.62452" lon="6.1508">
        <ele>1183.4000244141</ele>
        <time>2015-07-22T10:18:09.000Z</time>
      </trkpt>
      <trkpt lat="46.62451" lon="6.15082">
        <ele>1183.8000488281</ele>
        <time>2015-07-22T10:18:10.000Z</time>
      </trkpt>
      <trkpt lat="46.62449" lon="6.15084">
        <ele>1184.1999511719</ele>
        <time>2015-07-22T10:18:11.000Z</time>
      </trkpt>
      <trkpt lat="46.6244" lon="6.151">
        <ele>1184.1999511719</ele>
        <time>2015-07-22T10:18:18.000Z</time>
      </trkpt>
      <trkpt lat="46.62439" lon="6.15103">
        <ele>1184.5999755859</ele>
        <time>2015-07-22T10:18:19.000Z</time>
      </trkpt>
      <trkpt lat="46.62438" lon="6.15105">
        <ele>1185</ele>
        <time>2015-07-22T10:18:20.000Z</time>
      </trkpt>
      <trkpt lat="46.62436" lon="6.15107">
        <ele>1185.4000244141</ele>
        <time>2015-07-22T10:18:21.000Z</time>
      </trkpt>
      <trkpt lat="46.62435" lon="6.1511">
        <ele>1185.8000488281</ele>
        <time>2015-07-22T10:18:22.000Z</time>
      </trkpt>
      <trkpt lat="46.62433" lon="6.15112">
        <ele>1186.4000244141</ele>
        <time>2015-07-22T10:18:23.000Z</time>
      </trkpt>
      <trkpt lat="46.62428" lon="6.15118">
        <ele>1186.4000244141</ele>
        <time>2015-07-22T10:18:26.000Z</time>
      </trkpt>
      <trkpt lat="46.62417" lon="6.15137">
        <ele>1186.4000244141</ele>
        <time>2015-07-22T10:18:35.000Z</time>
      </trkpt>
      <trkpt lat="46.62404" lon="6.15149">
        <ele>1186.4000244141</ele>
        <time>2015-07-22T10:18:40.000Z</time>
      </trkpt>
      <trkpt lat="46.62394" lon="6.15155">
        <ele>1186.4000244141</ele>
        <time>2015-07-22T10:18:45.000Z</time>
      </trkpt>
      <trkpt lat="46.62374" lon="6.15164">
        <ele>1186.4000244141</ele>
        <time>2015-07-22T10:18:53.000Z</time>
      </trkpt>
      <trkpt lat="46.6237" lon="6.15165">
        <ele>1186.8000488281</ele>
        <time>2015-07-22T10:18:54.000Z</time>
      </trkpt>
      <trkpt lat="46.62367" lon="6.15168">
        <ele>1187.1999511719</ele>
        <time>2015-07-22T10:18:55.000Z</time>
      </trkpt>
      <trkpt lat="46.62364" lon="6.1517">
        <ele>1187.5999755859</ele>
        <time>2015-07-22T10:18:56.000Z</time>
      </trkpt>
      <trkpt lat="46.62361" lon="6.15172">
        <ele>1188</ele>
        <time>2015-07-22T10:18:57.000Z</time>
      </trkpt>
      <trkpt lat="46.62359" lon="6.15174">
        <ele>1188.4000244141</ele>
        <time>2015-07-22T10:18:58.000Z</time>
      </trkpt>
      <trkpt lat="46.62356" lon="6.15176">
        <ele>1188.4000244141</ele>
        <time>2015-07-22T10:18:59.000Z</time>
      </trkpt>
      <trkpt lat="46.62336" lon="6.15196">
        <ele>1188.4000244141</ele>
        <time>2015-07-22T10:19:07.000Z</time>
      </trkpt>
      <trkpt lat="46.62334" lon="6.15199">
        <ele>1189</ele>
        <time>2015-07-22T10:19:08.000Z</time>
      </trkpt>
      <trkpt lat="46.62331" lon="6.15202">
        <ele>1189.4000244141</ele>
        <time>2015-07-22T10:19:09.000Z</time>
      </trkpt>
      <trkpt lat="46.62328" lon="6.15204">
        <ele>1190</ele>
        <time>2015-07-22T10:19:10.000Z</time>
      </trkpt>
      <trkpt lat="46.62323" lon="6.15209">
        <ele>1191</ele>
        <time>2015-07-22T10:19:12.000Z</time>
      </trkpt>
      <trkpt lat="46.62321" lon="6.15211">
        <ele>1191</ele>
        <time>2015-07-22T10:19:13.000Z</time>
      </trkpt>
      <trkpt lat="46.62309" lon="6.15228">
        <ele>1191</ele>
        <time>2015-07-22T10:19:19.000Z</time>
      </trkpt>
      <trkpt lat="46.62295" lon="6.15251">
        <ele>1191</ele>
        <time>2015-07-22T10:19:26.000Z</time>
      </trkpt>
      <trkpt lat="46.62273" lon="6.15276">
        <ele>1191</ele>
        <time>2015-07-22T10:19:35.000Z</time>
      </trkpt>
      <trkpt lat="46.62266" lon="6.15282">
        <ele>1191.4000244141</ele>
        <time>2015-07-22T10:19:38.000Z</time>
      </trkpt>
      <trkpt lat="46.62264" lon="6.15284">
        <ele>1191.8000488281</ele>
        <time>2015-07-22T10:19:39.000Z</time>
      </trkpt>
      <trkpt lat="46.62261" lon="6.15286">
        <ele>1192.1999511719</ele>
        <time>2015-07-22T10:19:40.000Z</time>
      </trkpt>
      <trkpt lat="46.62258" lon="6.15288">
        <ele>1192.5999755859</ele>
        <time>2015-07-22T10:19:41.000Z</time>
      </trkpt>
      <trkpt lat="46.62256" lon="6.1529">
        <ele>1193</ele>
        <time>2015-07-22T10:19:42.000Z</time>
      </trkpt>
      <trkpt lat="46.62252" lon="6.15293">
        <ele>1193</ele>
        <time>2015-07-22T10:19:44.000Z</time>
      </trkpt>
      <trkpt lat="46.62236" lon="6.15304">
        <ele>1193.4000244141</ele>
        <time>2015-07-22T10:19:50.000Z</time>
      </trkpt>
      <trkpt lat="46.62235" lon="6.15306">
        <ele>1194</ele>
        <time>2015-07-22T10:19:51.000Z</time>
      </trkpt>
      <trkpt lat="46.62233" lon="6.15307">
        <ele>1194.4000244141</ele>
        <time>2015-07-22T10:19:52.000Z</time>
      </trkpt>
      <trkpt lat="46.62231" lon="6.15309">
        <ele>1194.8000488281</ele>
        <time>2015-07-22T10:19:53.000Z</time>
      </trkpt>
      <trkpt lat="46.62229" lon="6.15311">
        <ele>1195.1999511719</ele>
        <time>2015-07-22T10:19:54.000Z</time>
      </trkpt>
      <trkpt lat="46.62219" lon="6.15317">
        <ele>1195.1999511719</ele>
        <time>2015-07-22T10:19:58.000Z</time>
      </trkpt>
      <trkpt lat="46.62214" lon="6.15322">
        <ele>1195.8000488281</ele>
        <time>2015-07-22T10:20:00.000Z</time>
      </trkpt>
      <trkpt lat="46.62212" lon="6.15325">
        <ele>1196.1999511719</ele>
        <time>2015-07-22T10:20:01.000Z</time>
      </trkpt>
      <trkpt lat="46.62211" lon="6.15328">
        <ele>1196.5999755859</ele>
        <time>2015-07-22T10:20:02.000Z</time>
      </trkpt>
      <trkpt lat="46.62208" lon="6.1533">
        <ele>1197</ele>
        <time>2015-07-22T10:20:03.000Z</time>
      </trkpt>
      <trkpt lat="46.62206" lon="6.15331">
        <ele>1197.5999755859</ele>
        <time>2015-07-22T10:20:04.000Z</time>
      </trkpt>
      <trkpt lat="46.62204" lon="6.15333">
        <ele>1197.5999755859</ele>
        <time>2015-07-22T10:20:05.000Z</time>
      </trkpt>
      <trkpt lat="46.6219" lon="6.15345">
        <ele>1198</ele>
        <time>2015-07-22T10:20:12.000Z</time>
      </trkpt>
      <trkpt lat="46.62188" lon="6.15346">
        <ele>1198.4000244141</ele>
        <time>2015-07-22T10:20:13.000Z</time>
      </trkpt>
      <trkpt lat="46.62186" lon="6.15347">
        <ele>1198.8000488281</ele>
        <time>2015-07-22T10:20:14.000Z</time>
      </trkpt>
      <trkpt lat="46.62184" lon="6.15348">
        <ele>1199.1999511719</ele>
        <time>2015-07-22T10:20:15.000Z</time>
      </trkpt>
      <trkpt lat="46.62182" lon="6.15348">
        <ele>1199.5999755859</ele>
        <time>2015-07-22T10:20:16.000Z</time>
      </trkpt>
      <trkpt lat="46.62171" lon="6.15349">
        <ele>1199.5999755859</ele>
        <time>2015-07-22T10:20:20.000Z</time>
      </trkpt>
      <trkpt lat="46.62152" lon="6.15347">
        <ele>1199.5999755859</ele>
        <time>2015-07-22T10:20:27.000Z</time>
      </trkpt>
      <trkpt lat="46.62127" lon="6.15352">
        <ele>1199.5999755859</ele>
        <time>2015-07-22T10:20:32.000Z</time>
      </trkpt>
      <trkpt lat="46.62112" lon="6.15355">
        <ele>1199.5999755859</ele>
        <time>2015-07-22T10:20:36.000Z</time>
      </trkpt>
      <trkpt lat="46.62099" lon="6.15366">
        <ele>1199.5999755859</ele>
        <time>2015-07-22T10:20:41.000Z</time>
      </trkpt>
      <trkpt lat="46.62087" lon="6.15377">
        <ele>1199.5999755859</ele>
        <time>2015-07-22T10:20:46.000Z</time>
      </trkpt>
      <trkpt lat="46.62069" lon="6.15387">
        <ele>1199.5999755859</ele>
        <time>2015-07-22T10:20:52.000Z</time>
      </trkpt>
      <trkpt lat="46.62065" lon="6.15389">
        <ele>1200.4000244141</ele>
        <time>2015-07-22T10:20:54.000Z</time>
      </trkpt>
      <trkpt lat="46.6206" lon="6.1539">
        <ele>1200.8000488281</ele>
        <time>2015-07-22T10:20:56.000Z</time>
      </trkpt>
      <trkpt lat="46.62054" lon="6.1539">
        <ele>1201.1999511719</ele>
        <time>2015-07-22T10:20:58.000Z</time>
      </trkpt>
      <trkpt lat="46.62046" lon="6.15393">
        <ele>1201.5999755859</ele>
        <time>2015-07-22T10:21:00.000Z</time>
      </trkpt>
      <trkpt lat="46.6203" lon="6.15392">
        <ele>1201.5999755859</ele>
        <time>2015-07-22T10:21:04.000Z</time>
      </trkpt>
      <trkpt lat="46.62024" lon="6.15388">
        <ele>1201.5999755859</ele>
        <time>2015-07-22T10:21:06.000Z</time>
      </trkpt>
      <trkpt lat="46.61998" lon="6.15369">
        <ele>1201.5999755859</ele>
        <time>2015-07-22T10:21:14.000Z</time>
      </trkpt>
      <trkpt lat="46.61974" lon="6.15344">
        <ele>1202</ele>
        <time>2015-07-22T10:21:22.000Z</time>
      </trkpt>
      <trkpt lat="46.61972" lon="6.1534">
        <ele>1202.4000244141</ele>
        <time>2015-07-22T10:21:23.000Z</time>
      </trkpt>
      <trkpt lat="46.6197" lon="6.15336">
        <ele>1202.8000488281</ele>
        <time>2015-07-22T10:21:24.000Z</time>
      </trkpt>
      <trkpt lat="46.61968" lon="6.15332">
        <ele>1203.1999511719</ele>
        <time>2015-07-22T10:21:25.000Z</time>
      </trkpt>
      <trkpt lat="46.61966" lon="6.15329">
        <ele>1203.5999755859</ele>
        <time>2015-07-22T10:21:26.000Z</time>
      </trkpt>
      <trkpt lat="46.61961" lon="6.15318">
        <ele>1203.5999755859</ele>
        <time>2015-07-22T10:21:29.000Z</time>
      </trkpt>
      <trkpt lat="46.61956" lon="6.15306">
        <ele>1204</ele>
        <time>2015-07-22T10:21:32.000Z</time>
      </trkpt>
      <trkpt lat="46.61955" lon="6.15304">
        <ele>1204.4000244141</ele>
        <time>2015-07-22T10:21:33.000Z</time>
      </trkpt>
      <trkpt lat="46.61953" lon="6.15302">
        <ele>1204.8000488281</ele>
        <time>2015-07-22T10:21:34.000Z</time>
      </trkpt>
      <trkpt lat="46.61951" lon="6.153">
        <ele>1205.1999511719</ele>
        <time>2015-07-22T10:21:35.000Z</time>
      </trkpt>
      <trkpt lat="46.6195" lon="6.15299">
        <ele>1205.5999755859</ele>
        <time>2015-07-22T10:21:36.000Z</time>
      </trkpt>
      <trkpt lat="46.61943" lon="6.1529">
        <ele>1205.5999755859</ele>
        <time>2015-07-22T10:21:39.000Z</time>
      </trkpt>
      <trkpt lat="46.61926" lon="6.15269">
        <ele>1205.5999755859</ele>
        <time>2015-07-22T10:21:46.000Z</time>
      </trkpt>
      <trkpt lat="46.61921" lon="6.15261">
        <ele>1206</ele>
        <time>2015-07-22T10:21:48.000Z</time>
      </trkpt>
      <trkpt lat="46.61916" lon="6.15253">
        <ele>1206.8000488281</ele>
        <time>2015-07-22T10:21:50.000Z</time>
      </trkpt>
      <trkpt lat="46.61913" lon="6.15248">
        <ele>1207.4000244141</ele>
        <time>2015-07-22T10:21:51.000Z</time>
      </trkpt>
      <trkpt lat="46.6191" lon="6.15245">
        <ele>1207.8000488281</ele>
        <time>2015-07-22T10:21:52.000Z</time>
      </trkpt>
      <trkpt lat="46.61906" lon="6.15237">
        <ele>1207.8000488281</ele>
        <time>2015-07-22T10:21:54.000Z</time>
      </trkpt>
      <trkpt lat="46.61884" lon="6.15207">
        <ele>1207.8000488281</ele>
        <time>2015-07-22T10:22:01.000Z</time>
      </trkpt>
      <trkpt lat="46.61864" lon="6.15179">
        <ele>1207.8000488281</ele>
        <time>2015-07-22T10:22:07.000Z</time>
      </trkpt>
      <trkpt lat="46.61856" lon="6.15164">
        <ele>1207.8000488281</ele>
        <time>2015-07-22T10:22:10.000Z</time>
      </trkpt>
      <trkpt lat="46.61849" lon="6.15144">
        <ele>1207.8000488281</ele>
        <time>2015-07-22T10:22:13.000Z</time>
      </trkpt>
      <trkpt lat="46.6183" lon="6.15112">
        <ele>1207.8000488281</ele>
        <time>2015-07-22T10:22:19.000Z</time>
      </trkpt>
      <trkpt lat="46.61826" lon="6.15109">
        <ele>1207.8000488281</ele>
        <time>2015-07-22T10:22:20.000Z</time>
      </trkpt>
      <trkpt lat="46.61817" lon="6.15107">
        <ele>1207.8000488281</ele>
        <time>2015-07-22T10:22:22.000Z</time>
      </trkpt>
      <trkpt lat="46.61809" lon="6.15108">
        <ele>1207.8000488281</ele>
        <time>2015-07-22T10:22:24.000Z</time>
      </trkpt>
      <trkpt lat="46.61794" lon="6.15111">
        <ele>1207.8000488281</ele>
        <time>2015-07-22T10:22:27.000Z</time>
      </trkpt>
      <trkpt lat="46.61758" lon="6.15115">
        <ele>1207.8000488281</ele>
        <time>2015-07-22T10:22:34.000Z</time>
      </trkpt>
      <trkpt lat="46.61739" lon="6.15127">
        <ele>1207.8000488281</ele>
        <time>2015-07-22T10:22:38.000Z</time>
      </trkpt>
      <trkpt lat="46.61735" lon="6.1513">
        <ele>1207.8000488281</ele>
        <time>2015-07-22T10:22:39.000Z</time>
      </trkpt>
      <trkpt lat="46.61723" lon="6.15143">
        <ele>1207.8000488281</ele>
        <time>2015-07-22T10:22:43.000Z</time>
      </trkpt>
      <trkpt lat="46.61719" lon="6.15148">
        <ele>1208.1999511719</ele>
        <time>2015-07-22T10:22:45.000Z</time>
      </trkpt>
      <trkpt lat="46.61717" lon="6.15151">
        <ele>1208.5999755859</ele>
        <time>2015-07-22T10:22:46.000Z</time>
      </trkpt>
      <trkpt lat="46.61715" lon="6.15153">
        <ele>1209</ele>
        <time>2015-07-22T10:22:47.000Z</time>
      </trkpt>
      <trkpt lat="46.61712" lon="6.15156">
        <ele>1209.4000244141</ele>
        <time>2015-07-22T10:22:48.000Z</time>
      </trkpt>
      <trkpt lat="46.6171" lon="6.15159">
        <ele>1209.8000488281</ele>
        <time>2015-07-22T10:22:49.000Z</time>
      </trkpt>
      <trkpt lat="46.61703" lon="6.15168">
        <ele>1209.8000488281</ele>
        <time>2015-07-22T10:22:53.000Z</time>
      </trkpt>
      <trkpt lat="46.61701" lon="6.1517">
        <ele>1210.1999511719</ele>
        <time>2015-07-22T10:22:54.000Z</time>
      </trkpt>
      <trkpt lat="46.61699" lon="6.15172">
        <ele>1210.5999755859</ele>
        <time>2015-07-22T10:22:55.000Z</time>
      </trkpt>
      <trkpt lat="46.61697" lon="6.15175">
        <ele>1211</ele>
        <time>2015-07-22T10:22:56.000Z</time>
      </trkpt>
      <trkpt lat="46.61695" lon="6.15177">
        <ele>1211.4000244141</ele>
        <time>2015-07-22T10:22:57.000Z</time>
      </trkpt>
      <trkpt lat="46.61693" lon="6.15179">
        <ele>1211.8000488281</ele>
        <time>2015-07-22T10:22:58.000Z</time>
      </trkpt>
      <trkpt lat="46.61684" lon="6.15187">
        <ele>1211.8000488281</ele>
        <time>2015-07-22T10:23:02.000Z</time>
      </trkpt>
      <trkpt lat="46.61679" lon="6.1519">
        <ele>1212.4000244141</ele>
        <time>2015-07-22T10:23:04.000Z</time>
      </trkpt>
      <trkpt lat="46.61676" lon="6.15191">
        <ele>1212.8000488281</ele>
        <time>2015-07-22T10:23:05.000Z</time>
      </trkpt>
      <trkpt lat="46.61674" lon="6.15192">
        <ele>1213.1999511719</ele>
        <time>2015-07-22T10:23:06.000Z</time>
      </trkpt>
      <trkpt lat="46.61672" lon="6.15194">
        <ele>1213.5999755859</ele>
        <time>2015-07-22T10:23:07.000Z</time>
      </trkpt>
      <trkpt lat="46.61669" lon="6.15196">
        <ele>1214</ele>
        <time>2015-07-22T10:23:08.000Z</time>
      </trkpt>
      <trkpt lat="46.61665" lon="6.152">
        <ele>1214</ele>
        <time>2015-07-22T10:23:10.000Z</time>
      </trkpt>
      <trkpt lat="46.61654" lon="6.15212">
        <ele>1214.4000244141</ele>
        <time>2015-07-22T10:23:15.000Z</time>
      </trkpt>
      <trkpt lat="46.61652" lon="6.15215">
        <ele>1215</ele>
        <time>2015-07-22T10:23:16.000Z</time>
      </trkpt>
      <trkpt lat="46.6165" lon="6.15218">
        <ele>1215.4000244141</ele>
        <time>2015-07-22T10:23:17.000Z</time>
      </trkpt>
      <trkpt lat="46.61645" lon="6.15223">
        <ele>1216.4000244141</ele>
        <time>2015-07-22T10:23:19.000Z</time>
      </trkpt>
      <trkpt lat="46.61638" lon="6.15234">
        <ele>1216.4000244141</ele>
        <time>2015-07-22T10:23:22.000Z</time>
      </trkpt>
      <trkpt lat="46.61619" lon="6.15254">
        <ele>1216.4000244141</ele>
        <time>2015-07-22T10:23:29.000Z</time>
      </trkpt>
      <trkpt lat="46.6161" lon="6.15271">
        <ele>1216.4000244141</ele>
        <time>2015-07-22T10:23:33.000Z</time>
      </trkpt>
      <trkpt lat="46.61607" lon="6.15299">
        <ele>1216.4000244141</ele>
        <time>2015-07-22T10:23:37.000Z</time>
      </trkpt>
      <trkpt lat="46.61584" lon="6.1532">
        <ele>1216.4000244141</ele>
        <time>2015-07-22T10:23:44.000Z</time>
      </trkpt>
      <trkpt lat="46.61579" lon="6.15317">
        <ele>1216.4000244141</ele>
        <time>2015-07-22T10:23:45.000Z</time>
      </trkpt>
      <trkpt lat="46.61574" lon="6.15305">
        <ele>1216.4000244141</ele>
        <time>2015-07-22T10:23:47.000Z</time>
      </trkpt>
      <trkpt lat="46.61562" lon="6.15286">
        <ele>1216.4000244141</ele>
        <time>2015-07-22T10:23:52.000Z</time>
      </trkpt>
      <trkpt lat="46.61557" lon="6.15274">
        <ele>1216.8000488281</ele>
        <time>2015-07-22T10:23:56.000Z</time>
      </trkpt>
      <trkpt lat="46.61556" lon="6.15272">
        <ele>1217.1999511719</ele>
        <time>2015-07-22T10:23:57.000Z</time>
      </trkpt>
      <trkpt lat="46.61555" lon="6.1527">
        <ele>1217.8000488281</ele>
        <time>2015-07-22T10:23:58.000Z</time>
      </trkpt>
      <trkpt lat="46.61554" lon="6.15268">
        <ele>1218.1999511719</ele>
        <time>2015-07-22T10:23:59.000Z</time>
      </trkpt>
      <trkpt lat="46.61552" lon="6.15264">
        <ele>1218.5999755859</ele>
        <time>2015-07-22T10:24:01.000Z</time>
      </trkpt>
      <trkpt lat="46.61545" lon="6.15254">
        <ele>1218.5999755859</ele>
        <time>2015-07-22T10:24:05.000Z</time>
      </trkpt>
      <trkpt lat="46.61538" lon="6.15243">
        <ele>1219.1999511719</ele>
        <time>2015-07-22T10:24:09.000Z</time>
      </trkpt>
      <trkpt lat="46.61535" lon="6.15238">
        <ele>1220</ele>
        <time>2015-07-22T10:24:11.000Z</time>
      </trkpt>
      <trkpt lat="46.61532" lon="6.15235">
        <ele>1220</ele>
        <time>2015-07-22T10:24:12.000Z</time>
      </trkpt>
      <trkpt lat="46.61531" lon="6.15232">
        <ele>1221</ele>
        <time>2015-07-22T10:24:13.000Z</time>
      </trkpt>
      <trkpt lat="46.61514" lon="6.15209">
        <ele>1221</ele>
        <time>2015-07-22T10:24:21.000Z</time>
      </trkpt>
      <trkpt lat="46.61511" lon="6.15205">
        <ele>1221.4000244141</ele>
        <time>2015-07-22T10:24:23.000Z</time>
      </trkpt>
      <trkpt lat="46.61509" lon="6.15203">
        <ele>1221.8000488281</ele>
        <time>2015-07-22T10:24:24.000Z</time>
      </trkpt>
      <trkpt lat="46.61507" lon="6.152">
        <ele>1222.4000244141</ele>
        <time>2015-07-22T10:24:25.000Z</time>
      </trkpt>
      <trkpt lat="46.61505" lon="6.15198">
        <ele>1222.8000488281</ele>
        <time>2015-07-22T10:24:26.000Z</time>
      </trkpt>
      <trkpt lat="46.61503" lon="6.15196">
        <ele>1223.1999511719</ele>
        <time>2015-07-22T10:24:27.000Z</time>
      </trkpt>
      <trkpt lat="46.61501" lon="6.15195">
        <ele>1223.1999511719</ele>
        <time>2015-07-22T10:24:28.000Z</time>
      </trkpt>
      <trkpt lat="46.61488" lon="6.15171">
        <ele>1223.1999511719</ele>
        <time>2015-07-22T10:24:35.000Z</time>
      </trkpt>
      <trkpt lat="46.61467" lon="6.1515">
        <ele>1223.1999511719</ele>
        <time>2015-07-22T10:24:40.000Z</time>
      </trkpt>
      <trkpt lat="46.61463" lon="6.15146">
        <ele>1223.1999511719</ele>
        <time>2015-07-22T10:24:41.000Z</time>
      </trkpt>
      <trkpt lat="46.61453" lon="6.15139">
        <ele>1223.1999511719</ele>
        <time>2015-07-22T10:24:43.000Z</time>
      </trkpt>
      <trkpt lat="46.61447" lon="6.15138">
        <ele>1223.1999511719</ele>
        <time>2015-07-22T10:24:44.000Z</time>
      </trkpt>
      <trkpt lat="46.61441" lon="6.15135">
        <ele>1222.8000488281</ele>
        <time>2015-07-22T10:24:45.000Z</time>
      </trkpt>
      <trkpt lat="46.61427" lon="6.15129">
        <ele>1222.1999511719</ele>
        <time>2015-07-22T10:24:47.000Z</time>
      </trkpt>
      <trkpt lat="46.61419" lon="6.15124">
        <ele>1221.8000488281</ele>
        <time>2015-07-22T10:24:48.000Z</time>
      </trkpt>
      <trkpt lat="46.61412" lon="6.15119">
        <ele>1221.1999511719</ele>
        <time>2015-07-22T10:24:49.000Z</time>
      </trkpt>
      <trkpt lat="46.61406" lon="6.15111">
        <ele>1220.8000488281</ele>
        <time>2015-07-22T10:24:50.000Z</time>
      </trkpt>
      <trkpt lat="46.61399" lon="6.15103">
        <ele>1220.8000488281</ele>
        <time>2015-07-22T10:24:51.000Z</time>
      </trkpt>
      <trkpt lat="46.61393" lon="6.15096">
        <ele>1220.4000244141</ele>
        <time>2015-07-22T10:24:52.000Z</time>
      </trkpt>
      <trkpt lat="46.61388" lon="6.15088">
        <ele>1219.8000488281</ele>
        <time>2015-07-22T10:24:53.000Z</time>
      </trkpt>
      <trkpt lat="46.61381" lon="6.1508">
        <ele>1219.1999511719</ele>
        <time>2015-07-22T10:24:54.000Z</time>
      </trkpt>
      <trkpt lat="46.61368" lon="6.15067">
        <ele>1218.5999755859</ele>
        <time>2015-07-22T10:24:56.000Z</time>
      </trkpt>
      <trkpt lat="46.61361" lon="6.15062">
        <ele>1218</ele>
        <time>2015-07-22T10:24:57.000Z</time>
      </trkpt>
      <trkpt lat="46.61354" lon="6.15059">
        <ele>1217.4000244141</ele>
        <time>2015-07-22T10:24:58.000Z</time>
      </trkpt>
      <trkpt lat="46.61348" lon="6.15057">
        <ele>1217.4000244141</ele>
        <time>2015-07-22T10:24:59.000Z</time>
      </trkpt>
      <trkpt lat="46.61343" lon="6.15057">
        <ele>1216.5999755859</ele>
        <time>2015-07-22T10:25:00.000Z</time>
      </trkpt>
      <trkpt lat="46.61338" lon="6.15056">
        <ele>1216</ele>
        <time>2015-07-22T10:25:01.000Z</time>
      </trkpt>
      <trkpt lat="46.61329" lon="6.15055">
        <ele>1216</ele>
        <time>2015-07-22T10:25:03.000Z</time>
      </trkpt>
      <trkpt lat="46.61311" lon="6.15049">
        <ele>1216</ele>
        <time>2015-07-22T10:25:09.000Z</time>
      </trkpt>
      <trkpt lat="46.61298" lon="6.15046">
        <ele>1216</ele>
        <time>2015-07-22T10:25:12.000Z</time>
      </trkpt>
      <trkpt lat="46.61288" lon="6.15046">
        <ele>1216</ele>
        <time>2015-07-22T10:25:14.000Z</time>
      </trkpt>
      <trkpt lat="46.61264" lon="6.15054">
        <ele>1216</ele>
        <time>2015-07-22T10:25:19.000Z</time>
      </trkpt>
      <trkpt lat="46.61242" lon="6.15047">
        <ele>1216</ele>
        <time>2015-07-22T10:25:23.000Z</time>
      </trkpt>
      <trkpt lat="46.61223" lon="6.15029">
        <ele>1216</ele>
        <time>2015-07-22T10:25:27.000Z</time>
      </trkpt>
      <trkpt lat="46.61203" lon="6.15014">
        <ele>1215.5999755859</ele>
        <time>2015-07-22T10:25:31.000Z</time>
      </trkpt>
      <trkpt lat="46.61199" lon="6.15009">
        <ele>1214.8000488281</ele>
        <time>2015-07-22T10:25:32.000Z</time>
      </trkpt>
      <trkpt lat="46.61195" lon="6.15005">
        <ele>1214.4000244141</ele>
        <time>2015-07-22T10:25:33.000Z</time>
      </trkpt>
      <trkpt lat="46.61191" lon="6.15002">
        <ele>1214</ele>
        <time>2015-07-22T10:25:34.000Z</time>
      </trkpt>
      <trkpt lat="46.61173" lon="6.14981">
        <ele>1214</ele>
        <time>2015-07-22T10:25:39.000Z</time>
      </trkpt>
      <trkpt lat="46.61157" lon="6.14953">
        <ele>1214</ele>
        <time>2015-07-22T10:25:44.000Z</time>
      </trkpt>
      <trkpt lat="46.61152" lon="6.14945">
        <ele>1214</ele>
        <time>2015-07-22T10:25:45.000Z</time>
      </trkpt>
      <trkpt lat="46.61131" lon="6.14911">
        <ele>1213.4000244141</ele>
        <time>2015-07-22T10:25:49.000Z</time>
      </trkpt>
      <trkpt lat="46.61127" lon="6.14902">
        <ele>1213</ele>
        <time>2015-07-22T10:25:50.000Z</time>
      </trkpt>
      <trkpt lat="46.61123" lon="6.14892">
        <ele>1212.4000244141</ele>
        <time>2015-07-22T10:25:51.000Z</time>
      </trkpt>
      <trkpt lat="46.61116" lon="6.14884">
        <ele>1212</ele>
        <time>2015-07-22T10:25:52.000Z</time>
      </trkpt>
      <trkpt lat="46.6111" lon="6.14876">
        <ele>1211.4000244141</ele>
        <time>2015-07-22T10:25:53.000Z</time>
      </trkpt>
      <trkpt lat="46.61104" lon="6.14868">
        <ele>1211</ele>
        <time>2015-07-22T10:25:54.000Z</time>
      </trkpt>
      <trkpt lat="46.61098" lon="6.1486">
        <ele>1210.4000244141</ele>
        <time>2015-07-22T10:25:55.000Z</time>
      </trkpt>
      <trkpt lat="46.61091" lon="6.14853">
        <ele>1209.8000488281</ele>
        <time>2015-07-22T10:25:56.000Z</time>
      </trkpt>
      <trkpt lat="46.61085" lon="6.14845">
        <ele>1209.4000244141</ele>
        <time>2015-07-22T10:25:57.000Z</time>
      </trkpt>
      <trkpt lat="46.61073" lon="6.14828">
        <ele>1208.8000488281</ele>
        <time>2015-07-22T10:25:59.000Z</time>
      </trkpt>
      <trkpt lat="46.61067" lon="6.14821">
        <ele>1208.4000244141</ele>
        <time>2015-07-22T10:26:00.000Z</time>
      </trkpt>
      <trkpt lat="46.61062" lon="6.14813">
        <ele>1208</ele>
        <time>2015-07-22T10:26:01.000Z</time>
      </trkpt>
      <trkpt lat="46.61056" lon="6.14807">
        <ele>1207.5999755859</ele>
        <time>2015-07-22T10:26:02.000Z</time>
      </trkpt>
      <trkpt lat="46.6105" lon="6.14801">
        <ele>1207.1999511719</ele>
        <time>2015-07-22T10:26:03.000Z</time>
      </trkpt>
      <trkpt lat="46.61045" lon="6.14796">
        <ele>1207.1999511719</ele>
        <time>2015-07-22T10:26:04.000Z</time>
      </trkpt>
      <trkpt lat="46.61018" lon="6.1476">
        <ele>1207.1999511719</ele>
        <time>2015-07-22T10:26:10.000Z</time>
      </trkpt>
      <trkpt lat="46.61009" lon="6.14748">
        <ele>1207.1999511719</ele>
        <time>2015-07-22T10:26:12.000Z</time>
      </trkpt>
      <trkpt lat="46.60998" lon="6.14734">
        <ele>1207.1999511719</ele>
        <time>2015-07-22T10:26:15.000Z</time>
      </trkpt>
      <trkpt lat="46.60987" lon="6.14716">
        <ele>1207.5999755859</ele>
        <time>2015-07-22T10:26:19.000Z</time>
      </trkpt>
      <trkpt lat="46.60984" lon="6.14711">
        <ele>1208</ele>
        <time>2015-07-22T10:26:20.000Z</time>
      </trkpt>
      <trkpt lat="46.60981" lon="6.14707">
        <ele>1208.5999755859</ele>
        <time>2015-07-22T10:26:21.000Z</time>
      </trkpt>
      <trkpt lat="46.60978" lon="6.14703">
        <ele>1209</ele>
        <time>2015-07-22T10:26:22.000Z</time>
      </trkpt>
      <trkpt lat="46.60975" lon="6.14699">
        <ele>1209.4000244141</ele>
        <time>2015-07-22T10:26:23.000Z</time>
      </trkpt>
      <trkpt lat="46.60972" lon="6.14695">
        <ele>1209.4000244141</ele>
        <time>2015-07-22T10:26:24.000Z</time>
      </trkpt>
      <trkpt lat="46.60961" lon="6.14682">
        <ele>1209.8000488281</ele>
        <time>2015-07-22T10:26:28.000Z</time>
      </trkpt>
      <trkpt lat="46.60958" lon="6.14678">
        <ele>1210.1999511719</ele>
        <time>2015-07-22T10:26:29.000Z</time>
      </trkpt>
      <trkpt lat="46.60954" lon="6.14674">
        <ele>1210.5999755859</ele>
        <time>2015-07-22T10:26:30.000Z</time>
      </trkpt>
      <trkpt lat="46.60951" lon="6.1467">
        <ele>1211</ele>
        <time>2015-07-22T10:26:31.000Z</time>
      </trkpt>
      <trkpt lat="46.60947" lon="6.14666">
        <ele>1211.4000244141</ele>
        <time>2015-07-22T10:26:32.000Z</time>
      </trkpt>
      <trkpt lat="46.60943" lon="6.14663">
        <ele>1211.4000244141</ele>
        <time>2015-07-22T10:26:33.000Z</time>
      </trkpt>
      <trkpt lat="46.60925" lon="6.14644">
        <ele>1211.4000244141</ele>
        <time>2015-07-22T10:26:38.000Z</time>
      </trkpt>
      <trkpt lat="46.60908" lon="6.14633">
        <ele>1211.4000244141</ele>
        <time>2015-07-22T10:26:43.000Z</time>
      </trkpt>
      <trkpt lat="46.60901" lon="6.14632">
        <ele>1212</ele>
        <time>2015-07-22T10:26:47.000Z</time>
      </trkpt>
      <trkpt lat="46.60899" lon="6.14633">
        <ele>1212.4000244141</ele>
        <time>2015-07-22T10:26:48.000Z</time>
      </trkpt>
      <trkpt lat="46.60897" lon="6.14633">
        <ele>1213</ele>
        <time>2015-07-22T10:26:49.000Z</time>
      </trkpt>
      <trkpt lat="46.60895" lon="6.14634">
        <ele>1213.5999755859</ele>
        <time>2015-07-22T10:26:50.000Z</time>
      </trkpt>
      <trkpt lat="46.60893" lon="6.14635">
        <ele>1214</ele>
        <time>2015-07-22T10:26:51.000Z</time>
      </trkpt>
      <trkpt lat="46.60883" lon="6.14637">
        <ele>1214.4000244141</ele>
        <time>2015-07-22T10:26:59.000Z</time>
      </trkpt>
      <trkpt lat="46.60882" lon="6.14637">
        <ele>1214.8000488281</ele>
        <time>2015-07-22T10:27:00.000Z</time>
      </trkpt>
      <trkpt lat="46.60879" lon="6.14637">
        <ele>1215.1999511719</ele>
        <time>2015-07-22T10:27:01.000Z</time>
      </trkpt>
      <trkpt lat="46.60877" lon="6.14636">
        <ele>1215.5999755859</ele>
        <time>2015-07-22T10:27:02.000Z</time>
      </trkpt>
      <trkpt lat="46.60876" lon="6.14635">
        <ele>1216</ele>
        <time>2015-07-22T10:27:03.000Z</time>
      </trkpt>
      <trkpt lat="46.60871" lon="6.14633">
        <ele>1216</ele>
        <time>2015-07-22T10:27:06.000Z</time>
      </trkpt>
      <trkpt lat="46.60862" lon="6.1463">
        <ele>1216.5999755859</ele>
        <time>2015-07-22T10:27:11.000Z</time>
      </trkpt>
      <trkpt lat="46.6086" lon="6.14629">
        <ele>1217</ele>
        <time>2015-07-22T10:27:12.000Z</time>
      </trkpt>
      <trkpt lat="46.60859" lon="6.14628">
        <ele>1217.4000244141</ele>
        <time>2015-07-22T10:27:13.000Z</time>
      </trkpt>
      <trkpt lat="46.60858" lon="6.14628">
        <ele>1218</ele>
        <time>2015-07-22T10:27:14.000Z</time>
      </trkpt>
      <trkpt lat="46.60856" lon="6.14627">
        <ele>1218.4000244141</ele>
        <time>2015-07-22T10:27:15.000Z</time>
      </trkpt>
      <trkpt lat="46.60855" lon="6.14626">
        <ele>1218.4000244141</ele>
        <time>2015-07-22T10:27:16.000Z</time>
      </trkpt>
      <trkpt lat="46.60849" lon="6.14622">
        <ele>1218.8000488281</ele>
        <time>2015-07-22T10:27:21.000Z</time>
      </trkpt>
      <trkpt lat="46.60848" lon="6.1462">
        <ele>1219.1999511719</ele>
        <time>2015-07-22T10:27:22.000Z</time>
      </trkpt>
      <trkpt lat="46.60847" lon="6.14619">
        <ele>1219.5999755859</ele>
        <time>2015-07-22T10:27:23.000Z</time>
      </trkpt>
      <trkpt lat="46.60846" lon="6.14618">
        <ele>1220</ele>
        <time>2015-07-22T10:27:24.000Z</time>
      </trkpt>
      <trkpt lat="46.60846" lon="6.14617">
        <ele>1220.5999755859</ele>
        <time>2015-07-22T10:27:25.000Z</time>
      </trkpt>
      <trkpt lat="46.60846" lon="6.14615">
        <ele>1220.5999755859</ele>
        <time>2015-07-22T10:27:27.000Z</time>
      </trkpt>
      <trkpt lat="46.60845" lon="6.14613">
        <ele>1220.5999755859</ele>
        <time>2015-07-22T10:27:28.000Z</time>
      </trkpt>
      <trkpt lat="46.60843" lon="6.14612">
        <ele>1221</ele>
        <time>2015-07-22T10:27:29.000Z</time>
      </trkpt>
      <trkpt lat="46.60842" lon="6.14611">
        <ele>1221.4000244141</ele>
        <time>2015-07-22T10:27:30.000Z</time>
      </trkpt>
      <trkpt lat="46.60841" lon="6.14609">
        <ele>1221.8000488281</ele>
        <time>2015-07-22T10:27:31.000Z</time>
      </trkpt>
      <trkpt lat="46.6084" lon="6.14607">
        <ele>1222.1999511719</ele>
        <time>2015-07-22T10:27:32.000Z</time>
      </trkpt>
      <trkpt lat="46.6084" lon="6.14605">
        <ele>1222.5999755859</ele>
        <time>2015-07-22T10:27:33.000Z</time>
      </trkpt>
      <trkpt lat="46.60833" lon="6.14598">
        <ele>1222.5999755859</ele>
        <time>2015-07-22T10:27:39.000Z</time>
      </trkpt>
      <trkpt lat="46.60832" lon="6.14596">
        <ele>1223</ele>
        <time>2015-07-22T10:27:40.000Z</time>
      </trkpt>
      <trkpt lat="46.60831" lon="6.14594">
        <ele>1223.5999755859</ele>
        <time>2015-07-22T10:27:41.000Z</time>
      </trkpt>
      <trkpt lat="46.60825" lon="6.14589">
        <ele>1224</ele>
        <time>2015-07-22T10:27:42.000Z</time>
      </trkpt>
      <trkpt lat="46.60823" lon="6.14586">
        <ele>1224.4000244141</ele>
        <time>2015-07-22T10:27:43.000Z</time>
      </trkpt>
      <trkpt lat="46.60821" lon="6.14584">
        <ele>1224.8000488281</ele>
        <time>2015-07-22T10:27:44.000Z</time>
      </trkpt>
      <trkpt lat="46.6082" lon="6.14582">
        <ele>1224.8000488281</ele>
        <time>2015-07-22T10:27:45.000Z</time>
      </trkpt>
      <trkpt lat="46.60806" lon="6.14565">
        <ele>1224.8000488281</ele>
        <time>2015-07-22T10:27:54.000Z</time>
      </trkpt>
      <trkpt lat="46.60796" lon="6.14546">
        <ele>1224.8000488281</ele>
        <time>2015-07-22T10:28:01.000Z</time>
      </trkpt>
      <trkpt lat="46.60784" lon="6.14529">
        <ele>1225.1999511719</ele>
        <time>2015-07-22T10:28:08.000Z</time>
      </trkpt>
      <trkpt lat="46.60781" lon="6.14526">
        <ele>1225.5999755859</ele>
        <time>2015-07-22T10:28:09.000Z</time>
      </trkpt>
      <trkpt lat="46.60779" lon="6.14523">
        <ele>1226</ele>
        <time>2015-07-22T10:28:10.000Z</time>
      </trkpt>
      <trkpt lat="46.60776" lon="6.14519">
        <ele>1226.4000244141</ele>
        <time>2015-07-22T10:28:11.000Z</time>
      </trkpt>
      <trkpt lat="46.60773" lon="6.14515">
        <ele>1226.8000488281</ele>
        <time>2015-07-22T10:28:12.000Z</time>
      </trkpt>
      <trkpt lat="46.60767" lon="6.14508">
        <ele>1226.8000488281</ele>
        <time>2015-07-22T10:28:13.000Z</time>
      </trkpt>
      <trkpt lat="46.60751" lon="6.1449">
        <ele>1226.8000488281</ele>
        <time>2015-07-22T10:28:19.000Z</time>
      </trkpt>
      <trkpt lat="46.60742" lon="6.14484">
        <ele>1227.1999511719</ele>
        <time>2015-07-22T10:28:25.000Z</time>
      </trkpt>
      <trkpt lat="46.6074" lon="6.14483">
        <ele>1227.8000488281</ele>
        <time>2015-07-22T10:28:26.000Z</time>
      </trkpt>
      <trkpt lat="46.60737" lon="6.14482">
        <ele>1228.1999511719</ele>
        <time>2015-07-22T10:28:27.000Z</time>
      </trkpt>
      <trkpt lat="46.60736" lon="6.14481">
        <ele>1228.5999755859</ele>
        <time>2015-07-22T10:28:28.000Z</time>
      </trkpt>
      <trkpt lat="46.60734" lon="6.14479">
        <ele>1229</ele>
        <time>2015-07-22T10:28:29.000Z</time>
      </trkpt>
      <trkpt lat="46.60732" lon="6.14478">
        <ele>1229</ele>
        <time>2015-07-22T10:28:30.000Z</time>
      </trkpt>
      <trkpt lat="46.60718" lon="6.1446">
        <ele>1229</ele>
        <time>2015-07-22T10:28:37.000Z</time>
      </trkpt>
      <trkpt lat="46.60706" lon="6.14432">
        <ele>1229</ele>
        <time>2015-07-22T10:28:44.000Z</time>
      </trkpt>
      <trkpt lat="46.60695" lon="6.14416">
        <ele>1229.4000244141</ele>
        <time>2015-07-22T10:28:49.000Z</time>
      </trkpt>
      <trkpt lat="46.60693" lon="6.14413">
        <ele>1229.8000488281</ele>
        <time>2015-07-22T10:28:50.000Z</time>
      </trkpt>
      <trkpt lat="46.60691" lon="6.1441">
        <ele>1230.4000244141</ele>
        <time>2015-07-22T10:28:51.000Z</time>
      </trkpt>
      <trkpt lat="46.6069" lon="6.14407">
        <ele>1230.8000488281</ele>
        <time>2015-07-22T10:28:52.000Z</time>
      </trkpt>
      <trkpt lat="46.60687" lon="6.14404">
        <ele>1231.1999511719</ele>
        <time>2015-07-22T10:28:53.000Z</time>
      </trkpt>
      <trkpt lat="46.60682" lon="6.14398">
        <ele>1231.1999511719</ele>
        <time>2015-07-22T10:28:55.000Z</time>
      </trkpt>
      <trkpt lat="46.60676" lon="6.14387">
        <ele>1231.5999755859</ele>
        <time>2015-07-22T10:29:00.000Z</time>
      </trkpt>
      <trkpt lat="46.60675" lon="6.14384">
        <ele>1232</ele>
        <time>2015-07-22T10:29:01.000Z</time>
      </trkpt>
      <trkpt lat="46.60674" lon="6.14382">
        <ele>1232.4000244141</ele>
        <time>2015-07-22T10:29:02.000Z</time>
      </trkpt>
      <trkpt lat="46.60674" lon="6.14381">
        <ele>1232.8000488281</ele>
        <time>2015-07-22T10:29:03.000Z</time>
      </trkpt>
      <trkpt lat="46.60673" lon="6.14379">
        <ele>1233.1999511719</ele>
        <time>2015-07-22T10:29:04.000Z</time>
      </trkpt>
      <trkpt lat="46.60671" lon="6.14376">
        <ele>1233.5999755859</ele>
        <time>2015-07-22T10:29:06.000Z</time>
      </trkpt>
      <trkpt lat="46.6067" lon="6.14375">
        <ele>1234</ele>
        <time>2015-07-22T10:29:07.000Z</time>
      </trkpt>
      <trkpt lat="46.60668" lon="6.14374">
        <ele>1234.4000244141</ele>
        <time>2015-07-22T10:29:08.000Z</time>
      </trkpt>
      <trkpt lat="46.60666" lon="6.14373">
        <ele>1235</ele>
        <time>2015-07-22T10:29:09.000Z</time>
      </trkpt>
      <trkpt lat="46.60664" lon="6.14373">
        <ele>1235.4000244141</ele>
        <time>2015-07-22T10:29:10.000Z</time>
      </trkpt>
      <trkpt lat="46.60658" lon="6.14371">
        <ele>1235.4000244141</ele>
        <time>2015-07-22T10:29:13.000Z</time>
      </trkpt>
      <trkpt lat="46.60651" lon="6.14368">
        <ele>1235.4000244141</ele>
        <time>2015-07-22T10:29:16.000Z</time>
      </trkpt>
      <trkpt lat="46.60643" lon="6.14367">
        <ele>1235.8000488281</ele>
        <time>2015-07-22T10:29:20.000Z</time>
      </trkpt>
      <trkpt lat="46.60641" lon="6.14367">
        <ele>1236.1999511719</ele>
        <time>2015-07-22T10:29:21.000Z</time>
      </trkpt>
      <trkpt lat="46.6064" lon="6.14366">
        <ele>1236.5999755859</ele>
        <time>2015-07-22T10:29:22.000Z</time>
      </trkpt>
      <trkpt lat="46.60638" lon="6.14365">
        <ele>1237</ele>
        <time>2015-07-22T10:29:23.000Z</time>
      </trkpt>
      <trkpt lat="46.60636" lon="6.14365">
        <ele>1237.4000244141</ele>
        <time>2015-07-22T10:29:24.000Z</time>
      </trkpt>
      <trkpt lat="46.60626" lon="6.14363">
        <ele>1237.4000244141</ele>
        <time>2015-07-22T10:29:29.000Z</time>
      </trkpt>
      <trkpt lat="46.60618" lon="6.14362">
        <ele>1237.8000488281</ele>
        <time>2015-07-22T10:29:33.000Z</time>
      </trkpt>
      <trkpt lat="46.60616" lon="6.14361">
        <ele>1238.1999511719</ele>
        <time>2015-07-22T10:29:34.000Z</time>
      </trkpt>
      <trkpt lat="46.60613" lon="6.14361">
        <ele>1238.5999755859</ele>
        <time>2015-07-22T10:29:35.000Z</time>
      </trkpt>
      <trkpt lat="46.6061" lon="6.14361">
        <ele>1239</ele>
        <time>2015-07-22T10:29:36.000Z</time>
      </trkpt>
      <trkpt lat="46.60608" lon="6.1436">
        <ele>1239.4000244141</ele>
        <time>2015-07-22T10:29:37.000Z</time>
      </trkpt>
      <trkpt lat="46.60599" lon="6.14352">
        <ele>1239.4000244141</ele>
        <time>2015-07-22T10:29:42.000Z</time>
      </trkpt>
      <trkpt lat="46.60596" lon="6.14346">
        <ele>1239.8000488281</ele>
        <time>2015-07-22T10:29:45.000Z</time>
      </trkpt>
      <trkpt lat="46.60595" lon="6.14345">
        <ele>1240.1999511719</ele>
        <time>2015-07-22T10:29:46.000Z</time>
      </trkpt>
      <trkpt lat="46.60593" lon="6.14343">
        <ele>1240.8000488281</ele>
        <time>2015-07-22T10:29:47.000Z</time>
      </trkpt>
      <trkpt lat="46.60591" lon="6.14341">
        <ele>1241.1999511719</ele>
        <time>2015-07-22T10:29:48.000Z</time>
      </trkpt>
      <trkpt lat="46.6059" lon="6.1434">
        <ele>1241.5999755859</ele>
        <time>2015-07-22T10:29:49.000Z</time>
      </trkpt>
      <trkpt lat="46.60589" lon="6.14337">
        <ele>1241.5999755859</ele>
        <time>2015-07-22T10:29:50.000Z</time>
      </trkpt>
      <trkpt lat="46.60588" lon="6.14327">
        <ele>1242</ele>
        <time>2015-07-22T10:29:55.000Z</time>
      </trkpt>
      <trkpt lat="46.60587" lon="6.14324">
        <ele>1242.4000244141</ele>
        <time>2015-07-22T10:29:56.000Z</time>
      </trkpt>
      <trkpt lat="46.60587" lon="6.14322">
        <ele>1243</ele>
        <time>2015-07-22T10:29:57.000Z</time>
      </trkpt>
      <trkpt lat="46.60586" lon="6.1432">
        <ele>1243.4000244141</ele>
        <time>2015-07-22T10:29:58.000Z</time>
      </trkpt>
      <trkpt lat="46.60585" lon="6.14318">
        <ele>1243.8000488281</ele>
        <time>2015-07-22T10:29:59.000Z</time>
      </trkpt>
      <trkpt lat="46.60578" lon="6.14312">
        <ele>1243.8000488281</ele>
        <time>2015-07-22T10:30:03.000Z</time>
      </trkpt>
      <trkpt lat="46.60562" lon="6.14294">
        <ele>1243.8000488281</ele>
        <time>2015-07-22T10:30:11.000Z</time>
      </trkpt>
      <trkpt lat="46.60549" lon="6.14276">
        <ele>1243.8000488281</ele>
        <time>2015-07-22T10:30:18.000Z</time>
      </trkpt>
      <trkpt lat="46.60545" lon="6.14266">
        <ele>1244.1999511719</ele>
        <time>2015-07-22T10:30:21.000Z</time>
      </trkpt>
      <trkpt lat="46.60544" lon="6.14264">
        <ele>1244.5999755859</ele>
        <time>2015-07-22T10:30:22.000Z</time>
      </trkpt>
      <trkpt lat="46.60543" lon="6.14261">
        <ele>1245.1999511719</ele>
        <time>2015-07-22T10:30:23.000Z</time>
      </trkpt>
      <trkpt lat="46.60542" lon="6.14257">
        <ele>1245.1999511719</ele>
        <time>2015-07-22T10:30:24.000Z</time>
      </trkpt>
      <trkpt lat="46.60538" lon="6.14251">
        <ele>1246</ele>
        <time>2015-07-22T10:30:26.000Z</time>
      </trkpt>
      <trkpt lat="46.60527" lon="6.14226">
        <ele>1246</ele>
        <time>2015-07-22T10:30:33.000Z</time>
      </trkpt>
      <trkpt lat="46.60525" lon="6.14201">
        <ele>1246</ele>
        <time>2015-07-22T10:30:39.000Z</time>
      </trkpt>
      <trkpt lat="46.60524" lon="6.14195">
        <ele>1245.5999755859</ele>
        <time>2015-07-22T10:30:40.000Z</time>
      </trkpt>
      <trkpt lat="46.60523" lon="6.14183">
        <ele>1245</ele>
        <time>2015-07-22T10:30:41.000Z</time>
      </trkpt>
      <trkpt lat="46.60521" lon="6.14171">
        <ele>1244.5999755859</ele>
        <time>2015-07-22T10:30:42.000Z</time>
      </trkpt>
      <trkpt lat="46.60518" lon="6.14157">
        <ele>1244</ele>
        <time>2015-07-22T10:30:43.000Z</time>
      </trkpt>
      <trkpt lat="46.60513" lon="6.14146">
        <ele>1243.4000244141</ele>
        <time>2015-07-22T10:30:44.000Z</time>
      </trkpt>
      <trkpt lat="46.60509" lon="6.14136">
        <ele>1242.8000488281</ele>
        <time>2015-07-22T10:30:45.000Z</time>
      </trkpt>
      <trkpt lat="46.60508" lon="6.14128">
        <ele>1242.1999511719</ele>
        <time>2015-07-22T10:30:46.000Z</time>
      </trkpt>
      <trkpt lat="46.60506" lon="6.14121">
        <ele>1241.5999755859</ele>
        <time>2015-07-22T10:30:47.000Z</time>
      </trkpt>
      <trkpt lat="46.60503" lon="6.14113">
        <ele>1241.5999755859</ele>
        <time>2015-07-22T10:30:48.000Z</time>
      </trkpt>
      <trkpt lat="46.60489" lon="6.14101">
        <ele>1241.5999755859</ele>
        <time>2015-07-22T10:30:51.000Z</time>
      </trkpt>
      <trkpt lat="46.60477" lon="6.141">
        <ele>1241.5999755859</ele>
        <time>2015-07-22T10:30:56.000Z</time>
      </trkpt>
      <trkpt lat="46.60476" lon="6.14099">
        <ele>1242</ele>
        <time>2015-07-22T10:30:57.000Z</time>
      </trkpt>
      <trkpt lat="46.60475" lon="6.14099">
        <ele>1242.4000244141</ele>
        <time>2015-07-22T10:30:58.000Z</time>
      </trkpt>
      <trkpt lat="46.60473" lon="6.141">
        <ele>1242.8000488281</ele>
        <time>2015-07-22T10:30:59.000Z</time>
      </trkpt>
      <trkpt lat="46.60472" lon="6.141">
        <ele>1243.1999511719</ele>
        <time>2015-07-22T10:31:00.000Z</time>
      </trkpt>
      <trkpt lat="46.6047" lon="6.14099">
        <ele>1243.8000488281</ele>
        <time>2015-07-22T10:31:01.000Z</time>
      </trkpt>
      <trkpt lat="46.60468" lon="6.14099">
        <ele>1243.8000488281</ele>
        <time>2015-07-22T10:31:02.000Z</time>
      </trkpt>
      <trkpt lat="46.60458" lon="6.14097">
        <ele>1244.1999511719</ele>
        <time>2015-07-22T10:31:07.000Z</time>
      </trkpt>
      <trkpt lat="46.60457" lon="6.14098">
        <ele>1244.5999755859</ele>
        <time>2015-07-22T10:31:08.000Z</time>
      </trkpt>
      <trkpt lat="46.60454" lon="6.14098">
        <ele>1245</ele>
        <time>2015-07-22T10:31:09.000Z</time>
      </trkpt>
      <trkpt lat="46.60452" lon="6.14099">
        <ele>1245.4000244141</ele>
        <time>2015-07-22T10:31:10.000Z</time>
      </trkpt>
      <trkpt lat="46.6045" lon="6.141">
        <ele>1245.8000488281</ele>
        <time>2015-07-22T10:31:11.000Z</time>
      </trkpt>
      <trkpt lat="46.60443" lon="6.14107">
        <ele>1245.8000488281</ele>
        <time>2015-07-22T10:31:15.000Z</time>
      </trkpt>
      <trkpt lat="46.6043" lon="6.14124">
        <ele>1245.8000488281</ele>
        <time>2015-07-22T10:31:19.000Z</time>
      </trkpt>
      <trkpt lat="46.6041" lon="6.14129">
        <ele>1245.8000488281</ele>
        <time>2015-07-22T10:31:25.000Z</time>
      </trkpt>
      <trkpt lat="46.60399" lon="6.14126">
        <ele>1246.1999511719</ele>
        <time>2015-07-22T10:31:29.000Z</time>
      </trkpt>
      <trkpt lat="46.60397" lon="6.14126">
        <ele>1246.8000488281</ele>
        <time>2015-07-22T10:31:30.000Z</time>
      </trkpt>
      <trkpt lat="46.60395" lon="6.14126">
        <ele>1247.1999511719</ele>
        <time>2015-07-22T10:31:31.000Z</time>
      </trkpt>
      <trkpt lat="46.60392" lon="6.14126">
        <ele>1247.8000488281</ele>
        <time>2015-07-22T10:31:32.000Z</time>
      </trkpt>
      <trkpt lat="46.6039" lon="6.14128">
        <ele>1248.1999511719</ele>
        <time>2015-07-22T10:31:33.000Z</time>
      </trkpt>
      <trkpt lat="46.60385" lon="6.1413">
        <ele>1248.1999511719</ele>
        <time>2015-07-22T10:31:36.000Z</time>
      </trkpt>
      <trkpt lat="46.60381" lon="6.14132">
        <ele>1248.5999755859</ele>
        <time>2015-07-22T10:31:38.000Z</time>
      </trkpt>
      <trkpt lat="46.60379" lon="6.14132">
        <ele>1249</ele>
        <time>2015-07-22T10:31:39.000Z</time>
      </trkpt>
      <trkpt lat="46.60377" lon="6.14133">
        <ele>1249.4000244141</ele>
        <time>2015-07-22T10:31:40.000Z</time>
      </trkpt>
      <trkpt lat="46.60376" lon="6.14133">
        <ele>1249.8000488281</ele>
        <time>2015-07-22T10:31:41.000Z</time>
      </trkpt>
      <trkpt lat="46.60374" lon="6.14134">
        <ele>1250.1999511719</ele>
        <time>2015-07-22T10:31:42.000Z</time>
      </trkpt>
      <trkpt lat="46.60373" lon="6.14134">
        <ele>1250.1999511719</ele>
        <time>2015-07-22T10:31:43.000Z</time>
      </trkpt>
      <trkpt lat="46.60362" lon="6.14136">
        <ele>1250.8000488281</ele>
        <time>2015-07-22T10:31:49.000Z</time>
      </trkpt>
      <trkpt lat="46.60359" lon="6.14136">
        <ele>1251.1999511719</ele>
        <time>2015-07-22T10:31:50.000Z</time>
      </trkpt>
      <trkpt lat="46.60357" lon="6.14136">
        <ele>1251.5999755859</ele>
        <time>2015-07-22T10:31:51.000Z</time>
      </trkpt>
      <trkpt lat="46.60354" lon="6.14136">
        <ele>1252.1999511719</ele>
        <time>2015-07-22T10:31:52.000Z</time>
      </trkpt>
      <trkpt lat="46.60353" lon="6.14136">
        <ele>1252.5999755859</ele>
        <time>2015-07-22T10:31:53.000Z</time>
      </trkpt>
      <trkpt lat="46.60349" lon="6.14136">
        <ele>1252.5999755859</ele>
        <time>2015-07-22T10:31:55.000Z</time>
      </trkpt>
      <trkpt lat="46.60333" lon="6.14135">
        <ele>1252.5999755859</ele>
        <time>2015-07-22T10:32:01.000Z</time>
      </trkpt>
      <trkpt lat="46.60331" lon="6.14135">
        <ele>1253</ele>
        <time>2015-07-22T10:32:02.000Z</time>
      </trkpt>
      <trkpt lat="46.60328" lon="6.14133">
        <ele>1253.4000244141</ele>
        <time>2015-07-22T10:32:03.000Z</time>
      </trkpt>
      <trkpt lat="46.60325" lon="6.14132">
        <ele>1253.8000488281</ele>
        <time>2015-07-22T10:32:04.000Z</time>
      </trkpt>
      <trkpt lat="46.60323" lon="6.14131">
        <ele>1254.1999511719</ele>
        <time>2015-07-22T10:32:05.000Z</time>
      </trkpt>
      <trkpt lat="46.6032" lon="6.14129">
        <ele>1254.5999755859</ele>
        <time>2015-07-22T10:32:06.000Z</time>
      </trkpt>
      <trkpt lat="46.60316" lon="6.14126">
        <ele>1254.5999755859</ele>
        <time>2015-07-22T10:32:08.000Z</time>
      </trkpt>
      <trkpt lat="46.6031" lon="6.14123">
        <ele>1255</ele>
        <time>2015-07-22T10:32:11.000Z</time>
      </trkpt>
      <trkpt lat="46.60308" lon="6.14122">
        <ele>1255.4000244141</ele>
        <time>2015-07-22T10:32:12.000Z</time>
      </trkpt>
      <trkpt lat="46.60306" lon="6.14121">
        <ele>1255.8000488281</ele>
        <time>2015-07-22T10:32:13.000Z</time>
      </trkpt>
      <trkpt lat="46.60304" lon="6.1412">
        <ele>1256.1999511719</ele>
        <time>2015-07-22T10:32:14.000Z</time>
      </trkpt>
      <trkpt lat="46.60301" lon="6.14119">
        <ele>1256.5999755859</ele>
        <time>2015-07-22T10:32:15.000Z</time>
      </trkpt>
      <trkpt lat="46.603" lon="6.14118">
        <ele>1256.5999755859</ele>
        <time>2015-07-22T10:32:16.000Z</time>
      </trkpt>
      <trkpt lat="46.60282" lon="6.14114">
        <ele>1256.5999755859</ele>
        <time>2015-07-22T10:32:24.000Z</time>
      </trkpt>
      <trkpt lat="46.60269" lon="6.14115">
        <ele>1256.5999755859</ele>
        <time>2015-07-22T10:32:31.000Z</time>
      </trkpt>
      <trkpt lat="46.60262" lon="6.14118">
        <ele>1257.1999511719</ele>
        <time>2015-07-22T10:32:35.000Z</time>
      </trkpt>
      <trkpt lat="46.6026" lon="6.14119">
        <ele>1257.5999755859</ele>
        <time>2015-07-22T10:32:36.000Z</time>
      </trkpt>
      <trkpt lat="46.60258" lon="6.1412">
        <ele>1258</ele>
        <time>2015-07-22T10:32:37.000Z</time>
      </trkpt>
      <trkpt lat="46.60256" lon="6.14121">
        <ele>1258.4000244141</ele>
        <time>2015-07-22T10:32:38.000Z</time>
      </trkpt>
      <trkpt lat="46.60253" lon="6.14123">
        <ele>1258.8000488281</ele>
        <time>2015-07-22T10:32:39.000Z</time>
      </trkpt>
      <trkpt lat="46.60244" lon="6.14128">
        <ele>1258.8000488281</ele>
        <time>2015-07-22T10:32:42.000Z</time>
      </trkpt>
      <trkpt lat="46.60225" lon="6.14129">
        <ele>1258.8000488281</ele>
        <time>2015-07-22T10:32:47.000Z</time>
      </trkpt>
      <trkpt lat="46.60203" lon="6.14113">
        <ele>1258.8000488281</ele>
        <time>2015-07-22T10:32:53.000Z</time>
      </trkpt>
      <trkpt lat="46.60201" lon="6.14107">
        <ele>1258.4000244141</ele>
        <time>2015-07-22T10:32:54.000Z</time>
      </trkpt>
      <trkpt lat="46.602" lon="6.14096">
        <ele>1258</ele>
        <time>2015-07-22T10:32:55.000Z</time>
      </trkpt>
      <trkpt lat="46.60198" lon="6.14086">
        <ele>1257.5999755859</ele>
        <time>2015-07-22T10:32:56.000Z</time>
      </trkpt>
      <trkpt lat="46.60197" lon="6.14076">
        <ele>1257.1999511719</ele>
        <time>2015-07-22T10:32:57.000Z</time>
      </trkpt>
      <trkpt lat="46.60196" lon="6.14067">
        <ele>1256.8000488281</ele>
        <time>2015-07-22T10:32:58.000Z</time>
      </trkpt>
      <trkpt lat="46.60194" lon="6.14058">
        <ele>1256.4000244141</ele>
        <time>2015-07-22T10:32:59.000Z</time>
      </trkpt>
      <trkpt lat="46.60192" lon="6.1405">
        <ele>1256</ele>
        <time>2015-07-22T10:33:00.000Z</time>
      </trkpt>
      <trkpt lat="46.6019" lon="6.14043">
        <ele>1255.5999755859</ele>
        <time>2015-07-22T10:33:01.000Z</time>
      </trkpt>
      <trkpt lat="46.60189" lon="6.14036">
        <ele>1255</ele>
        <time>2015-07-22T10:33:02.000Z</time>
      </trkpt>
      <trkpt lat="46.60189" lon="6.14028">
        <ele>1254.5999755859</ele>
        <time>2015-07-22T10:33:03.000Z</time>
      </trkpt>
      <trkpt lat="46.60187" lon="6.1401">
        <ele>1254.5999755859</ele>
        <time>2015-07-22T10:33:06.000Z</time>
      </trkpt>
      <trkpt lat="46.60189" lon="6.13986">
        <ele>1255.1999511719</ele>
        <time>2015-07-22T10:33:12.000Z</time>
      </trkpt>
      <trkpt lat="46.60189" lon="6.13982">
        <ele>1255.5999755859</ele>
        <time>2015-07-22T10:33:13.000Z</time>
      </trkpt>
      <trkpt lat="46.6019" lon="6.13976">
        <ele>1256.8000488281</ele>
        <time>2015-07-22T10:33:15.000Z</time>
      </trkpt>
      <trkpt lat="46.6019" lon="6.13974">
        <ele>1257.1999511719</ele>
        <time>2015-07-22T10:33:16.000Z</time>
      </trkpt>
      <trkpt lat="46.60191" lon="6.13965">
        <ele>1257.1999511719</ele>
        <time>2015-07-22T10:33:19.000Z</time>
      </trkpt>
      <trkpt lat="46.60193" lon="6.13954">
        <ele>1257.5999755859</ele>
        <time>2015-07-22T10:33:23.000Z</time>
      </trkpt>
      <trkpt lat="46.60193" lon="6.1395">
        <ele>1258</ele>
        <time>2015-07-22T10:33:24.000Z</time>
      </trkpt>
      <trkpt lat="46.60194" lon="6.13946">
        <ele>1258.5999755859</ele>
        <time>2015-07-22T10:33:25.000Z</time>
      </trkpt>
      <trkpt lat="46.60195" lon="6.1394">
        <ele>1259</ele>
        <time>2015-07-22T10:33:26.000Z</time>
      </trkpt>
      <trkpt lat="46.60194" lon="6.13935">
        <ele>1259.4000244141</ele>
        <time>2015-07-22T10:33:27.000Z</time>
      </trkpt>
      <trkpt lat="46.60192" lon="6.13916">
        <ele>1259.4000244141</ele>
        <time>2015-07-22T10:33:30.000Z</time>
      </trkpt>
      <trkpt lat="46.60195" lon="6.13881">
        <ele>1259.4000244141</ele>
        <time>2015-07-22T10:33:35.000Z</time>
      </trkpt>
      <trkpt lat="46.60197" lon="6.13868">
        <ele>1259</ele>
        <time>2015-07-22T10:33:37.000Z</time>
      </trkpt>
      <trkpt lat="46.60197" lon="6.13861">
        <ele>1258.5999755859</ele>
        <time>2015-07-22T10:33:38.000Z</time>
      </trkpt>
      <trkpt lat="46.60195" lon="6.13852">
        <ele>1258.1999511719</ele>
        <time>2015-07-22T10:33:39.000Z</time>
      </trkpt>
      <trkpt lat="46.60194" lon="6.13845">
        <ele>1257.5999755859</ele>
        <time>2015-07-22T10:33:40.000Z</time>
      </trkpt>
      <trkpt lat="46.60192" lon="6.13838">
        <ele>1257.1999511719</ele>
        <time>2015-07-22T10:33:41.000Z</time>
      </trkpt>
      <trkpt lat="46.60192" lon="6.1383">
        <ele>1257.1999511719</ele>
        <time>2015-07-22T10:33:42.000Z</time>
      </trkpt>
      <trkpt lat="46.60189" lon="6.13803">
        <ele>1257.1999511719</ele>
        <time>2015-07-22T10:33:46.000Z</time>
      </trkpt>
      <trkpt lat="46.60188" lon="6.13784">
        <ele>1257.1999511719</ele>
        <time>2015-07-22T10:33:51.000Z</time>
      </trkpt>
      <trkpt lat="46.6018" lon="6.13767">
        <ele>1257.1999511719</ele>
        <time>2015-07-22T10:33:56.000Z</time>
      </trkpt>
      <trkpt lat="46.6018" lon="6.13759">
        <ele>1258</ele>
        <time>2015-07-22T10:33:58.000Z</time>
      </trkpt>
      <trkpt lat="46.60179" lon="6.13756">
        <ele>1258.4000244141</ele>
        <time>2015-07-22T10:33:59.000Z</time>
      </trkpt>
      <trkpt lat="46.60178" lon="6.13752">
        <ele>1259</ele>
        <time>2015-07-22T10:34:00.000Z</time>
      </trkpt>
      <trkpt lat="46.60177" lon="6.13748">
        <ele>1259.4000244141</ele>
        <time>2015-07-22T10:34:01.000Z</time>
      </trkpt>
      <trkpt lat="46.60175" lon="6.13745">
        <ele>1259.4000244141</ele>
        <time>2015-07-22T10:34:02.000Z</time>
      </trkpt>
      <trkpt lat="46.60164" lon="6.13722">
        <ele>1259.4000244141</ele>
        <time>2015-07-22T10:34:07.000Z</time>
      </trkpt>
      <trkpt lat="46.60152" lon="6.13703">
        <ele>1259.4000244141</ele>
        <time>2015-07-22T10:34:12.000Z</time>
      </trkpt>
      <trkpt lat="46.60142" lon="6.13697">
        <ele>1259.4000244141</ele>
        <time>2015-07-22T10:34:17.000Z</time>
      </trkpt>
      <trkpt lat="46.60125" lon="6.137">
        <ele>1259.4000244141</ele>
        <time>2015-07-22T10:34:22.000Z</time>
      </trkpt>
      <trkpt lat="46.60121" lon="6.137">
        <ele>1258.8000488281</ele>
        <time>2015-07-22T10:34:23.000Z</time>
      </trkpt>
      <trkpt lat="46.60118" lon="6.13701">
        <ele>1258.4000244141</ele>
        <time>2015-07-22T10:34:24.000Z</time>
      </trkpt>
      <trkpt lat="46.60113" lon="6.13701">
        <ele>1258</ele>
        <time>2015-07-22T10:34:25.000Z</time>
      </trkpt>
      <trkpt lat="46.6011" lon="6.13701">
        <ele>1257.5999755859</ele>
        <time>2015-07-22T10:34:26.000Z</time>
      </trkpt>
      <trkpt lat="46.60107" lon="6.13702">
        <ele>1257.1999511719</ele>
        <time>2015-07-22T10:34:27.000Z</time>
      </trkpt>
      <trkpt lat="46.60085" lon="6.13707">
        <ele>1256.8000488281</ele>
        <time>2015-07-22T10:34:32.000Z</time>
      </trkpt>
      <trkpt lat="46.60077" lon="6.13707">
        <ele>1256.1999511719</ele>
        <time>2015-07-22T10:34:33.000Z</time>
      </trkpt>
      <trkpt lat="46.60069" lon="6.13706">
        <ele>1255.8000488281</ele>
        <time>2015-07-22T10:34:34.000Z</time>
      </trkpt>
      <trkpt lat="46.60065" lon="6.13702">
        <ele>1255.4000244141</ele>
        <time>2015-07-22T10:34:35.000Z</time>
      </trkpt>
      <trkpt lat="46.60062" lon="6.137">
        <ele>1255</ele>
        <time>2015-07-22T10:34:36.000Z</time>
      </trkpt>
      <trkpt lat="46.6006" lon="6.13698">
        <ele>1255</ele>
        <time>2015-07-22T10:34:37.000Z</time>
      </trkpt>
      <trkpt lat="46.60041" lon="6.13685">
        <ele>1255</ele>
        <time>2015-07-22T10:34:44.000Z</time>
      </trkpt>
      <trkpt lat="46.60031" lon="6.13671">
        <ele>1255</ele>
        <time>2015-07-22T10:34:50.000Z</time>
      </trkpt>
      <trkpt lat="46.60032" lon="6.13642">
        <ele>1255</ele>
        <time>2015-07-22T10:34:56.000Z</time>
      </trkpt>
      <trkpt lat="46.60031" lon="6.13615">
        <ele>1255</ele>
        <time>2015-07-22T10:35:02.000Z</time>
      </trkpt>
      <trkpt lat="46.60036" lon="6.13602">
        <ele>1255.4000244141</ele>
        <time>2015-07-22T10:35:06.000Z</time>
      </trkpt>
      <trkpt lat="46.60038" lon="6.13598">
        <ele>1255.8000488281</ele>
        <time>2015-07-22T10:35:07.000Z</time>
      </trkpt>
      <trkpt lat="46.6004" lon="6.13595">
        <ele>1256.1999511719</ele>
        <time>2015-07-22T10:35:08.000Z</time>
      </trkpt>
      <trkpt lat="46.60042" lon="6.13593">
        <ele>1256.5999755859</ele>
        <time>2015-07-22T10:35:09.000Z</time>
      </trkpt>
      <trkpt lat="46.60044" lon="6.13591">
        <ele>1257</ele>
        <time>2015-07-22T10:35:10.000Z</time>
      </trkpt>
      <trkpt lat="46.60048" lon="6.13576">
        <ele>1257</ele>
        <time>2015-07-22T10:35:15.000Z</time>
      </trkpt>
      <trkpt lat="46.6005" lon="6.1354">
        <ele>1257</ele>
        <time>2015-07-22T10:35:23.000Z</time>
      </trkpt>
      <trkpt lat="46.60042" lon="6.13524">
        <ele>1256.5999755859</ele>
        <time>2015-07-22T10:35:26.000Z</time>
      </trkpt>
      <trkpt lat="46.60038" lon="6.13515">
        <ele>1256.1999511719</ele>
        <time>2015-07-22T10:35:27.000Z</time>
      </trkpt>
      <trkpt lat="46.60036" lon="6.13511">
        <ele>1255.8000488281</ele>
        <time>2015-07-22T10:35:28.000Z</time>
      </trkpt>
      <trkpt lat="46.60034" lon="6.1351">
        <ele>1255.4000244141</ele>
        <time>2015-07-22T10:35:29.000Z</time>
      </trkpt>
      <trkpt lat="46.60033" lon="6.13509">
        <ele>1255</ele>
        <time>2015-07-22T10:35:30.000Z</time>
      </trkpt>
      <trkpt lat="46.60035" lon="6.13507">
        <ele>1255</ele>
        <time>2015-07-22T10:35:32.000Z</time>
      </trkpt>
      <trkpt lat="46.60034" lon="6.13504">
        <ele>1255.5999755859</ele>
        <time>2015-07-22T10:35:46.000Z</time>
      </trkpt>
      <trkpt lat="46.60034" lon="6.13504">
        <ele>1256</ele>
        <time>2015-07-22T10:35:47.000Z</time>
      </trkpt>
      <trkpt lat="46.60034" lon="6.13504">
        <ele>1256.4000244141</ele>
        <time>2015-07-22T10:35:48.000Z</time>
      </trkpt>
      <trkpt lat="46.60034" lon="6.13504">
        <ele>1256.8000488281</ele>
        <time>2015-07-22T10:35:49.000Z</time>
      </trkpt>
      <trkpt lat="46.60034" lon="6.13504">
        <ele>1257.4000244141</ele>
        <time>2015-07-22T10:35:50.000Z</time>
      </trkpt>
      <trkpt lat="46.60034" lon="6.13504">
        <ele>1257.8000488281</ele>
        <time>2015-07-22T10:35:55.000Z</time>
      </trkpt>
      <trkpt lat="46.60034" lon="6.13504">
        <ele>1258.1999511719</ele>
        <time>2015-07-22T10:35:56.000Z</time>
      </trkpt>
      <trkpt lat="46.60034" lon="6.13504">
        <ele>1259</ele>
        <time>2015-07-22T10:35:58.000Z</time>
      </trkpt>
      <trkpt lat="46.60034" lon="6.13504">
        <ele>1259.4000244141</ele>
        <time>2015-07-22T10:35:59.000Z</time>
      </trkpt>
      <trkpt lat="46.60033" lon="6.13504">
        <ele>1259.8000488281</ele>
        <time>2015-07-22T10:36:21.000Z</time>
      </trkpt>
      <trkpt lat="46.60033" lon="6.13504">
        <ele>1260.1999511719</ele>
        <time>2015-07-22T10:36:23.000Z</time>
      </trkpt>
      <trkpt lat="46.60033" lon="6.13504">
        <ele>1260.5999755859</ele>
        <time>2015-07-22T10:36:25.000Z</time>
      </trkpt>
      <trkpt lat="46.60033" lon="6.13504">
        <ele>1261</ele>
        <time>2015-07-22T10:36:26.000Z</time>
      </trkpt>
      <trkpt lat="46.60033" lon="6.13504">
        <ele>1261.4000244141</ele>
        <time>2015-07-22T10:36:29.000Z</time>
      </trkpt>
      <trkpt lat="46.60033" lon="6.13504">
        <ele>1261.4000244141</ele>
        <time>2015-07-22T10:36:34.000Z</time>
      </trkpt>
      <trkpt lat="46.60032" lon="6.13505">
        <ele>1261.8000488281</ele>
        <time>2015-07-22T10:36:42.000Z</time>
      </trkpt>
      <trkpt lat="46.60032" lon="6.13505">
        <ele>1262.1999511719</ele>
        <time>2015-07-22T10:36:44.000Z</time>
      </trkpt>
      <trkpt lat="46.60032" lon="6.13505">
        <ele>1262.5999755859</ele>
        <time>2015-07-22T10:36:46.000Z</time>
      </trkpt>
      <trkpt lat="46.60032" lon="6.13505">
        <ele>1263.1999511719</ele>
        <time>2015-07-22T10:36:47.000Z</time>
      </trkpt>
      <trkpt lat="46.60032" lon="6.13504">
        <ele>1263.5999755859</ele>
        <time>2015-07-22T10:36:49.000Z</time>
      </trkpt>
      <trkpt lat="46.60032" lon="6.13505">
        <ele>1263.5999755859</ele>
        <time>2015-07-22T10:36:54.000Z</time>
      </trkpt>
      <trkpt lat="46.60031" lon="6.13505">
        <ele>1264</ele>
        <time>2015-07-22T10:37:12.000Z</time>
      </trkpt>
      <trkpt lat="46.60031" lon="6.13505">
        <ele>1264.4000244141</ele>
        <time>2015-07-22T10:37:13.000Z</time>
      </trkpt>
      <trkpt lat="46.60031" lon="6.13505">
        <ele>1264.8000488281</ele>
        <time>2015-07-22T10:37:14.000Z</time>
      </trkpt>
      <trkpt lat="46.60031" lon="6.13505">
        <ele>1265.1999511719</ele>
        <time>2015-07-22T10:37:15.000Z</time>
      </trkpt>
      <trkpt lat="46.60031" lon="6.13505">
        <ele>1265.5999755859</ele>
        <time>2015-07-22T10:37:16.000Z</time>
      </trkpt>
      <trkpt lat="46.60027" lon="6.13501">
        <ele>1265.5999755859</ele>
        <time>2015-07-22T10:37:21.000Z</time>
      </trkpt>
      <trkpt lat="46.60017" lon="6.13493">
        <ele>1265.5999755859</ele>
        <time>2015-07-22T10:37:24.000Z</time>
      </trkpt>
      <trkpt lat="46.60002" lon="6.13479">
        <ele>1265.5999755859</ele>
        <time>2015-07-22T10:37:30.000Z</time>
      </trkpt>
      <trkpt lat="46.59979" lon="6.1347">
        <ele>1266</ele>
        <time>2015-07-22T10:37:34.000Z</time>
      </trkpt>
      <trkpt lat="46.59973" lon="6.13467">
        <ele>1266.4000244141</ele>
        <time>2015-07-22T10:37:35.000Z</time>
      </trkpt>
      <trkpt lat="46.59969" lon="6.13463">
        <ele>1266.8000488281</ele>
        <time>2015-07-22T10:37:36.000Z</time>
      </trkpt>
      <trkpt lat="46.59964" lon="6.1346">
        <ele>1267.1999511719</ele>
        <time>2015-07-22T10:37:37.000Z</time>
      </trkpt>
      <trkpt lat="46.59962" lon="6.13457">
        <ele>1267.5999755859</ele>
        <time>2015-07-22T10:37:38.000Z</time>
      </trkpt>
      <trkpt lat="46.59953" lon="6.13433">
        <ele>1267.5999755859</ele>
        <time>2015-07-22T10:37:42.000Z</time>
      </trkpt>
      <trkpt lat="46.59947" lon="6.13407">
        <ele>1267.5999755859</ele>
        <time>2015-07-22T10:37:46.000Z</time>
      </trkpt>
      <trkpt lat="46.59946" lon="6.13401">
        <ele>1267.5999755859</ele>
        <time>2015-07-22T10:37:47.000Z</time>
      </trkpt>
      <trkpt lat="46.5993" lon="6.13367">
        <ele>1267.1999511719</ele>
        <time>2015-07-22T10:37:53.000Z</time>
      </trkpt>
      <trkpt lat="46.59926" lon="6.13366">
        <ele>1266.8000488281</ele>
        <time>2015-07-22T10:37:54.000Z</time>
      </trkpt>
      <trkpt lat="46.59922" lon="6.13365">
        <ele>1266.4000244141</ele>
        <time>2015-07-22T10:37:55.000Z</time>
      </trkpt>
      <trkpt lat="46.59916" lon="6.13366">
        <ele>1266</ele>
        <time>2015-07-22T10:37:56.000Z</time>
      </trkpt>
      <trkpt lat="46.59911" lon="6.13369">
        <ele>1265.4000244141</ele>
        <time>2015-07-22T10:37:57.000Z</time>
      </trkpt>
      <trkpt lat="46.5989" lon="6.13379">
        <ele>1265</ele>
        <time>2015-07-22T10:38:01.000Z</time>
      </trkpt>
      <trkpt lat="46.59883" lon="6.13381">
        <ele>1264.4000244141</ele>
        <time>2015-07-22T10:38:02.000Z</time>
      </trkpt>
      <trkpt lat="46.59877" lon="6.13381">
        <ele>1263.8000488281</ele>
        <time>2015-07-22T10:38:03.000Z</time>
      </trkpt>
      <trkpt lat="46.5987" lon="6.13375">
        <ele>1263.1999511719</ele>
        <time>2015-07-22T10:38:04.000Z</time>
      </trkpt>
      <trkpt lat="46.59863" lon="6.13373">
        <ele>1262.5999755859</ele>
        <time>2015-07-22T10:38:05.000Z</time>
      </trkpt>
      <trkpt lat="46.59853" lon="6.13366">
        <ele>1262.1999511719</ele>
        <time>2015-07-22T10:38:07.000Z</time>
      </trkpt>
      <trkpt lat="46.5985" lon="6.13362">
        <ele>1261.8000488281</ele>
        <time>2015-07-22T10:38:08.000Z</time>
      </trkpt>
      <trkpt lat="46.59848" lon="6.13358">
        <ele>1261.4000244141</ele>
        <time>2015-07-22T10:38:09.000Z</time>
      </trkpt>
      <trkpt lat="46.59847" lon="6.13355">
        <ele>1260.8000488281</ele>
        <time>2015-07-22T10:38:10.000Z</time>
      </trkpt>
      <trkpt lat="46.59846" lon="6.13352">
        <ele>1260.4000244141</ele>
        <time>2015-07-22T10:38:11.000Z</time>
      </trkpt>
      <trkpt lat="46.59845" lon="6.1335">
        <ele>1261</ele>
        <time>2015-07-22T10:38:12.000Z</time>
      </trkpt>
      <trkpt lat="46.59844" lon="6.13348">
        <ele>1261.4000244141</ele>
        <time>2015-07-22T10:38:13.000Z</time>
      </trkpt>
      <trkpt lat="46.59844" lon="6.13345">
        <ele>1261.8000488281</ele>
        <time>2015-07-22T10:38:14.000Z</time>
      </trkpt>
      <trkpt lat="46.59843" lon="6.13343">
        <ele>1262.1999511719</ele>
        <time>2015-07-22T10:38:15.000Z</time>
      </trkpt>
      <trkpt lat="46.5984" lon="6.13341">
        <ele>1262.5999755859</ele>
        <time>2015-07-22T10:38:16.000Z</time>
      </trkpt>
      <trkpt lat="46.59835" lon="6.13339">
        <ele>1262.5999755859</ele>
        <time>2015-07-22T10:38:18.000Z</time>
      </trkpt>
      <trkpt lat="46.59818" lon="6.1334">
        <ele>1262.5999755859</ele>
        <time>2015-07-22T10:38:25.000Z</time>
      </trkpt>
      <trkpt lat="46.59814" lon="6.13344">
        <ele>1263.1999511719</ele>
        <time>2015-07-22T10:38:27.000Z</time>
      </trkpt>
      <trkpt lat="46.59812" lon="6.13347">
        <ele>1263.5999755859</ele>
        <time>2015-07-22T10:38:28.000Z</time>
      </trkpt>
      <trkpt lat="46.59811" lon="6.13347">
        <ele>1264</ele>
        <time>2015-07-22T10:38:29.000Z</time>
      </trkpt>
      <trkpt lat="46.5981" lon="6.13349">
        <ele>1264.4000244141</ele>
        <time>2015-07-22T10:38:30.000Z</time>
      </trkpt>
      <trkpt lat="46.59809" lon="6.13351">
        <ele>1265</ele>
        <time>2015-07-22T10:38:31.000Z</time>
      </trkpt>
      <trkpt lat="46.59806" lon="6.13356">
        <ele>1265.4000244141</ele>
        <time>2015-07-22T10:38:36.000Z</time>
      </trkpt>
      <trkpt lat="46.59804" lon="6.13358">
        <ele>1266.1999511719</ele>
        <time>2015-07-22T10:38:38.000Z</time>
      </trkpt>
      <trkpt lat="46.59804" lon="6.13359">
        <ele>1266.5999755859</ele>
        <time>2015-07-22T10:38:39.000Z</time>
      </trkpt>
      <trkpt lat="46.59804" lon="6.13359">
        <ele>1267</ele>
        <time>2015-07-22T10:38:40.000Z</time>
      </trkpt>
      <trkpt lat="46.59804" lon="6.13359">
        <ele>1267.5999755859</ele>
        <time>2015-07-22T10:38:44.000Z</time>
      </trkpt>
      <trkpt lat="46.59804" lon="6.13359">
        <ele>1268</ele>
        <time>2015-07-22T10:38:45.000Z</time>
      </trkpt>
      <trkpt lat="46.59803" lon="6.13359">
        <ele>1268.8000488281</ele>
        <time>2015-07-22T10:38:47.000Z</time>
      </trkpt>
      <trkpt lat="46.59803" lon="6.13359">
        <ele>1269.1999511719</ele>
        <time>2015-07-22T10:38:48.000Z</time>
      </trkpt>
      <trkpt lat="46.59803" lon="6.13359">
        <ele>1269.5999755859</ele>
        <time>2015-07-22T10:38:50.000Z</time>
      </trkpt>
      <trkpt lat="46.59803" lon="6.13359">
        <ele>1270.1999511719</ele>
        <time>2015-07-22T10:38:51.000Z</time>
      </trkpt>
      <trkpt lat="46.59803" lon="6.13359">
        <ele>1270.5999755859</ele>
        <time>2015-07-22T10:38:52.000Z</time>
      </trkpt>
      <trkpt lat="46.59802" lon="6.13358">
        <ele>1271</ele>
        <time>2015-07-22T10:38:53.000Z</time>
      </trkpt>
      <trkpt lat="46.59799" lon="6.13358">
        <ele>1271.4000244141</ele>
        <time>2015-07-22T10:38:54.000Z</time>
      </trkpt>
      <trkpt lat="46.59786" lon="6.13357">
        <ele>1271.4000244141</ele>
        <time>2015-07-22T10:38:57.000Z</time>
      </trkpt>
      <trkpt lat="46.59773" lon="6.13358">
        <ele>1270.8000488281</ele>
        <time>2015-07-22T10:38:59.000Z</time>
      </trkpt>
      <trkpt lat="46.59768" lon="6.13359">
        <ele>1270.4000244141</ele>
        <time>2015-07-22T10:39:00.000Z</time>
      </trkpt>
      <trkpt lat="46.59763" lon="6.13361">
        <ele>1270</ele>
        <time>2015-07-22T10:39:01.000Z</time>
      </trkpt>
      <trkpt lat="46.5976" lon="6.13362">
        <ele>1269.4000244141</ele>
        <time>2015-07-22T10:39:02.000Z</time>
      </trkpt>
      <trkpt lat="46.59758" lon="6.13363">
        <ele>1269</ele>
        <time>2015-07-22T10:39:03.000Z</time>
      </trkpt>
      <trkpt lat="46.59739" lon="6.13365">
        <ele>1269</ele>
        <time>2015-07-22T10:39:11.000Z</time>
      </trkpt>
      <trkpt lat="46.59732" lon="6.13367">
        <ele>1269</ele>
        <time>2015-07-22T10:39:16.000Z</time>
      </trkpt>
      <trkpt lat="46.59724" lon="6.13367">
        <ele>1269.4000244141</ele>
        <time>2015-07-22T10:39:21.000Z</time>
      </trkpt>
      <trkpt lat="46.59722" lon="6.13367">
        <ele>1269.8000488281</ele>
        <time>2015-07-22T10:39:22.000Z</time>
      </trkpt>
      <trkpt lat="46.5972" lon="6.13367">
        <ele>1270.1999511719</ele>
        <time>2015-07-22T10:39:23.000Z</time>
      </trkpt>
      <trkpt lat="46.59718" lon="6.13367">
        <ele>1270.5999755859</ele>
        <time>2015-07-22T10:39:24.000Z</time>
      </trkpt>
      <trkpt lat="46.59716" lon="6.13367">
        <ele>1271.1999511719</ele>
        <time>2015-07-22T10:39:25.000Z</time>
      </trkpt>
      <trkpt lat="46.59711" lon="6.13368">
        <ele>1271.5999755859</ele>
        <time>2015-07-22T10:39:28.000Z</time>
      </trkpt>
      <trkpt lat="46.59707" lon="6.13368">
        <ele>1272</ele>
        <time>2015-07-22T10:39:29.000Z</time>
      </trkpt>
      <trkpt lat="46.59705" lon="6.13369">
        <ele>1272.4000244141</ele>
        <time>2015-07-22T10:39:30.000Z</time>
      </trkpt>
      <trkpt lat="46.59703" lon="6.13369">
        <ele>1272.4000244141</ele>
        <time>2015-07-22T10:39:31.000Z</time>
      </trkpt>
      <trkpt lat="46.59701" lon="6.1337">
        <ele>1273.1999511719</ele>
        <time>2015-07-22T10:39:32.000Z</time>
      </trkpt>
      <trkpt lat="46.59688" lon="6.13374">
        <ele>1273.1999511719</ele>
        <time>2015-07-22T10:39:43.000Z</time>
      </trkpt>
      <trkpt lat="46.59675" lon="6.13369">
        <ele>1273.1999511719</ele>
        <time>2015-07-22T10:39:51.000Z</time>
      </trkpt>
      <trkpt lat="46.59673" lon="6.13369">
        <ele>1273.5999755859</ele>
        <time>2015-07-22T10:39:52.000Z</time>
      </trkpt>
      <trkpt lat="46.5967" lon="6.13368">
        <ele>1274.4000244141</ele>
        <time>2015-07-22T10:39:54.000Z</time>
      </trkpt>
      <trkpt lat="46.59669" lon="6.13368">
        <ele>1274.8000488281</ele>
        <time>2015-07-22T10:39:55.000Z</time>
      </trkpt>
      <trkpt lat="46.59668" lon="6.13368">
        <ele>1275.4000244141</ele>
        <time>2015-07-22T10:39:56.000Z</time>
      </trkpt>
      <trkpt lat="46.59665" lon="6.13367">
        <ele>1275.4000244141</ele>
        <time>2015-07-22T10:39:58.000Z</time>
      </trkpt>
      <trkpt lat="46.59654" lon="6.13362">
        <ele>1275.4000244141</ele>
        <time>2015-07-22T10:40:04.000Z</time>
      </trkpt>
      <trkpt lat="46.59637" lon="6.13353">
        <ele>1275.4000244141</ele>
        <time>2015-07-22T10:40:09.000Z</time>
      </trkpt>
      <trkpt lat="46.59632" lon="6.13352">
        <ele>1274.8000488281</ele>
        <time>2015-07-22T10:40:10.000Z</time>
      </trkpt>
      <trkpt lat="46.59628" lon="6.1335">
        <ele>1274.4000244141</ele>
        <time>2015-07-22T10:40:11.000Z</time>
      </trkpt>
      <trkpt lat="46.59623" lon="6.13347">
        <ele>1274</ele>
        <time>2015-07-22T10:40:12.000Z</time>
      </trkpt>
      <trkpt lat="46.59617" lon="6.13345">
        <ele>1273.5999755859</ele>
        <time>2015-07-22T10:40:13.000Z</time>
      </trkpt>
      <trkpt lat="46.59612" lon="6.13343">
        <ele>1273.1999511719</ele>
        <time>2015-07-22T10:40:14.000Z</time>
      </trkpt>
      <trkpt lat="46.5961" lon="6.13343">
        <ele>1272.8000488281</ele>
        <time>2015-07-22T10:40:15.000Z</time>
      </trkpt>
      <trkpt lat="46.59609" lon="6.13343">
        <ele>1272.4000244141</ele>
        <time>2015-07-22T10:40:16.000Z</time>
      </trkpt>
      <trkpt lat="46.59608" lon="6.13343">
        <ele>1271.8000488281</ele>
        <time>2015-07-22T10:40:17.000Z</time>
      </trkpt>
      <trkpt lat="46.59608" lon="6.13343">
        <ele>1271.4000244141</ele>
        <time>2015-07-22T10:40:18.000Z</time>
      </trkpt>
      <trkpt lat="46.59607" lon="6.13343">
        <ele>1271</ele>
        <time>2015-07-22T10:40:20.000Z</time>
      </trkpt>
      <trkpt lat="46.59599" lon="6.13344">
        <ele>1271</ele>
        <time>2015-07-22T10:40:53.000Z</time>
      </trkpt>
      <trkpt lat="46.59585" lon="6.13338">
        <ele>1271</ele>
        <time>2015-07-22T10:41:00.000Z</time>
      </trkpt>
      <trkpt lat="46.59576" lon="6.13339">
        <ele>1271</ele>
        <time>2015-07-22T10:41:06.000Z</time>
      </trkpt>
      <trkpt lat="46.59568" lon="6.13338">
        <ele>1271.4000244141</ele>
        <time>2015-07-22T10:41:12.000Z</time>
      </trkpt>
      <trkpt lat="46.59566" lon="6.13338">
        <ele>1272</ele>
        <time>2015-07-22T10:41:13.000Z</time>
      </trkpt>
      <trkpt lat="46.59563" lon="6.13337">
        <ele>1272.4000244141</ele>
        <time>2015-07-22T10:41:14.000Z</time>
      </trkpt>
      <trkpt lat="46.59562" lon="6.13336">
        <ele>1272.8000488281</ele>
        <time>2015-07-22T10:41:15.000Z</time>
      </trkpt>
      <trkpt lat="46.59559" lon="6.13336">
        <ele>1273.4000244141</ele>
        <time>2015-07-22T10:41:16.000Z</time>
      </trkpt>
      <trkpt lat="46.59552" lon="6.13334">
        <ele>1273.4000244141</ele>
        <time>2015-07-22T10:41:19.000Z</time>
      </trkpt>
      <trkpt lat="46.59539" lon="6.13326">
        <ele>1273.4000244141</ele>
        <time>2015-07-22T10:41:26.000Z</time>
      </trkpt>
      <trkpt lat="46.59526" lon="6.13308">
        <ele>1273.4000244141</ele>
        <time>2015-07-22T10:41:33.000Z</time>
      </trkpt>
      <trkpt lat="46.59524" lon="6.13284">
        <ele>1272.8000488281</ele>
        <time>2015-07-22T10:41:38.000Z</time>
      </trkpt>
      <trkpt lat="46.59524" lon="6.13276">
        <ele>1272.4000244141</ele>
        <time>2015-07-22T10:41:39.000Z</time>
      </trkpt>
      <trkpt lat="46.59522" lon="6.13269">
        <ele>1272</ele>
        <time>2015-07-22T10:41:40.000Z</time>
      </trkpt>
      <trkpt lat="46.59522" lon="6.13264">
        <ele>1271.4000244141</ele>
        <time>2015-07-22T10:41:41.000Z</time>
      </trkpt>
      <trkpt lat="46.59522" lon="6.1326">
        <ele>1271</ele>
        <time>2015-07-22T10:41:42.000Z</time>
      </trkpt>
      <trkpt lat="46.59514" lon="6.13243">
        <ele>1271</ele>
        <time>2015-07-22T10:41:48.000Z</time>
      </trkpt>
      <trkpt lat="46.595" lon="6.13222">
        <ele>1271</ele>
        <time>2015-07-22T10:41:55.000Z</time>
      </trkpt>
      <trkpt lat="46.5949" lon="6.13194">
        <ele>1271</ele>
        <time>2015-07-22T10:42:01.000Z</time>
      </trkpt>
      <trkpt lat="46.59478" lon="6.13175">
        <ele>1271</ele>
        <time>2015-07-22T10:42:06.000Z</time>
      </trkpt>
      <trkpt lat="46.59459" lon="6.13158">
        <ele>1271</ele>
        <time>2015-07-22T10:42:14.000Z</time>
      </trkpt>
      <trkpt lat="46.59447" lon="6.13144">
        <ele>1271</ele>
        <time>2015-07-22T10:42:19.000Z</time>
      </trkpt>
      <trkpt lat="46.59429" lon="6.13129">
        <ele>1271</ele>
        <time>2015-07-22T10:42:25.000Z</time>
      </trkpt>
      <trkpt lat="46.59419" lon="6.13118">
        <ele>1271</ele>
        <time>2015-07-22T10:42:29.000Z</time>
      </trkpt>
      <trkpt lat="46.5941" lon="6.13105">
        <ele>1271.4000244141</ele>
        <time>2015-07-22T10:42:35.000Z</time>
      </trkpt>
      <trkpt lat="46.59409" lon="6.13102">
        <ele>1271.8000488281</ele>
        <time>2015-07-22T10:42:36.000Z</time>
      </trkpt>
      <trkpt lat="46.59407" lon="6.13099">
        <ele>1272.4000244141</ele>
        <time>2015-07-22T10:42:37.000Z</time>
      </trkpt>
      <trkpt lat="46.59406" lon="6.13095">
        <ele>1272.8000488281</ele>
        <time>2015-07-22T10:42:38.000Z</time>
      </trkpt>
      <trkpt lat="46.59401" lon="6.13088">
        <ele>1273.1999511719</ele>
        <time>2015-07-22T10:42:40.000Z</time>
      </trkpt>
      <trkpt lat="46.59399" lon="6.13085">
        <ele>1273.1999511719</ele>
        <time>2015-07-22T10:42:41.000Z</time>
      </trkpt>
      <trkpt lat="46.59387" lon="6.13066">
        <ele>1273.1999511719</ele>
        <time>2015-07-22T10:42:46.000Z</time>
      </trkpt>
      <trkpt lat="46.59373" lon="6.13052">
        <ele>1273.1999511719</ele>
        <time>2015-07-22T10:42:52.000Z</time>
      </trkpt>
      <trkpt lat="46.5936" lon="6.1302">
        <ele>1273.1999511719</ele>
        <time>2015-07-22T10:42:58.000Z</time>
      </trkpt>
      <trkpt lat="46.59343" lon="6.12997">
        <ele>1273.1999511719</ele>
        <time>2015-07-22T10:43:04.000Z</time>
      </trkpt>
      <trkpt lat="46.59326" lon="6.12984">
        <ele>1273.1999511719</ele>
        <time>2015-07-22T10:43:09.000Z</time>
      </trkpt>
      <trkpt lat="46.59308" lon="6.12965">
        <ele>1273.1999511719</ele>
        <time>2015-07-22T10:43:15.000Z</time>
      </trkpt>
      <trkpt lat="46.59292" lon="6.12953">
        <ele>1273.1999511719</ele>
        <time>2015-07-22T10:43:20.000Z</time>
      </trkpt>
      <trkpt lat="46.59276" lon="6.1294">
        <ele>1273.1999511719</ele>
        <time>2015-07-22T10:43:26.000Z</time>
      </trkpt>
      <trkpt lat="46.59258" lon="6.12924">
        <ele>1273.1999511719</ele>
        <time>2015-07-22T10:43:32.000Z</time>
      </trkpt>
      <trkpt lat="46.59248" lon="6.1292">
        <ele>1273.1999511719</ele>
        <time>2015-07-22T10:43:37.000Z</time>
      </trkpt>
      <trkpt lat="46.59239" lon="6.12917">
        <ele>1272.5999755859</ele>
        <time>2015-07-22T10:43:41.000Z</time>
      </trkpt>
      <trkpt lat="46.59236" lon="6.12916">
        <ele>1272.1999511719</ele>
        <time>2015-07-22T10:43:42.000Z</time>
      </trkpt>
      <trkpt lat="46.59232" lon="6.12914">
        <ele>1271.8000488281</ele>
        <time>2015-07-22T10:43:43.000Z</time>
      </trkpt>
      <trkpt lat="46.59228" lon="6.12912">
        <ele>1271.4000244141</ele>
        <time>2015-07-22T10:43:44.000Z</time>
      </trkpt>
      <trkpt lat="46.59224" lon="6.12912">
        <ele>1270.8000488281</ele>
        <time>2015-07-22T10:43:45.000Z</time>
      </trkpt>
      <trkpt lat="46.59221" lon="6.1291">
        <ele>1270.1999511719</ele>
        <time>2015-07-22T10:43:46.000Z</time>
      </trkpt>
      <trkpt lat="46.59217" lon="6.12909">
        <ele>1269.8000488281</ele>
        <time>2015-07-22T10:43:47.000Z</time>
      </trkpt>
      <trkpt lat="46.59215" lon="6.12908">
        <ele>1269.1999511719</ele>
        <time>2015-07-22T10:43:48.000Z</time>
      </trkpt>
      <trkpt lat="46.59212" lon="6.12906">
        <ele>1268.8000488281</ele>
        <time>2015-07-22T10:43:49.000Z</time>
      </trkpt>
      <trkpt lat="46.59212" lon="6.12903">
        <ele>1268.8000488281</ele>
        <time>2015-07-22T10:43:50.000Z</time>
      </trkpt>
      <trkpt lat="46.59199" lon="6.12874">
        <ele>1268.8000488281</ele>
        <time>2015-07-22T10:43:58.000Z</time>
      </trkpt>
      <trkpt lat="46.59193" lon="6.12839">
        <ele>1268.8000488281</ele>
        <time>2015-07-22T10:44:04.000Z</time>
      </trkpt>
      <trkpt lat="46.59181" lon="6.12827">
        <ele>1268.8000488281</ele>
        <time>2015-07-22T10:44:09.000Z</time>
      </trkpt>
      <trkpt lat="46.59169" lon="6.1283">
        <ele>1268.8000488281</ele>
        <time>2015-07-22T10:44:15.000Z</time>
      </trkpt>
      <trkpt lat="46.59159" lon="6.1284">
        <ele>1268.8000488281</ele>
        <time>2015-07-22T10:44:22.000Z</time>
      </trkpt>
      <trkpt lat="46.59148" lon="6.12842">
        <ele>1268.8000488281</ele>
        <time>2015-07-22T10:44:28.000Z</time>
      </trkpt>
      <trkpt lat="46.59128" lon="6.1284">
        <ele>1268.8000488281</ele>
        <time>2015-07-22T10:44:35.000Z</time>
      </trkpt>
      <trkpt lat="46.59122" lon="6.12832">
        <ele>1268.8000488281</ele>
        <time>2015-07-22T10:44:39.000Z</time>
      </trkpt>
      <trkpt lat="46.59121" lon="6.12827">
        <ele>1268.8000488281</ele>
        <time>2015-07-22T10:44:40.000Z</time>
      </trkpt>
      <trkpt lat="46.59117" lon="6.1282">
        <ele>1268.8000488281</ele>
        <time>2015-07-22T10:44:42.000Z</time>
      </trkpt>
      <trkpt lat="46.59108" lon="6.12803">
        <ele>1268.8000488281</ele>
        <time>2015-07-22T10:44:47.000Z</time>
      </trkpt>
      <trkpt lat="46.59103" lon="6.12781">
        <ele>1268.8000488281</ele>
        <time>2015-07-22T10:44:52.000Z</time>
      </trkpt>
      <trkpt lat="46.59105" lon="6.1275">
        <ele>1268.8000488281</ele>
        <time>2015-07-22T10:44:59.000Z</time>
      </trkpt>
      <trkpt lat="46.5911" lon="6.12731">
        <ele>1268.8000488281</ele>
        <time>2015-07-22T10:45:02.000Z</time>
      </trkpt>
      <trkpt lat="46.59111" lon="6.12725">
        <ele>1268.8000488281</ele>
        <time>2015-07-22T10:45:03.000Z</time>
      </trkpt>
      <trkpt lat="46.59103" lon="6.12688">
        <ele>1268.8000488281</ele>
        <time>2015-07-22T10:45:11.000Z</time>
      </trkpt>
      <trkpt lat="46.59086" lon="6.12673">
        <ele>1268.8000488281</ele>
        <time>2015-07-22T10:45:16.000Z</time>
      </trkpt>
      <trkpt lat="46.5907" lon="6.1265">
        <ele>1268.8000488281</ele>
        <time>2015-07-22T10:45:23.000Z</time>
      </trkpt>
      <trkpt lat="46.59045" lon="6.1262">
        <ele>1268.8000488281</ele>
        <time>2015-07-22T10:45:32.000Z</time>
      </trkpt>
      <trkpt lat="46.5903" lon="6.1261">
        <ele>1268.8000488281</ele>
        <time>2015-07-22T10:45:39.000Z</time>
      </trkpt>
      <trkpt lat="46.59024" lon="6.12597">
        <ele>1268.8000488281</ele>
        <time>2015-07-22T10:45:43.000Z</time>
      </trkpt>
      <trkpt lat="46.59004" lon="6.12582">
        <ele>1268.8000488281</ele>
        <time>2015-07-22T10:45:53.000Z</time>
      </trkpt>
      <trkpt lat="46.59003" lon="6.12581">
        <ele>1268.8000488281</ele>
        <time>2015-07-22T10:45:58.000Z</time>
      </trkpt>
      <trkpt lat="46.58998" lon="6.12585">
        <ele>1268.8000488281</ele>
        <time>2015-07-22T10:47:58.000Z</time>
      </trkpt>
      <trkpt lat="46.58993" lon="6.12589">
        <ele>1268.1999511719</ele>
        <time>2015-07-22T10:47:59.000Z</time>
      </trkpt>
      <trkpt lat="46.58989" lon="6.12593">
        <ele>1267.8000488281</ele>
        <time>2015-07-22T10:48:00.000Z</time>
      </trkpt>
      <trkpt lat="46.58986" lon="6.12597">
        <ele>1267.1999511719</ele>
        <time>2015-07-22T10:48:01.000Z</time>
      </trkpt>
      <trkpt lat="46.58979" lon="6.12603">
        <ele>1265.8000488281</ele>
        <time>2015-07-22T10:48:03.000Z</time>
      </trkpt>
      <trkpt lat="46.58976" lon="6.12606">
        <ele>1265</ele>
        <time>2015-07-22T10:48:04.000Z</time>
      </trkpt>
      <trkpt lat="46.58973" lon="6.12607">
        <ele>1264.1999511719</ele>
        <time>2015-07-22T10:48:05.000Z</time>
      </trkpt>
      <trkpt lat="46.5897" lon="6.12599">
        <ele>1262.4000244141</ele>
        <time>2015-07-22T10:48:07.000Z</time>
      </trkpt>
      <trkpt lat="46.5897" lon="6.12596">
        <ele>1261.5999755859</ele>
        <time>2015-07-22T10:48:08.000Z</time>
      </trkpt>
      <trkpt lat="46.58972" lon="6.12578">
        <ele>1261.5999755859</ele>
        <time>2015-07-22T10:48:13.000Z</time>
      </trkpt>
      <trkpt lat="46.58973" lon="6.12576">
        <ele>1261.5999755859</ele>
        <time>2015-07-22T10:48:14.000Z</time>
      </trkpt>
      <trkpt lat="46.58974" lon="6.12573">
        <ele>1261.5999755859</ele>
        <time>2015-07-22T10:48:15.000Z</time>
      </trkpt>
      <trkpt lat="46.58976" lon="6.12562">
        <ele>1261.5999755859</ele>
        <time>2015-07-22T10:48:18.000Z</time>
      </trkpt>
      <trkpt lat="46.58976" lon="6.12544">
        <ele>1261</ele>
        <time>2015-07-22T10:48:22.000Z</time>
      </trkpt>
      <trkpt lat="46.58976" lon="6.12539">
        <ele>1260.5999755859</ele>
        <time>2015-07-22T10:48:23.000Z</time>
      </trkpt>
      <trkpt lat="46.58977" lon="6.12534">
        <ele>1260.1999511719</ele>
        <time>2015-07-22T10:48:24.000Z</time>
      </trkpt>
      <trkpt lat="46.58979" lon="6.1253">
        <ele>1259.5999755859</ele>
        <time>2015-07-22T10:48:25.000Z</time>
      </trkpt>
      <trkpt lat="46.5898" lon="6.12526">
        <ele>1259.1999511719</ele>
        <time>2015-07-22T10:48:26.000Z</time>
      </trkpt>
      <trkpt lat="46.58985" lon="6.12507">
        <ele>1259.1999511719</ele>
        <time>2015-07-22T10:48:30.000Z</time>
      </trkpt>
      <trkpt lat="46.58987" lon="6.12479">
        <ele>1259.1999511719</ele>
        <time>2015-07-22T10:48:36.000Z</time>
      </trkpt>
      <trkpt lat="46.58994" lon="6.12473">
        <ele>1258.8000488281</ele>
        <time>2015-07-22T10:48:39.000Z</time>
      </trkpt>
      <trkpt lat="46.58996" lon="6.12472">
        <ele>1258</ele>
        <time>2015-07-22T10:48:41.000Z</time>
      </trkpt>
      <trkpt lat="46.58996" lon="6.12473">
        <ele>1257.5999755859</ele>
        <time>2015-07-22T10:48:42.000Z</time>
      </trkpt>
      <trkpt lat="46.58996" lon="6.12474">
        <ele>1257.1999511719</ele>
        <time>2015-07-22T10:48:43.000Z</time>
      </trkpt>
      <trkpt lat="46.58996" lon="6.12475">
        <ele>1257.1999511719</ele>
        <time>2015-07-22T10:48:47.000Z</time>
      </trkpt>
      <trkpt lat="46.58996" lon="6.12475">
        <ele>1257.1999511719</ele>
        <time>2015-07-22T10:48:48.000Z</time>
      </trkpt>
      <trkpt lat="46.5894" lon="6.12497">
        <ele>1320.1999511719</ele>
        <time>2015-07-22T11:06:48.000Z</time>
      </trkpt>
      <trkpt lat="46.58935" lon="6.12494">
        <ele>1320.1999511719</ele>
        <time>2015-07-22T11:06:55.000Z</time>
      </trkpt>
      <trkpt lat="46.58931" lon="6.12493">
        <ele>1320.5999755859</ele>
        <time>2015-07-22T11:07:01.000Z</time>
      </trkpt>
      <trkpt lat="46.58931" lon="6.12493">
        <ele>1321.1999511719</ele>
        <time>2015-07-22T11:07:02.000Z</time>
      </trkpt>
      <trkpt lat="46.58931" lon="6.12494">
        <ele>1321.5999755859</ele>
        <time>2015-07-22T11:07:03.000Z</time>
      </trkpt>
      <trkpt lat="46.58931" lon="6.12494">
        <ele>1322.1999511719</ele>
        <time>2015-07-22T11:07:04.000Z</time>
      </trkpt>
      <trkpt lat="46.58932" lon="6.12494">
        <ele>1322.5999755859</ele>
        <time>2015-07-22T11:07:06.000Z</time>
      </trkpt>
      <trkpt lat="46.58933" lon="6.12494">
        <ele>1323.1999511719</ele>
        <time>2015-07-22T11:07:11.000Z</time>
      </trkpt>
      <trkpt lat="46.58924" lon="6.12488">
        <ele>1323.1999511719</ele>
        <time>2015-07-22T11:07:24.000Z</time>
      </trkpt>
      <trkpt lat="46.58912" lon="6.12475">
        <ele>1323.1999511719</ele>
        <time>2015-07-22T11:07:35.000Z</time>
      </trkpt>
      <trkpt lat="46.58912" lon="6.12473">
        <ele>1323.5999755859</ele>
        <time>2015-07-22T11:07:36.000Z</time>
      </trkpt>
      <trkpt lat="46.58911" lon="6.12473">
        <ele>1324.1999511719</ele>
        <time>2015-07-22T11:07:37.000Z</time>
      </trkpt>
      <trkpt lat="46.58911" lon="6.12473">
        <ele>1324.5999755859</ele>
        <time>2015-07-22T11:07:38.000Z</time>
      </trkpt>
      <trkpt lat="46.58911" lon="6.12472">
        <ele>1325.1999511719</ele>
        <time>2015-07-22T11:07:39.000Z</time>
      </trkpt>
      <trkpt lat="46.58912" lon="6.12471">
        <ele>1325.1999511719</ele>
        <time>2015-07-22T11:07:42.000Z</time>
      </trkpt>
      <trkpt lat="46.58911" lon="6.12469">
        <ele>1325.5999755859</ele>
        <time>2015-07-22T11:07:48.000Z</time>
      </trkpt>
      <trkpt lat="46.5891" lon="6.12468">
        <ele>1326</ele>
        <time>2015-07-22T11:07:49.000Z</time>
      </trkpt>
      <trkpt lat="46.58909" lon="6.12466">
        <ele>1326.4000244141</ele>
        <time>2015-07-22T11:07:50.000Z</time>
      </trkpt>
      <trkpt lat="46.58908" lon="6.12464">
        <ele>1326.8000488281</ele>
        <time>2015-07-22T11:07:51.000Z</time>
      </trkpt>
      <trkpt lat="46.58906" lon="6.12462">
        <ele>1327.1999511719</ele>
        <time>2015-07-22T11:07:52.000Z</time>
      </trkpt>
      <trkpt lat="46.58897" lon="6.12451">
        <ele>1327.1999511719</ele>
        <time>2015-07-22T11:07:58.000Z</time>
      </trkpt>
      <trkpt lat="46.58892" lon="6.12444">
        <ele>1327.5999755859</ele>
        <time>2015-07-22T11:08:02.000Z</time>
      </trkpt>
      <trkpt lat="46.58891" lon="6.12441">
        <ele>1328.1999511719</ele>
        <time>2015-07-22T11:08:03.000Z</time>
      </trkpt>
      <trkpt lat="46.58889" lon="6.12439">
        <ele>1328.5999755859</ele>
        <time>2015-07-22T11:08:04.000Z</time>
      </trkpt>
      <trkpt lat="46.58885" lon="6.12437">
        <ele>1329</ele>
        <time>2015-07-22T11:08:05.000Z</time>
      </trkpt>
      <trkpt lat="46.58882" lon="6.12436">
        <ele>1329.4000244141</ele>
        <time>2015-07-22T11:08:06.000Z</time>
      </trkpt>
      <trkpt lat="46.58866" lon="6.12436">
        <ele>1329.4000244141</ele>
        <time>2015-07-22T11:08:11.000Z</time>
      </trkpt>
      <trkpt lat="46.58851" lon="6.12441">
        <ele>1329.4000244141</ele>
        <time>2015-07-22T11:08:16.000Z</time>
      </trkpt>
      <trkpt lat="46.58847" lon="6.12446">
        <ele>1329.4000244141</ele>
        <time>2015-07-22T11:08:18.000Z</time>
      </trkpt>
      <trkpt lat="46.58843" lon="6.12449">
        <ele>1329.4000244141</ele>
        <time>2015-07-22T11:08:20.000Z</time>
      </trkpt>
      <trkpt lat="46.58819" lon="6.12459">
        <ele>1329.4000244141</ele>
        <time>2015-07-22T11:08:27.000Z</time>
      </trkpt>
      <trkpt lat="46.5881" lon="6.1246">
        <ele>1329.4000244141</ele>
        <time>2015-07-22T11:08:32.000Z</time>
      </trkpt>
      <trkpt lat="46.58793" lon="6.12459">
        <ele>1330.8000488281</ele>
        <time>2015-07-22T11:08:40.000Z</time>
      </trkpt>
      <trkpt lat="46.58791" lon="6.12459">
        <ele>1331.1999511719</ele>
        <time>2015-07-22T11:08:41.000Z</time>
      </trkpt>
      <trkpt lat="46.58787" lon="6.12459">
        <ele>1331.5999755859</ele>
        <time>2015-07-22T11:08:42.000Z</time>
      </trkpt>
      <trkpt lat="46.58776" lon="6.12454">
        <ele>1331.5999755859</ele>
        <time>2015-07-22T11:08:48.000Z</time>
      </trkpt>
      <trkpt lat="46.58762" lon="6.1245">
        <ele>1331.5999755859</ele>
        <time>2015-07-22T11:08:54.000Z</time>
      </trkpt>
      <trkpt lat="46.58753" lon="6.12453">
        <ele>1331.5999755859</ele>
        <time>2015-07-22T11:08:59.000Z</time>
      </trkpt>
      <trkpt lat="46.58751" lon="6.12454">
        <ele>1332</ele>
        <time>2015-07-22T11:09:00.000Z</time>
      </trkpt>
      <trkpt lat="46.58747" lon="6.12456">
        <ele>1332.4000244141</ele>
        <time>2015-07-22T11:09:01.000Z</time>
      </trkpt>
      <trkpt lat="46.58743" lon="6.12457">
        <ele>1332.8000488281</ele>
        <time>2015-07-22T11:09:02.000Z</time>
      </trkpt>
      <trkpt lat="46.58741" lon="6.12458">
        <ele>1333.4000244141</ele>
        <time>2015-07-22T11:09:03.000Z</time>
      </trkpt>
      <trkpt lat="46.58739" lon="6.12459">
        <ele>1333.8000488281</ele>
        <time>2015-07-22T11:09:04.000Z</time>
      </trkpt>
      <trkpt lat="46.58733" lon="6.12461">
        <ele>1333.8000488281</ele>
        <time>2015-07-22T11:09:06.000Z</time>
      </trkpt>
      <trkpt lat="46.58711" lon="6.12471">
        <ele>1333.8000488281</ele>
        <time>2015-07-22T11:09:12.000Z</time>
      </trkpt>
      <trkpt lat="46.58694" lon="6.12497">
        <ele>1333.8000488281</ele>
        <time>2015-07-22T11:09:17.000Z</time>
      </trkpt>
      <trkpt lat="46.58682" lon="6.12517">
        <ele>1333.8000488281</ele>
        <time>2015-07-22T11:09:22.000Z</time>
      </trkpt>
      <trkpt lat="46.58669" lon="6.12542">
        <ele>1333.8000488281</ele>
        <time>2015-07-22T11:09:28.000Z</time>
      </trkpt>
      <trkpt lat="46.58666" lon="6.12569">
        <ele>1333.8000488281</ele>
        <time>2015-07-22T11:09:33.000Z</time>
      </trkpt>
      <trkpt lat="46.58656" lon="6.12598">
        <ele>1333.8000488281</ele>
        <time>2015-07-22T11:09:39.000Z</time>
      </trkpt>
      <trkpt lat="46.5865" lon="6.12603">
        <ele>1333.8000488281</ele>
        <time>2015-07-22T11:09:40.000Z</time>
      </trkpt>
      <trkpt lat="46.58631" lon="6.12622">
        <ele>1333.1999511719</ele>
        <time>2015-07-22T11:09:44.000Z</time>
      </trkpt>
      <trkpt lat="46.58626" lon="6.12624">
        <ele>1332.5999755859</ele>
        <time>2015-07-22T11:09:45.000Z</time>
      </trkpt>
      <trkpt lat="46.58621" lon="6.12625">
        <ele>1332.1999511719</ele>
        <time>2015-07-22T11:09:46.000Z</time>
      </trkpt>
      <trkpt lat="46.58616" lon="6.12626">
        <ele>1331.5999755859</ele>
        <time>2015-07-22T11:09:47.000Z</time>
      </trkpt>
      <trkpt lat="46.5861" lon="6.12628">
        <ele>1331</ele>
        <time>2015-07-22T11:09:48.000Z</time>
      </trkpt>
      <trkpt lat="46.58597" lon="6.12627">
        <ele>1330.5999755859</ele>
        <time>2015-07-22T11:09:50.000Z</time>
      </trkpt>
      <trkpt lat="46.58592" lon="6.12627">
        <ele>1330</ele>
        <time>2015-07-22T11:09:51.000Z</time>
      </trkpt>
      <trkpt lat="46.58585" lon="6.12628">
        <ele>1329.5999755859</ele>
        <time>2015-07-22T11:09:52.000Z</time>
      </trkpt>
      <trkpt lat="46.58577" lon="6.1263">
        <ele>1328.8000488281</ele>
        <time>2015-07-22T11:09:53.000Z</time>
      </trkpt>
      <trkpt lat="46.58568" lon="6.12635">
        <ele>1328.1999511719</ele>
        <time>2015-07-22T11:09:54.000Z</time>
      </trkpt>
      <trkpt lat="46.58558" lon="6.12639">
        <ele>1327.5999755859</ele>
        <time>2015-07-22T11:09:55.000Z</time>
      </trkpt>
      <trkpt lat="46.5855" lon="6.12642">
        <ele>1326.8000488281</ele>
        <time>2015-07-22T11:09:56.000Z</time>
      </trkpt>
      <trkpt lat="46.58541" lon="6.12646">
        <ele>1326.1999511719</ele>
        <time>2015-07-22T11:09:57.000Z</time>
      </trkpt>
      <trkpt lat="46.58534" lon="6.12652">
        <ele>1325.5999755859</ele>
        <time>2015-07-22T11:09:58.000Z</time>
      </trkpt>
      <trkpt lat="46.58526" lon="6.12657">
        <ele>1325</ele>
        <time>2015-07-22T11:09:59.000Z</time>
      </trkpt>
      <trkpt lat="46.5852" lon="6.12662">
        <ele>1324.4000244141</ele>
        <time>2015-07-22T11:10:00.000Z</time>
      </trkpt>
      <trkpt lat="46.58512" lon="6.12668">
        <ele>1323.8000488281</ele>
        <time>2015-07-22T11:10:01.000Z</time>
      </trkpt>
      <trkpt lat="46.585" lon="6.12675">
        <ele>1323.4000244141</ele>
        <time>2015-07-22T11:10:02.000Z</time>
      </trkpt>
      <trkpt lat="46.58491" lon="6.12678">
        <ele>1323</ele>
        <time>2015-07-22T11:10:03.000Z</time>
      </trkpt>
      <trkpt lat="46.58483" lon="6.12683">
        <ele>1322.5999755859</ele>
        <time>2015-07-22T11:10:04.000Z</time>
      </trkpt>
      <trkpt lat="46.58476" lon="6.12681">
        <ele>1322</ele>
        <time>2015-07-22T11:10:05.000Z</time>
      </trkpt>
      <trkpt lat="46.58471" lon="6.12679">
        <ele>1321.5999755859</ele>
        <time>2015-07-22T11:10:06.000Z</time>
      </trkpt>
      <trkpt lat="46.58465" lon="6.12672">
        <ele>1321.1999511719</ele>
        <time>2015-07-22T11:10:07.000Z</time>
      </trkpt>
      <trkpt lat="46.58459" lon="6.12667">
        <ele>1320.8000488281</ele>
        <time>2015-07-22T11:10:08.000Z</time>
      </trkpt>
      <trkpt lat="46.58454" lon="6.12659">
        <ele>1320.4000244141</ele>
        <time>2015-07-22T11:10:09.000Z</time>
      </trkpt>
      <trkpt lat="46.58452" lon="6.1265">
        <ele>1320</ele>
        <time>2015-07-22T11:10:10.000Z</time>
      </trkpt>
      <trkpt lat="46.58453" lon="6.12638">
        <ele>1319.5999755859</ele>
        <time>2015-07-22T11:10:11.000Z</time>
      </trkpt>
      <trkpt lat="46.58436" lon="6.12601">
        <ele>1319.5999755859</ele>
        <time>2015-07-22T11:10:15.000Z</time>
      </trkpt>
      <trkpt lat="46.58432" lon="6.12592">
        <ele>1319.5999755859</ele>
        <time>2015-07-22T11:10:16.000Z</time>
      </trkpt>
      <trkpt lat="46.58426" lon="6.12585">
        <ele>1319.5999755859</ele>
        <time>2015-07-22T11:10:17.000Z</time>
      </trkpt>
      <trkpt lat="46.58415" lon="6.12566">
        <ele>1319.5999755859</ele>
        <time>2015-07-22T11:10:20.000Z</time>
      </trkpt>
      <trkpt lat="46.58397" lon="6.12547">
        <ele>1319.5999755859</ele>
        <time>2015-07-22T11:10:24.000Z</time>
      </trkpt>
      <trkpt lat="46.58393" lon="6.12543">
        <ele>1319.5999755859</ele>
        <time>2015-07-22T11:10:25.000Z</time>
      </trkpt>
      <trkpt lat="46.58386" lon="6.12539">
        <ele>1319.5999755859</ele>
        <time>2015-07-22T11:10:26.000Z</time>
      </trkpt>
      <trkpt lat="46.58367" lon="6.12525">
        <ele>1319.5999755859</ele>
        <time>2015-07-22T11:10:30.000Z</time>
      </trkpt>
      <trkpt lat="46.58363" lon="6.1252">
        <ele>1319.5999755859</ele>
        <time>2015-07-22T11:10:31.000Z</time>
      </trkpt>
      <trkpt lat="46.58344" lon="6.12504">
        <ele>1319.1999511719</ele>
        <time>2015-07-22T11:10:35.000Z</time>
      </trkpt>
      <trkpt lat="46.5834" lon="6.12502">
        <ele>1318.8000488281</ele>
        <time>2015-07-22T11:10:36.000Z</time>
      </trkpt>
      <trkpt lat="46.58336" lon="6.12501">
        <ele>1318.4000244141</ele>
        <time>2015-07-22T11:10:37.000Z</time>
      </trkpt>
      <trkpt lat="46.5833" lon="6.12502">
        <ele>1318</ele>
        <time>2015-07-22T11:10:38.000Z</time>
      </trkpt>
      <trkpt lat="46.58326" lon="6.12503">
        <ele>1317.5999755859</ele>
        <time>2015-07-22T11:10:39.000Z</time>
      </trkpt>
      <trkpt lat="46.58319" lon="6.12503">
        <ele>1317.5999755859</ele>
        <time>2015-07-22T11:10:41.000Z</time>
      </trkpt>
      <trkpt lat="46.58301" lon="6.12501">
        <ele>1317.5999755859</ele>
        <time>2015-07-22T11:10:45.000Z</time>
      </trkpt>
      <trkpt lat="46.58297" lon="6.12497">
        <ele>1317.5999755859</ele>
        <time>2015-07-22T11:10:46.000Z</time>
      </trkpt>
      <trkpt lat="46.58284" lon="6.12478">
        <ele>1317.5999755859</ele>
        <time>2015-07-22T11:10:50.000Z</time>
      </trkpt>
      <trkpt lat="46.58281" lon="6.12472">
        <ele>1317.5999755859</ele>
        <time>2015-07-22T11:10:51.000Z</time>
      </trkpt>
      <trkpt lat="46.58277" lon="6.12457">
        <ele>1317.5999755859</ele>
        <time>2015-07-22T11:10:53.000Z</time>
      </trkpt>
      <trkpt lat="46.58268" lon="6.12435">
        <ele>1317.5999755859</ele>
        <time>2015-07-22T11:10:56.000Z</time>
      </trkpt>
      <trkpt lat="46.58256" lon="6.12426">
        <ele>1317</ele>
        <time>2015-07-22T11:10:58.000Z</time>
      </trkpt>
      <trkpt lat="46.58252" lon="6.12423">
        <ele>1316.5999755859</ele>
        <time>2015-07-22T11:10:59.000Z</time>
      </trkpt>
      <trkpt lat="46.58248" lon="6.12419">
        <ele>1316.1999511719</ele>
        <time>2015-07-22T11:11:00.000Z</time>
      </trkpt>
      <trkpt lat="46.58244" lon="6.12415">
        <ele>1315.8000488281</ele>
        <time>2015-07-22T11:11:01.000Z</time>
      </trkpt>
      <trkpt lat="46.5824" lon="6.12412">
        <ele>1315.4000244141</ele>
        <time>2015-07-22T11:11:02.000Z</time>
      </trkpt>
      <trkpt lat="46.58237" lon="6.12408">
        <ele>1315.4000244141</ele>
        <time>2015-07-22T11:11:03.000Z</time>
      </trkpt>
      <trkpt lat="46.58229" lon="6.12395">
        <ele>1315.4000244141</ele>
        <time>2015-07-22T11:11:06.000Z</time>
      </trkpt>
      <trkpt lat="46.58222" lon="6.12363">
        <ele>1315.4000244141</ele>
        <time>2015-07-22T11:11:11.000Z</time>
      </trkpt>
      <trkpt lat="46.58201" lon="6.12336">
        <ele>1315.4000244141</ele>
        <time>2015-07-22T11:11:17.000Z</time>
      </trkpt>
      <trkpt lat="46.58181" lon="6.12333">
        <ele>1315.4000244141</ele>
        <time>2015-07-22T11:11:21.000Z</time>
      </trkpt>
      <trkpt lat="46.58167" lon="6.1234">
        <ele>1315.4000244141</ele>
        <time>2015-07-22T11:11:25.000Z</time>
      </trkpt>
      <trkpt lat="46.58153" lon="6.12343">
        <ele>1315.8000488281</ele>
        <time>2015-07-22T11:11:29.000Z</time>
      </trkpt>
      <trkpt lat="46.58148" lon="6.12344">
        <ele>1316.1999511719</ele>
        <time>2015-07-22T11:11:30.000Z</time>
      </trkpt>
      <trkpt lat="46.58144" lon="6.12346">
        <ele>1316.5999755859</ele>
        <time>2015-07-22T11:11:31.000Z</time>
      </trkpt>
      <trkpt lat="46.58141" lon="6.12347">
        <ele>1317</ele>
        <time>2015-07-22T11:11:32.000Z</time>
      </trkpt>
      <trkpt lat="46.58135" lon="6.12349">
        <ele>1317.4000244141</ele>
        <time>2015-07-22T11:11:33.000Z</time>
      </trkpt>
      <trkpt lat="46.58102" lon="6.12366">
        <ele>1317.4000244141</ele>
        <time>2015-07-22T11:11:41.000Z</time>
      </trkpt>
      <trkpt lat="46.58082" lon="6.12371">
        <ele>1317.4000244141</ele>
        <time>2015-07-22T11:11:46.000Z</time>
      </trkpt>
      <trkpt lat="46.58075" lon="6.12374">
        <ele>1317.4000244141</ele>
        <time>2015-07-22T11:11:47.000Z</time>
      </trkpt>
      <trkpt lat="46.58056" lon="6.12388">
        <ele>1317.4000244141</ele>
        <time>2015-07-22T11:11:50.000Z</time>
      </trkpt>
      <trkpt lat="46.58044" lon="6.12402">
        <ele>1317.4000244141</ele>
        <time>2015-07-22T11:11:52.000Z</time>
      </trkpt>
      <trkpt lat="46.5803" lon="6.12415">
        <ele>1317</ele>
        <time>2015-07-22T11:11:54.000Z</time>
      </trkpt>
      <trkpt lat="46.58024" lon="6.12422">
        <ele>1316.4000244141</ele>
        <time>2015-07-22T11:11:55.000Z</time>
      </trkpt>
      <trkpt lat="46.58018" lon="6.12426">
        <ele>1316</ele>
        <time>2015-07-22T11:11:56.000Z</time>
      </trkpt>
      <trkpt lat="46.58012" lon="6.12431">
        <ele>1315.5999755859</ele>
        <time>2015-07-22T11:11:57.000Z</time>
      </trkpt>
      <trkpt lat="46.58008" lon="6.12434">
        <ele>1315.1999511719</ele>
        <time>2015-07-22T11:11:58.000Z</time>
      </trkpt>
      <trkpt lat="46.58003" lon="6.12436">
        <ele>1315.1999511719</ele>
        <time>2015-07-22T11:11:59.000Z</time>
      </trkpt>
      <trkpt lat="46.57989" lon="6.12433">
        <ele>1315.1999511719</ele>
        <time>2015-07-22T11:12:02.000Z</time>
      </trkpt>
      <trkpt lat="46.57969" lon="6.12419">
        <ele>1315.1999511719</ele>
        <time>2015-07-22T11:12:06.000Z</time>
      </trkpt>
      <trkpt lat="46.57958" lon="6.12398">
        <ele>1315.1999511719</ele>
        <time>2015-07-22T11:12:09.000Z</time>
      </trkpt>
      <trkpt lat="46.57956" lon="6.1239">
        <ele>1315.1999511719</ele>
        <time>2015-07-22T11:12:10.000Z</time>
      </trkpt>
      <trkpt lat="46.57946" lon="6.12357">
        <ele>1315.1999511719</ele>
        <time>2015-07-22T11:12:15.000Z</time>
      </trkpt>
      <trkpt lat="46.57942" lon="6.12351">
        <ele>1315.1999511719</ele>
        <time>2015-07-22T11:12:16.000Z</time>
      </trkpt>
      <trkpt lat="46.57928" lon="6.12345">
        <ele>1315.1999511719</ele>
        <time>2015-07-22T11:12:19.000Z</time>
      </trkpt>
      <trkpt lat="46.57913" lon="6.12354">
        <ele>1315.1999511719</ele>
        <time>2015-07-22T11:12:23.000Z</time>
      </trkpt>
      <trkpt lat="46.57905" lon="6.12363">
        <ele>1315.1999511719</ele>
        <time>2015-07-22T11:12:25.000Z</time>
      </trkpt>
      <trkpt lat="46.5789" lon="6.12378">
        <ele>1315.1999511719</ele>
        <time>2015-07-22T11:12:28.000Z</time>
      </trkpt>
      <trkpt lat="46.57856" lon="6.12426">
        <ele>1315.1999511719</ele>
        <time>2015-07-22T11:12:37.000Z</time>
      </trkpt>
      <trkpt lat="46.57831" lon="6.12457">
        <ele>1315.1999511719</ele>
        <time>2015-07-22T11:12:44.000Z</time>
      </trkpt>
      <trkpt lat="46.57827" lon="6.1246">
        <ele>1314.8000488281</ele>
        <time>2015-07-22T11:12:45.000Z</time>
      </trkpt>
      <trkpt lat="46.57822" lon="6.12464">
        <ele>1314.1999511719</ele>
        <time>2015-07-22T11:12:46.000Z</time>
      </trkpt>
      <trkpt lat="46.57817" lon="6.12467">
        <ele>1313.8000488281</ele>
        <time>2015-07-22T11:12:47.000Z</time>
      </trkpt>
      <trkpt lat="46.5781" lon="6.1247">
        <ele>1313.4000244141</ele>
        <time>2015-07-22T11:12:48.000Z</time>
      </trkpt>
      <trkpt lat="46.57803" lon="6.12475">
        <ele>1313</ele>
        <time>2015-07-22T11:12:49.000Z</time>
      </trkpt>
      <trkpt lat="46.57796" lon="6.1248">
        <ele>1312.4000244141</ele>
        <time>2015-07-22T11:12:50.000Z</time>
      </trkpt>
      <trkpt lat="46.57787" lon="6.12487">
        <ele>1311.8000488281</ele>
        <time>2015-07-22T11:12:51.000Z</time>
      </trkpt>
      <trkpt lat="46.57778" lon="6.12493">
        <ele>1311.4000244141</ele>
        <time>2015-07-22T11:12:52.000Z</time>
      </trkpt>
      <trkpt lat="46.57769" lon="6.12497">
        <ele>1310.8000488281</ele>
        <time>2015-07-22T11:12:53.000Z</time>
      </trkpt>
      <trkpt lat="46.57761" lon="6.12497">
        <ele>1310.1999511719</ele>
        <time>2015-07-22T11:12:54.000Z</time>
      </trkpt>
      <trkpt lat="46.57754" lon="6.12494">
        <ele>1309.8000488281</ele>
        <time>2015-07-22T11:12:55.000Z</time>
      </trkpt>
      <trkpt lat="46.5775" lon="6.12489">
        <ele>1309.4000244141</ele>
        <time>2015-07-22T11:12:56.000Z</time>
      </trkpt>
      <trkpt lat="46.57744" lon="6.12483">
        <ele>1308.8000488281</ele>
        <time>2015-07-22T11:12:57.000Z</time>
      </trkpt>
      <trkpt lat="46.57742" lon="6.12473">
        <ele>1308.4000244141</ele>
        <time>2015-07-22T11:12:58.000Z</time>
      </trkpt>
      <trkpt lat="46.5774" lon="6.12462">
        <ele>1307.8000488281</ele>
        <time>2015-07-22T11:12:59.000Z</time>
      </trkpt>
      <trkpt lat="46.57739" lon="6.12451">
        <ele>1307.1999511719</ele>
        <time>2015-07-22T11:13:00.000Z</time>
      </trkpt>
      <trkpt lat="46.57737" lon="6.12441">
        <ele>1306.8000488281</ele>
        <time>2015-07-22T11:13:01.000Z</time>
      </trkpt>
      <trkpt lat="46.57733" lon="6.12431">
        <ele>1306.1999511719</ele>
        <time>2015-07-22T11:13:02.000Z</time>
      </trkpt>
      <trkpt lat="46.57729" lon="6.12424">
        <ele>1305.5999755859</ele>
        <time>2015-07-22T11:13:03.000Z</time>
      </trkpt>
      <trkpt lat="46.57721" lon="6.12419">
        <ele>1304.8000488281</ele>
        <time>2015-07-22T11:13:04.000Z</time>
      </trkpt>
      <trkpt lat="46.57714" lon="6.12414">
        <ele>1304.1999511719</ele>
        <time>2015-07-22T11:13:05.000Z</time>
      </trkpt>
      <trkpt lat="46.57703" lon="6.1241">
        <ele>1303.5999755859</ele>
        <time>2015-07-22T11:13:06.000Z</time>
      </trkpt>
      <trkpt lat="46.57692" lon="6.12407">
        <ele>1303</ele>
        <time>2015-07-22T11:13:07.000Z</time>
      </trkpt>
      <trkpt lat="46.57682" lon="6.12405">
        <ele>1302.4000244141</ele>
        <time>2015-07-22T11:13:08.000Z</time>
      </trkpt>
      <trkpt lat="46.57673" lon="6.12402">
        <ele>1301.8000488281</ele>
        <time>2015-07-22T11:13:09.000Z</time>
      </trkpt>
      <trkpt lat="46.57665" lon="6.12404">
        <ele>1301.1999511719</ele>
        <time>2015-07-22T11:13:10.000Z</time>
      </trkpt>
      <trkpt lat="46.57657" lon="6.12406">
        <ele>1301.1999511719</ele>
        <time>2015-07-22T11:13:11.000Z</time>
      </trkpt>
      <trkpt lat="46.57644" lon="6.12412">
        <ele>1300.8000488281</ele>
        <time>2015-07-22T11:13:13.000Z</time>
      </trkpt>
      <trkpt lat="46.57636" lon="6.12415">
        <ele>1300.4000244141</ele>
        <time>2015-07-22T11:13:14.000Z</time>
      </trkpt>
      <trkpt lat="46.57628" lon="6.12417">
        <ele>1300</ele>
        <time>2015-07-22T11:13:15.000Z</time>
      </trkpt>
      <trkpt lat="46.57619" lon="6.12419">
        <ele>1299.5999755859</ele>
        <time>2015-07-22T11:13:16.000Z</time>
      </trkpt>
      <trkpt lat="46.57611" lon="6.1242">
        <ele>1299</ele>
        <time>2015-07-22T11:13:17.000Z</time>
      </trkpt>
      <trkpt lat="46.57603" lon="6.12424">
        <ele>1298.5999755859</ele>
        <time>2015-07-22T11:13:18.000Z</time>
      </trkpt>
      <trkpt lat="46.57596" lon="6.12427">
        <ele>1297.8000488281</ele>
        <time>2015-07-22T11:13:19.000Z</time>
      </trkpt>
      <trkpt lat="46.57587" lon="6.12428">
        <ele>1297</ele>
        <time>2015-07-22T11:13:20.000Z</time>
      </trkpt>
      <trkpt lat="46.57581" lon="6.12428">
        <ele>1296.1999511719</ele>
        <time>2015-07-22T11:13:21.000Z</time>
      </trkpt>
      <trkpt lat="46.57581" lon="6.12419">
        <ele>1295.4000244141</ele>
        <time>2015-07-22T11:13:22.000Z</time>
      </trkpt>
      <trkpt lat="46.57577" lon="6.12415">
        <ele>1294.5999755859</ele>
        <time>2015-07-22T11:13:23.000Z</time>
      </trkpt>
      <trkpt lat="46.57576" lon="6.1241">
        <ele>1294</ele>
        <time>2015-07-22T11:13:24.000Z</time>
      </trkpt>
      <trkpt lat="46.57578" lon="6.12403">
        <ele>1293.4000244141</ele>
        <time>2015-07-22T11:13:25.000Z</time>
      </trkpt>
      <trkpt lat="46.5758" lon="6.12397">
        <ele>1292.5999755859</ele>
        <time>2015-07-22T11:13:26.000Z</time>
      </trkpt>
      <trkpt lat="46.57581" lon="6.12391">
        <ele>1292</ele>
        <time>2015-07-22T11:13:27.000Z</time>
      </trkpt>
      <trkpt lat="46.57584" lon="6.12352">
        <ele>1292</ele>
        <time>2015-07-22T11:13:32.000Z</time>
      </trkpt>
      <trkpt lat="46.57589" lon="6.12318">
        <ele>1292</ele>
        <time>2015-07-22T11:13:36.000Z</time>
      </trkpt>
      <trkpt lat="46.57588" lon="6.12309">
        <ele>1292</ele>
        <time>2015-07-22T11:13:37.000Z</time>
      </trkpt>
      <trkpt lat="46.57579" lon="6.12281">
        <ele>1292</ele>
        <time>2015-07-22T11:13:41.000Z</time>
      </trkpt>
      <trkpt lat="46.57578" lon="6.12261">
        <ele>1292</ele>
        <time>2015-07-22T11:13:44.000Z</time>
      </trkpt>
      <trkpt lat="46.57583" lon="6.12249">
        <ele>1292</ele>
        <time>2015-07-22T11:13:46.000Z</time>
      </trkpt>
      <trkpt lat="46.57588" lon="6.12237">
        <ele>1292</ele>
        <time>2015-07-22T11:13:49.000Z</time>
      </trkpt>
      <trkpt lat="46.5759" lon="6.12234">
        <ele>1292</ele>
        <time>2015-07-22T11:13:50.000Z</time>
      </trkpt>
      <trkpt lat="46.57601" lon="6.12219">
        <ele>1292</ele>
        <time>2015-07-22T11:13:55.000Z</time>
      </trkpt>
      <trkpt lat="46.57606" lon="6.12207">
        <ele>1292</ele>
        <time>2015-07-22T11:13:57.000Z</time>
      </trkpt>
      <trkpt lat="46.5761" lon="6.12195">
        <ele>1292</ele>
        <time>2015-07-22T11:13:59.000Z</time>
      </trkpt>
      <trkpt lat="46.5762" lon="6.12165">
        <ele>1292</ele>
        <time>2015-07-22T11:14:03.000Z</time>
      </trkpt>
      <trkpt lat="46.57624" lon="6.12152">
        <ele>1292</ele>
        <time>2015-07-22T11:14:05.000Z</time>
      </trkpt>
      <trkpt lat="46.57633" lon="6.12133">
        <ele>1292</ele>
        <time>2015-07-22T11:14:08.000Z</time>
      </trkpt>
      <trkpt lat="46.5764" lon="6.12121">
        <ele>1292</ele>
        <time>2015-07-22T11:14:10.000Z</time>
      </trkpt>
      <trkpt lat="46.57643" lon="6.12109">
        <ele>1292</ele>
        <time>2015-07-22T11:14:13.000Z</time>
      </trkpt>
      <trkpt lat="46.57646" lon="6.12095">
        <ele>1292</ele>
        <time>2015-07-22T11:14:15.000Z</time>
      </trkpt>
      <trkpt lat="46.57648" lon="6.12088">
        <ele>1292.4000244141</ele>
        <time>2015-07-22T11:14:16.000Z</time>
      </trkpt>
      <trkpt lat="46.5765" lon="6.12084">
        <ele>1292.8000488281</ele>
        <time>2015-07-22T11:14:17.000Z</time>
      </trkpt>
      <trkpt lat="46.57652" lon="6.12078">
        <ele>1293.1999511719</ele>
        <time>2015-07-22T11:14:18.000Z</time>
      </trkpt>
      <trkpt lat="46.57653" lon="6.12073">
        <ele>1293.5999755859</ele>
        <time>2015-07-22T11:14:19.000Z</time>
      </trkpt>
      <trkpt lat="46.57655" lon="6.12068">
        <ele>1294</ele>
        <time>2015-07-22T11:14:20.000Z</time>
      </trkpt>
      <trkpt lat="46.57659" lon="6.1206">
        <ele>1294</ele>
        <time>2015-07-22T11:14:22.000Z</time>
      </trkpt>
      <trkpt lat="46.57667" lon="6.12041">
        <ele>1294</ele>
        <time>2015-07-22T11:14:28.000Z</time>
      </trkpt>
      <trkpt lat="46.57678" lon="6.12021">
        <ele>1294.4000244141</ele>
        <time>2015-07-22T11:14:34.000Z</time>
      </trkpt>
      <trkpt lat="46.57681" lon="6.12017">
        <ele>1294.8000488281</ele>
        <time>2015-07-22T11:14:35.000Z</time>
      </trkpt>
      <trkpt lat="46.57684" lon="6.12013">
        <ele>1295.1999511719</ele>
        <time>2015-07-22T11:14:36.000Z</time>
      </trkpt>
      <trkpt lat="46.57686" lon="6.1201">
        <ele>1295.5999755859</ele>
        <time>2015-07-22T11:14:37.000Z</time>
      </trkpt>
      <trkpt lat="46.57687" lon="6.12007">
        <ele>1296</ele>
        <time>2015-07-22T11:14:38.000Z</time>
      </trkpt>
      <trkpt lat="46.57691" lon="6.11996">
        <ele>1296</ele>
        <time>2015-07-22T11:14:41.000Z</time>
      </trkpt>
      <trkpt lat="46.57701" lon="6.11966">
        <ele>1296</ele>
        <time>2015-07-22T11:14:47.000Z</time>
      </trkpt>
      <trkpt lat="46.57702" lon="6.11961">
        <ele>1296.5999755859</ele>
        <time>2015-07-22T11:14:48.000Z</time>
      </trkpt>
      <trkpt lat="46.57703" lon="6.11957">
        <ele>1297</ele>
        <time>2015-07-22T11:14:49.000Z</time>
      </trkpt>
      <trkpt lat="46.57704" lon="6.11953">
        <ele>1297.4000244141</ele>
        <time>2015-07-22T11:14:50.000Z</time>
      </trkpt>
      <trkpt lat="46.57705" lon="6.11949">
        <ele>1297.8000488281</ele>
        <time>2015-07-22T11:14:51.000Z</time>
      </trkpt>
      <trkpt lat="46.57705" lon="6.11944">
        <ele>1298.1999511719</ele>
        <time>2015-07-22T11:14:52.000Z</time>
      </trkpt>
      <trkpt lat="46.57707" lon="6.11935">
        <ele>1298.1999511719</ele>
        <time>2015-07-22T11:14:55.000Z</time>
      </trkpt>
      <trkpt lat="46.57709" lon="6.1193">
        <ele>1298.8000488281</ele>
        <time>2015-07-22T11:14:57.000Z</time>
      </trkpt>
      <trkpt lat="46.5771" lon="6.11928">
        <ele>1299.1999511719</ele>
        <time>2015-07-22T11:14:58.000Z</time>
      </trkpt>
      <trkpt lat="46.57711" lon="6.11925">
        <ele>1299.5999755859</ele>
        <time>2015-07-22T11:14:59.000Z</time>
      </trkpt>
      <trkpt lat="46.57712" lon="6.11922">
        <ele>1300</ele>
        <time>2015-07-22T11:15:00.000Z</time>
      </trkpt>
      <trkpt lat="46.57713" lon="6.11919">
        <ele>1300.4000244141</ele>
        <time>2015-07-22T11:15:01.000Z</time>
      </trkpt>
      <trkpt lat="46.57716" lon="6.1191">
        <ele>1300.4000244141</ele>
        <time>2015-07-22T11:15:04.000Z</time>
      </trkpt>
      <trkpt lat="46.57722" lon="6.11897">
        <ele>1300.4000244141</ele>
        <time>2015-07-22T11:15:10.000Z</time>
      </trkpt>
      <trkpt lat="46.57723" lon="6.11895">
        <ele>1301</ele>
        <time>2015-07-22T11:15:11.000Z</time>
      </trkpt>
      <trkpt lat="46.57724" lon="6.11893">
        <ele>1301.4000244141</ele>
        <time>2015-07-22T11:15:12.000Z</time>
      </trkpt>
      <trkpt lat="46.57725" lon="6.11892">
        <ele>1301.8000488281</ele>
        <time>2015-07-22T11:15:13.000Z</time>
      </trkpt>
      <trkpt lat="46.57726" lon="6.1189">
        <ele>1302.1999511719</ele>
        <time>2015-07-22T11:15:14.000Z</time>
      </trkpt>
      <trkpt lat="46.57726" lon="6.11888">
        <ele>1302.5999755859</ele>
        <time>2015-07-22T11:15:15.000Z</time>
      </trkpt>
      <trkpt lat="46.57726" lon="6.11879">
        <ele>1302.5999755859</ele>
        <time>2015-07-22T11:15:19.000Z</time>
      </trkpt>
      <trkpt lat="46.57726" lon="6.11876">
        <ele>1303</ele>
        <time>2015-07-22T11:15:20.000Z</time>
      </trkpt>
      <trkpt lat="46.57728" lon="6.11874">
        <ele>1303.4000244141</ele>
        <time>2015-07-22T11:15:21.000Z</time>
      </trkpt>
      <trkpt lat="46.5773" lon="6.11873">
        <ele>1303.8000488281</ele>
        <time>2015-07-22T11:15:22.000Z</time>
      </trkpt>
      <trkpt lat="46.57731" lon="6.1187">
        <ele>1304.1999511719</ele>
        <time>2015-07-22T11:15:23.000Z</time>
      </trkpt>
      <trkpt lat="46.57732" lon="6.11868">
        <ele>1304.5999755859</ele>
        <time>2015-07-22T11:15:24.000Z</time>
      </trkpt>
      <trkpt lat="46.57737" lon="6.11861">
        <ele>1304.5999755859</ele>
        <time>2015-07-22T11:15:26.000Z</time>
      </trkpt>
      <trkpt lat="46.57745" lon="6.11843">
        <ele>1305</ele>
        <time>2015-07-22T11:15:32.000Z</time>
      </trkpt>
      <trkpt lat="46.57746" lon="6.1184">
        <ele>1305.4000244141</ele>
        <time>2015-07-22T11:15:33.000Z</time>
      </trkpt>
      <trkpt lat="46.57749" lon="6.11836">
        <ele>1305.8000488281</ele>
        <time>2015-07-22T11:15:34.000Z</time>
      </trkpt>
      <trkpt lat="46.5775" lon="6.11833">
        <ele>1306.1999511719</ele>
        <time>2015-07-22T11:15:35.000Z</time>
      </trkpt>
      <trkpt lat="46.57751" lon="6.11829">
        <ele>1306.5999755859</ele>
        <time>2015-07-22T11:15:36.000Z</time>
      </trkpt>
      <trkpt lat="46.57754" lon="6.11819">
        <ele>1306.5999755859</ele>
        <time>2015-07-22T11:15:39.000Z</time>
      </trkpt>
      <trkpt lat="46.57756" lon="6.11803">
        <ele>1306.5999755859</ele>
        <time>2015-07-22T11:15:45.000Z</time>
      </trkpt>
      <trkpt lat="46.57755" lon="6.11794">
        <ele>1307</ele>
        <time>2015-07-22T11:15:48.000Z</time>
      </trkpt>
      <trkpt lat="46.57755" lon="6.11791">
        <ele>1307.4000244141</ele>
        <time>2015-07-22T11:15:49.000Z</time>
      </trkpt>
      <trkpt lat="46.57755" lon="6.11787">
        <ele>1307.8000488281</ele>
        <time>2015-07-22T11:15:50.000Z</time>
      </trkpt>
      <trkpt lat="46.57755" lon="6.11784">
        <ele>1308.1999511719</ele>
        <time>2015-07-22T11:15:51.000Z</time>
      </trkpt>
      <trkpt lat="46.57756" lon="6.1178">
        <ele>1308.5999755859</ele>
        <time>2015-07-22T11:15:52.000Z</time>
      </trkpt>
      <trkpt lat="46.57758" lon="6.11762">
        <ele>1308.5999755859</ele>
        <time>2015-07-22T11:15:58.000Z</time>
      </trkpt>
      <trkpt lat="46.57758" lon="6.11759">
        <ele>1309.1999511719</ele>
        <time>2015-07-22T11:15:59.000Z</time>
      </trkpt>
      <trkpt lat="46.57758" lon="6.11757">
        <ele>1309.5999755859</ele>
        <time>2015-07-22T11:16:00.000Z</time>
      </trkpt>
      <trkpt lat="46.57758" lon="6.11754">
        <ele>1310</ele>
        <time>2015-07-22T11:16:01.000Z</time>
      </trkpt>
      <trkpt lat="46.5776" lon="6.11752">
        <ele>1310.5999755859</ele>
        <time>2015-07-22T11:16:02.000Z</time>
      </trkpt>
      <trkpt lat="46.57761" lon="6.11749">
        <ele>1311</ele>
        <time>2015-07-22T11:16:03.000Z</time>
      </trkpt>
      <trkpt lat="46.57763" lon="6.11744">
        <ele>1311</ele>
        <time>2015-07-22T11:16:05.000Z</time>
      </trkpt>
      <trkpt lat="46.57765" lon="6.11711">
        <ele>1311</ele>
        <time>2015-07-22T11:16:14.000Z</time>
      </trkpt>
      <trkpt lat="46.5776" lon="6.11684">
        <ele>1311</ele>
        <time>2015-07-22T11:16:21.000Z</time>
      </trkpt>
      <trkpt lat="46.57758" lon="6.11677">
        <ele>1311.4000244141</ele>
        <time>2015-07-22T11:16:23.000Z</time>
      </trkpt>
      <trkpt lat="46.57756" lon="6.11673">
        <ele>1311.8000488281</ele>
        <time>2015-07-22T11:16:24.000Z</time>
      </trkpt>
      <trkpt lat="46.57755" lon="6.1167">
        <ele>1312.1999511719</ele>
        <time>2015-07-22T11:16:25.000Z</time>
      </trkpt>
      <trkpt lat="46.57753" lon="6.11667">
        <ele>1312.5999755859</ele>
        <time>2015-07-22T11:16:26.000Z</time>
      </trkpt>
      <trkpt lat="46.5775" lon="6.11663">
        <ele>1313</ele>
        <time>2015-07-22T11:16:27.000Z</time>
      </trkpt>
      <trkpt lat="46.57741" lon="6.11656">
        <ele>1313</ele>
        <time>2015-07-22T11:16:30.000Z</time>
      </trkpt>
      <trkpt lat="46.57724" lon="6.11642">
        <ele>1313</ele>
        <time>2015-07-22T11:16:37.000Z</time>
      </trkpt>
      <trkpt lat="46.57707" lon="6.11638">
        <ele>1313</ele>
        <time>2015-07-22T11:16:41.000Z</time>
      </trkpt>
      <trkpt lat="46.57686" lon="6.11632">
        <ele>1313</ele>
        <time>2015-07-22T11:16:47.000Z</time>
      </trkpt>
      <trkpt lat="46.57676" lon="6.11624">
        <ele>1313</ele>
        <time>2015-07-22T11:16:50.000Z</time>
      </trkpt>
      <trkpt lat="46.57667" lon="6.11614">
        <ele>1312.5999755859</ele>
        <time>2015-07-22T11:16:52.000Z</time>
      </trkpt>
      <trkpt lat="46.57662" lon="6.11611">
        <ele>1312.1999511719</ele>
        <time>2015-07-22T11:16:53.000Z</time>
      </trkpt>
      <trkpt lat="46.57654" lon="6.11608">
        <ele>1311.8000488281</ele>
        <time>2015-07-22T11:16:54.000Z</time>
      </trkpt>
      <trkpt lat="46.57647" lon="6.11605">
        <ele>1311.4000244141</ele>
        <time>2015-07-22T11:16:55.000Z</time>
      </trkpt>
      <trkpt lat="46.57639" lon="6.11603">
        <ele>1310.8000488281</ele>
        <time>2015-07-22T11:16:56.000Z</time>
      </trkpt>
      <trkpt lat="46.57632" lon="6.11602">
        <ele>1310.8000488281</ele>
        <time>2015-07-22T11:16:57.000Z</time>
      </trkpt>
      <trkpt lat="46.57619" lon="6.11603">
        <ele>1310.4000244141</ele>
        <time>2015-07-22T11:16:59.000Z</time>
      </trkpt>
      <trkpt lat="46.57613" lon="6.11603">
        <ele>1310</ele>
        <time>2015-07-22T11:17:00.000Z</time>
      </trkpt>
      <trkpt lat="46.57608" lon="6.11604">
        <ele>1309.5999755859</ele>
        <time>2015-07-22T11:17:01.000Z</time>
      </trkpt>
      <trkpt lat="46.57602" lon="6.11604">
        <ele>1309.1999511719</ele>
        <time>2015-07-22T11:17:02.000Z</time>
      </trkpt>
      <trkpt lat="46.57595" lon="6.11606">
        <ele>1308.5999755859</ele>
        <time>2015-07-22T11:17:03.000Z</time>
      </trkpt>
      <trkpt lat="46.5759" lon="6.11607">
        <ele>1308.1999511719</ele>
        <time>2015-07-22T11:17:04.000Z</time>
      </trkpt>
      <trkpt lat="46.57583" lon="6.11606">
        <ele>1307.5999755859</ele>
        <time>2015-07-22T11:17:05.000Z</time>
      </trkpt>
      <trkpt lat="46.57577" lon="6.11606">
        <ele>1307.1999511719</ele>
        <time>2015-07-22T11:17:06.000Z</time>
      </trkpt>
      <trkpt lat="46.5757" lon="6.11606">
        <ele>1306.5999755859</ele>
        <time>2015-07-22T11:17:07.000Z</time>
      </trkpt>
      <trkpt lat="46.57563" lon="6.11609">
        <ele>1306.1999511719</ele>
        <time>2015-07-22T11:17:08.000Z</time>
      </trkpt>
      <trkpt lat="46.57558" lon="6.11612">
        <ele>1305.5999755859</ele>
        <time>2015-07-22T11:17:09.000Z</time>
      </trkpt>
      <trkpt lat="46.57552" lon="6.11617">
        <ele>1305.1999511719</ele>
        <time>2015-07-22T11:17:10.000Z</time>
      </trkpt>
      <trkpt lat="46.57546" lon="6.11625">
        <ele>1304.5999755859</ele>
        <time>2015-07-22T11:17:11.000Z</time>
      </trkpt>
      <trkpt lat="46.57542" lon="6.11634">
        <ele>1304</ele>
        <time>2015-07-22T11:17:12.000Z</time>
      </trkpt>
      <trkpt lat="46.57537" lon="6.11644">
        <ele>1303.5999755859</ele>
        <time>2015-07-22T11:17:13.000Z</time>
      </trkpt>
      <trkpt lat="46.57531" lon="6.11655">
        <ele>1303</ele>
        <time>2015-07-22T11:17:14.000Z</time>
      </trkpt>
      <trkpt lat="46.57524" lon="6.11667">
        <ele>1302.1999511719</ele>
        <time>2015-07-22T11:17:15.000Z</time>
      </trkpt>
      <trkpt lat="46.57519" lon="6.11679">
        <ele>1301.5999755859</ele>
        <time>2015-07-22T11:17:16.000Z</time>
      </trkpt>
      <trkpt lat="46.57514" lon="6.11689">
        <ele>1301</ele>
        <time>2015-07-22T11:17:17.000Z</time>
      </trkpt>
      <trkpt lat="46.57508" lon="6.117">
        <ele>1300.1999511719</ele>
        <time>2015-07-22T11:17:18.000Z</time>
      </trkpt>
      <trkpt lat="46.57505" lon="6.11709">
        <ele>1299.5999755859</ele>
        <time>2015-07-22T11:17:19.000Z</time>
      </trkpt>
      <trkpt lat="46.575" lon="6.11717">
        <ele>1299</ele>
        <time>2015-07-22T11:17:20.000Z</time>
      </trkpt>
      <trkpt lat="46.57496" lon="6.11725">
        <ele>1298.1999511719</ele>
        <time>2015-07-22T11:17:21.000Z</time>
      </trkpt>
      <trkpt lat="46.57491" lon="6.1173">
        <ele>1297.5999755859</ele>
        <time>2015-07-22T11:17:22.000Z</time>
      </trkpt>
      <trkpt lat="46.57485" lon="6.11734">
        <ele>1296.8000488281</ele>
        <time>2015-07-22T11:17:23.000Z</time>
      </trkpt>
      <trkpt lat="46.5748" lon="6.11737">
        <ele>1296.1999511719</ele>
        <time>2015-07-22T11:17:24.000Z</time>
      </trkpt>
      <trkpt lat="46.57474" lon="6.11739">
        <ele>1295.4000244141</ele>
        <time>2015-07-22T11:17:25.000Z</time>
      </trkpt>
      <trkpt lat="46.57466" lon="6.11742">
        <ele>1294.5999755859</ele>
        <time>2015-07-22T11:17:26.000Z</time>
      </trkpt>
      <trkpt lat="46.5746" lon="6.11745">
        <ele>1294</ele>
        <time>2015-07-22T11:17:27.000Z</time>
      </trkpt>
      <trkpt lat="46.57456" lon="6.11748">
        <ele>1293.1999511719</ele>
        <time>2015-07-22T11:17:28.000Z</time>
      </trkpt>
      <trkpt lat="46.57449" lon="6.11753">
        <ele>1292.4000244141</ele>
        <time>2015-07-22T11:17:29.000Z</time>
      </trkpt>
      <trkpt lat="46.5743" lon="6.11764">
        <ele>1292</ele>
        <time>2015-07-22T11:17:32.000Z</time>
      </trkpt>
      <trkpt lat="46.57424" lon="6.11768">
        <ele>1291.5999755859</ele>
        <time>2015-07-22T11:17:33.000Z</time>
      </trkpt>
      <trkpt lat="46.57419" lon="6.11772">
        <ele>1291.1999511719</ele>
        <time>2015-07-22T11:17:34.000Z</time>
      </trkpt>
      <trkpt lat="46.57413" lon="6.11776">
        <ele>1290.4000244141</ele>
        <time>2015-07-22T11:17:35.000Z</time>
      </trkpt>
      <trkpt lat="46.57406" lon="6.11782">
        <ele>1289.8000488281</ele>
        <time>2015-07-22T11:17:36.000Z</time>
      </trkpt>
      <trkpt lat="46.57399" lon="6.11786">
        <ele>1289</ele>
        <time>2015-07-22T11:17:37.000Z</time>
      </trkpt>
      <trkpt lat="46.57393" lon="6.11787">
        <ele>1288.1999511719</ele>
        <time>2015-07-22T11:17:38.000Z</time>
      </trkpt>
      <trkpt lat="46.57387" lon="6.11786">
        <ele>1287.5999755859</ele>
        <time>2015-07-22T11:17:39.000Z</time>
      </trkpt>
      <trkpt lat="46.57381" lon="6.11783">
        <ele>1286.8000488281</ele>
        <time>2015-07-22T11:17:40.000Z</time>
      </trkpt>
      <trkpt lat="46.57375" lon="6.1178">
        <ele>1286</ele>
        <time>2015-07-22T11:17:41.000Z</time>
      </trkpt>
      <trkpt lat="46.57371" lon="6.11775">
        <ele>1286</ele>
        <time>2015-07-22T11:17:42.000Z</time>
      </trkpt>
      <trkpt lat="46.57368" lon="6.11769">
        <ele>1285.4000244141</ele>
        <time>2015-07-22T11:17:43.000Z</time>
      </trkpt>
      <trkpt lat="46.57365" lon="6.11764">
        <ele>1285</ele>
        <time>2015-07-22T11:17:44.000Z</time>
      </trkpt>
      <trkpt lat="46.57363" lon="6.11758">
        <ele>1284.4000244141</ele>
        <time>2015-07-22T11:17:45.000Z</time>
      </trkpt>
      <trkpt lat="46.57363" lon="6.11752">
        <ele>1283.8000488281</ele>
        <time>2015-07-22T11:17:46.000Z</time>
      </trkpt>
      <trkpt lat="46.57361" lon="6.11746">
        <ele>1283.1999511719</ele>
        <time>2015-07-22T11:17:47.000Z</time>
      </trkpt>
      <trkpt lat="46.57358" lon="6.11739">
        <ele>1282.4000244141</ele>
        <time>2015-07-22T11:17:48.000Z</time>
      </trkpt>
      <trkpt lat="46.57352" lon="6.11732">
        <ele>1281.8000488281</ele>
        <time>2015-07-22T11:17:49.000Z</time>
      </trkpt>
      <trkpt lat="46.57349" lon="6.11727">
        <ele>1281</ele>
        <time>2015-07-22T11:17:50.000Z</time>
      </trkpt>
      <trkpt lat="46.57344" lon="6.11722">
        <ele>1280.5999755859</ele>
        <time>2015-07-22T11:17:51.000Z</time>
      </trkpt>
      <trkpt lat="46.57338" lon="6.11719">
        <ele>1280.1999511719</ele>
        <time>2015-07-22T11:17:52.000Z</time>
      </trkpt>
      <trkpt lat="46.57333" lon="6.11718">
        <ele>1279.5999755859</ele>
        <time>2015-07-22T11:17:53.000Z</time>
      </trkpt>
      <trkpt lat="46.57329" lon="6.11718">
        <ele>1279.1999511719</ele>
        <time>2015-07-22T11:17:54.000Z</time>
      </trkpt>
      <trkpt lat="46.57325" lon="6.11719">
        <ele>1278.8000488281</ele>
        <time>2015-07-22T11:17:55.000Z</time>
      </trkpt>
      <trkpt lat="46.57317" lon="6.11721">
        <ele>1278.4000244141</ele>
        <time>2015-07-22T11:17:57.000Z</time>
      </trkpt>
      <trkpt lat="46.57314" lon="6.1172">
        <ele>1278</ele>
        <time>2015-07-22T11:17:58.000Z</time>
      </trkpt>
      <trkpt lat="46.57312" lon="6.1172">
        <ele>1277.5999755859</ele>
        <time>2015-07-22T11:17:59.000Z</time>
      </trkpt>
      <trkpt lat="46.57311" lon="6.11719">
        <ele>1277</ele>
        <time>2015-07-22T11:18:00.000Z</time>
      </trkpt>
      <trkpt lat="46.57309" lon="6.11718">
        <ele>1276.5999755859</ele>
        <time>2015-07-22T11:18:01.000Z</time>
      </trkpt>
      <trkpt lat="46.57309" lon="6.11714">
        <ele>1276.5999755859</ele>
        <time>2015-07-22T11:18:03.000Z</time>
      </trkpt>
      <trkpt lat="46.57309" lon="6.11712">
        <ele>1276.5999755859</ele>
        <time>2015-07-22T11:18:04.000Z</time>
      </trkpt>
      <trkpt lat="46.57309" lon="6.11697">
        <ele>1277.1999511719</ele>
        <time>2015-07-22T11:18:11.000Z</time>
      </trkpt>
      <trkpt lat="46.5731" lon="6.11695">
        <ele>1277.5999755859</ele>
        <time>2015-07-22T11:18:12.000Z</time>
      </trkpt>
      <trkpt lat="46.57309" lon="6.11692">
        <ele>1278</ele>
        <time>2015-07-22T11:18:13.000Z</time>
      </trkpt>
      <trkpt lat="46.5731" lon="6.1169">
        <ele>1278.4000244141</ele>
        <time>2015-07-22T11:18:14.000Z</time>
      </trkpt>
      <trkpt lat="46.5731" lon="6.11688">
        <ele>1279</ele>
        <time>2015-07-22T11:18:15.000Z</time>
      </trkpt>
      <trkpt lat="46.57312" lon="6.11677">
        <ele>1279</ele>
        <time>2015-07-22T11:18:20.000Z</time>
      </trkpt>
      <trkpt lat="46.57315" lon="6.11667">
        <ele>1279.4000244141</ele>
        <time>2015-07-22T11:18:25.000Z</time>
      </trkpt>
      <trkpt lat="46.57316" lon="6.11666">
        <ele>1279.8000488281</ele>
        <time>2015-07-22T11:18:26.000Z</time>
      </trkpt>
      <trkpt lat="46.57317" lon="6.11665">
        <ele>1280.1999511719</ele>
        <time>2015-07-22T11:18:27.000Z</time>
      </trkpt>
      <trkpt lat="46.57318" lon="6.11664">
        <ele>1280.5999755859</ele>
        <time>2015-07-22T11:18:28.000Z</time>
      </trkpt>
      <trkpt lat="46.57319" lon="6.11663">
        <ele>1281</ele>
        <time>2015-07-22T11:18:29.000Z</time>
      </trkpt>
      <trkpt lat="46.57321" lon="6.11663">
        <ele>1281</ele>
        <time>2015-07-22T11:18:30.000Z</time>
      </trkpt>
      <trkpt lat="46.57326" lon="6.1166">
        <ele>1281</ele>
        <time>2015-07-22T11:18:33.000Z</time>
      </trkpt>
      <trkpt lat="46.57344" lon="6.11647">
        <ele>1281</ele>
        <time>2015-07-22T11:18:40.000Z</time>
      </trkpt>
      <trkpt lat="46.57364" lon="6.11628">
        <ele>1281</ele>
        <time>2015-07-22T11:18:44.000Z</time>
      </trkpt>
      <trkpt lat="46.57378" lon="6.11612">
        <ele>1281</ele>
        <time>2015-07-22T11:18:47.000Z</time>
      </trkpt>
      <trkpt lat="46.57381" lon="6.11606">
        <ele>1280.5999755859</ele>
        <time>2015-07-22T11:18:48.000Z</time>
      </trkpt>
      <trkpt lat="46.57385" lon="6.11599">
        <ele>1280.1999511719</ele>
        <time>2015-07-22T11:18:49.000Z</time>
      </trkpt>
      <trkpt lat="46.57388" lon="6.11594">
        <ele>1279.8000488281</ele>
        <time>2015-07-22T11:18:50.000Z</time>
      </trkpt>
      <trkpt lat="46.57392" lon="6.11589">
        <ele>1279.4000244141</ele>
        <time>2015-07-22T11:18:51.000Z</time>
      </trkpt>
      <trkpt lat="46.57395" lon="6.11584">
        <ele>1279</ele>
        <time>2015-07-22T11:18:52.000Z</time>
      </trkpt>
      <trkpt lat="46.57396" lon="6.11568">
        <ele>1279</ele>
        <time>2015-07-22T11:18:55.000Z</time>
      </trkpt>
      <trkpt lat="46.57403" lon="6.11552">
        <ele>1279.4000244141</ele>
        <time>2015-07-22T11:19:00.000Z</time>
      </trkpt>
      <trkpt lat="46.57405" lon="6.1155">
        <ele>1279.8000488281</ele>
        <time>2015-07-22T11:19:01.000Z</time>
      </trkpt>
      <trkpt lat="46.57407" lon="6.11548">
        <ele>1280.1999511719</ele>
        <time>2015-07-22T11:19:02.000Z</time>
      </trkpt>
      <trkpt lat="46.57409" lon="6.11546">
        <ele>1280.5999755859</ele>
        <time>2015-07-22T11:19:03.000Z</time>
      </trkpt>
      <trkpt lat="46.57411" lon="6.11544">
        <ele>1281</ele>
        <time>2015-07-22T11:19:04.000Z</time>
      </trkpt>
      <trkpt lat="46.57416" lon="6.11539">
        <ele>1281</ele>
        <time>2015-07-22T11:19:08.000Z</time>
      </trkpt>
      <trkpt lat="46.57428" lon="6.11518">
        <ele>1281</ele>
        <time>2015-07-22T11:19:14.000Z</time>
      </trkpt>
      <trkpt lat="46.57443" lon="6.11495">
        <ele>1281</ele>
        <time>2015-07-22T11:19:20.000Z</time>
      </trkpt>
      <trkpt lat="46.57461" lon="6.11473">
        <ele>1281</ele>
        <time>2015-07-22T11:19:26.000Z</time>
      </trkpt>
      <trkpt lat="46.57474" lon="6.11447">
        <ele>1281</ele>
        <time>2015-07-22T11:19:32.000Z</time>
      </trkpt>
      <trkpt lat="46.57475" lon="6.11443">
        <ele>1281</ele>
        <time>2015-07-22T11:19:33.000Z</time>
      </trkpt>
      <trkpt lat="46.57477" lon="6.11436">
        <ele>1281.4000244141</ele>
        <time>2015-07-22T11:19:35.000Z</time>
      </trkpt>
      <trkpt lat="46.57478" lon="6.11432">
        <ele>1282</ele>
        <time>2015-07-22T11:19:36.000Z</time>
      </trkpt>
      <trkpt lat="46.57479" lon="6.1143">
        <ele>1282.4000244141</ele>
        <time>2015-07-22T11:19:37.000Z</time>
      </trkpt>
      <trkpt lat="46.5748" lon="6.11427">
        <ele>1282.8000488281</ele>
        <time>2015-07-22T11:19:38.000Z</time>
      </trkpt>
      <trkpt lat="46.5748" lon="6.11425">
        <ele>1283.4000244141</ele>
        <time>2015-07-22T11:19:39.000Z</time>
      </trkpt>
      <trkpt lat="46.5748" lon="6.11423">
        <ele>1283.8000488281</ele>
        <time>2015-07-22T11:19:40.000Z</time>
      </trkpt>
      <trkpt lat="46.57481" lon="6.11421">
        <ele>1284.1999511719</ele>
        <time>2015-07-22T11:19:41.000Z</time>
      </trkpt>
      <trkpt lat="46.5748" lon="6.11418">
        <ele>1284.8000488281</ele>
        <time>2015-07-22T11:19:42.000Z</time>
      </trkpt>
      <trkpt lat="46.57479" lon="6.11415">
        <ele>1285.1999511719</ele>
        <time>2015-07-22T11:19:43.000Z</time>
      </trkpt>
      <trkpt lat="46.57481" lon="6.11399">
        <ele>1285.1999511719</ele>
        <time>2015-07-22T11:19:50.000Z</time>
      </trkpt>
      <trkpt lat="46.57484" lon="6.11392">
        <ele>1285.8000488281</ele>
        <time>2015-07-22T11:19:53.000Z</time>
      </trkpt>
      <trkpt lat="46.57485" lon="6.1139">
        <ele>1286.1999511719</ele>
        <time>2015-07-22T11:19:54.000Z</time>
      </trkpt>
      <trkpt lat="46.57485" lon="6.11388">
        <ele>1286.5999755859</ele>
        <time>2015-07-22T11:19:55.000Z</time>
      </trkpt>
      <trkpt lat="46.57485" lon="6.11385">
        <ele>1287</ele>
        <time>2015-07-22T11:19:56.000Z</time>
      </trkpt>
      <trkpt lat="46.57486" lon="6.11383">
        <ele>1287.4000244141</ele>
        <time>2015-07-22T11:19:57.000Z</time>
      </trkpt>
      <trkpt lat="46.57486" lon="6.11379">
        <ele>1287.4000244141</ele>
        <time>2015-07-22T11:19:59.000Z</time>
      </trkpt>
      <trkpt lat="46.57488" lon="6.11367">
        <ele>1287.4000244141</ele>
        <time>2015-07-22T11:20:05.000Z</time>
      </trkpt>
      <trkpt lat="46.57496" lon="6.1135">
        <ele>1287.4000244141</ele>
        <time>2015-07-22T11:20:13.000Z</time>
      </trkpt>
      <trkpt lat="46.5751" lon="6.11334">
        <ele>1287.4000244141</ele>
        <time>2015-07-22T11:20:20.000Z</time>
      </trkpt>
      <trkpt lat="46.57529" lon="6.11309">
        <ele>1287</ele>
        <time>2015-07-22T11:20:26.000Z</time>
      </trkpt>
      <trkpt lat="46.57532" lon="6.11303">
        <ele>1286.4000244141</ele>
        <time>2015-07-22T11:20:27.000Z</time>
      </trkpt>
      <trkpt lat="46.57533" lon="6.11297">
        <ele>1286</ele>
        <time>2015-07-22T11:20:28.000Z</time>
      </trkpt>
      <trkpt lat="46.57535" lon="6.11291">
        <ele>1285.4000244141</ele>
        <time>2015-07-22T11:20:29.000Z</time>
      </trkpt>
      <trkpt lat="46.57535" lon="6.11286">
        <ele>1285</ele>
        <time>2015-07-22T11:20:30.000Z</time>
      </trkpt>
      <trkpt lat="46.57536" lon="6.11284">
        <ele>1285</ele>
        <time>2015-07-22T11:20:31.000Z</time>
      </trkpt>
      <trkpt lat="46.57541" lon="6.11272">
        <ele>1285</ele>
        <time>2015-07-22T11:20:35.000Z</time>
      </trkpt>
      <trkpt lat="46.57548" lon="6.11256">
        <ele>1285</ele>
        <time>2015-07-22T11:20:42.000Z</time>
      </trkpt>
      <trkpt lat="46.57545" lon="6.11241">
        <ele>1285.4000244141</ele>
        <time>2015-07-22T11:20:48.000Z</time>
      </trkpt>
      <trkpt lat="46.57544" lon="6.11237">
        <ele>1285.4000244141</ele>
        <time>2015-07-22T11:20:49.000Z</time>
      </trkpt>
      <trkpt lat="46.57544" lon="6.11234">
        <ele>1286.1999511719</ele>
        <time>2015-07-22T11:20:50.000Z</time>
      </trkpt>
      <trkpt lat="46.57544" lon="6.11232">
        <ele>1286.5999755859</ele>
        <time>2015-07-22T11:20:51.000Z</time>
      </trkpt>
      <trkpt lat="46.57545" lon="6.1123">
        <ele>1287</ele>
        <time>2015-07-22T11:20:52.000Z</time>
      </trkpt>
      <trkpt lat="46.57548" lon="6.11223">
        <ele>1287</ele>
        <time>2015-07-22T11:20:56.000Z</time>
      </trkpt>
      <trkpt lat="46.57552" lon="6.11209">
        <ele>1287</ele>
        <time>2015-07-22T11:21:04.000Z</time>
      </trkpt>
      <trkpt lat="46.57553" lon="6.11207">
        <ele>1288</ele>
        <time>2015-07-22T11:21:05.000Z</time>
      </trkpt>
      <trkpt lat="46.57554" lon="6.11207">
        <ele>1288.4000244141</ele>
        <time>2015-07-22T11:21:06.000Z</time>
      </trkpt>
      <trkpt lat="46.57555" lon="6.11206">
        <ele>1288.8000488281</ele>
        <time>2015-07-22T11:21:07.000Z</time>
      </trkpt>
      <trkpt lat="46.57556" lon="6.11204">
        <ele>1289.1999511719</ele>
        <time>2015-07-22T11:21:09.000Z</time>
      </trkpt>
      <trkpt lat="46.57557" lon="6.11203">
        <ele>1289.1999511719</ele>
        <time>2015-07-22T11:21:14.000Z</time>
      </trkpt>
      <trkpt lat="46.57557" lon="6.11202">
        <ele>1289.1999511719</ele>
        <time>2015-07-22T11:24:09.000Z</time>
      </trkpt>
      <trkpt lat="46.57557" lon="6.11202">
        <ele>1289.5999755859</ele>
        <time>2015-07-22T11:24:15.000Z</time>
      </trkpt>
      <trkpt lat="46.57557" lon="6.11202">
        <ele>1290</ele>
        <time>2015-07-22T11:24:18.000Z</time>
      </trkpt>
      <trkpt lat="46.57557" lon="6.11202">
        <ele>1290.4000244141</ele>
        <time>2015-07-22T11:24:20.000Z</time>
      </trkpt>
      <trkpt lat="46.57557" lon="6.11202">
        <ele>1291</ele>
        <time>2015-07-22T11:24:23.000Z</time>
      </trkpt>
      <trkpt lat="46.57557" lon="6.11202">
        <ele>1291.4000244141</ele>
        <time>2015-07-22T11:24:26.000Z</time>
      </trkpt>
      <trkpt lat="46.57557" lon="6.11202">
        <ele>1292</ele>
        <time>2015-07-22T11:24:28.000Z</time>
      </trkpt>
      <trkpt lat="46.57557" lon="6.11202">
        <ele>1292.4000244141</ele>
        <time>2015-07-22T11:24:31.000Z</time>
      </trkpt>
      <trkpt lat="46.57557" lon="6.11202">
        <ele>1293</ele>
        <time>2015-07-22T11:24:34.000Z</time>
      </trkpt>
      <trkpt lat="46.57557" lon="6.11202">
        <ele>1293.5999755859</ele>
        <time>2015-07-22T11:24:36.000Z</time>
      </trkpt>
      <trkpt lat="46.57559" lon="6.11197">
        <ele>1294.5999755859</ele>
        <time>2015-07-22T11:25:15.000Z</time>
      </trkpt>
      <trkpt lat="46.5756" lon="6.11194">
        <ele>1294.4000244141</ele>
        <time>2015-07-22T11:25:17.000Z</time>
      </trkpt>
      <trkpt lat="46.57565" lon="6.11185">
        <ele>1294.4000244141</ele>
        <time>2015-07-22T11:25:24.000Z</time>
      </trkpt>
      <trkpt lat="46.57569" lon="6.11174">
        <ele>1294.8000488281</ele>
        <time>2015-07-22T11:25:29.000Z</time>
      </trkpt>
      <trkpt lat="46.5757" lon="6.11171">
        <ele>1295.1999511719</ele>
        <time>2015-07-22T11:25:31.000Z</time>
      </trkpt>
      <trkpt lat="46.57571" lon="6.11167">
        <ele>1295.8000488281</ele>
        <time>2015-07-22T11:25:33.000Z</time>
      </trkpt>
      <trkpt lat="46.57572" lon="6.11163">
        <ele>1296.1999511719</ele>
        <time>2015-07-22T11:25:35.000Z</time>
      </trkpt>
      <trkpt lat="46.57574" lon="6.1116">
        <ele>1296.5999755859</ele>
        <time>2015-07-22T11:25:37.000Z</time>
      </trkpt>
      <trkpt lat="46.57589" lon="6.11144">
        <ele>1297</ele>
        <time>2015-07-22T11:25:45.000Z</time>
      </trkpt>
      <trkpt lat="46.5759" lon="6.11143">
        <ele>1297</ele>
        <time>2015-07-22T11:25:46.000Z</time>
      </trkpt>
      <trkpt lat="46.57591" lon="6.11142">
        <ele>1297.5999755859</ele>
        <time>2015-07-22T11:25:47.000Z</time>
      </trkpt>
      <trkpt lat="46.57593" lon="6.11139">
        <ele>1298</ele>
        <time>2015-07-22T11:25:49.000Z</time>
      </trkpt>
      <trkpt lat="46.57594" lon="6.11136">
        <ele>1298.4000244141</ele>
        <time>2015-07-22T11:25:51.000Z</time>
      </trkpt>
      <trkpt lat="46.57596" lon="6.11133">
        <ele>1298.8000488281</ele>
        <time>2015-07-22T11:25:53.000Z</time>
      </trkpt>
      <trkpt lat="46.57598" lon="6.1113">
        <ele>1298.8000488281</ele>
        <time>2015-07-22T11:25:58.000Z</time>
      </trkpt>
      <trkpt lat="46.57598" lon="6.1113">
        <ele>1299.1999511719</ele>
        <time>2015-07-22T11:25:59.000Z</time>
      </trkpt>
      <trkpt lat="46.57599" lon="6.11129">
        <ele>1299.5999755859</ele>
        <time>2015-07-22T11:26:01.000Z</time>
      </trkpt>
      <trkpt lat="46.57599" lon="6.11129">
        <ele>1300</ele>
        <time>2015-07-22T11:26:03.000Z</time>
      </trkpt>
      <trkpt lat="46.576" lon="6.11128">
        <ele>1300.4000244141</ele>
        <time>2015-07-22T11:26:05.000Z</time>
      </trkpt>
      <trkpt lat="46.57601" lon="6.11127">
        <ele>1301</ele>
        <time>2015-07-22T11:26:07.000Z</time>
      </trkpt>
      <trkpt lat="46.57604" lon="6.11122">
        <ele>1301.8000488281</ele>
        <time>2015-07-22T11:26:14.000Z</time>
      </trkpt>
      <trkpt lat="46.57605" lon="6.1112">
        <ele>1302.1999511719</ele>
        <time>2015-07-22T11:26:16.000Z</time>
      </trkpt>
      <trkpt lat="46.57606" lon="6.11119">
        <ele>1302.8000488281</ele>
        <time>2015-07-22T11:26:18.000Z</time>
      </trkpt>
      <trkpt lat="46.57608" lon="6.11116">
        <ele>1303.1999511719</ele>
        <time>2015-07-22T11:26:20.000Z</time>
      </trkpt>
      <trkpt lat="46.5761" lon="6.11109">
        <ele>1303.1999511719</ele>
        <time>2015-07-22T11:26:27.000Z</time>
      </trkpt>
      <trkpt lat="46.57611" lon="6.11108">
        <ele>1303.5999755859</ele>
        <time>2015-07-22T11:26:30.000Z</time>
      </trkpt>
      <trkpt lat="46.57611" lon="6.11107">
        <ele>1304</ele>
        <time>2015-07-22T11:26:32.000Z</time>
      </trkpt>
      <trkpt lat="46.57613" lon="6.11105">
        <ele>1304.4000244141</ele>
        <time>2015-07-22T11:26:34.000Z</time>
      </trkpt>
      <trkpt lat="46.57614" lon="6.11104">
        <ele>1304.8000488281</ele>
        <time>2015-07-22T11:26:36.000Z</time>
      </trkpt>
      <trkpt lat="46.57614" lon="6.11103">
        <ele>1304.8000488281</ele>
        <time>2015-07-22T11:26:37.000Z</time>
      </trkpt>
      <trkpt lat="46.57615" lon="6.11103">
        <ele>1305.1999511719</ele>
        <time>2015-07-22T11:26:38.000Z</time>
      </trkpt>
      <trkpt lat="46.57619" lon="6.11098">
        <ele>1305.8000488281</ele>
        <time>2015-07-22T11:26:46.000Z</time>
      </trkpt>
      <trkpt lat="46.5762" lon="6.11096">
        <ele>1306.1999511719</ele>
        <time>2015-07-22T11:26:48.000Z</time>
      </trkpt>
      <trkpt lat="46.57621" lon="6.11094">
        <ele>1306.5999755859</ele>
        <time>2015-07-22T11:26:50.000Z</time>
      </trkpt>
      <trkpt lat="46.57621" lon="6.11092">
        <ele>1307</ele>
        <time>2015-07-22T11:26:52.000Z</time>
      </trkpt>
      <trkpt lat="46.57621" lon="6.11091">
        <ele>1307</ele>
        <time>2015-07-22T11:26:53.000Z</time>
      </trkpt>
      <trkpt lat="46.57621" lon="6.11089">
        <ele>1307.5999755859</ele>
        <time>2015-07-22T11:26:54.000Z</time>
      </trkpt>
      <trkpt lat="46.57625" lon="6.11082">
        <ele>1308</ele>
        <time>2015-07-22T11:27:00.000Z</time>
      </trkpt>
      <trkpt lat="46.57626" lon="6.11081">
        <ele>1308.4000244141</ele>
        <time>2015-07-22T11:27:02.000Z</time>
      </trkpt>
      <trkpt lat="46.57627" lon="6.1108">
        <ele>1308.8000488281</ele>
        <time>2015-07-22T11:27:04.000Z</time>
      </trkpt>
      <trkpt lat="46.57627" lon="6.11079">
        <ele>1308.8000488281</ele>
        <time>2015-07-22T11:27:05.000Z</time>
      </trkpt>
      <trkpt lat="46.57627" lon="6.11079">
        <ele>1309.1999511719</ele>
        <time>2015-07-22T11:27:06.000Z</time>
      </trkpt>
      <trkpt lat="46.57628" lon="6.11077">
        <ele>1309.5999755859</ele>
        <time>2015-07-22T11:27:08.000Z</time>
      </trkpt>
      <trkpt lat="46.57635" lon="6.11069">
        <ele>1310</ele>
        <time>2015-07-22T11:27:20.000Z</time>
      </trkpt>
      <trkpt lat="46.57635" lon="6.11068">
        <ele>1310</ele>
        <time>2015-07-22T11:27:21.000Z</time>
      </trkpt>
      <trkpt lat="46.57636" lon="6.11068">
        <ele>1310.5999755859</ele>
        <time>2015-07-22T11:27:22.000Z</time>
      </trkpt>
      <trkpt lat="46.57637" lon="6.11067">
        <ele>1311</ele>
        <time>2015-07-22T11:27:24.000Z</time>
      </trkpt>
      <trkpt lat="46.57638" lon="6.11065">
        <ele>1311.4000244141</ele>
        <time>2015-07-22T11:27:26.000Z</time>
      </trkpt>
      <trkpt lat="46.5764" lon="6.11064">
        <ele>1311.8000488281</ele>
        <time>2015-07-22T11:27:28.000Z</time>
      </trkpt>
      <trkpt lat="46.57642" lon="6.1106">
        <ele>1311.8000488281</ele>
        <time>2015-07-22T11:27:32.000Z</time>
      </trkpt>
      <trkpt lat="46.57647" lon="6.11052">
        <ele>1311.8000488281</ele>
        <time>2015-07-22T11:27:43.000Z</time>
      </trkpt>
      <trkpt lat="46.57648" lon="6.11053">
        <ele>1311.8000488281</ele>
        <time>2015-07-22T11:29:21.000Z</time>
      </trkpt>
      <trkpt lat="46.57634" lon="6.1104">
        <ele>1311.8000488281</ele>
        <time>2015-07-22T11:30:34.000Z</time>
      </trkpt>
      <trkpt lat="46.57632" lon="6.11034">
        <ele>1311</ele>
        <time>2015-07-22T11:30:35.000Z</time>
      </trkpt>
      <trkpt lat="46.57632" lon="6.11024">
        <ele>1310</ele>
        <time>2015-07-22T11:30:37.000Z</time>
      </trkpt>
      <trkpt lat="46.57633" lon="6.1102">
        <ele>1310</ele>
        <time>2015-07-22T11:30:38.000Z</time>
      </trkpt>
      <trkpt lat="46.57632" lon="6.11017">
        <ele>1309.4000244141</ele>
        <time>2015-07-22T11:30:39.000Z</time>
      </trkpt>
      <trkpt lat="46.57631" lon="6.11016">
        <ele>1309.4000244141</ele>
        <time>2015-07-22T11:30:40.000Z</time>
      </trkpt>
      <trkpt lat="46.5763" lon="6.11015">
        <ele>1308.5999755859</ele>
        <time>2015-07-22T11:30:41.000Z</time>
      </trkpt>
      <trkpt lat="46.57629" lon="6.11014">
        <ele>1308.5999755859</ele>
        <time>2015-07-22T11:30:42.000Z</time>
      </trkpt>
      <trkpt lat="46.57629" lon="6.11013">
        <ele>1307.5999755859</ele>
        <time>2015-07-22T11:30:43.000Z</time>
      </trkpt>
      <trkpt lat="46.57628" lon="6.11012">
        <ele>1307</ele>
        <time>2015-07-22T11:30:45.000Z</time>
      </trkpt>
      <trkpt lat="46.5763" lon="6.11002">
        <ele>1307</ele>
        <time>2015-07-22T11:30:56.000Z</time>
      </trkpt>
      <trkpt lat="46.5763" lon="6.11001">
        <ele>1306.5999755859</ele>
        <time>2015-07-22T11:30:57.000Z</time>
      </trkpt>
      <trkpt lat="46.57631" lon="6.10999">
        <ele>1305.8000488281</ele>
        <time>2015-07-22T11:30:59.000Z</time>
      </trkpt>
      <trkpt lat="46.57632" lon="6.10996">
        <ele>1305</ele>
        <time>2015-07-22T11:31:01.000Z</time>
      </trkpt>
      <trkpt lat="46.57629" lon="6.10993">
        <ele>1305</ele>
        <time>2015-07-22T11:31:06.000Z</time>
      </trkpt>
      <trkpt lat="46.57627" lon="6.10991">
        <ele>1304.1999511719</ele>
        <time>2015-07-22T11:31:15.000Z</time>
      </trkpt>
      <trkpt lat="46.57627" lon="6.10991">
        <ele>1303.4000244141</ele>
        <time>2015-07-22T11:31:17.000Z</time>
      </trkpt>
      <trkpt lat="46.57627" lon="6.1099">
        <ele>1303</ele>
        <time>2015-07-22T11:31:19.000Z</time>
      </trkpt>
      <trkpt lat="46.57617" lon="6.1099">
        <ele>1302.4000244141</ele>
        <time>2015-07-22T11:31:25.000Z</time>
      </trkpt>
      <trkpt lat="46.57613" lon="6.10993">
        <ele>1301.4000244141</ele>
        <time>2015-07-22T11:31:27.000Z</time>
      </trkpt>
      <trkpt lat="46.5761" lon="6.10993">
        <ele>1300.5999755859</ele>
        <time>2015-07-22T11:31:29.000Z</time>
      </trkpt>
      <trkpt lat="46.57605" lon="6.10991">
        <ele>1300.5999755859</ele>
        <time>2015-07-22T11:31:31.000Z</time>
      </trkpt>
      <trkpt lat="46.57602" lon="6.10988">
        <ele>1300.5999755859</ele>
        <time>2015-07-22T11:31:33.000Z</time>
      </trkpt>
      <trkpt lat="46.57601" lon="6.10984">
        <ele>1300.5999755859</ele>
        <time>2015-07-22T11:31:35.000Z</time>
      </trkpt>
      <trkpt lat="46.57592" lon="6.10972">
        <ele>1300.5999755859</ele>
        <time>2015-07-22T11:31:41.000Z</time>
      </trkpt>
      <trkpt lat="46.57589" lon="6.10968">
        <ele>1300.5999755859</ele>
        <time>2015-07-22T11:31:45.000Z</time>
      </trkpt>
      <trkpt lat="46.5758" lon="6.10959">
        <ele>1300.5999755859</ele>
        <time>2015-07-22T11:31:55.000Z</time>
      </trkpt>
      <trkpt lat="46.57565" lon="6.10952">
        <ele>1300.5999755859</ele>
        <time>2015-07-22T11:32:06.000Z</time>
      </trkpt>
      <trkpt lat="46.57563" lon="6.10953">
        <ele>1300.5999755859</ele>
        <time>2015-07-22T11:32:14.000Z</time>
      </trkpt>
      <trkpt lat="46.5756" lon="6.10952">
        <ele>1300.5999755859</ele>
        <time>2015-07-22T11:32:21.000Z</time>
      </trkpt>
      <trkpt lat="46.57553" lon="6.10949">
        <ele>1300.5999755859</ele>
        <time>2015-07-22T11:32:30.000Z</time>
      </trkpt>
      <trkpt lat="46.57549" lon="6.10929">
        <ele>1300.5999755859</ele>
        <time>2015-07-22T11:32:35.000Z</time>
      </trkpt>
      <trkpt lat="46.57543" lon="6.10911">
        <ele>1300.5999755859</ele>
        <time>2015-07-22T11:32:40.000Z</time>
      </trkpt>
      <trkpt lat="46.5753" lon="6.10897">
        <ele>1300.5999755859</ele>
        <time>2015-07-22T11:32:46.000Z</time>
      </trkpt>
      <trkpt lat="46.57516" lon="6.10879">
        <ele>1300.5999755859</ele>
        <time>2015-07-22T11:32:53.000Z</time>
      </trkpt>
      <trkpt lat="46.57511" lon="6.10869">
        <ele>1299.5999755859</ele>
        <time>2015-07-22T11:32:56.000Z</time>
      </trkpt>
      <trkpt lat="46.57503" lon="6.10863">
        <ele>1298.5999755859</ele>
        <time>2015-07-22T11:32:58.000Z</time>
      </trkpt>
      <trkpt lat="46.57499" lon="6.10862">
        <ele>1298.5999755859</ele>
        <time>2015-07-22T11:32:59.000Z</time>
      </trkpt>
      <trkpt lat="46.57496" lon="6.10862">
        <ele>1298.1999511719</ele>
        <time>2015-07-22T11:33:00.000Z</time>
      </trkpt>
      <trkpt lat="46.57484" lon="6.10855">
        <ele>1298.1999511719</ele>
        <time>2015-07-22T11:33:05.000Z</time>
      </trkpt>
      <trkpt lat="46.57452" lon="6.10837">
        <ele>1298.1999511719</ele>
        <time>2015-07-22T11:33:11.000Z</time>
      </trkpt>
      <trkpt lat="46.57437" lon="6.10827">
        <ele>1297.8000488281</ele>
        <time>2015-07-22T11:33:14.000Z</time>
      </trkpt>
      <trkpt lat="46.57433" lon="6.10824">
        <ele>1297.8000488281</ele>
        <time>2015-07-22T11:33:15.000Z</time>
      </trkpt>
      <trkpt lat="46.5743" lon="6.10821">
        <ele>1296.8000488281</ele>
        <time>2015-07-22T11:33:16.000Z</time>
      </trkpt>
      <trkpt lat="46.57427" lon="6.10814">
        <ele>1296</ele>
        <time>2015-07-22T11:33:18.000Z</time>
      </trkpt>
      <trkpt lat="46.57425" lon="6.1081">
        <ele>1296</ele>
        <time>2015-07-22T11:33:19.000Z</time>
      </trkpt>
      <trkpt lat="46.57413" lon="6.10787">
        <ele>1296</ele>
        <time>2015-07-22T11:33:25.000Z</time>
      </trkpt>
      <trkpt lat="46.57408" lon="6.10782">
        <ele>1294.8000488281</ele>
        <time>2015-07-22T11:33:26.000Z</time>
      </trkpt>
      <trkpt lat="46.574" lon="6.10772">
        <ele>1293</ele>
        <time>2015-07-22T11:33:28.000Z</time>
      </trkpt>
      <trkpt lat="46.57395" lon="6.10768">
        <ele>1293</ele>
        <time>2015-07-22T11:33:29.000Z</time>
      </trkpt>
      <trkpt lat="46.57391" lon="6.10769">
        <ele>1291.8000488281</ele>
        <time>2015-07-22T11:33:30.000Z</time>
      </trkpt>
      <trkpt lat="46.57381" lon="6.10768">
        <ele>1289.5999755859</ele>
        <time>2015-07-22T11:33:32.000Z</time>
      </trkpt>
      <trkpt lat="46.57372" lon="6.10767">
        <ele>1287.4000244141</ele>
        <time>2015-07-22T11:33:34.000Z</time>
      </trkpt>
      <trkpt lat="46.57367" lon="6.10765">
        <ele>1287.4000244141</ele>
        <time>2015-07-22T11:33:35.000Z</time>
      </trkpt>
      <trkpt lat="46.57363" lon="6.10761">
        <ele>1287</ele>
        <time>2015-07-22T11:33:36.000Z</time>
      </trkpt>
      <trkpt lat="46.57355" lon="6.10755">
        <ele>1286.1999511719</ele>
        <time>2015-07-22T11:33:38.000Z</time>
      </trkpt>
      <trkpt lat="46.5735" lon="6.10753">
        <ele>1286.1999511719</ele>
        <time>2015-07-22T11:33:39.000Z</time>
      </trkpt>
      <trkpt lat="46.57347" lon="6.10751">
        <ele>1285.4000244141</ele>
        <time>2015-07-22T11:33:40.000Z</time>
      </trkpt>
      <trkpt lat="46.57336" lon="6.10741">
        <ele>1284.4000244141</ele>
        <time>2015-07-22T11:33:44.000Z</time>
      </trkpt>
      <trkpt lat="46.57336" lon="6.1073">
        <ele>1283.5999755859</ele>
        <time>2015-07-22T11:33:46.000Z</time>
      </trkpt>
      <trkpt lat="46.57337" lon="6.10722">
        <ele>1283</ele>
        <time>2015-07-22T11:33:48.000Z</time>
      </trkpt>
      <trkpt lat="46.57338" lon="6.10716">
        <ele>1283</ele>
        <time>2015-07-22T11:33:49.000Z</time>
      </trkpt>
      <trkpt lat="46.57339" lon="6.10712">
        <ele>1282.5999755859</ele>
        <time>2015-07-22T11:33:50.000Z</time>
      </trkpt>
      <trkpt lat="46.57341" lon="6.107">
        <ele>1281.8000488281</ele>
        <time>2015-07-22T11:33:52.000Z</time>
      </trkpt>
      <trkpt lat="46.57347" lon="6.10692">
        <ele>1281.8000488281</ele>
        <time>2015-07-22T11:33:53.000Z</time>
      </trkpt>
      <trkpt lat="46.5735" lon="6.10685">
        <ele>1280.8000488281</ele>
        <time>2015-07-22T11:33:54.000Z</time>
      </trkpt>
      <trkpt lat="46.57351" lon="6.1068">
        <ele>1280.1999511719</ele>
        <time>2015-07-22T11:33:55.000Z</time>
      </trkpt>
      <trkpt lat="46.57354" lon="6.10673">
        <ele>1279.5999755859</ele>
        <time>2015-07-22T11:33:56.000Z</time>
      </trkpt>
      <trkpt lat="46.57355" lon="6.10668">
        <ele>1279</ele>
        <time>2015-07-22T11:33:57.000Z</time>
      </trkpt>
      <trkpt lat="46.57356" lon="6.10664">
        <ele>1278.5999755859</ele>
        <time>2015-07-22T11:33:58.000Z</time>
      </trkpt>
      <trkpt lat="46.57355" lon="6.10659">
        <ele>1278.5999755859</ele>
        <time>2015-07-22T11:34:01.000Z</time>
      </trkpt>
      <trkpt lat="46.57355" lon="6.10656">
        <ele>1278</ele>
        <time>2015-07-22T11:34:09.000Z</time>
      </trkpt>
      <trkpt lat="46.57355" lon="6.10656">
        <ele>1277.5999755859</ele>
        <time>2015-07-22T11:34:10.000Z</time>
      </trkpt>
      <trkpt lat="46.57355" lon="6.10656">
        <ele>1277.1999511719</ele>
        <time>2015-07-22T11:34:11.000Z</time>
      </trkpt>
      <trkpt lat="46.57355" lon="6.10656">
        <ele>1276.8000488281</ele>
        <time>2015-07-22T11:34:12.000Z</time>
      </trkpt>
      <trkpt lat="46.57355" lon="6.10656">
        <ele>1276.4000244141</ele>
        <time>2015-07-22T11:34:13.000Z</time>
      </trkpt>
      <trkpt lat="46.57355" lon="6.10655">
        <ele>1276.4000244141</ele>
        <time>2015-07-22T11:34:25.000Z</time>
      </trkpt>
      <trkpt lat="46.5735" lon="6.10635">
        <ele>1276.8000488281</ele>
        <time>2015-07-22T11:34:44.000Z</time>
      </trkpt>
      <trkpt lat="46.57351" lon="6.10634">
        <ele>1277.1999511719</ele>
        <time>2015-07-22T11:34:45.000Z</time>
      </trkpt>
      <trkpt lat="46.57352" lon="6.10633">
        <ele>1277.5999755859</ele>
        <time>2015-07-22T11:34:46.000Z</time>
      </trkpt>
      <trkpt lat="46.57353" lon="6.10631">
        <ele>1278.4000244141</ele>
        <time>2015-07-22T11:34:48.000Z</time>
      </trkpt>
      <trkpt lat="46.57356" lon="6.10622">
        <ele>1278.4000244141</ele>
        <time>2015-07-22T11:34:55.000Z</time>
      </trkpt>
      <trkpt lat="46.57353" lon="6.10615">
        <ele>1278.4000244141</ele>
        <time>2015-07-22T11:35:03.000Z</time>
      </trkpt>
      <trkpt lat="46.57353" lon="6.10606">
        <ele>1278.8000488281</ele>
        <time>2015-07-22T11:35:10.000Z</time>
      </trkpt>
      <trkpt lat="46.57353" lon="6.10605">
        <ele>1279.1999511719</ele>
        <time>2015-07-22T11:35:11.000Z</time>
      </trkpt>
      <trkpt lat="46.57353" lon="6.10604">
        <ele>1279.5999755859</ele>
        <time>2015-07-22T11:35:12.000Z</time>
      </trkpt>
      <trkpt lat="46.57352" lon="6.10603">
        <ele>1280</ele>
        <time>2015-07-22T11:35:13.000Z</time>
      </trkpt>
      <trkpt lat="46.57351" lon="6.10601">
        <ele>1280.4000244141</ele>
        <time>2015-07-22T11:35:14.000Z</time>
      </trkpt>
      <trkpt lat="46.57348" lon="6.10594">
        <ele>1280.4000244141</ele>
        <time>2015-07-22T11:35:23.000Z</time>
      </trkpt>
      <trkpt lat="46.57348" lon="6.10589">
        <ele>1281</ele>
        <time>2015-07-22T11:35:26.000Z</time>
      </trkpt>
      <trkpt lat="46.57348" lon="6.10588">
        <ele>1281.4000244141</ele>
        <time>2015-07-22T11:35:27.000Z</time>
      </trkpt>
      <trkpt lat="46.57348" lon="6.10587">
        <ele>1281.8000488281</ele>
        <time>2015-07-22T11:35:28.000Z</time>
      </trkpt>
      <trkpt lat="46.57347" lon="6.10586">
        <ele>1282.4000244141</ele>
        <time>2015-07-22T11:35:29.000Z</time>
      </trkpt>
      <trkpt lat="46.57346" lon="6.10585">
        <ele>1282.8000488281</ele>
        <time>2015-07-22T11:35:30.000Z</time>
      </trkpt>
      <trkpt lat="46.57346" lon="6.10582">
        <ele>1282.8000488281</ele>
        <time>2015-07-22T11:35:34.000Z</time>
      </trkpt>
      <trkpt lat="46.57348" lon="6.1057">
        <ele>1282.8000488281</ele>
        <time>2015-07-22T11:35:46.000Z</time>
      </trkpt>
      <trkpt lat="46.57349" lon="6.1056">
        <ele>1282.8000488281</ele>
        <time>2015-07-22T11:35:56.000Z</time>
      </trkpt>
      <trkpt lat="46.57347" lon="6.10558">
        <ele>1283.1999511719</ele>
        <time>2015-07-22T11:36:00.000Z</time>
      </trkpt>
      <trkpt lat="46.57346" lon="6.10557">
        <ele>1283.8000488281</ele>
        <time>2015-07-22T11:36:01.000Z</time>
      </trkpt>
      <trkpt lat="46.57345" lon="6.10555">
        <ele>1284.1999511719</ele>
        <time>2015-07-22T11:36:02.000Z</time>
      </trkpt>
      <trkpt lat="46.57345" lon="6.10554">
        <ele>1284.5999755859</ele>
        <time>2015-07-22T11:36:03.000Z</time>
      </trkpt>
      <trkpt lat="46.57345" lon="6.10553">
        <ele>1285</ele>
        <time>2015-07-22T11:36:04.000Z</time>
      </trkpt>
      <trkpt lat="46.57343" lon="6.10548">
        <ele>1285</ele>
        <time>2015-07-22T11:36:07.000Z</time>
      </trkpt>
      <trkpt lat="46.57336" lon="6.10542">
        <ele>1285</ele>
        <time>2015-07-22T11:36:16.000Z</time>
      </trkpt>
      <trkpt lat="46.57336" lon="6.10539">
        <ele>1285.5999755859</ele>
        <time>2015-07-22T11:36:19.000Z</time>
      </trkpt>
      <trkpt lat="46.57336" lon="6.10538">
        <ele>1286</ele>
        <time>2015-07-22T11:36:20.000Z</time>
      </trkpt>
      <trkpt lat="46.57336" lon="6.10537">
        <ele>1286.4000244141</ele>
        <time>2015-07-22T11:36:21.000Z</time>
      </trkpt>
      <trkpt lat="46.57336" lon="6.10536">
        <ele>1286.8000488281</ele>
        <time>2015-07-22T11:36:22.000Z</time>
      </trkpt>
      <trkpt lat="46.57335" lon="6.10534">
        <ele>1287.1999511719</ele>
        <time>2015-07-22T11:36:23.000Z</time>
      </trkpt>
      <trkpt lat="46.57333" lon="6.10531">
        <ele>1287.1999511719</ele>
        <time>2015-07-22T11:36:27.000Z</time>
      </trkpt>
      <trkpt lat="46.57328" lon="6.10523">
        <ele>1287.5999755859</ele>
        <time>2015-07-22T11:36:34.000Z</time>
      </trkpt>
      <trkpt lat="46.57327" lon="6.10523">
        <ele>1288</ele>
        <time>2015-07-22T11:36:35.000Z</time>
      </trkpt>
      <trkpt lat="46.57327" lon="6.10522">
        <ele>1288.4000244141</ele>
        <time>2015-07-22T11:36:36.000Z</time>
      </trkpt>
      <trkpt lat="46.57326" lon="6.10521">
        <ele>1289</ele>
        <time>2015-07-22T11:36:37.000Z</time>
      </trkpt>
      <trkpt lat="46.57325" lon="6.1052">
        <ele>1289.4000244141</ele>
        <time>2015-07-22T11:36:38.000Z</time>
      </trkpt>
      <trkpt lat="46.57322" lon="6.10518">
        <ele>1289.4000244141</ele>
        <time>2015-07-22T11:36:41.000Z</time>
      </trkpt>
      <trkpt lat="46.57315" lon="6.10506">
        <ele>1289.4000244141</ele>
        <time>2015-07-22T11:36:50.000Z</time>
      </trkpt>
      <trkpt lat="46.57305" lon="6.10477">
        <ele>1289.4000244141</ele>
        <time>2015-07-22T11:37:00.000Z</time>
      </trkpt>
      <trkpt lat="46.57304" lon="6.10459">
        <ele>1289.4000244141</ele>
        <time>2015-07-22T11:37:07.000Z</time>
      </trkpt>
      <trkpt lat="46.57301" lon="6.10447">
        <ele>1289.4000244141</ele>
        <time>2015-07-22T11:37:12.000Z</time>
      </trkpt>
      <trkpt lat="46.57298" lon="6.10438">
        <ele>1289.4000244141</ele>
        <time>2015-07-22T11:37:17.000Z</time>
      </trkpt>
      <trkpt lat="46.57296" lon="6.10427">
        <ele>1289.4000244141</ele>
        <time>2015-07-22T11:37:37.000Z</time>
      </trkpt>
      <trkpt lat="46.573" lon="6.10423">
        <ele>1289.4000244141</ele>
        <time>2015-07-22T11:37:44.000Z</time>
      </trkpt>
      <trkpt lat="46.57306" lon="6.10413">
        <ele>1289.4000244141</ele>
        <time>2015-07-22T11:37:55.000Z</time>
      </trkpt>
      <trkpt lat="46.57309" lon="6.10403">
        <ele>1289.4000244141</ele>
        <time>2015-07-22T11:38:04.000Z</time>
      </trkpt>
      <trkpt lat="46.57305" lon="6.10413">
        <ele>1289.4000244141</ele>
        <time>2015-07-22T11:40:10.000Z</time>
      </trkpt>
      <trkpt lat="46.57299" lon="6.10419">
        <ele>1289.4000244141</ele>
        <time>2015-07-22T11:40:21.000Z</time>
      </trkpt>
      <trkpt lat="46.57297" lon="6.10418">
        <ele>1289.4000244141</ele>
        <time>2015-07-22T11:40:24.000Z</time>
      </trkpt>
      <trkpt lat="46.57294" lon="6.10415">
        <ele>1289.4000244141</ele>
        <time>2015-07-22T11:40:28.000Z</time>
      </trkpt>
      <trkpt lat="46.57288" lon="6.10411">
        <ele>1288.8000488281</ele>
        <time>2015-07-22T11:40:35.000Z</time>
      </trkpt>
      <trkpt lat="46.57284" lon="6.1041">
        <ele>1288.4000244141</ele>
        <time>2015-07-22T11:40:36.000Z</time>
      </trkpt>
      <trkpt lat="46.57281" lon="6.10408">
        <ele>1287.8000488281</ele>
        <time>2015-07-22T11:40:37.000Z</time>
      </trkpt>
      <trkpt lat="46.57278" lon="6.10408">
        <ele>1287.1999511719</ele>
        <time>2015-07-22T11:40:38.000Z</time>
      </trkpt>
      <trkpt lat="46.57276" lon="6.10407">
        <ele>1286.4000244141</ele>
        <time>2015-07-22T11:40:39.000Z</time>
      </trkpt>
      <trkpt lat="46.57275" lon="6.10406">
        <ele>1285.8000488281</ele>
        <time>2015-07-22T11:40:40.000Z</time>
      </trkpt>
      <trkpt lat="46.57273" lon="6.10407">
        <ele>1285.1999511719</ele>
        <time>2015-07-22T11:40:41.000Z</time>
      </trkpt>
      <trkpt lat="46.57271" lon="6.10406">
        <ele>1284.4000244141</ele>
        <time>2015-07-22T11:40:42.000Z</time>
      </trkpt>
      <trkpt lat="46.57265" lon="6.10404">
        <ele>1284</ele>
        <time>2015-07-22T11:40:44.000Z</time>
      </trkpt>
      <trkpt lat="46.57263" lon="6.10405">
        <ele>1283.5999755859</ele>
        <time>2015-07-22T11:40:45.000Z</time>
      </trkpt>
      <trkpt lat="46.5726" lon="6.10405">
        <ele>1283</ele>
        <time>2015-07-22T11:40:46.000Z</time>
      </trkpt>
      <trkpt lat="46.57261" lon="6.10404">
        <ele>1282.5999755859</ele>
        <time>2015-07-22T11:40:47.000Z</time>
      </trkpt>
      <trkpt lat="46.57259" lon="6.10405">
        <ele>1282.1999511719</ele>
        <time>2015-07-22T11:40:48.000Z</time>
      </trkpt>
      <trkpt lat="46.5724" lon="6.10399">
        <ele>1282.1999511719</ele>
        <time>2015-07-22T11:40:59.000Z</time>
      </trkpt>
      <trkpt lat="46.57224" lon="6.10391">
        <ele>1281.8000488281</ele>
        <time>2015-07-22T11:41:03.000Z</time>
      </trkpt>
      <trkpt lat="46.57219" lon="6.10389">
        <ele>1281.1999511719</ele>
        <time>2015-07-22T11:41:04.000Z</time>
      </trkpt>
      <trkpt lat="46.57216" lon="6.10389">
        <ele>1280.8000488281</ele>
        <time>2015-07-22T11:41:05.000Z</time>
      </trkpt>
      <trkpt lat="46.57215" lon="6.10388">
        <ele>1280.4000244141</ele>
        <time>2015-07-22T11:41:06.000Z</time>
      </trkpt>
      <trkpt lat="46.57214" lon="6.10386">
        <ele>1280</ele>
        <time>2015-07-22T11:41:07.000Z</time>
      </trkpt>
      <trkpt lat="46.57213" lon="6.10385">
        <ele>1279.5999755859</ele>
        <time>2015-07-22T11:41:08.000Z</time>
      </trkpt>
      <trkpt lat="46.57202" lon="6.10382">
        <ele>1279</ele>
        <time>2015-07-22T11:41:09.000Z</time>
      </trkpt>
      <trkpt lat="46.57193" lon="6.1038">
        <ele>1278.5999755859</ele>
        <time>2015-07-22T11:41:10.000Z</time>
      </trkpt>
      <trkpt lat="46.57185" lon="6.10379">
        <ele>1278.1999511719</ele>
        <time>2015-07-22T11:41:11.000Z</time>
      </trkpt>
      <trkpt lat="46.57177" lon="6.10377">
        <ele>1277.8000488281</ele>
        <time>2015-07-22T11:41:12.000Z</time>
      </trkpt>
      <trkpt lat="46.57172" lon="6.10376">
        <ele>1277.4000244141</ele>
        <time>2015-07-22T11:41:13.000Z</time>
      </trkpt>
      <trkpt lat="46.57162" lon="6.10375">
        <ele>1277</ele>
        <time>2015-07-22T11:41:14.000Z</time>
      </trkpt>
      <trkpt lat="46.57157" lon="6.10374">
        <ele>1276.5999755859</ele>
        <time>2015-07-22T11:41:15.000Z</time>
      </trkpt>
      <trkpt lat="46.57152" lon="6.10373">
        <ele>1276</ele>
        <time>2015-07-22T11:41:16.000Z</time>
      </trkpt>
      <trkpt lat="46.57147" lon="6.1037">
        <ele>1275.4000244141</ele>
        <time>2015-07-22T11:41:17.000Z</time>
      </trkpt>
      <trkpt lat="46.57143" lon="6.10368">
        <ele>1274.8000488281</ele>
        <time>2015-07-22T11:41:18.000Z</time>
      </trkpt>
      <trkpt lat="46.57141" lon="6.10368">
        <ele>1274.1999511719</ele>
        <time>2015-07-22T11:41:19.000Z</time>
      </trkpt>
      <trkpt lat="46.57139" lon="6.10368">
        <ele>1273.5999755859</ele>
        <time>2015-07-22T11:41:20.000Z</time>
      </trkpt>
      <trkpt lat="46.57138" lon="6.10371">
        <ele>1273.5999755859</ele>
        <time>2015-07-22T11:41:22.000Z</time>
      </trkpt>
      <trkpt lat="46.57138" lon="6.10368">
        <ele>1273.5999755859</ele>
        <time>2015-07-22T11:41:27.000Z</time>
      </trkpt>
      <trkpt lat="46.57136" lon="6.10366">
        <ele>1274</ele>
        <time>2015-07-22T11:41:37.000Z</time>
      </trkpt>
      <trkpt lat="46.57136" lon="6.10366">
        <ele>1274.4000244141</ele>
        <time>2015-07-22T11:41:38.000Z</time>
      </trkpt>
      <trkpt lat="46.57136" lon="6.10366">
        <ele>1274.8000488281</ele>
        <time>2015-07-22T11:41:39.000Z</time>
      </trkpt>
      <trkpt lat="46.57136" lon="6.10366">
        <ele>1275.1999511719</ele>
        <time>2015-07-22T11:41:40.000Z</time>
      </trkpt>
      <trkpt lat="46.57136" lon="6.10366">
        <ele>1275.5999755859</ele>
        <time>2015-07-22T11:41:41.000Z</time>
      </trkpt>
      <trkpt lat="46.57135" lon="6.10366">
        <ele>1276</ele>
        <time>2015-07-22T11:41:50.000Z</time>
      </trkpt>
      <trkpt lat="46.57134" lon="6.10366">
        <ele>1276.4000244141</ele>
        <time>2015-07-22T11:41:51.000Z</time>
      </trkpt>
      <trkpt lat="46.57133" lon="6.10365">
        <ele>1277</ele>
        <time>2015-07-22T11:41:52.000Z</time>
      </trkpt>
      <trkpt lat="46.57132" lon="6.10364">
        <ele>1277.4000244141</ele>
        <time>2015-07-22T11:41:53.000Z</time>
      </trkpt>
      <trkpt lat="46.5712" lon="6.10357">
        <ele>1277.8000488281</ele>
        <time>2015-07-22T11:41:54.000Z</time>
      </trkpt>
      <trkpt lat="46.57101" lon="6.10349">
        <ele>1277.8000488281</ele>
        <time>2015-07-22T11:41:57.000Z</time>
      </trkpt>
      <trkpt lat="46.5709" lon="6.10353">
        <ele>1277.4000244141</ele>
        <time>2015-07-22T11:42:00.000Z</time>
      </trkpt>
      <trkpt lat="46.57089" lon="6.10355">
        <ele>1277</ele>
        <time>2015-07-22T11:42:01.000Z</time>
      </trkpt>
      <trkpt lat="46.57088" lon="6.10357">
        <ele>1276.5999755859</ele>
        <time>2015-07-22T11:42:02.000Z</time>
      </trkpt>
      <trkpt lat="46.57088" lon="6.10356">
        <ele>1276</ele>
        <time>2015-07-22T11:42:03.000Z</time>
      </trkpt>
      <trkpt lat="46.57088" lon="6.10356">
        <ele>1275.5999755859</ele>
        <time>2015-07-22T11:42:04.000Z</time>
      </trkpt>
      <trkpt lat="46.57086" lon="6.10357">
        <ele>1275.5999755859</ele>
        <time>2015-07-22T11:42:06.000Z</time>
      </trkpt>
      <trkpt lat="46.57078" lon="6.10363">
        <ele>1276</ele>
        <time>2015-07-22T11:42:14.000Z</time>
      </trkpt>
      <trkpt lat="46.57078" lon="6.10363">
        <ele>1276.4000244141</ele>
        <time>2015-07-22T11:42:15.000Z</time>
      </trkpt>
      <trkpt lat="46.57078" lon="6.10364">
        <ele>1277</ele>
        <time>2015-07-22T11:42:16.000Z</time>
      </trkpt>
      <trkpt lat="46.57077" lon="6.10364">
        <ele>1277.4000244141</ele>
        <time>2015-07-22T11:42:17.000Z</time>
      </trkpt>
      <trkpt lat="46.57076" lon="6.10364">
        <ele>1277.8000488281</ele>
        <time>2015-07-22T11:42:18.000Z</time>
      </trkpt>
      <trkpt lat="46.57075" lon="6.10364">
        <ele>1277.8000488281</ele>
        <time>2015-07-22T11:42:21.000Z</time>
      </trkpt>
      <trkpt lat="46.57074" lon="6.10358">
        <ele>1277.8000488281</ele>
        <time>2015-07-22T11:42:26.000Z</time>
      </trkpt>
      <trkpt lat="46.57073" lon="6.10357">
        <ele>1278.1999511719</ele>
        <time>2015-07-22T11:42:28.000Z</time>
      </trkpt>
      <trkpt lat="46.57073" lon="6.10355">
        <ele>1278.5999755859</ele>
        <time>2015-07-22T11:42:29.000Z</time>
      </trkpt>
      <trkpt lat="46.57073" lon="6.10354">
        <ele>1279.1999511719</ele>
        <time>2015-07-22T11:42:30.000Z</time>
      </trkpt>
      <trkpt lat="46.57073" lon="6.10353">
        <ele>1279.5999755859</ele>
        <time>2015-07-22T11:42:31.000Z</time>
      </trkpt>
      <trkpt lat="46.57072" lon="6.10351">
        <ele>1280</ele>
        <time>2015-07-22T11:42:32.000Z</time>
      </trkpt>
      <trkpt lat="46.5707" lon="6.10349">
        <ele>1280</ele>
        <time>2015-07-22T11:42:34.000Z</time>
      </trkpt>
      <trkpt lat="46.57068" lon="6.10342">
        <ele>1280.5999755859</ele>
        <time>2015-07-22T11:42:40.000Z</time>
      </trkpt>
      <trkpt lat="46.57068" lon="6.1034">
        <ele>1281</ele>
        <time>2015-07-22T11:42:41.000Z</time>
      </trkpt>
      <trkpt lat="46.57067" lon="6.10339">
        <ele>1281.4000244141</ele>
        <time>2015-07-22T11:42:42.000Z</time>
      </trkpt>
      <trkpt lat="46.57067" lon="6.10338">
        <ele>1281.8000488281</ele>
        <time>2015-07-22T11:42:43.000Z</time>
      </trkpt>
      <trkpt lat="46.57067" lon="6.10336">
        <ele>1282.1999511719</ele>
        <time>2015-07-22T11:42:44.000Z</time>
      </trkpt>
      <trkpt lat="46.57066" lon="6.10336">
        <ele>1282.1999511719</ele>
        <time>2015-07-22T11:42:45.000Z</time>
      </trkpt>
      <trkpt lat="46.57065" lon="6.10334">
        <ele>1282.1999511719</ele>
        <time>2015-07-22T11:42:48.000Z</time>
      </trkpt>
      <trkpt lat="46.57054" lon="6.10322">
        <ele>1282.1999511719</ele>
        <time>2015-07-22T11:42:56.000Z</time>
      </trkpt>
      <trkpt lat="46.57044" lon="6.10313">
        <ele>1282.1999511719</ele>
        <time>2015-07-22T11:43:02.000Z</time>
      </trkpt>
      <trkpt lat="46.57042" lon="6.10313">
        <ele>1282.1999511719</ele>
        <time>2015-07-22T11:43:03.000Z</time>
      </trkpt>
      <trkpt lat="46.5704" lon="6.1031">
        <ele>1282.5999755859</ele>
        <time>2015-07-22T11:43:05.000Z</time>
      </trkpt>
      <trkpt lat="46.57038" lon="6.10307">
        <ele>1283</ele>
        <time>2015-07-22T11:43:06.000Z</time>
      </trkpt>
      <trkpt lat="46.57036" lon="6.10305">
        <ele>1283.4000244141</ele>
        <time>2015-07-22T11:43:07.000Z</time>
      </trkpt>
      <trkpt lat="46.57034" lon="6.10303">
        <ele>1283.8000488281</ele>
        <time>2015-07-22T11:43:08.000Z</time>
      </trkpt>
      <trkpt lat="46.57033" lon="6.10301">
        <ele>1284.1999511719</ele>
        <time>2015-07-22T11:43:09.000Z</time>
      </trkpt>
      <trkpt lat="46.5702" lon="6.10294">
        <ele>1284.1999511719</ele>
        <time>2015-07-22T11:43:13.000Z</time>
      </trkpt>
      <trkpt lat="46.57003" lon="6.10285">
        <ele>1284.1999511719</ele>
        <time>2015-07-22T11:43:18.000Z</time>
      </trkpt>
      <trkpt lat="46.56983" lon="6.10271">
        <ele>1283.8000488281</ele>
        <time>2015-07-22T11:43:24.000Z</time>
      </trkpt>
      <trkpt lat="46.56978" lon="6.10268">
        <ele>1283.1999511719</ele>
        <time>2015-07-22T11:43:25.000Z</time>
      </trkpt>
      <trkpt lat="46.56972" lon="6.10268">
        <ele>1282.8000488281</ele>
        <time>2015-07-22T11:43:26.000Z</time>
      </trkpt>
      <trkpt lat="46.56965" lon="6.10265">
        <ele>1282.1999511719</ele>
        <time>2015-07-22T11:43:27.000Z</time>
      </trkpt>
      <trkpt lat="46.56959" lon="6.10262">
        <ele>1281.5999755859</ele>
        <time>2015-07-22T11:43:28.000Z</time>
      </trkpt>
      <trkpt lat="46.56954" lon="6.10258">
        <ele>1281</ele>
        <time>2015-07-22T11:43:29.000Z</time>
      </trkpt>
      <trkpt lat="46.56949" lon="6.10256">
        <ele>1280.1999511719</ele>
        <time>2015-07-22T11:43:30.000Z</time>
      </trkpt>
      <trkpt lat="46.56945" lon="6.10253">
        <ele>1279.5999755859</ele>
        <time>2015-07-22T11:43:31.000Z</time>
      </trkpt>
      <trkpt lat="46.56939" lon="6.10253">
        <ele>1278.8000488281</ele>
        <time>2015-07-22T11:43:32.000Z</time>
      </trkpt>
      <trkpt lat="46.56933" lon="6.10252">
        <ele>1278.1999511719</ele>
        <time>2015-07-22T11:43:33.000Z</time>
      </trkpt>
      <trkpt lat="46.56926" lon="6.1025">
        <ele>1277.4000244141</ele>
        <time>2015-07-22T11:43:34.000Z</time>
      </trkpt>
      <trkpt lat="46.56921" lon="6.10248">
        <ele>1276.5999755859</ele>
        <time>2015-07-22T11:43:35.000Z</time>
      </trkpt>
      <trkpt lat="46.56916" lon="6.10245">
        <ele>1276</ele>
        <time>2015-07-22T11:43:36.000Z</time>
      </trkpt>
      <trkpt lat="46.56914" lon="6.10241">
        <ele>1275.1999511719</ele>
        <time>2015-07-22T11:43:37.000Z</time>
      </trkpt>
      <trkpt lat="46.5691" lon="6.10235">
        <ele>1274.4000244141</ele>
        <time>2015-07-22T11:43:38.000Z</time>
      </trkpt>
      <trkpt lat="46.56904" lon="6.10223">
        <ele>1274.4000244141</ele>
        <time>2015-07-22T11:43:41.000Z</time>
      </trkpt>
      <trkpt lat="46.56899" lon="6.10211">
        <ele>1274.4000244141</ele>
        <time>2015-07-22T11:43:46.000Z</time>
      </trkpt>
      <trkpt lat="46.56892" lon="6.10189">
        <ele>1274.4000244141</ele>
        <time>2015-07-22T11:43:52.000Z</time>
      </trkpt>
      <trkpt lat="46.56886" lon="6.10165">
        <ele>1274.4000244141</ele>
        <time>2015-07-22T11:43:59.000Z</time>
      </trkpt>
      <trkpt lat="46.5687" lon="6.10153">
        <ele>1274.4000244141</ele>
        <time>2015-07-22T11:44:05.000Z</time>
      </trkpt>
      <trkpt lat="46.56867" lon="6.10151">
        <ele>1274.4000244141</ele>
        <time>2015-07-22T11:44:06.000Z</time>
      </trkpt>
      <trkpt lat="46.56848" lon="6.10127">
        <ele>1274.4000244141</ele>
        <time>2015-07-22T11:44:13.000Z</time>
      </trkpt>
      <trkpt lat="46.56833" lon="6.10107">
        <ele>1274.4000244141</ele>
        <time>2015-07-22T11:44:19.000Z</time>
      </trkpt>
      <trkpt lat="46.5683" lon="6.1009">
        <ele>1274.4000244141</ele>
        <time>2015-07-22T11:44:23.000Z</time>
      </trkpt>
      <trkpt lat="46.5683" lon="6.1009">
        <ele>1274.4000244141</ele>
        <time>2015-07-22T11:44:24.000Z</time>
      </trkpt>
      <trkpt lat="46.56828" lon="6.10072">
        <ele>1274.4000244141</ele>
        <time>2015-07-22T11:44:31.000Z</time>
      </trkpt>
      <trkpt lat="46.56817" lon="6.10053">
        <ele>1274.4000244141</ele>
        <time>2015-07-22T11:44:37.000Z</time>
      </trkpt>
      <trkpt lat="46.56808" lon="6.10045">
        <ele>1274.4000244141</ele>
        <time>2015-07-22T11:44:41.000Z</time>
      </trkpt>
      <trkpt lat="46.56806" lon="6.10044">
        <ele>1274.8000488281</ele>
        <time>2015-07-22T11:44:42.000Z</time>
      </trkpt>
      <trkpt lat="46.56804" lon="6.10043">
        <ele>1275.1999511719</ele>
        <time>2015-07-22T11:44:43.000Z</time>
      </trkpt>
      <trkpt lat="46.56799" lon="6.10039">
        <ele>1275.5999755859</ele>
        <time>2015-07-22T11:44:44.000Z</time>
      </trkpt>
      <trkpt lat="46.56795" lon="6.10037">
        <ele>1276</ele>
        <time>2015-07-22T11:44:45.000Z</time>
      </trkpt>
      <trkpt lat="46.56788" lon="6.10031">
        <ele>1276.4000244141</ele>
        <time>2015-07-22T11:44:46.000Z</time>
      </trkpt>
      <trkpt lat="46.56781" lon="6.10026">
        <ele>1276</ele>
        <time>2015-07-22T11:44:47.000Z</time>
      </trkpt>
      <trkpt lat="46.56778" lon="6.10025">
        <ele>1275.4000244141</ele>
        <time>2015-07-22T11:44:48.000Z</time>
      </trkpt>
      <trkpt lat="46.56777" lon="6.10023">
        <ele>1275</ele>
        <time>2015-07-22T11:44:49.000Z</time>
      </trkpt>
      <trkpt lat="46.56775" lon="6.10022">
        <ele>1274.5999755859</ele>
        <time>2015-07-22T11:44:50.000Z</time>
      </trkpt>
      <trkpt lat="46.56771" lon="6.10021">
        <ele>1274.1999511719</ele>
        <time>2015-07-22T11:44:51.000Z</time>
      </trkpt>
      <trkpt lat="46.56762" lon="6.10016">
        <ele>1274.1999511719</ele>
        <time>2015-07-22T11:44:54.000Z</time>
      </trkpt>
      <trkpt lat="46.56754" lon="6.10012">
        <ele>1273.8000488281</ele>
        <time>2015-07-22T11:44:56.000Z</time>
      </trkpt>
      <trkpt lat="46.56751" lon="6.1001">
        <ele>1273.4000244141</ele>
        <time>2015-07-22T11:44:57.000Z</time>
      </trkpt>
      <trkpt lat="46.56747" lon="6.10009">
        <ele>1273</ele>
        <time>2015-07-22T11:44:58.000Z</time>
      </trkpt>
      <trkpt lat="46.56742" lon="6.10008">
        <ele>1272.5999755859</ele>
        <time>2015-07-22T11:44:59.000Z</time>
      </trkpt>
      <trkpt lat="46.5674" lon="6.10007">
        <ele>1272.1999511719</ele>
        <time>2015-07-22T11:45:00.000Z</time>
      </trkpt>
      <trkpt lat="46.56733" lon="6.10001">
        <ele>1271.5999755859</ele>
        <time>2015-07-22T11:45:04.000Z</time>
      </trkpt>
      <trkpt lat="46.56729" lon="6.1">
        <ele>1271.1999511719</ele>
        <time>2015-07-22T11:45:05.000Z</time>
      </trkpt>
      <trkpt lat="46.56723" lon="6.09999">
        <ele>1270.5999755859</ele>
        <time>2015-07-22T11:45:06.000Z</time>
      </trkpt>
      <trkpt lat="46.56719" lon="6.09997">
        <ele>1270.1999511719</ele>
        <time>2015-07-22T11:45:07.000Z</time>
      </trkpt>
      <trkpt lat="46.56712" lon="6.09993">
        <ele>1269.5999755859</ele>
        <time>2015-07-22T11:45:09.000Z</time>
      </trkpt>
      <trkpt lat="46.5671" lon="6.09992">
        <ele>1269.1999511719</ele>
        <time>2015-07-22T11:45:10.000Z</time>
      </trkpt>
      <trkpt lat="46.56708" lon="6.09991">
        <ele>1268.5999755859</ele>
        <time>2015-07-22T11:45:11.000Z</time>
      </trkpt>
      <trkpt lat="46.56707" lon="6.0999">
        <ele>1268.1999511719</ele>
        <time>2015-07-22T11:45:12.000Z</time>
      </trkpt>
      <trkpt lat="46.56706" lon="6.0999">
        <ele>1267.5999755859</ele>
        <time>2015-07-22T11:45:13.000Z</time>
      </trkpt>
      <trkpt lat="46.56704" lon="6.0999">
        <ele>1267.5999755859</ele>
        <time>2015-07-22T11:45:14.000Z</time>
      </trkpt>
      <trkpt lat="46.56688" lon="6.09989">
        <ele>1267.5999755859</ele>
        <time>2015-07-22T11:45:23.000Z</time>
      </trkpt>
      <trkpt lat="46.56686" lon="6.0999">
        <ele>1268</ele>
        <time>2015-07-22T11:45:24.000Z</time>
      </trkpt>
      <trkpt lat="46.56686" lon="6.0999">
        <ele>1268.5999755859</ele>
        <time>2015-07-22T11:45:25.000Z</time>
      </trkpt>
      <trkpt lat="46.56685" lon="6.09991">
        <ele>1269</ele>
        <time>2015-07-22T11:45:26.000Z</time>
      </trkpt>
      <trkpt lat="46.56681" lon="6.09995">
        <ele>1269.4000244141</ele>
        <time>2015-07-22T11:45:27.000Z</time>
      </trkpt>
      <trkpt lat="46.56678" lon="6.09998">
        <ele>1269.8000488281</ele>
        <time>2015-07-22T11:45:28.000Z</time>
      </trkpt>
      <trkpt lat="46.56671" lon="6.1001">
        <ele>1269.8000488281</ele>
        <time>2015-07-22T11:45:34.000Z</time>
      </trkpt>
      <trkpt lat="46.56669" lon="6.10019">
        <ele>1270.4000244141</ele>
        <time>2015-07-22T11:45:38.000Z</time>
      </trkpt>
      <trkpt lat="46.56669" lon="6.10021">
        <ele>1270.8000488281</ele>
        <time>2015-07-22T11:45:39.000Z</time>
      </trkpt>
      <trkpt lat="46.56669" lon="6.10024">
        <ele>1271.1999511719</ele>
        <time>2015-07-22T11:45:40.000Z</time>
      </trkpt>
      <trkpt lat="46.56668" lon="6.10026">
        <ele>1271.5999755859</ele>
        <time>2015-07-22T11:45:41.000Z</time>
      </trkpt>
      <trkpt lat="46.56666" lon="6.10031">
        <ele>1272</ele>
        <time>2015-07-22T11:45:42.000Z</time>
      </trkpt>
      <trkpt lat="46.56662" lon="6.10045">
        <ele>1272.4000244141</ele>
        <time>2015-07-22T11:45:47.000Z</time>
      </trkpt>
      <trkpt lat="46.56661" lon="6.10048">
        <ele>1272.8000488281</ele>
        <time>2015-07-22T11:45:48.000Z</time>
      </trkpt>
      <trkpt lat="46.5666" lon="6.10051">
        <ele>1273.1999511719</ele>
        <time>2015-07-22T11:45:49.000Z</time>
      </trkpt>
      <trkpt lat="46.56658" lon="6.10055">
        <ele>1273.5999755859</ele>
        <time>2015-07-22T11:45:50.000Z</time>
      </trkpt>
      <trkpt lat="46.56657" lon="6.10058">
        <ele>1274</ele>
        <time>2015-07-22T11:45:51.000Z</time>
      </trkpt>
      <trkpt lat="46.56657" lon="6.10068">
        <ele>1274.4000244141</ele>
        <time>2015-07-22T11:45:56.000Z</time>
      </trkpt>
      <trkpt lat="46.56657" lon="6.10069">
        <ele>1274.8000488281</ele>
        <time>2015-07-22T11:45:57.000Z</time>
      </trkpt>
      <trkpt lat="46.56657" lon="6.10071">
        <ele>1275.4000244141</ele>
        <time>2015-07-22T11:45:58.000Z</time>
      </trkpt>
      <trkpt lat="46.56657" lon="6.10073">
        <ele>1275.8000488281</ele>
        <time>2015-07-22T11:45:59.000Z</time>
      </trkpt>
      <trkpt lat="46.56657" lon="6.10075">
        <ele>1276.1999511719</ele>
        <time>2015-07-22T11:46:00.000Z</time>
      </trkpt>
      <trkpt lat="46.56657" lon="6.10076">
        <ele>1276.1999511719</ele>
        <time>2015-07-22T11:46:04.000Z</time>
      </trkpt>
      <trkpt lat="46.56661" lon="6.10085">
        <ele>1276.5999755859</ele>
        <time>2015-07-22T11:46:11.000Z</time>
      </trkpt>
      <trkpt lat="46.56661" lon="6.10087">
        <ele>1277</ele>
        <time>2015-07-22T11:46:12.000Z</time>
      </trkpt>
      <trkpt lat="46.5666" lon="6.10088">
        <ele>1277.4000244141</ele>
        <time>2015-07-22T11:46:13.000Z</time>
      </trkpt>
      <trkpt lat="46.5666" lon="6.10089">
        <ele>1277.8000488281</ele>
        <time>2015-07-22T11:46:14.000Z</time>
      </trkpt>
      <trkpt lat="46.5666" lon="6.10089">
        <ele>1278.1999511719</ele>
        <time>2015-07-22T11:46:15.000Z</time>
      </trkpt>
      <trkpt lat="46.56655" lon="6.10097">
        <ele>1278.1999511719</ele>
        <time>2015-07-22T11:46:23.000Z</time>
      </trkpt>
      <trkpt lat="46.56655" lon="6.10098">
        <ele>1278.5999755859</ele>
        <time>2015-07-22T11:46:27.000Z</time>
      </trkpt>
      <trkpt lat="46.56655" lon="6.10098">
        <ele>1279</ele>
        <time>2015-07-22T11:46:28.000Z</time>
      </trkpt>
      <trkpt lat="46.56655" lon="6.10099">
        <ele>1279.4000244141</ele>
        <time>2015-07-22T11:46:29.000Z</time>
      </trkpt>
      <trkpt lat="46.56655" lon="6.10099">
        <ele>1279.8000488281</ele>
        <time>2015-07-22T11:46:30.000Z</time>
      </trkpt>
      <trkpt lat="46.56655" lon="6.101">
        <ele>1280.1999511719</ele>
        <time>2015-07-22T11:46:31.000Z</time>
      </trkpt>
      <trkpt lat="46.56649" lon="6.10107">
        <ele>1280.1999511719</ele>
        <time>2015-07-22T11:46:42.000Z</time>
      </trkpt>
      <trkpt lat="46.56647" lon="6.10108">
        <ele>1280.5999755859</ele>
        <time>2015-07-22T11:46:44.000Z</time>
      </trkpt>
      <trkpt lat="46.56646" lon="6.10109">
        <ele>1281</ele>
        <time>2015-07-22T11:46:45.000Z</time>
      </trkpt>
      <trkpt lat="46.56645" lon="6.10109">
        <ele>1281.4000244141</ele>
        <time>2015-07-22T11:46:46.000Z</time>
      </trkpt>
      <trkpt lat="46.56644" lon="6.1011">
        <ele>1281.8000488281</ele>
        <time>2015-07-22T11:46:47.000Z</time>
      </trkpt>
      <trkpt lat="46.56643" lon="6.1011">
        <ele>1282.4000244141</ele>
        <time>2015-07-22T11:46:48.000Z</time>
      </trkpt>
      <trkpt lat="46.56639" lon="6.10111">
        <ele>1282.4000244141</ele>
        <time>2015-07-22T11:46:53.000Z</time>
      </trkpt>
      <trkpt lat="46.56633" lon="6.10115">
        <ele>1282.8000488281</ele>
        <time>2015-07-22T11:46:58.000Z</time>
      </trkpt>
      <trkpt lat="46.56633" lon="6.10115">
        <ele>1283.1999511719</ele>
        <time>2015-07-22T11:46:59.000Z</time>
      </trkpt>
      <trkpt lat="46.56632" lon="6.10116">
        <ele>1283.5999755859</ele>
        <time>2015-07-22T11:47:00.000Z</time>
      </trkpt>
      <trkpt lat="46.56631" lon="6.10117">
        <ele>1284</ele>
        <time>2015-07-22T11:47:01.000Z</time>
      </trkpt>
      <trkpt lat="46.5663" lon="6.10117">
        <ele>1284.4000244141</ele>
        <time>2015-07-22T11:47:02.000Z</time>
      </trkpt>
      <trkpt lat="46.56626" lon="6.10117">
        <ele>1284.4000244141</ele>
        <time>2015-07-22T11:47:07.000Z</time>
      </trkpt>
      <trkpt lat="46.56623" lon="6.10113">
        <ele>1285</ele>
        <time>2015-07-22T11:47:12.000Z</time>
      </trkpt>
      <trkpt lat="46.56622" lon="6.10112">
        <ele>1285.4000244141</ele>
        <time>2015-07-22T11:47:13.000Z</time>
      </trkpt>
      <trkpt lat="46.56621" lon="6.1011">
        <ele>1285.8000488281</ele>
        <time>2015-07-22T11:47:14.000Z</time>
      </trkpt>
      <trkpt lat="46.56621" lon="6.1011">
        <ele>1286.4000244141</ele>
        <time>2015-07-22T11:47:15.000Z</time>
      </trkpt>
      <trkpt lat="46.5662" lon="6.10108">
        <ele>1286.8000488281</ele>
        <time>2015-07-22T11:47:16.000Z</time>
      </trkpt>
      <trkpt lat="46.5662" lon="6.10106">
        <ele>1286.8000488281</ele>
        <time>2015-07-22T11:47:18.000Z</time>
      </trkpt>
      <trkpt lat="46.56613" lon="6.10087">
        <ele>1286.8000488281</ele>
        <time>2015-07-22T11:47:31.000Z</time>
      </trkpt>
      <trkpt lat="46.56613" lon="6.10082">
        <ele>1287.1999511719</ele>
        <time>2015-07-22T11:47:36.000Z</time>
      </trkpt>
      <trkpt lat="46.56612" lon="6.10082">
        <ele>1287.5999755859</ele>
        <time>2015-07-22T11:47:37.000Z</time>
      </trkpt>
      <trkpt lat="46.56612" lon="6.10081">
        <ele>1288.1999511719</ele>
        <time>2015-07-22T11:47:38.000Z</time>
      </trkpt>
      <trkpt lat="46.56611" lon="6.1008">
        <ele>1288.5999755859</ele>
        <time>2015-07-22T11:47:39.000Z</time>
      </trkpt>
      <trkpt lat="46.56611" lon="6.10079">
        <ele>1289</ele>
        <time>2015-07-22T11:47:40.000Z</time>
      </trkpt>
      <trkpt lat="46.56611" lon="6.10078">
        <ele>1289</ele>
        <time>2015-07-22T11:47:41.000Z</time>
      </trkpt>
      <trkpt lat="46.5661" lon="6.10063">
        <ele>1289.4000244141</ele>
        <time>2015-07-22T11:47:53.000Z</time>
      </trkpt>
      <trkpt lat="46.56609" lon="6.10062">
        <ele>1289.8000488281</ele>
        <time>2015-07-22T11:47:54.000Z</time>
      </trkpt>
      <trkpt lat="46.56608" lon="6.10061">
        <ele>1290.1999511719</ele>
        <time>2015-07-22T11:47:55.000Z</time>
      </trkpt>
      <trkpt lat="46.56608" lon="6.1006">
        <ele>1290.5999755859</ele>
        <time>2015-07-22T11:47:56.000Z</time>
      </trkpt>
      <trkpt lat="46.56606" lon="6.10059">
        <ele>1291</ele>
        <time>2015-07-22T11:47:57.000Z</time>
      </trkpt>
      <trkpt lat="46.56599" lon="6.10053">
        <ele>1291</ele>
        <time>2015-07-22T11:48:05.000Z</time>
      </trkpt>
      <trkpt lat="46.56598" lon="6.10051">
        <ele>1291.5999755859</ele>
        <time>2015-07-22T11:48:07.000Z</time>
      </trkpt>
      <trkpt lat="46.56598" lon="6.1005">
        <ele>1292</ele>
        <time>2015-07-22T11:48:08.000Z</time>
      </trkpt>
      <trkpt lat="46.56597" lon="6.1005">
        <ele>1292.4000244141</ele>
        <time>2015-07-22T11:48:09.000Z</time>
      </trkpt>
      <trkpt lat="46.56596" lon="6.1005">
        <ele>1292.8000488281</ele>
        <time>2015-07-22T11:48:10.000Z</time>
      </trkpt>
      <trkpt lat="46.56595" lon="6.1005">
        <ele>1293.1999511719</ele>
        <time>2015-07-22T11:48:11.000Z</time>
      </trkpt>
      <trkpt lat="46.56591" lon="6.10049">
        <ele>1293.1999511719</ele>
        <time>2015-07-22T11:48:18.000Z</time>
      </trkpt>
      <trkpt lat="46.56583" lon="6.10051">
        <ele>1293.5999755859</ele>
        <time>2015-07-22T11:48:30.000Z</time>
      </trkpt>
      <trkpt lat="46.56582" lon="6.10051">
        <ele>1294</ele>
        <time>2015-07-22T11:48:31.000Z</time>
      </trkpt>
      <trkpt lat="46.56581" lon="6.10052">
        <ele>1294.4000244141</ele>
        <time>2015-07-22T11:48:32.000Z</time>
      </trkpt>
      <trkpt lat="46.5658" lon="6.10053">
        <ele>1294.8000488281</ele>
        <time>2015-07-22T11:48:33.000Z</time>
      </trkpt>
      <trkpt lat="46.56579" lon="6.10054">
        <ele>1295.1999511719</ele>
        <time>2015-07-22T11:48:34.000Z</time>
      </trkpt>
      <trkpt lat="46.56571" lon="6.10057">
        <ele>1295.1999511719</ele>
        <time>2015-07-22T11:48:44.000Z</time>
      </trkpt>
      <trkpt lat="46.56567" lon="6.1006">
        <ele>1295.5999755859</ele>
        <time>2015-07-22T11:48:46.000Z</time>
      </trkpt>
      <trkpt lat="46.56566" lon="6.1006">
        <ele>1296</ele>
        <time>2015-07-22T11:48:47.000Z</time>
      </trkpt>
      <trkpt lat="46.56565" lon="6.10061">
        <ele>1296.4000244141</ele>
        <time>2015-07-22T11:48:48.000Z</time>
      </trkpt>
      <trkpt lat="46.56564" lon="6.10061">
        <ele>1296.8000488281</ele>
        <time>2015-07-22T11:48:49.000Z</time>
      </trkpt>
      <trkpt lat="46.56564" lon="6.10062">
        <ele>1297.1999511719</ele>
        <time>2015-07-22T11:48:50.000Z</time>
      </trkpt>
      <trkpt lat="46.56562" lon="6.10062">
        <ele>1297.1999511719</ele>
        <time>2015-07-22T11:48:53.000Z</time>
      </trkpt>
      <trkpt lat="46.56552" lon="6.10072">
        <ele>1297.1999511719</ele>
        <time>2015-07-22T11:49:01.000Z</time>
      </trkpt>
      <trkpt lat="46.56535" lon="6.10078">
        <ele>1297.1999511719</ele>
        <time>2015-07-22T11:49:08.000Z</time>
      </trkpt>
      <trkpt lat="46.5653" lon="6.10082">
        <ele>1296.8000488281</ele>
        <time>2015-07-22T11:49:13.000Z</time>
      </trkpt>
      <trkpt lat="46.56529" lon="6.10082">
        <ele>1296.4000244141</ele>
        <time>2015-07-22T11:49:14.000Z</time>
      </trkpt>
      <trkpt lat="46.56529" lon="6.10082">
        <ele>1296</ele>
        <time>2015-07-22T11:49:15.000Z</time>
      </trkpt>
      <trkpt lat="46.56529" lon="6.10081">
        <ele>1295.5999755859</ele>
        <time>2015-07-22T11:49:16.000Z</time>
      </trkpt>
      <trkpt lat="46.56528" lon="6.1008">
        <ele>1295</ele>
        <time>2015-07-22T11:49:17.000Z</time>
      </trkpt>
      <trkpt lat="46.56527" lon="6.10079">
        <ele>1295</ele>
        <time>2015-07-22T11:49:19.000Z</time>
      </trkpt>
      <trkpt lat="46.56521" lon="6.10078">
        <ele>1295</ele>
        <time>2015-07-22T11:49:23.000Z</time>
      </trkpt>
      <trkpt lat="46.56521" lon="6.10075">
        <ele>1295</ele>
        <time>2015-07-22T11:49:25.000Z</time>
      </trkpt>
      <trkpt lat="46.5652" lon="6.1006">
        <ele>1295</ele>
        <time>2015-07-22T11:49:29.000Z</time>
      </trkpt>
      <trkpt lat="46.56508" lon="6.10036">
        <ele>1295</ele>
        <time>2015-07-22T11:49:35.000Z</time>
      </trkpt>
      <trkpt lat="46.565" lon="6.10029">
        <ele>1295</ele>
        <time>2015-07-22T11:49:42.000Z</time>
      </trkpt>
      <trkpt lat="46.56487" lon="6.10032">
        <ele>1295</ele>
        <time>2015-07-22T11:49:48.000Z</time>
      </trkpt>
      <trkpt lat="46.56477" lon="6.10041">
        <ele>1295</ele>
        <time>2015-07-22T11:49:51.000Z</time>
      </trkpt>
      <trkpt lat="46.56475" lon="6.10043">
        <ele>1295</ele>
        <time>2015-07-22T11:49:52.000Z</time>
      </trkpt>
      <trkpt lat="46.56469" lon="6.10047">
        <ele>1294.5999755859</ele>
        <time>2015-07-22T11:49:55.000Z</time>
      </trkpt>
      <trkpt lat="46.56466" lon="6.1005">
        <ele>1294.1999511719</ele>
        <time>2015-07-22T11:49:56.000Z</time>
      </trkpt>
      <trkpt lat="46.56463" lon="6.10053">
        <ele>1293.8000488281</ele>
        <time>2015-07-22T11:49:57.000Z</time>
      </trkpt>
      <trkpt lat="46.56456" lon="6.10058">
        <ele>1292.8000488281</ele>
        <time>2015-07-22T11:49:59.000Z</time>
      </trkpt>
      <trkpt lat="46.56454" lon="6.10061">
        <ele>1292.4000244141</ele>
        <time>2015-07-22T11:50:00.000Z</time>
      </trkpt>
      <trkpt lat="46.5645" lon="6.10065">
        <ele>1291.8000488281</ele>
        <time>2015-07-22T11:50:01.000Z</time>
      </trkpt>
      <trkpt lat="46.56447" lon="6.1007">
        <ele>1291</ele>
        <time>2015-07-22T11:50:02.000Z</time>
      </trkpt>
      <trkpt lat="46.56444" lon="6.10076">
        <ele>1290.4000244141</ele>
        <time>2015-07-22T11:50:03.000Z</time>
      </trkpt>
      <trkpt lat="46.56442" lon="6.10082">
        <ele>1289.5999755859</ele>
        <time>2015-07-22T11:50:04.000Z</time>
      </trkpt>
      <trkpt lat="46.56441" lon="6.10088">
        <ele>1289</ele>
        <time>2015-07-22T11:50:05.000Z</time>
      </trkpt>
      <trkpt lat="46.5644" lon="6.10095">
        <ele>1288.1999511719</ele>
        <time>2015-07-22T11:50:06.000Z</time>
      </trkpt>
      <trkpt lat="46.56437" lon="6.10107">
        <ele>1287.8000488281</ele>
        <time>2015-07-22T11:50:08.000Z</time>
      </trkpt>
      <trkpt lat="46.56436" lon="6.10113">
        <ele>1287.4000244141</ele>
        <time>2015-07-22T11:50:09.000Z</time>
      </trkpt>
      <trkpt lat="46.56435" lon="6.10126">
        <ele>1286.5999755859</ele>
        <time>2015-07-22T11:50:11.000Z</time>
      </trkpt>
      <trkpt lat="46.56433" lon="6.10133">
        <ele>1286.1999511719</ele>
        <time>2015-07-22T11:50:12.000Z</time>
      </trkpt>
      <trkpt lat="46.56432" lon="6.10141">
        <ele>1286.1999511719</ele>
        <time>2015-07-22T11:50:13.000Z</time>
      </trkpt>
      <trkpt lat="46.56429" lon="6.10154">
        <ele>1285.8000488281</ele>
        <time>2015-07-22T11:50:15.000Z</time>
      </trkpt>
      <trkpt lat="46.56432" lon="6.10161">
        <ele>1285.4000244141</ele>
        <time>2015-07-22T11:50:16.000Z</time>
      </trkpt>
      <trkpt lat="46.56432" lon="6.10168">
        <ele>1285</ele>
        <time>2015-07-22T11:50:17.000Z</time>
      </trkpt>
      <trkpt lat="46.56432" lon="6.10174">
        <ele>1284.4000244141</ele>
        <time>2015-07-22T11:50:18.000Z</time>
      </trkpt>
      <trkpt lat="46.56432" lon="6.10179">
        <ele>1284</ele>
        <time>2015-07-22T11:50:19.000Z</time>
      </trkpt>
      <trkpt lat="46.5642" lon="6.10193">
        <ele>1283.1999511719</ele>
        <time>2015-07-22T11:50:23.000Z</time>
      </trkpt>
      <trkpt lat="46.56414" lon="6.10196">
        <ele>1282.8000488281</ele>
        <time>2015-07-22T11:50:24.000Z</time>
      </trkpt>
      <trkpt lat="46.56405" lon="6.10202">
        <ele>1282.1999511719</ele>
        <time>2015-07-22T11:50:26.000Z</time>
      </trkpt>
      <trkpt lat="46.56401" lon="6.10206">
        <ele>1281.8000488281</ele>
        <time>2015-07-22T11:50:27.000Z</time>
      </trkpt>
      <trkpt lat="46.56398" lon="6.10213">
        <ele>1281.1999511719</ele>
        <time>2015-07-22T11:50:28.000Z</time>
      </trkpt>
      <trkpt lat="46.56396" lon="6.1022">
        <ele>1280.8000488281</ele>
        <time>2015-07-22T11:50:29.000Z</time>
      </trkpt>
      <trkpt lat="46.56393" lon="6.10229">
        <ele>1280.1999511719</ele>
        <time>2015-07-22T11:50:30.000Z</time>
      </trkpt>
      <trkpt lat="46.5639" lon="6.10237">
        <ele>1279.4000244141</ele>
        <time>2015-07-22T11:50:31.000Z</time>
      </trkpt>
      <trkpt lat="46.56387" lon="6.10244">
        <ele>1278.5999755859</ele>
        <time>2015-07-22T11:50:32.000Z</time>
      </trkpt>
      <trkpt lat="46.56384" lon="6.1025">
        <ele>1277.8000488281</ele>
        <time>2015-07-22T11:50:33.000Z</time>
      </trkpt>
      <trkpt lat="46.56379" lon="6.10256">
        <ele>1277</ele>
        <time>2015-07-22T11:50:34.000Z</time>
      </trkpt>
      <trkpt lat="46.56375" lon="6.10263">
        <ele>1276.1999511719</ele>
        <time>2015-07-22T11:50:35.000Z</time>
      </trkpt>
      <trkpt lat="46.5637" lon="6.10267">
        <ele>1275.4000244141</ele>
        <time>2015-07-22T11:50:36.000Z</time>
      </trkpt>
      <trkpt lat="46.56364" lon="6.10274">
        <ele>1274.4000244141</ele>
        <time>2015-07-22T11:50:37.000Z</time>
      </trkpt>
      <trkpt lat="46.56358" lon="6.10279">
        <ele>1273.5999755859</ele>
        <time>2015-07-22T11:50:38.000Z</time>
      </trkpt>
      <trkpt lat="46.56352" lon="6.10285">
        <ele>1272.8000488281</ele>
        <time>2015-07-22T11:50:39.000Z</time>
      </trkpt>
      <trkpt lat="46.56346" lon="6.10289">
        <ele>1272</ele>
        <time>2015-07-22T11:50:40.000Z</time>
      </trkpt>
      <trkpt lat="46.56345" lon="6.10294">
        <ele>1271.1999511719</ele>
        <time>2015-07-22T11:50:41.000Z</time>
      </trkpt>
      <trkpt lat="46.56341" lon="6.10296">
        <ele>1270.4000244141</ele>
        <time>2015-07-22T11:50:42.000Z</time>
      </trkpt>
      <trkpt lat="46.56339" lon="6.10288">
        <ele>1269.4000244141</ele>
        <time>2015-07-22T11:50:43.000Z</time>
      </trkpt>
      <trkpt lat="46.56336" lon="6.10287">
        <ele>1268.5999755859</ele>
        <time>2015-07-22T11:50:44.000Z</time>
      </trkpt>
      <trkpt lat="46.5633" lon="6.10281">
        <ele>1268.5999755859</ele>
        <time>2015-07-22T11:50:48.000Z</time>
      </trkpt>
      <trkpt lat="46.5633" lon="6.10273">
        <ele>1268.5999755859</ele>
        <time>2015-07-22T11:50:53.000Z</time>
      </trkpt>
      <trkpt lat="46.56316" lon="6.10262">
        <ele>1268.5999755859</ele>
        <time>2015-07-22T11:51:00.000Z</time>
      </trkpt>
      <trkpt lat="46.56287" lon="6.10246">
        <ele>1268.5999755859</ele>
        <time>2015-07-22T11:51:06.000Z</time>
      </trkpt>
      <trkpt lat="46.56278" lon="6.10244">
        <ele>1268.5999755859</ele>
        <time>2015-07-22T11:51:07.000Z</time>
      </trkpt>
      <trkpt lat="46.56264" lon="6.10242">
        <ele>1268.5999755859</ele>
        <time>2015-07-22T11:51:09.000Z</time>
      </trkpt>
      <trkpt lat="46.56257" lon="6.10242">
        <ele>1268.1999511719</ele>
        <time>2015-07-22T11:51:10.000Z</time>
      </trkpt>
      <trkpt lat="46.56249" lon="6.10242">
        <ele>1267.8000488281</ele>
        <time>2015-07-22T11:51:11.000Z</time>
      </trkpt>
      <trkpt lat="46.56242" lon="6.10242">
        <ele>1267.4000244141</ele>
        <time>2015-07-22T11:51:12.000Z</time>
      </trkpt>
      <trkpt lat="46.56235" lon="6.10239">
        <ele>1267</ele>
        <time>2015-07-22T11:51:13.000Z</time>
      </trkpt>
      <trkpt lat="46.56225" lon="6.10227">
        <ele>1266</ele>
        <time>2015-07-22T11:51:15.000Z</time>
      </trkpt>
      <trkpt lat="46.5622" lon="6.1022">
        <ele>1265.5999755859</ele>
        <time>2015-07-22T11:51:16.000Z</time>
      </trkpt>
      <trkpt lat="46.56213" lon="6.10212">
        <ele>1265.1999511719</ele>
        <time>2015-07-22T11:51:17.000Z</time>
      </trkpt>
      <trkpt lat="46.56206" lon="6.10204">
        <ele>1264.5999755859</ele>
        <time>2015-07-22T11:51:18.000Z</time>
      </trkpt>
      <trkpt lat="46.562" lon="6.10197">
        <ele>1264</ele>
        <time>2015-07-22T11:51:19.000Z</time>
      </trkpt>
      <trkpt lat="46.56194" lon="6.10191">
        <ele>1263.4000244141</ele>
        <time>2015-07-22T11:51:20.000Z</time>
      </trkpt>
      <trkpt lat="46.56187" lon="6.10186">
        <ele>1262.8000488281</ele>
        <time>2015-07-22T11:51:21.000Z</time>
      </trkpt>
      <trkpt lat="46.5618" lon="6.10182">
        <ele>1262</ele>
        <time>2015-07-22T11:51:22.000Z</time>
      </trkpt>
      <trkpt lat="46.56172" lon="6.10176">
        <ele>1261.4000244141</ele>
        <time>2015-07-22T11:51:23.000Z</time>
      </trkpt>
      <trkpt lat="46.56163" lon="6.1017">
        <ele>1260.5999755859</ele>
        <time>2015-07-22T11:51:24.000Z</time>
      </trkpt>
      <trkpt lat="46.56155" lon="6.1016">
        <ele>1259.8000488281</ele>
        <time>2015-07-22T11:51:25.000Z</time>
      </trkpt>
      <trkpt lat="46.56148" lon="6.10149">
        <ele>1259</ele>
        <time>2015-07-22T11:51:26.000Z</time>
      </trkpt>
      <trkpt lat="46.56144" lon="6.1014">
        <ele>1258.4000244141</ele>
        <time>2015-07-22T11:51:27.000Z</time>
      </trkpt>
      <trkpt lat="46.56141" lon="6.10132">
        <ele>1257.5999755859</ele>
        <time>2015-07-22T11:51:28.000Z</time>
      </trkpt>
      <trkpt lat="46.56137" lon="6.10124">
        <ele>1256.8000488281</ele>
        <time>2015-07-22T11:51:29.000Z</time>
      </trkpt>
      <trkpt lat="46.56136" lon="6.10118">
        <ele>1256.1999511719</ele>
        <time>2015-07-22T11:51:30.000Z</time>
      </trkpt>
      <trkpt lat="46.56134" lon="6.10111">
        <ele>1255.4000244141</ele>
        <time>2015-07-22T11:51:31.000Z</time>
      </trkpt>
      <trkpt lat="46.56133" lon="6.10106">
        <ele>1255.4000244141</ele>
        <time>2015-07-22T11:51:32.000Z</time>
      </trkpt>
      <trkpt lat="46.56131" lon="6.10094">
        <ele>1255.4000244141</ele>
        <time>2015-07-22T11:51:34.000Z</time>
      </trkpt>
      <trkpt lat="46.56129" lon="6.10063">
        <ele>1255.4000244141</ele>
        <time>2015-07-22T11:51:39.000Z</time>
      </trkpt>
      <trkpt lat="46.56128" lon="6.10057">
        <ele>1256</ele>
        <time>2015-07-22T11:51:40.000Z</time>
      </trkpt>
      <trkpt lat="46.56127" lon="6.10051">
        <ele>1256.4000244141</ele>
        <time>2015-07-22T11:51:41.000Z</time>
      </trkpt>
      <trkpt lat="46.56126" lon="6.10046">
        <ele>1256.8000488281</ele>
        <time>2015-07-22T11:51:42.000Z</time>
      </trkpt>
      <trkpt lat="46.56126" lon="6.10041">
        <ele>1257.4000244141</ele>
        <time>2015-07-22T11:51:43.000Z</time>
      </trkpt>
      <trkpt lat="46.56127" lon="6.10036">
        <ele>1257.8000488281</ele>
        <time>2015-07-22T11:51:44.000Z</time>
      </trkpt>
      <trkpt lat="46.56127" lon="6.1003">
        <ele>1257.8000488281</ele>
        <time>2015-07-22T11:51:45.000Z</time>
      </trkpt>
      <trkpt lat="46.56128" lon="6.10004">
        <ele>1258.1999511719</ele>
        <time>2015-07-22T11:51:51.000Z</time>
      </trkpt>
      <trkpt lat="46.56128" lon="6.10001">
        <ele>1258.5999755859</ele>
        <time>2015-07-22T11:51:52.000Z</time>
      </trkpt>
      <trkpt lat="46.56128" lon="6.09996">
        <ele>1259</ele>
        <time>2015-07-22T11:51:53.000Z</time>
      </trkpt>
      <trkpt lat="46.56128" lon="6.09993">
        <ele>1259.4000244141</ele>
        <time>2015-07-22T11:51:54.000Z</time>
      </trkpt>
      <trkpt lat="46.56127" lon="6.0999">
        <ele>1259.8000488281</ele>
        <time>2015-07-22T11:51:55.000Z</time>
      </trkpt>
      <trkpt lat="46.56125" lon="6.09984">
        <ele>1259.8000488281</ele>
        <time>2015-07-22T11:51:57.000Z</time>
      </trkpt>
      <trkpt lat="46.56119" lon="6.09969">
        <ele>1259.8000488281</ele>
        <time>2015-07-22T11:52:03.000Z</time>
      </trkpt>
      <trkpt lat="46.56108" lon="6.09949">
        <ele>1259.8000488281</ele>
        <time>2015-07-22T11:52:08.000Z</time>
      </trkpt>
      <trkpt lat="46.56101" lon="6.09935">
        <ele>1259.4000244141</ele>
        <time>2015-07-22T11:52:10.000Z</time>
      </trkpt>
      <trkpt lat="46.56097" lon="6.0993">
        <ele>1259</ele>
        <time>2015-07-22T11:52:11.000Z</time>
      </trkpt>
      <trkpt lat="46.56093" lon="6.09927">
        <ele>1258.5999755859</ele>
        <time>2015-07-22T11:52:12.000Z</time>
      </trkpt>
      <trkpt lat="46.5609" lon="6.09923">
        <ele>1258</ele>
        <time>2015-07-22T11:52:13.000Z</time>
      </trkpt>
      <trkpt lat="46.56088" lon="6.0992">
        <ele>1257.5999755859</ele>
        <time>2015-07-22T11:52:14.000Z</time>
      </trkpt>
      <trkpt lat="46.56084" lon="6.09919">
        <ele>1257.5999755859</ele>
        <time>2015-07-22T11:52:16.000Z</time>
      </trkpt>
      <trkpt lat="46.56063" lon="6.09918">
        <ele>1257.5999755859</ele>
        <time>2015-07-22T11:52:24.000Z</time>
      </trkpt>
      <trkpt lat="46.56057" lon="6.09916">
        <ele>1258</ele>
        <time>2015-07-22T11:52:26.000Z</time>
      </trkpt>
      <trkpt lat="46.56053" lon="6.09914">
        <ele>1258.4000244141</ele>
        <time>2015-07-22T11:52:27.000Z</time>
      </trkpt>
      <trkpt lat="46.5605" lon="6.09911">
        <ele>1258.8000488281</ele>
        <time>2015-07-22T11:52:28.000Z</time>
      </trkpt>
      <trkpt lat="46.56047" lon="6.09907">
        <ele>1259.4000244141</ele>
        <time>2015-07-22T11:52:29.000Z</time>
      </trkpt>
      <trkpt lat="46.56045" lon="6.09903">
        <ele>1259.8000488281</ele>
        <time>2015-07-22T11:52:30.000Z</time>
      </trkpt>
      <trkpt lat="46.56043" lon="6.09889">
        <ele>1259.8000488281</ele>
        <time>2015-07-22T11:52:33.000Z</time>
      </trkpt>
      <trkpt lat="46.5603" lon="6.09862">
        <ele>1259.8000488281</ele>
        <time>2015-07-22T11:52:39.000Z</time>
      </trkpt>
      <trkpt lat="46.56023" lon="6.09845">
        <ele>1260.1999511719</ele>
        <time>2015-07-22T11:52:43.000Z</time>
      </trkpt>
      <trkpt lat="46.56022" lon="6.09842">
        <ele>1260.5999755859</ele>
        <time>2015-07-22T11:52:44.000Z</time>
      </trkpt>
      <trkpt lat="46.56022" lon="6.0984">
        <ele>1261</ele>
        <time>2015-07-22T11:52:45.000Z</time>
      </trkpt>
      <trkpt lat="46.56021" lon="6.09838">
        <ele>1261.4000244141</ele>
        <time>2015-07-22T11:52:46.000Z</time>
      </trkpt>
      <trkpt lat="46.56021" lon="6.09835">
        <ele>1261.8000488281</ele>
        <time>2015-07-22T11:52:47.000Z</time>
      </trkpt>
      <trkpt lat="46.56018" lon="6.09829">
        <ele>1261.8000488281</ele>
        <time>2015-07-22T11:52:49.000Z</time>
      </trkpt>
      <trkpt lat="46.56008" lon="6.09801">
        <ele>1261.8000488281</ele>
        <time>2015-07-22T11:52:57.000Z</time>
      </trkpt>
      <trkpt lat="46.56002" lon="6.09792">
        <ele>1261.4000244141</ele>
        <time>2015-07-22T11:52:59.000Z</time>
      </trkpt>
      <trkpt lat="46.55997" lon="6.09784">
        <ele>1261</ele>
        <time>2015-07-22T11:53:00.000Z</time>
      </trkpt>
      <trkpt lat="46.55993" lon="6.09779">
        <ele>1260.5999755859</ele>
        <time>2015-07-22T11:53:01.000Z</time>
      </trkpt>
      <trkpt lat="46.55985" lon="6.09773">
        <ele>1260.1999511719</ele>
        <time>2015-07-22T11:53:02.000Z</time>
      </trkpt>
      <trkpt lat="46.55979" lon="6.09767">
        <ele>1259.8000488281</ele>
        <time>2015-07-22T11:53:03.000Z</time>
      </trkpt>
      <trkpt lat="46.55966" lon="6.09757">
        <ele>1259.4000244141</ele>
        <time>2015-07-22T11:53:05.000Z</time>
      </trkpt>
      <trkpt lat="46.55959" lon="6.09754">
        <ele>1259</ele>
        <time>2015-07-22T11:53:06.000Z</time>
      </trkpt>
      <trkpt lat="46.55952" lon="6.09753">
        <ele>1258.5999755859</ele>
        <time>2015-07-22T11:53:07.000Z</time>
      </trkpt>
      <trkpt lat="46.55943" lon="6.09752">
        <ele>1258.1999511719</ele>
        <time>2015-07-22T11:53:08.000Z</time>
      </trkpt>
      <trkpt lat="46.55933" lon="6.0975">
        <ele>1257.8000488281</ele>
        <time>2015-07-22T11:53:09.000Z</time>
      </trkpt>
      <trkpt lat="46.55926" lon="6.0975">
        <ele>1257.1999511719</ele>
        <time>2015-07-22T11:53:10.000Z</time>
      </trkpt>
      <trkpt lat="46.55918" lon="6.09746">
        <ele>1256.8000488281</ele>
        <time>2015-07-22T11:53:11.000Z</time>
      </trkpt>
      <trkpt lat="46.55911" lon="6.09741">
        <ele>1256.1999511719</ele>
        <time>2015-07-22T11:53:12.000Z</time>
      </trkpt>
      <trkpt lat="46.55905" lon="6.09732">
        <ele>1255.5999755859</ele>
        <time>2015-07-22T11:53:13.000Z</time>
      </trkpt>
      <trkpt lat="46.55899" lon="6.09721">
        <ele>1254.8000488281</ele>
        <time>2015-07-22T11:53:14.000Z</time>
      </trkpt>
      <trkpt lat="46.55897" lon="6.09712">
        <ele>1254.1999511719</ele>
        <time>2015-07-22T11:53:15.000Z</time>
      </trkpt>
      <trkpt lat="46.55898" lon="6.09705">
        <ele>1253.5999755859</ele>
        <time>2015-07-22T11:53:16.000Z</time>
      </trkpt>
      <trkpt lat="46.55898" lon="6.09697">
        <ele>1253</ele>
        <time>2015-07-22T11:53:17.000Z</time>
      </trkpt>
      <trkpt lat="46.55902" lon="6.0969">
        <ele>1252.4000244141</ele>
        <time>2015-07-22T11:53:18.000Z</time>
      </trkpt>
      <trkpt lat="46.55903" lon="6.0968">
        <ele>1252</ele>
        <time>2015-07-22T11:53:19.000Z</time>
      </trkpt>
      <trkpt lat="46.55905" lon="6.09671">
        <ele>1251.4000244141</ele>
        <time>2015-07-22T11:53:20.000Z</time>
      </trkpt>
      <trkpt lat="46.55906" lon="6.09658">
        <ele>1250.8000488281</ele>
        <time>2015-07-22T11:53:21.000Z</time>
      </trkpt>
      <trkpt lat="46.55905" lon="6.09614">
        <ele>1249.5999755859</ele>
        <time>2015-07-22T11:53:26.000Z</time>
      </trkpt>
      <trkpt lat="46.55901" lon="6.09609">
        <ele>1249</ele>
        <time>2015-07-22T11:53:27.000Z</time>
      </trkpt>
      <trkpt lat="46.55898" lon="6.09604">
        <ele>1248.5999755859</ele>
        <time>2015-07-22T11:53:28.000Z</time>
      </trkpt>
      <trkpt lat="46.55894" lon="6.096">
        <ele>1248</ele>
        <time>2015-07-22T11:53:29.000Z</time>
      </trkpt>
      <trkpt lat="46.5589" lon="6.09595">
        <ele>1247.5999755859</ele>
        <time>2015-07-22T11:53:30.000Z</time>
      </trkpt>
      <trkpt lat="46.55887" lon="6.09589">
        <ele>1247</ele>
        <time>2015-07-22T11:53:31.000Z</time>
      </trkpt>
      <trkpt lat="46.55883" lon="6.09583">
        <ele>1246.4000244141</ele>
        <time>2015-07-22T11:53:32.000Z</time>
      </trkpt>
      <trkpt lat="46.55881" lon="6.09576">
        <ele>1246.4000244141</ele>
        <time>2015-07-22T11:53:33.000Z</time>
      </trkpt>
      <trkpt lat="46.55879" lon="6.09568">
        <ele>1246.4000244141</ele>
        <time>2015-07-22T11:53:34.000Z</time>
      </trkpt>
      <trkpt lat="46.55874" lon="6.09551">
        <ele>1246.4000244141</ele>
        <time>2015-07-22T11:53:37.000Z</time>
      </trkpt>
      <trkpt lat="46.55872" lon="6.09546">
        <ele>1246.4000244141</ele>
        <time>2015-07-22T11:53:38.000Z</time>
      </trkpt>
      <trkpt lat="46.55867" lon="6.09518">
        <ele>1246.4000244141</ele>
        <time>2015-07-22T11:53:43.000Z</time>
      </trkpt>
      <trkpt lat="46.5586" lon="6.0949">
        <ele>1246.4000244141</ele>
        <time>2015-07-22T11:53:49.000Z</time>
      </trkpt>
      <trkpt lat="46.55863" lon="6.09466">
        <ele>1246.4000244141</ele>
        <time>2015-07-22T11:53:54.000Z</time>
      </trkpt>
      <trkpt lat="46.55866" lon="6.09428">
        <ele>1246.4000244141</ele>
        <time>2015-07-22T11:54:02.000Z</time>
      </trkpt>
      <trkpt lat="46.55867" lon="6.09423">
        <ele>1247</ele>
        <time>2015-07-22T11:54:03.000Z</time>
      </trkpt>
      <trkpt lat="46.55867" lon="6.09418">
        <ele>1247.4000244141</ele>
        <time>2015-07-22T11:54:04.000Z</time>
      </trkpt>
      <trkpt lat="46.55868" lon="6.09413">
        <ele>1247.8000488281</ele>
        <time>2015-07-22T11:54:05.000Z</time>
      </trkpt>
      <trkpt lat="46.55868" lon="6.09408">
        <ele>1248.1999511719</ele>
        <time>2015-07-22T11:54:06.000Z</time>
      </trkpt>
      <trkpt lat="46.55869" lon="6.09403">
        <ele>1248.5999755859</ele>
        <time>2015-07-22T11:54:07.000Z</time>
      </trkpt>
      <trkpt lat="46.55869" lon="6.09382">
        <ele>1248.5999755859</ele>
        <time>2015-07-22T11:54:11.000Z</time>
      </trkpt>
      <trkpt lat="46.55871" lon="6.0937">
        <ele>1249</ele>
        <time>2015-07-22T11:54:13.000Z</time>
      </trkpt>
      <trkpt lat="46.55869" lon="6.09365">
        <ele>1249.4000244141</ele>
        <time>2015-07-22T11:54:14.000Z</time>
      </trkpt>
      <trkpt lat="46.55869" lon="6.0936">
        <ele>1249.8000488281</ele>
        <time>2015-07-22T11:54:15.000Z</time>
      </trkpt>
      <trkpt lat="46.55869" lon="6.09354">
        <ele>1250.1999511719</ele>
        <time>2015-07-22T11:54:16.000Z</time>
      </trkpt>
      <trkpt lat="46.5587" lon="6.09349">
        <ele>1250.5999755859</ele>
        <time>2015-07-22T11:54:17.000Z</time>
      </trkpt>
      <trkpt lat="46.55872" lon="6.09341">
        <ele>1250.5999755859</ele>
        <time>2015-07-22T11:54:19.000Z</time>
      </trkpt>
      <trkpt lat="46.55876" lon="6.09314">
        <ele>1250.5999755859</ele>
        <time>2015-07-22T11:54:26.000Z</time>
      </trkpt>
      <trkpt lat="46.55875" lon="6.09312">
        <ele>1251.1999511719</ele>
        <time>2015-07-22T11:54:27.000Z</time>
      </trkpt>
      <trkpt lat="46.55875" lon="6.09309">
        <ele>1251.5999755859</ele>
        <time>2015-07-22T11:54:28.000Z</time>
      </trkpt>
      <trkpt lat="46.55875" lon="6.09306">
        <ele>1252</ele>
        <time>2015-07-22T11:54:29.000Z</time>
      </trkpt>
      <trkpt lat="46.55875" lon="6.09302">
        <ele>1252.4000244141</ele>
        <time>2015-07-22T11:54:30.000Z</time>
      </trkpt>
      <trkpt lat="46.55875" lon="6.09298">
        <ele>1253</ele>
        <time>2015-07-22T11:54:31.000Z</time>
      </trkpt>
      <trkpt lat="46.55874" lon="6.0928">
        <ele>1253</ele>
        <time>2015-07-22T11:54:36.000Z</time>
      </trkpt>
      <trkpt lat="46.55874" lon="6.09254">
        <ele>1254</ele>
        <time>2015-07-22T11:54:42.000Z</time>
      </trkpt>
      <trkpt lat="46.55873" lon="6.0925">
        <ele>1254.4000244141</ele>
        <time>2015-07-22T11:54:43.000Z</time>
      </trkpt>
      <trkpt lat="46.55872" lon="6.09246">
        <ele>1255</ele>
        <time>2015-07-22T11:54:44.000Z</time>
      </trkpt>
      <trkpt lat="46.55871" lon="6.09244">
        <ele>1255.4000244141</ele>
        <time>2015-07-22T11:54:45.000Z</time>
      </trkpt>
      <trkpt lat="46.5587" lon="6.09236">
        <ele>1255.4000244141</ele>
        <time>2015-07-22T11:54:47.000Z</time>
      </trkpt>
      <trkpt lat="46.55868" lon="6.09208">
        <ele>1256.1999511719</ele>
        <time>2015-07-22T11:54:54.000Z</time>
      </trkpt>
      <trkpt lat="46.55868" lon="6.09204">
        <ele>1256.5999755859</ele>
        <time>2015-07-22T11:54:55.000Z</time>
      </trkpt>
      <trkpt lat="46.55867" lon="6.09201">
        <ele>1257</ele>
        <time>2015-07-22T11:54:56.000Z</time>
      </trkpt>
      <trkpt lat="46.55867" lon="6.09197">
        <ele>1257.4000244141</ele>
        <time>2015-07-22T11:54:57.000Z</time>
      </trkpt>
      <trkpt lat="46.55869" lon="6.09186">
        <ele>1257.4000244141</ele>
        <time>2015-07-22T11:55:00.000Z</time>
      </trkpt>
      <trkpt lat="46.55869" lon="6.0916">
        <ele>1257.4000244141</ele>
        <time>2015-07-22T11:55:07.000Z</time>
      </trkpt>
      <trkpt lat="46.55866" lon="6.09134">
        <ele>1258.4000244141</ele>
        <time>2015-07-22T11:55:13.000Z</time>
      </trkpt>
      <trkpt lat="46.55866" lon="6.09129">
        <ele>1258.8000488281</ele>
        <time>2015-07-22T11:55:14.000Z</time>
      </trkpt>
      <trkpt lat="46.55866" lon="6.09124">
        <ele>1259.1999511719</ele>
        <time>2015-07-22T11:55:15.000Z</time>
      </trkpt>
      <trkpt lat="46.55867" lon="6.09118">
        <ele>1259.5999755859</ele>
        <time>2015-07-22T11:55:16.000Z</time>
      </trkpt>
      <trkpt lat="46.55868" lon="6.09107">
        <ele>1259.5999755859</ele>
        <time>2015-07-22T11:55:18.000Z</time>
      </trkpt>
      <trkpt lat="46.55876" lon="6.09079">
        <ele>1259.5999755859</ele>
        <time>2015-07-22T11:55:25.000Z</time>
      </trkpt>
      <trkpt lat="46.55877" lon="6.09063">
        <ele>1260</ele>
        <time>2015-07-22T11:55:29.000Z</time>
      </trkpt>
      <trkpt lat="46.55877" lon="6.0906">
        <ele>1260.5999755859</ele>
        <time>2015-07-22T11:55:30.000Z</time>
      </trkpt>
      <trkpt lat="46.55876" lon="6.09058">
        <ele>1261</ele>
        <time>2015-07-22T11:55:31.000Z</time>
      </trkpt>
      <trkpt lat="46.55875" lon="6.09055">
        <ele>1261.4000244141</ele>
        <time>2015-07-22T11:55:32.000Z</time>
      </trkpt>
      <trkpt lat="46.55874" lon="6.09052">
        <ele>1261.8000488281</ele>
        <time>2015-07-22T11:55:33.000Z</time>
      </trkpt>
      <trkpt lat="46.55872" lon="6.0905">
        <ele>1261.8000488281</ele>
        <time>2015-07-22T11:55:34.000Z</time>
      </trkpt>
      <trkpt lat="46.55859" lon="6.09038">
        <ele>1261.8000488281</ele>
        <time>2015-07-22T11:55:39.000Z</time>
      </trkpt>
      <trkpt lat="46.55841" lon="6.09038">
        <ele>1261.8000488281</ele>
        <time>2015-07-22T11:55:45.000Z</time>
      </trkpt>
      <trkpt lat="46.55832" lon="6.09043">
        <ele>1262.4000244141</ele>
        <time>2015-07-22T11:55:48.000Z</time>
      </trkpt>
      <trkpt lat="46.5583" lon="6.09043">
        <ele>1262.8000488281</ele>
        <time>2015-07-22T11:55:49.000Z</time>
      </trkpt>
      <trkpt lat="46.55828" lon="6.09044">
        <ele>1263.1999511719</ele>
        <time>2015-07-22T11:55:50.000Z</time>
      </trkpt>
      <trkpt lat="46.55826" lon="6.09045">
        <ele>1263.8000488281</ele>
        <time>2015-07-22T11:55:51.000Z</time>
      </trkpt>
      <trkpt lat="46.55821" lon="6.09048">
        <ele>1264.1999511719</ele>
        <time>2015-07-22T11:55:53.000Z</time>
      </trkpt>
      <trkpt lat="46.55805" lon="6.09056">
        <ele>1264.1999511719</ele>
        <time>2015-07-22T11:55:59.000Z</time>
      </trkpt>
      <trkpt lat="46.55794" lon="6.09064">
        <ele>1264.5999755859</ele>
        <time>2015-07-22T11:56:03.000Z</time>
      </trkpt>
      <trkpt lat="46.55791" lon="6.09066">
        <ele>1265</ele>
        <time>2015-07-22T11:56:04.000Z</time>
      </trkpt>
      <trkpt lat="46.55788" lon="6.09068">
        <ele>1265.5999755859</ele>
        <time>2015-07-22T11:56:05.000Z</time>
      </trkpt>
      <trkpt lat="46.55786" lon="6.0907">
        <ele>1266</ele>
        <time>2015-07-22T11:56:06.000Z</time>
      </trkpt>
      <trkpt lat="46.55784" lon="6.09071">
        <ele>1266.4000244141</ele>
        <time>2015-07-22T11:56:07.000Z</time>
      </trkpt>
      <trkpt lat="46.55774" lon="6.09069">
        <ele>1266.4000244141</ele>
        <time>2015-07-22T11:56:11.000Z</time>
      </trkpt>
      <trkpt lat="46.5576" lon="6.09055">
        <ele>1266.4000244141</ele>
        <time>2015-07-22T11:56:17.000Z</time>
      </trkpt>
      <trkpt lat="46.55748" lon="6.09027">
        <ele>1266.4000244141</ele>
        <time>2015-07-22T11:56:23.000Z</time>
      </trkpt>
      <trkpt lat="46.55744" lon="6.08993">
        <ele>1266.4000244141</ele>
        <time>2015-07-22T11:56:28.000Z</time>
      </trkpt>
      <trkpt lat="46.55738" lon="6.08987">
        <ele>1266.4000244141</ele>
        <time>2015-07-22T11:56:29.000Z</time>
      </trkpt>
      <trkpt lat="46.55721" lon="6.08984">
        <ele>1266</ele>
        <time>2015-07-22T11:56:32.000Z</time>
      </trkpt>
      <trkpt lat="46.55715" lon="6.08986">
        <ele>1265.4000244141</ele>
        <time>2015-07-22T11:56:33.000Z</time>
      </trkpt>
      <trkpt lat="46.55709" lon="6.08991">
        <ele>1265</ele>
        <time>2015-07-22T11:56:34.000Z</time>
      </trkpt>
      <trkpt lat="46.55704" lon="6.08996">
        <ele>1264.5999755859</ele>
        <time>2015-07-22T11:56:35.000Z</time>
      </trkpt>
      <trkpt lat="46.55698" lon="6.09001">
        <ele>1264</ele>
        <time>2015-07-22T11:56:37.000Z</time>
      </trkpt>
      <trkpt lat="46.55691" lon="6.09002">
        <ele>1263.5999755859</ele>
        <time>2015-07-22T11:56:38.000Z</time>
      </trkpt>
      <trkpt lat="46.55683" lon="6.09002">
        <ele>1263.1999511719</ele>
        <time>2015-07-22T11:56:39.000Z</time>
      </trkpt>
      <trkpt lat="46.55675" lon="6.09">
        <ele>1262.8000488281</ele>
        <time>2015-07-22T11:56:40.000Z</time>
      </trkpt>
      <trkpt lat="46.55666" lon="6.08997">
        <ele>1262.1999511719</ele>
        <time>2015-07-22T11:56:41.000Z</time>
      </trkpt>
      <trkpt lat="46.55657" lon="6.08994">
        <ele>1261.5999755859</ele>
        <time>2015-07-22T11:56:42.000Z</time>
      </trkpt>
      <trkpt lat="46.55648" lon="6.08992">
        <ele>1261</ele>
        <time>2015-07-22T11:56:43.000Z</time>
      </trkpt>
      <trkpt lat="46.55639" lon="6.08991">
        <ele>1260.1999511719</ele>
        <time>2015-07-22T11:56:44.000Z</time>
      </trkpt>
      <trkpt lat="46.55632" lon="6.0899">
        <ele>1259.5999755859</ele>
        <time>2015-07-22T11:56:45.000Z</time>
      </trkpt>
      <trkpt lat="46.55624" lon="6.08988">
        <ele>1259</ele>
        <time>2015-07-22T11:56:46.000Z</time>
      </trkpt>
      <trkpt lat="46.55616" lon="6.08983">
        <ele>1258.1999511719</ele>
        <time>2015-07-22T11:56:47.000Z</time>
      </trkpt>
      <trkpt lat="46.5561" lon="6.08976">
        <ele>1257.5999755859</ele>
        <time>2015-07-22T11:56:48.000Z</time>
      </trkpt>
      <trkpt lat="46.55604" lon="6.08969">
        <ele>1256.8000488281</ele>
        <time>2015-07-22T11:56:49.000Z</time>
      </trkpt>
      <trkpt lat="46.556" lon="6.08961">
        <ele>1256.1999511719</ele>
        <time>2015-07-22T11:56:50.000Z</time>
      </trkpt>
      <trkpt lat="46.55595" lon="6.08957">
        <ele>1255.4000244141</ele>
        <time>2015-07-22T11:56:51.000Z</time>
      </trkpt>
      <trkpt lat="46.55589" lon="6.08954">
        <ele>1254.8000488281</ele>
        <time>2015-07-22T11:56:52.000Z</time>
      </trkpt>
      <trkpt lat="46.55583" lon="6.08957">
        <ele>1254.1999511719</ele>
        <time>2015-07-22T11:56:53.000Z</time>
      </trkpt>
      <trkpt lat="46.55577" lon="6.08961">
        <ele>1253.4000244141</ele>
        <time>2015-07-22T11:56:54.000Z</time>
      </trkpt>
      <trkpt lat="46.55571" lon="6.08969">
        <ele>1252.5999755859</ele>
        <time>2015-07-22T11:56:55.000Z</time>
      </trkpt>
      <trkpt lat="46.55565" lon="6.08976">
        <ele>1251.8000488281</ele>
        <time>2015-07-22T11:56:56.000Z</time>
      </trkpt>
      <trkpt lat="46.55558" lon="6.08981">
        <ele>1251</ele>
        <time>2015-07-22T11:56:57.000Z</time>
      </trkpt>
      <trkpt lat="46.55552" lon="6.08984">
        <ele>1251</ele>
        <time>2015-07-22T11:56:58.000Z</time>
      </trkpt>
      <trkpt lat="46.55545" lon="6.08985">
        <ele>1249.4000244141</ele>
        <time>2015-07-22T11:56:59.000Z</time>
      </trkpt>
      <trkpt lat="46.55525" lon="6.08982">
        <ele>1248.5999755859</ele>
        <time>2015-07-22T11:57:02.000Z</time>
      </trkpt>
      <trkpt lat="46.55518" lon="6.08981">
        <ele>1248.1999511719</ele>
        <time>2015-07-22T11:57:03.000Z</time>
      </trkpt>
      <trkpt lat="46.55511" lon="6.0898">
        <ele>1247.8000488281</ele>
        <time>2015-07-22T11:57:04.000Z</time>
      </trkpt>
      <trkpt lat="46.55504" lon="6.08979">
        <ele>1247.4000244141</ele>
        <time>2015-07-22T11:57:05.000Z</time>
      </trkpt>
      <trkpt lat="46.5549" lon="6.08975">
        <ele>1247.4000244141</ele>
        <time>2015-07-22T11:57:07.000Z</time>
      </trkpt>
      <trkpt lat="46.55483" lon="6.08972">
        <ele>1246.8000488281</ele>
        <time>2015-07-22T11:57:08.000Z</time>
      </trkpt>
      <trkpt lat="46.55476" lon="6.0897">
        <ele>1246.4000244141</ele>
        <time>2015-07-22T11:57:09.000Z</time>
      </trkpt>
      <trkpt lat="46.5547" lon="6.08967">
        <ele>1245.8000488281</ele>
        <time>2015-07-22T11:57:10.000Z</time>
      </trkpt>
      <trkpt lat="46.55464" lon="6.08961">
        <ele>1245.4000244141</ele>
        <time>2015-07-22T11:57:11.000Z</time>
      </trkpt>
      <trkpt lat="46.55458" lon="6.08954">
        <ele>1245</ele>
        <time>2015-07-22T11:57:12.000Z</time>
      </trkpt>
      <trkpt lat="46.5545" lon="6.08936">
        <ele>1244.5999755859</ele>
        <time>2015-07-22T11:57:14.000Z</time>
      </trkpt>
      <trkpt lat="46.55448" lon="6.08927">
        <ele>1244</ele>
        <time>2015-07-22T11:57:15.000Z</time>
      </trkpt>
      <trkpt lat="46.55447" lon="6.08918">
        <ele>1243.5999755859</ele>
        <time>2015-07-22T11:57:16.000Z</time>
      </trkpt>
      <trkpt lat="46.55445" lon="6.08908">
        <ele>1243.1999511719</ele>
        <time>2015-07-22T11:57:17.000Z</time>
      </trkpt>
      <trkpt lat="46.55443" lon="6.089">
        <ele>1242.8000488281</ele>
        <time>2015-07-22T11:57:18.000Z</time>
      </trkpt>
      <trkpt lat="46.55426" lon="6.08873">
        <ele>1242.8000488281</ele>
        <time>2015-07-22T11:57:22.000Z</time>
      </trkpt>
      <trkpt lat="46.55425" lon="6.08865">
        <ele>1242.1999511719</ele>
        <time>2015-07-22T11:57:23.000Z</time>
      </trkpt>
      <trkpt lat="46.55426" lon="6.08857">
        <ele>1241.8000488281</ele>
        <time>2015-07-22T11:57:24.000Z</time>
      </trkpt>
      <trkpt lat="46.55428" lon="6.08848">
        <ele>1241.8000488281</ele>
        <time>2015-07-22T11:57:25.000Z</time>
      </trkpt>
      <trkpt lat="46.55432" lon="6.08842">
        <ele>1240.5999755859</ele>
        <time>2015-07-22T11:57:26.000Z</time>
      </trkpt>
      <trkpt lat="46.55437" lon="6.08838">
        <ele>1240.1999511719</ele>
        <time>2015-07-22T11:57:27.000Z</time>
      </trkpt>
      <trkpt lat="46.55442" lon="6.08835">
        <ele>1240.1999511719</ele>
        <time>2015-07-22T11:57:28.000Z</time>
      </trkpt>
      <trkpt lat="46.55447" lon="6.08832">
        <ele>1240.1999511719</ele>
        <time>2015-07-22T11:57:29.000Z</time>
      </trkpt>
      <trkpt lat="46.55452" lon="6.08828">
        <ele>1239.8000488281</ele>
        <time>2015-07-22T11:57:30.000Z</time>
      </trkpt>
      <trkpt lat="46.55456" lon="6.08821">
        <ele>1239.1999511719</ele>
        <time>2015-07-22T11:57:31.000Z</time>
      </trkpt>
      <trkpt lat="46.5546" lon="6.08814">
        <ele>1238.8000488281</ele>
        <time>2015-07-22T11:57:32.000Z</time>
      </trkpt>
      <trkpt lat="46.55463" lon="6.08806">
        <ele>1238.4000244141</ele>
        <time>2015-07-22T11:57:33.000Z</time>
      </trkpt>
      <trkpt lat="46.55464" lon="6.08797">
        <ele>1238</ele>
        <time>2015-07-22T11:57:34.000Z</time>
      </trkpt>
      <trkpt lat="46.55465" lon="6.08788">
        <ele>1238</ele>
        <time>2015-07-22T11:57:35.000Z</time>
      </trkpt>
      <trkpt lat="46.55466" lon="6.0878">
        <ele>1238</ele>
        <time>2015-07-22T11:57:36.000Z</time>
      </trkpt>
      <trkpt lat="46.5547" lon="6.08753">
        <ele>1237.4000244141</ele>
        <time>2015-07-22T11:57:39.000Z</time>
      </trkpt>
      <trkpt lat="46.55471" lon="6.08744">
        <ele>1237</ele>
        <time>2015-07-22T11:57:40.000Z</time>
      </trkpt>
      <trkpt lat="46.55472" lon="6.08727">
        <ele>1236.1999511719</ele>
        <time>2015-07-22T11:57:42.000Z</time>
      </trkpt>
      <trkpt lat="46.55471" lon="6.08718">
        <ele>1235.8000488281</ele>
        <time>2015-07-22T11:57:43.000Z</time>
      </trkpt>
      <trkpt lat="46.55461" lon="6.08694">
        <ele>1235.8000488281</ele>
        <time>2015-07-22T11:57:46.000Z</time>
      </trkpt>
      <trkpt lat="46.55456" lon="6.08688">
        <ele>1235.1999511719</ele>
        <time>2015-07-22T11:57:47.000Z</time>
      </trkpt>
      <trkpt lat="46.5545" lon="6.0868">
        <ele>1234.8000488281</ele>
        <time>2015-07-22T11:57:48.000Z</time>
      </trkpt>
      <trkpt lat="46.55446" lon="6.08673">
        <ele>1234.4000244141</ele>
        <time>2015-07-22T11:57:49.000Z</time>
      </trkpt>
      <trkpt lat="46.55442" lon="6.08664">
        <ele>1234</ele>
        <time>2015-07-22T11:57:50.000Z</time>
      </trkpt>
      <trkpt lat="46.55441" lon="6.08655">
        <ele>1233.5999755859</ele>
        <time>2015-07-22T11:57:51.000Z</time>
      </trkpt>
      <trkpt lat="46.55435" lon="6.08626">
        <ele>1233.1999511719</ele>
        <time>2015-07-22T11:57:54.000Z</time>
      </trkpt>
      <trkpt lat="46.55433" lon="6.08618">
        <ele>1232.8000488281</ele>
        <time>2015-07-22T11:57:55.000Z</time>
      </trkpt>
      <trkpt lat="46.55429" lon="6.08609">
        <ele>1232.4000244141</ele>
        <time>2015-07-22T11:57:56.000Z</time>
      </trkpt>
      <trkpt lat="46.55426" lon="6.08602">
        <ele>1231.8000488281</ele>
        <time>2015-07-22T11:57:57.000Z</time>
      </trkpt>
      <trkpt lat="46.55423" lon="6.08598">
        <ele>1231.4000244141</ele>
        <time>2015-07-22T11:57:58.000Z</time>
      </trkpt>
      <trkpt lat="46.55421" lon="6.08595">
        <ele>1231.4000244141</ele>
        <time>2015-07-22T11:57:59.000Z</time>
      </trkpt>
      <trkpt lat="46.55416" lon="6.08592">
        <ele>1231.4000244141</ele>
        <time>2015-07-22T11:58:03.000Z</time>
      </trkpt>
      <trkpt lat="46.55415" lon="6.08596">
        <ele>1231.4000244141</ele>
        <time>2015-07-22T11:58:05.000Z</time>
      </trkpt>
      <trkpt lat="46.55415" lon="6.086">
        <ele>1231.4000244141</ele>
        <time>2015-07-22T11:58:07.000Z</time>
      </trkpt>
      <trkpt lat="46.55417" lon="6.08601">
        <ele>1231.4000244141</ele>
        <time>2015-07-22T11:58:09.000Z</time>
      </trkpt>
      <trkpt lat="46.55419" lon="6.08597">
        <ele>1231.4000244141</ele>
        <time>2015-07-22T11:58:11.000Z</time>
      </trkpt>
      <trkpt lat="46.55423" lon="6.08577">
        <ele>1231.4000244141</ele>
        <time>2015-07-22T11:58:17.000Z</time>
      </trkpt>
      <trkpt lat="46.55432" lon="6.0856">
        <ele>1231.4000244141</ele>
        <time>2015-07-22T11:58:22.000Z</time>
      </trkpt>
      <trkpt lat="46.55451" lon="6.08544">
        <ele>1231.4000244141</ele>
        <time>2015-07-22T11:58:28.000Z</time>
      </trkpt>
      <trkpt lat="46.55469" lon="6.08531">
        <ele>1231.4000244141</ele>
        <time>2015-07-22T11:58:34.000Z</time>
      </trkpt>
      <trkpt lat="46.55493" lon="6.08521">
        <ele>1231.4000244141</ele>
        <time>2015-07-22T11:58:41.000Z</time>
      </trkpt>
      <trkpt lat="46.55522" lon="6.08507">
        <ele>1231.4000244141</ele>
        <time>2015-07-22T11:58:48.000Z</time>
      </trkpt>
      <trkpt lat="46.55529" lon="6.08501">
        <ele>1231.4000244141</ele>
        <time>2015-07-22T11:58:50.000Z</time>
      </trkpt>
      <trkpt lat="46.55534" lon="6.08493">
        <ele>1231.4000244141</ele>
        <time>2015-07-22T11:58:52.000Z</time>
      </trkpt>
      <trkpt lat="46.5554" lon="6.08477">
        <ele>1231</ele>
        <time>2015-07-22T11:58:55.000Z</time>
      </trkpt>
      <trkpt lat="46.55541" lon="6.08471">
        <ele>1230.5999755859</ele>
        <time>2015-07-22T11:58:56.000Z</time>
      </trkpt>
      <trkpt lat="46.55543" lon="6.08465">
        <ele>1230.1999511719</ele>
        <time>2015-07-22T11:58:57.000Z</time>
      </trkpt>
      <trkpt lat="46.55545" lon="6.08456">
        <ele>1229.5999755859</ele>
        <time>2015-07-22T11:58:58.000Z</time>
      </trkpt>
      <trkpt lat="46.55547" lon="6.08448">
        <ele>1229.1999511719</ele>
        <time>2015-07-22T11:58:59.000Z</time>
      </trkpt>
      <trkpt lat="46.5555" lon="6.0844">
        <ele>1229.1999511719</ele>
        <time>2015-07-22T11:59:00.000Z</time>
      </trkpt>
      <trkpt lat="46.55554" lon="6.08432">
        <ele>1229.1999511719</ele>
        <time>2015-07-22T11:59:01.000Z</time>
      </trkpt>
      <trkpt lat="46.55557" lon="6.08423">
        <ele>1228.8000488281</ele>
        <time>2015-07-22T11:59:02.000Z</time>
      </trkpt>
      <trkpt lat="46.55561" lon="6.08416">
        <ele>1228.4000244141</ele>
        <time>2015-07-22T11:59:03.000Z</time>
      </trkpt>
      <trkpt lat="46.55568" lon="6.08409">
        <ele>1228</ele>
        <time>2015-07-22T11:59:04.000Z</time>
      </trkpt>
      <trkpt lat="46.55575" lon="6.08403">
        <ele>1227.5999755859</ele>
        <time>2015-07-22T11:59:05.000Z</time>
      </trkpt>
      <trkpt lat="46.55581" lon="6.08399">
        <ele>1227</ele>
        <time>2015-07-22T11:59:06.000Z</time>
      </trkpt>
      <trkpt lat="46.5559" lon="6.08398">
        <ele>1226.4000244141</ele>
        <time>2015-07-22T11:59:07.000Z</time>
      </trkpt>
      <trkpt lat="46.55598" lon="6.08401">
        <ele>1225.8000488281</ele>
        <time>2015-07-22T11:59:08.000Z</time>
      </trkpt>
      <trkpt lat="46.55607" lon="6.08404">
        <ele>1225</ele>
        <time>2015-07-22T11:59:09.000Z</time>
      </trkpt>
      <trkpt lat="46.55617" lon="6.08409">
        <ele>1224.1999511719</ele>
        <time>2015-07-22T11:59:10.000Z</time>
      </trkpt>
      <trkpt lat="46.55626" lon="6.08412">
        <ele>1223.4000244141</ele>
        <time>2015-07-22T11:59:11.000Z</time>
      </trkpt>
      <trkpt lat="46.55636" lon="6.08415">
        <ele>1222.5999755859</ele>
        <time>2015-07-22T11:59:12.000Z</time>
      </trkpt>
      <trkpt lat="46.55646" lon="6.08417">
        <ele>1222</ele>
        <time>2015-07-22T11:59:13.000Z</time>
      </trkpt>
      <trkpt lat="46.55656" lon="6.08421">
        <ele>1221</ele>
        <time>2015-07-22T11:59:14.000Z</time>
      </trkpt>
      <trkpt lat="46.55666" lon="6.08425">
        <ele>1220</ele>
        <time>2015-07-22T11:59:15.000Z</time>
      </trkpt>
      <trkpt lat="46.55678" lon="6.08429">
        <ele>1219</ele>
        <time>2015-07-22T11:59:16.000Z</time>
      </trkpt>
      <trkpt lat="46.55689" lon="6.08434">
        <ele>1218.1999511719</ele>
        <time>2015-07-22T11:59:17.000Z</time>
      </trkpt>
      <trkpt lat="46.557" lon="6.08441">
        <ele>1217.1999511719</ele>
        <time>2015-07-22T11:59:18.000Z</time>
      </trkpt>
      <trkpt lat="46.55711" lon="6.08449">
        <ele>1216.1999511719</ele>
        <time>2015-07-22T11:59:19.000Z</time>
      </trkpt>
      <trkpt lat="46.55721" lon="6.08457">
        <ele>1215.5999755859</ele>
        <time>2015-07-22T11:59:20.000Z</time>
      </trkpt>
      <trkpt lat="46.55731" lon="6.08464">
        <ele>1215</ele>
        <time>2015-07-22T11:59:21.000Z</time>
      </trkpt>
      <trkpt lat="46.55741" lon="6.0847">
        <ele>1214.4000244141</ele>
        <time>2015-07-22T11:59:22.000Z</time>
      </trkpt>
      <trkpt lat="46.55752" lon="6.08474">
        <ele>1213.5999755859</ele>
        <time>2015-07-22T11:59:23.000Z</time>
      </trkpt>
      <trkpt lat="46.55762" lon="6.08476">
        <ele>1212.8000488281</ele>
        <time>2015-07-22T11:59:24.000Z</time>
      </trkpt>
      <trkpt lat="46.55771" lon="6.08476">
        <ele>1212</ele>
        <time>2015-07-22T11:59:25.000Z</time>
      </trkpt>
      <trkpt lat="46.55778" lon="6.08475">
        <ele>1211</ele>
        <time>2015-07-22T11:59:26.000Z</time>
      </trkpt>
      <trkpt lat="46.55786" lon="6.08472">
        <ele>1210</ele>
        <time>2015-07-22T11:59:27.000Z</time>
      </trkpt>
      <trkpt lat="46.5579" lon="6.08466">
        <ele>1208.8000488281</ele>
        <time>2015-07-22T11:59:28.000Z</time>
      </trkpt>
      <trkpt lat="46.55797" lon="6.08458">
        <ele>1207.8000488281</ele>
        <time>2015-07-22T11:59:29.000Z</time>
      </trkpt>
      <trkpt lat="46.55798" lon="6.08447">
        <ele>1206.5999755859</ele>
        <time>2015-07-22T11:59:30.000Z</time>
      </trkpt>
      <trkpt lat="46.55795" lon="6.08437">
        <ele>1205.5999755859</ele>
        <time>2015-07-22T11:59:31.000Z</time>
      </trkpt>
      <trkpt lat="46.55789" lon="6.08429">
        <ele>1204.5999755859</ele>
        <time>2015-07-22T11:59:32.000Z</time>
      </trkpt>
      <trkpt lat="46.55783" lon="6.08424">
        <ele>1203.4000244141</ele>
        <time>2015-07-22T11:59:33.000Z</time>
      </trkpt>
      <trkpt lat="46.55762" lon="6.08415">
        <ele>1203</ele>
        <time>2015-07-22T11:59:36.000Z</time>
      </trkpt>
      <trkpt lat="46.55754" lon="6.08412">
        <ele>1202.5999755859</ele>
        <time>2015-07-22T11:59:37.000Z</time>
      </trkpt>
      <trkpt lat="46.55747" lon="6.0841">
        <ele>1202.1999511719</ele>
        <time>2015-07-22T11:59:38.000Z</time>
      </trkpt>
      <trkpt lat="46.5574" lon="6.0841">
        <ele>1201.8000488281</ele>
        <time>2015-07-22T11:59:39.000Z</time>
      </trkpt>
      <trkpt lat="46.55733" lon="6.08409">
        <ele>1201.4000244141</ele>
        <time>2015-07-22T11:59:40.000Z</time>
      </trkpt>
      <trkpt lat="46.55726" lon="6.08406">
        <ele>1201.4000244141</ele>
        <time>2015-07-22T11:59:41.000Z</time>
      </trkpt>
      <trkpt lat="46.55712" lon="6.08386">
        <ele>1200.4000244141</ele>
        <time>2015-07-22T11:59:44.000Z</time>
      </trkpt>
      <trkpt lat="46.5571" lon="6.08377">
        <ele>1200</ele>
        <time>2015-07-22T11:59:45.000Z</time>
      </trkpt>
      <trkpt lat="46.55714" lon="6.08372">
        <ele>1199.1999511719</ele>
        <time>2015-07-22T11:59:46.000Z</time>
      </trkpt>
      <trkpt lat="46.55716" lon="6.08366">
        <ele>1199.1999511719</ele>
        <time>2015-07-22T11:59:47.000Z</time>
      </trkpt>
      <trkpt lat="46.55722" lon="6.08364">
        <ele>1197.8000488281</ele>
        <time>2015-07-22T11:59:48.000Z</time>
      </trkpt>
      <trkpt lat="46.55728" lon="6.08364">
        <ele>1197.8000488281</ele>
        <time>2015-07-22T11:59:49.000Z</time>
      </trkpt>
      <trkpt lat="46.55734" lon="6.08366">
        <ele>1196.4000244141</ele>
        <time>2015-07-22T11:59:50.000Z</time>
      </trkpt>
      <trkpt lat="46.5574" lon="6.08371">
        <ele>1196</ele>
        <time>2015-07-22T11:59:51.000Z</time>
      </trkpt>
      <trkpt lat="46.55745" lon="6.08376">
        <ele>1195.5999755859</ele>
        <time>2015-07-22T11:59:52.000Z</time>
      </trkpt>
      <trkpt lat="46.55751" lon="6.08381">
        <ele>1195.1999511719</ele>
        <time>2015-07-22T11:59:53.000Z</time>
      </trkpt>
      <trkpt lat="46.55757" lon="6.08384">
        <ele>1194.8000488281</ele>
        <time>2015-07-22T11:59:54.000Z</time>
      </trkpt>
      <trkpt lat="46.55763" lon="6.08387">
        <ele>1194.1999511719</ele>
        <time>2015-07-22T11:59:55.000Z</time>
      </trkpt>
      <trkpt lat="46.55771" lon="6.08387">
        <ele>1194.1999511719</ele>
        <time>2015-07-22T11:59:56.000Z</time>
      </trkpt>
      <trkpt lat="46.5578" lon="6.08388">
        <ele>1193.1999511719</ele>
        <time>2015-07-22T11:59:57.000Z</time>
      </trkpt>
      <trkpt lat="46.5579" lon="6.08388">
        <ele>1192.8000488281</ele>
        <time>2015-07-22T11:59:58.000Z</time>
      </trkpt>
      <trkpt lat="46.558" lon="6.08387">
        <ele>1192.1999511719</ele>
        <time>2015-07-22T11:59:59.000Z</time>
      </trkpt>
      <trkpt lat="46.5581" lon="6.08388">
        <ele>1191.5999755859</ele>
        <time>2015-07-22T12:00:00.000Z</time>
      </trkpt>
      <trkpt lat="46.5582" lon="6.08389">
        <ele>1190.8000488281</ele>
        <time>2015-07-22T12:00:01.000Z</time>
      </trkpt>
      <trkpt lat="46.55829" lon="6.08391">
        <ele>1190.8000488281</ele>
        <time>2015-07-22T12:00:02.000Z</time>
      </trkpt>
      <trkpt lat="46.55838" lon="6.08398">
        <ele>1189</ele>
        <time>2015-07-22T12:00:03.000Z</time>
      </trkpt>
      <trkpt lat="46.55847" lon="6.08406">
        <ele>1188</ele>
        <time>2015-07-22T12:00:04.000Z</time>
      </trkpt>
      <trkpt lat="46.55856" lon="6.08415">
        <ele>1187.1999511719</ele>
        <time>2015-07-22T12:00:05.000Z</time>
      </trkpt>
      <trkpt lat="46.55865" lon="6.08424">
        <ele>1186.1999511719</ele>
        <time>2015-07-22T12:00:06.000Z</time>
      </trkpt>
      <trkpt lat="46.55873" lon="6.08433">
        <ele>1185.4000244141</ele>
        <time>2015-07-22T12:00:07.000Z</time>
      </trkpt>
      <trkpt lat="46.55881" lon="6.08441">
        <ele>1184.5999755859</ele>
        <time>2015-07-22T12:00:08.000Z</time>
      </trkpt>
      <trkpt lat="46.55891" lon="6.08448">
        <ele>1183.8000488281</ele>
        <time>2015-07-22T12:00:09.000Z</time>
      </trkpt>
      <trkpt lat="46.55902" lon="6.08457">
        <ele>1183</ele>
        <time>2015-07-22T12:00:10.000Z</time>
      </trkpt>
      <trkpt lat="46.55912" lon="6.08467">
        <ele>1182.1999511719</ele>
        <time>2015-07-22T12:00:11.000Z</time>
      </trkpt>
      <trkpt lat="46.55921" lon="6.08477">
        <ele>1181.4000244141</ele>
        <time>2015-07-22T12:00:12.000Z</time>
      </trkpt>
      <trkpt lat="46.55937" lon="6.08489">
        <ele>1179.4000244141</ele>
        <time>2015-07-22T12:00:14.000Z</time>
      </trkpt>
      <trkpt lat="46.55945" lon="6.08491">
        <ele>1178.1999511719</ele>
        <time>2015-07-22T12:00:15.000Z</time>
      </trkpt>
      <trkpt lat="46.55954" lon="6.0849">
        <ele>1177.1999511719</ele>
        <time>2015-07-22T12:00:16.000Z</time>
      </trkpt>
      <trkpt lat="46.55964" lon="6.08489">
        <ele>1176.4000244141</ele>
        <time>2015-07-22T12:00:17.000Z</time>
      </trkpt>
      <trkpt lat="46.55974" lon="6.08489">
        <ele>1175.4000244141</ele>
        <time>2015-07-22T12:00:18.000Z</time>
      </trkpt>
      <trkpt lat="46.55991" lon="6.08497">
        <ele>1173.5999755859</ele>
        <time>2015-07-22T12:00:20.000Z</time>
      </trkpt>
      <trkpt lat="46.56" lon="6.08506">
        <ele>1172.5999755859</ele>
        <time>2015-07-22T12:00:21.000Z</time>
      </trkpt>
      <trkpt lat="46.56009" lon="6.08516">
        <ele>1171.8000488281</ele>
        <time>2015-07-22T12:00:22.000Z</time>
      </trkpt>
      <trkpt lat="46.56017" lon="6.08524">
        <ele>1170.8000488281</ele>
        <time>2015-07-22T12:00:23.000Z</time>
      </trkpt>
      <trkpt lat="46.56026" lon="6.08531">
        <ele>1170.1999511719</ele>
        <time>2015-07-22T12:00:24.000Z</time>
      </trkpt>
      <trkpt lat="46.56034" lon="6.08538">
        <ele>1169.5999755859</ele>
        <time>2015-07-22T12:00:25.000Z</time>
      </trkpt>
      <trkpt lat="46.56044" lon="6.08542">
        <ele>1169</ele>
        <time>2015-07-22T12:00:26.000Z</time>
      </trkpt>
      <trkpt lat="46.56054" lon="6.08544">
        <ele>1168.4000244141</ele>
        <time>2015-07-22T12:00:27.000Z</time>
      </trkpt>
      <trkpt lat="46.56073" lon="6.08539">
        <ele>1167.8000488281</ele>
        <time>2015-07-22T12:00:29.000Z</time>
      </trkpt>
      <trkpt lat="46.56083" lon="6.08533">
        <ele>1167.1999511719</ele>
        <time>2015-07-22T12:00:30.000Z</time>
      </trkpt>
      <trkpt lat="46.56092" lon="6.08527">
        <ele>1166.8000488281</ele>
        <time>2015-07-22T12:00:31.000Z</time>
      </trkpt>
      <trkpt lat="46.561" lon="6.08517">
        <ele>1166.1999511719</ele>
        <time>2015-07-22T12:00:32.000Z</time>
      </trkpt>
      <trkpt lat="46.56106" lon="6.08506">
        <ele>1165.5999755859</ele>
        <time>2015-07-22T12:00:33.000Z</time>
      </trkpt>
      <trkpt lat="46.56111" lon="6.08493">
        <ele>1164.8000488281</ele>
        <time>2015-07-22T12:00:34.000Z</time>
      </trkpt>
      <trkpt lat="46.56116" lon="6.0848">
        <ele>1164.1999511719</ele>
        <time>2015-07-22T12:00:35.000Z</time>
      </trkpt>
      <trkpt lat="46.56121" lon="6.08468">
        <ele>1163.4000244141</ele>
        <time>2015-07-22T12:00:36.000Z</time>
      </trkpt>
      <trkpt lat="46.56128" lon="6.08454">
        <ele>1162.5999755859</ele>
        <time>2015-07-22T12:00:37.000Z</time>
      </trkpt>
      <trkpt lat="46.56134" lon="6.08442">
        <ele>1161.8000488281</ele>
        <time>2015-07-22T12:00:38.000Z</time>
      </trkpt>
      <trkpt lat="46.5614" lon="6.08428">
        <ele>1160.4000244141</ele>
        <time>2015-07-22T12:00:39.000Z</time>
      </trkpt>
      <trkpt lat="46.56149" lon="6.08401">
        <ele>1159.5999755859</ele>
        <time>2015-07-22T12:00:41.000Z</time>
      </trkpt>
      <trkpt lat="46.56152" lon="6.08388">
        <ele>1158.5999755859</ele>
        <time>2015-07-22T12:00:42.000Z</time>
      </trkpt>
      <trkpt lat="46.56153" lon="6.08373">
        <ele>1157.5999755859</ele>
        <time>2015-07-22T12:00:43.000Z</time>
      </trkpt>
      <trkpt lat="46.56153" lon="6.08359">
        <ele>1156.8000488281</ele>
        <time>2015-07-22T12:00:44.000Z</time>
      </trkpt>
      <trkpt lat="46.5615" lon="6.08343">
        <ele>1155.8000488281</ele>
        <time>2015-07-22T12:00:45.000Z</time>
      </trkpt>
      <trkpt lat="46.56147" lon="6.08326">
        <ele>1155</ele>
        <time>2015-07-22T12:00:46.000Z</time>
      </trkpt>
      <trkpt lat="46.56145" lon="6.08309">
        <ele>1154</ele>
        <time>2015-07-22T12:00:47.000Z</time>
      </trkpt>
      <trkpt lat="46.56143" lon="6.08292">
        <ele>1153.1999511719</ele>
        <time>2015-07-22T12:00:48.000Z</time>
      </trkpt>
      <trkpt lat="46.56143" lon="6.08274">
        <ele>1151.4000244141</ele>
        <time>2015-07-22T12:00:49.000Z</time>
      </trkpt>
      <trkpt lat="46.56144" lon="6.08257">
        <ele>1150.5999755859</ele>
        <time>2015-07-22T12:00:50.000Z</time>
      </trkpt>
      <trkpt lat="46.56146" lon="6.08239">
        <ele>1149.5999755859</ele>
        <time>2015-07-22T12:00:51.000Z</time>
      </trkpt>
      <trkpt lat="46.56146" lon="6.08221">
        <ele>1148.5999755859</ele>
        <time>2015-07-22T12:00:52.000Z</time>
      </trkpt>
      <trkpt lat="46.56147" lon="6.08204">
        <ele>1147.5999755859</ele>
        <time>2015-07-22T12:00:53.000Z</time>
      </trkpt>
      <trkpt lat="46.56147" lon="6.08185">
        <ele>1146.8000488281</ele>
        <time>2015-07-22T12:00:54.000Z</time>
      </trkpt>
      <trkpt lat="46.56146" lon="6.08166">
        <ele>1145.8000488281</ele>
        <time>2015-07-22T12:00:55.000Z</time>
      </trkpt>
      <trkpt lat="46.56144" lon="6.08146">
        <ele>1145</ele>
        <time>2015-07-22T12:00:56.000Z</time>
      </trkpt>
      <trkpt lat="46.56142" lon="6.08126">
        <ele>1144</ele>
        <time>2015-07-22T12:00:57.000Z</time>
      </trkpt>
      <trkpt lat="46.56141" lon="6.08106">
        <ele>1143</ele>
        <time>2015-07-22T12:00:58.000Z</time>
      </trkpt>
      <trkpt lat="46.56139" lon="6.08067">
        <ele>1141.8000488281</ele>
        <time>2015-07-22T12:01:00.000Z</time>
      </trkpt>
      <trkpt lat="46.56139" lon="6.08049">
        <ele>1139.5999755859</ele>
        <time>2015-07-22T12:01:01.000Z</time>
      </trkpt>
      <trkpt lat="46.5614" lon="6.08029">
        <ele>1139.5999755859</ele>
        <time>2015-07-22T12:01:02.000Z</time>
      </trkpt>
      <trkpt lat="46.56141" lon="6.08011">
        <ele>1138.5999755859</ele>
        <time>2015-07-22T12:01:03.000Z</time>
      </trkpt>
      <trkpt lat="46.56143" lon="6.07992">
        <ele>1136.4000244141</ele>
        <time>2015-07-22T12:01:04.000Z</time>
      </trkpt>
      <trkpt lat="46.56145" lon="6.07975">
        <ele>1135.4000244141</ele>
        <time>2015-07-22T12:01:05.000Z</time>
      </trkpt>
      <trkpt lat="46.56148" lon="6.07959">
        <ele>1135.4000244141</ele>
        <time>2015-07-22T12:01:06.000Z</time>
      </trkpt>
      <trkpt lat="46.56151" lon="6.07944">
        <ele>1133</ele>
        <time>2015-07-22T12:01:07.000Z</time>
      </trkpt>
      <trkpt lat="46.56156" lon="6.07931">
        <ele>1132</ele>
        <time>2015-07-22T12:01:08.000Z</time>
      </trkpt>
      <trkpt lat="46.56162" lon="6.0792">
        <ele>1130.8000488281</ele>
        <time>2015-07-22T12:01:09.000Z</time>
      </trkpt>
      <trkpt lat="46.56177" lon="6.07901">
        <ele>1128.8000488281</ele>
        <time>2015-07-22T12:01:11.000Z</time>
      </trkpt>
      <trkpt lat="46.56185" lon="6.07892">
        <ele>1127.5999755859</ele>
        <time>2015-07-22T12:01:12.000Z</time>
      </trkpt>
      <trkpt lat="46.56192" lon="6.07881">
        <ele>1127.5999755859</ele>
        <time>2015-07-22T12:01:13.000Z</time>
      </trkpt>
      <trkpt lat="46.56199" lon="6.07869">
        <ele>1126.5999755859</ele>
        <time>2015-07-22T12:01:14.000Z</time>
      </trkpt>
      <trkpt lat="46.56206" lon="6.07854">
        <ele>1125.5999755859</ele>
        <time>2015-07-22T12:01:15.000Z</time>
      </trkpt>
      <trkpt lat="46.5621" lon="6.0784">
        <ele>1124.8000488281</ele>
        <time>2015-07-22T12:01:16.000Z</time>
      </trkpt>
      <trkpt lat="46.56215" lon="6.07826">
        <ele>1123.8000488281</ele>
        <time>2015-07-22T12:01:17.000Z</time>
      </trkpt>
      <trkpt lat="46.5622" lon="6.0781">
        <ele>1123</ele>
        <time>2015-07-22T12:01:18.000Z</time>
      </trkpt>
      <trkpt lat="46.56223" lon="6.07794">
        <ele>1121.1999511719</ele>
        <time>2015-07-22T12:01:19.000Z</time>
      </trkpt>
      <trkpt lat="46.56227" lon="6.07778">
        <ele>1120</ele>
        <time>2015-07-22T12:01:20.000Z</time>
      </trkpt>
      <trkpt lat="46.56235" lon="6.07745">
        <ele>1119</ele>
        <time>2015-07-22T12:01:22.000Z</time>
      </trkpt>
      <trkpt lat="46.56238" lon="6.0773">
        <ele>1116.8000488281</ele>
        <time>2015-07-22T12:01:23.000Z</time>
      </trkpt>
      <trkpt lat="46.56241" lon="6.07716">
        <ele>1115.8000488281</ele>
        <time>2015-07-22T12:01:24.000Z</time>
      </trkpt>
      <trkpt lat="46.56243" lon="6.07705">
        <ele>1115.8000488281</ele>
        <time>2015-07-22T12:01:25.000Z</time>
      </trkpt>
      <trkpt lat="46.56244" lon="6.07697">
        <ele>1114.5999755859</ele>
        <time>2015-07-22T12:01:26.000Z</time>
      </trkpt>
      <trkpt lat="46.56245" lon="6.0769">
        <ele>1113.4000244141</ele>
        <time>2015-07-22T12:01:27.000Z</time>
      </trkpt>
      <trkpt lat="46.56245" lon="6.07684">
        <ele>1111.1999511719</ele>
        <time>2015-07-22T12:01:28.000Z</time>
      </trkpt>
      <trkpt lat="46.56244" lon="6.0768">
        <ele>1110.1999511719</ele>
        <time>2015-07-22T12:01:29.000Z</time>
      </trkpt>
      <trkpt lat="46.56244" lon="6.07677">
        <ele>1109</ele>
        <time>2015-07-22T12:01:30.000Z</time>
      </trkpt>
      <trkpt lat="46.56244" lon="6.07677">
        <ele>1109</ele>
        <time>2015-07-22T12:01:31.000Z</time>
      </trkpt>
      <trkpt lat="46.56244" lon="6.07677">
        <ele>1108</ele>
        <time>2015-07-22T12:01:32.000Z</time>
      </trkpt>
      <trkpt lat="46.56244" lon="6.07677">
        <ele>1107</ele>
        <time>2015-07-22T12:01:33.000Z</time>
      </trkpt>
      <trkpt lat="46.56244" lon="6.07678">
        <ele>1107</ele>
        <time>2015-07-22T12:01:56.000Z</time>
      </trkpt>
      <trkpt lat="46.56241" lon="6.07683">
        <ele>964.20001220703</ele>
        <time>2015-07-22T12:18:51.000Z</time>
      </trkpt>
      <trkpt lat="46.56243" lon="6.0768">
        <ele>1018.5999755859</ele>
        <time>2015-07-22T12:19:04.000Z</time>
      </trkpt>
      <trkpt lat="46.56244" lon="6.07679">
        <ele>1046</ele>
        <time>2015-07-22T12:19:05.000Z</time>
      </trkpt>
      <trkpt lat="46.56246" lon="6.07676">
        <ele>1073.1999511719</ele>
        <time>2015-07-22T12:19:06.000Z</time>
      </trkpt>
      <trkpt lat="46.56247" lon="6.07673">
        <ele>1073.1999511719</ele>
        <time>2015-07-22T12:19:07.000Z</time>
      </trkpt>
      <trkpt lat="46.56249" lon="6.07669">
        <ele>1073.5999755859</ele>
        <time>2015-07-22T12:19:08.000Z</time>
      </trkpt>
      <trkpt lat="46.56251" lon="6.07664">
        <ele>1074.1999511719</ele>
        <time>2015-07-22T12:19:09.000Z</time>
      </trkpt>
      <trkpt lat="46.56252" lon="6.07659">
        <ele>1074.5999755859</ele>
        <time>2015-07-22T12:19:10.000Z</time>
      </trkpt>
      <trkpt lat="46.56255" lon="6.07652">
        <ele>1075.1999511719</ele>
        <time>2015-07-22T12:19:11.000Z</time>
      </trkpt>
      <trkpt lat="46.56257" lon="6.07645">
        <ele>1075.5999755859</ele>
        <time>2015-07-22T12:19:12.000Z</time>
      </trkpt>
      <trkpt lat="46.5626" lon="6.07638">
        <ele>1076.1999511719</ele>
        <time>2015-07-22T12:19:13.000Z</time>
      </trkpt>
      <trkpt lat="46.56262" lon="6.07629">
        <ele>1076.8000488281</ele>
        <time>2015-07-22T12:19:14.000Z</time>
      </trkpt>
      <trkpt lat="46.56264" lon="6.0762">
        <ele>1077.5999755859</ele>
        <time>2015-07-22T12:19:15.000Z</time>
      </trkpt>
      <trkpt lat="46.56267" lon="6.07611">
        <ele>1078.1999511719</ele>
        <time>2015-07-22T12:19:16.000Z</time>
      </trkpt>
      <trkpt lat="46.5627" lon="6.07603">
        <ele>1079</ele>
        <time>2015-07-22T12:19:17.000Z</time>
      </trkpt>
      <trkpt lat="46.56274" lon="6.07595">
        <ele>1079.8000488281</ele>
        <time>2015-07-22T12:19:18.000Z</time>
      </trkpt>
      <trkpt lat="46.56278" lon="6.07587">
        <ele>1080.5999755859</ele>
        <time>2015-07-22T12:19:19.000Z</time>
      </trkpt>
      <trkpt lat="46.56293" lon="6.07563">
        <ele>1080.5999755859</ele>
        <time>2015-07-22T12:19:22.000Z</time>
      </trkpt>
      <trkpt lat="46.56299" lon="6.07556">
        <ele>1080.5999755859</ele>
        <time>2015-07-22T12:19:23.000Z</time>
      </trkpt>
      <trkpt lat="46.56312" lon="6.0755">
        <ele>1080.5999755859</ele>
        <time>2015-07-22T12:19:25.000Z</time>
      </trkpt>
      <trkpt lat="46.56325" lon="6.07559">
        <ele>1080.5999755859</ele>
        <time>2015-07-22T12:19:28.000Z</time>
      </trkpt>
      <trkpt lat="46.56329" lon="6.07562">
        <ele>1080.5999755859</ele>
        <time>2015-07-22T12:19:29.000Z</time>
      </trkpt>
      <trkpt lat="46.56333" lon="6.07562">
        <ele>1080.5999755859</ele>
        <time>2015-07-22T12:19:30.000Z</time>
      </trkpt>
      <trkpt lat="46.56338" lon="6.0756">
        <ele>1080.5999755859</ele>
        <time>2015-07-22T12:19:31.000Z</time>
      </trkpt>
      <trkpt lat="46.56347" lon="6.07545">
        <ele>1080.5999755859</ele>
        <time>2015-07-22T12:19:34.000Z</time>
      </trkpt>
      <trkpt lat="46.5635" lon="6.0753">
        <ele>1081</ele>
        <time>2015-07-22T12:19:36.000Z</time>
      </trkpt>
      <trkpt lat="46.56349" lon="6.07522">
        <ele>1081.4000244141</ele>
        <time>2015-07-22T12:19:37.000Z</time>
      </trkpt>
      <trkpt lat="46.56347" lon="6.07514">
        <ele>1081.8000488281</ele>
        <time>2015-07-22T12:19:38.000Z</time>
      </trkpt>
      <trkpt lat="46.56343" lon="6.07509">
        <ele>1082.1999511719</ele>
        <time>2015-07-22T12:19:39.000Z</time>
      </trkpt>
      <trkpt lat="46.5634" lon="6.07505">
        <ele>1082.5999755859</ele>
        <time>2015-07-22T12:19:40.000Z</time>
      </trkpt>
      <trkpt lat="46.56336" lon="6.07502">
        <ele>1082.5999755859</ele>
        <time>2015-07-22T12:19:41.000Z</time>
      </trkpt>
      <trkpt lat="46.56336" lon="6.07497">
        <ele>1082.5999755859</ele>
        <time>2015-07-22T12:19:43.000Z</time>
      </trkpt>
      <trkpt lat="46.5634" lon="6.07496">
        <ele>1083</ele>
        <time>2015-07-22T12:19:45.000Z</time>
      </trkpt>
      <trkpt lat="46.56341" lon="6.07497">
        <ele>1083.5999755859</ele>
        <time>2015-07-22T12:19:46.000Z</time>
      </trkpt>
      <trkpt lat="46.56342" lon="6.07499">
        <ele>1084.1999511719</ele>
        <time>2015-07-22T12:19:47.000Z</time>
      </trkpt>
      <trkpt lat="46.56343" lon="6.07501">
        <ele>1084.5999755859</ele>
        <time>2015-07-22T12:19:48.000Z</time>
      </trkpt>
      <trkpt lat="46.56344" lon="6.07504">
        <ele>1085.1999511719</ele>
        <time>2015-07-22T12:19:49.000Z</time>
      </trkpt>
      <trkpt lat="46.56345" lon="6.07507">
        <ele>1085.1999511719</ele>
        <time>2015-07-22T12:19:50.000Z</time>
      </trkpt>
      <trkpt lat="46.56347" lon="6.07511">
        <ele>1085.5999755859</ele>
        <time>2015-07-22T12:19:52.000Z</time>
      </trkpt>
      <trkpt lat="46.56348" lon="6.07514">
        <ele>1086</ele>
        <time>2015-07-22T12:19:53.000Z</time>
      </trkpt>
      <trkpt lat="46.56349" lon="6.07517">
        <ele>1086.4000244141</ele>
        <time>2015-07-22T12:19:54.000Z</time>
      </trkpt>
      <trkpt lat="46.5635" lon="6.07519">
        <ele>1086.8000488281</ele>
        <time>2015-07-22T12:19:55.000Z</time>
      </trkpt>
      <trkpt lat="46.56351" lon="6.07521">
        <ele>1087.1999511719</ele>
        <time>2015-07-22T12:19:56.000Z</time>
      </trkpt>
      <trkpt lat="46.56359" lon="6.07532">
        <ele>1087.8000488281</ele>
        <time>2015-07-22T12:20:02.000Z</time>
      </trkpt>
      <trkpt lat="46.56361" lon="6.07535">
        <ele>1088.1999511719</ele>
        <time>2015-07-22T12:20:03.000Z</time>
      </trkpt>
      <trkpt lat="46.56364" lon="6.0754">
        <ele>1088.5999755859</ele>
        <time>2015-07-22T12:20:04.000Z</time>
      </trkpt>
      <trkpt lat="46.56367" lon="6.07546">
        <ele>1089</ele>
        <time>2015-07-22T12:20:05.000Z</time>
      </trkpt>
      <trkpt lat="46.56369" lon="6.07554">
        <ele>1088.5999755859</ele>
        <time>2015-07-22T12:20:06.000Z</time>
      </trkpt>
      <trkpt lat="46.56372" lon="6.07562">
        <ele>1088.4000244141</ele>
        <time>2015-07-22T12:20:07.000Z</time>
      </trkpt>
      <trkpt lat="46.56373" lon="6.07571">
        <ele>1088</ele>
        <time>2015-07-22T12:20:08.000Z</time>
      </trkpt>
      <trkpt lat="46.56375" lon="6.0758">
        <ele>1087.4000244141</ele>
        <time>2015-07-22T12:20:09.000Z</time>
      </trkpt>
      <trkpt lat="46.56377" lon="6.07588">
        <ele>1086.8000488281</ele>
        <time>2015-07-22T12:20:10.000Z</time>
      </trkpt>
      <trkpt lat="46.56379" lon="6.07595">
        <ele>1086.1999511719</ele>
        <time>2015-07-22T12:20:11.000Z</time>
      </trkpt>
      <trkpt lat="46.56382" lon="6.07601">
        <ele>1085.4000244141</ele>
        <time>2015-07-22T12:20:12.000Z</time>
      </trkpt>
      <trkpt lat="46.56385" lon="6.07606">
        <ele>1084.8000488281</ele>
        <time>2015-07-22T12:20:13.000Z</time>
      </trkpt>
      <trkpt lat="46.56388" lon="6.07609">
        <ele>1084</ele>
        <time>2015-07-22T12:20:14.000Z</time>
      </trkpt>
      <trkpt lat="46.56392" lon="6.07613">
        <ele>1083</ele>
        <time>2015-07-22T12:20:15.000Z</time>
      </trkpt>
      <trkpt lat="46.56395" lon="6.07615">
        <ele>1082.1999511719</ele>
        <time>2015-07-22T12:20:16.000Z</time>
      </trkpt>
      <trkpt lat="46.56397" lon="6.07615">
        <ele>1081.1999511719</ele>
        <time>2015-07-22T12:20:17.000Z</time>
      </trkpt>
      <trkpt lat="46.56398" lon="6.07615">
        <ele>1080.4000244141</ele>
        <time>2015-07-22T12:20:18.000Z</time>
      </trkpt>
      <trkpt lat="46.56398" lon="6.07614">
        <ele>1079.5999755859</ele>
        <time>2015-07-22T12:20:19.000Z</time>
      </trkpt>
      <trkpt lat="46.56398" lon="6.07612">
        <ele>1078.8000488281</ele>
        <time>2015-07-22T12:20:20.000Z</time>
      </trkpt>
      <trkpt lat="46.56399" lon="6.0761">
        <ele>1078</ele>
        <time>2015-07-22T12:20:21.000Z</time>
      </trkpt>
      <trkpt lat="46.56399" lon="6.07602">
        <ele>1078</ele>
        <time>2015-07-22T12:20:23.000Z</time>
      </trkpt>
      <trkpt lat="46.564" lon="6.07592">
        <ele>1077.5999755859</ele>
        <time>2015-07-22T12:20:25.000Z</time>
      </trkpt>
      <trkpt lat="46.56399" lon="6.07585">
        <ele>1077</ele>
        <time>2015-07-22T12:20:26.000Z</time>
      </trkpt>
      <trkpt lat="46.56398" lon="6.07578">
        <ele>1076.5999755859</ele>
        <time>2015-07-22T12:20:27.000Z</time>
      </trkpt>
      <trkpt lat="46.56397" lon="6.07571">
        <ele>1076.1999511719</ele>
        <time>2015-07-22T12:20:28.000Z</time>
      </trkpt>
      <trkpt lat="46.56395" lon="6.07561">
        <ele>1075.8000488281</ele>
        <time>2015-07-22T12:20:29.000Z</time>
      </trkpt>
      <trkpt lat="46.56392" lon="6.07542">
        <ele>1075.4000244141</ele>
        <time>2015-07-22T12:20:31.000Z</time>
      </trkpt>
      <trkpt lat="46.5639" lon="6.07533">
        <ele>1075</ele>
        <time>2015-07-22T12:20:32.000Z</time>
      </trkpt>
      <trkpt lat="46.56387" lon="6.07524">
        <ele>1074.5999755859</ele>
        <time>2015-07-22T12:20:33.000Z</time>
      </trkpt>
      <trkpt lat="46.56386" lon="6.07516">
        <ele>1074.1999511719</ele>
        <time>2015-07-22T12:20:34.000Z</time>
      </trkpt>
      <trkpt lat="46.56383" lon="6.07507">
        <ele>1073.8000488281</ele>
        <time>2015-07-22T12:20:35.000Z</time>
      </trkpt>
      <trkpt lat="46.56365" lon="6.07477">
        <ele>1073.1999511719</ele>
        <time>2015-07-22T12:20:39.000Z</time>
      </trkpt>
      <trkpt lat="46.56359" lon="6.0747">
        <ele>1072.8000488281</ele>
        <time>2015-07-22T12:20:40.000Z</time>
      </trkpt>
      <trkpt lat="46.56352" lon="6.07464">
        <ele>1072.4000244141</ele>
        <time>2015-07-22T12:20:41.000Z</time>
      </trkpt>
      <trkpt lat="46.56345" lon="6.07457">
        <ele>1072</ele>
        <time>2015-07-22T12:20:42.000Z</time>
      </trkpt>
      <trkpt lat="46.56337" lon="6.0745">
        <ele>1071.4000244141</ele>
        <time>2015-07-22T12:20:43.000Z</time>
      </trkpt>
      <trkpt lat="46.5633" lon="6.07444">
        <ele>1070.8000488281</ele>
        <time>2015-07-22T12:20:44.000Z</time>
      </trkpt>
      <trkpt lat="46.56322" lon="6.07438">
        <ele>1070.4000244141</ele>
        <time>2015-07-22T12:20:45.000Z</time>
      </trkpt>
      <trkpt lat="46.56314" lon="6.07431">
        <ele>1069.8000488281</ele>
        <time>2015-07-22T12:20:46.000Z</time>
      </trkpt>
      <trkpt lat="46.56307" lon="6.07426">
        <ele>1069.1999511719</ele>
        <time>2015-07-22T12:20:47.000Z</time>
      </trkpt>
      <trkpt lat="46.56301" lon="6.0742">
        <ele>1068.5999755859</ele>
        <time>2015-07-22T12:20:48.000Z</time>
      </trkpt>
      <trkpt lat="46.56294" lon="6.07415">
        <ele>1068</ele>
        <time>2015-07-22T12:20:49.000Z</time>
      </trkpt>
      <trkpt lat="46.56288" lon="6.07409">
        <ele>1067.4000244141</ele>
        <time>2015-07-22T12:20:50.000Z</time>
      </trkpt>
      <trkpt lat="46.56281" lon="6.07403">
        <ele>1066.5999755859</ele>
        <time>2015-07-22T12:20:51.000Z</time>
      </trkpt>
      <trkpt lat="46.56274" lon="6.07397">
        <ele>1066</ele>
        <time>2015-07-22T12:20:52.000Z</time>
      </trkpt>
      <trkpt lat="46.56267" lon="6.0739">
        <ele>1065.1999511719</ele>
        <time>2015-07-22T12:20:53.000Z</time>
      </trkpt>
      <trkpt lat="46.56261" lon="6.07384">
        <ele>1064.5999755859</ele>
        <time>2015-07-22T12:20:54.000Z</time>
      </trkpt>
      <trkpt lat="46.56241" lon="6.07364">
        <ele>1064.1999511719</ele>
        <time>2015-07-22T12:20:57.000Z</time>
      </trkpt>
      <trkpt lat="46.56235" lon="6.07358">
        <ele>1063.8000488281</ele>
        <time>2015-07-22T12:20:58.000Z</time>
      </trkpt>
      <trkpt lat="46.56227" lon="6.0735">
        <ele>1063.1999511719</ele>
        <time>2015-07-22T12:20:59.000Z</time>
      </trkpt>
      <trkpt lat="46.5622" lon="6.07342">
        <ele>1062.8000488281</ele>
        <time>2015-07-22T12:21:00.000Z</time>
      </trkpt>
      <trkpt lat="46.56213" lon="6.07334">
        <ele>1062.4000244141</ele>
        <time>2015-07-22T12:21:01.000Z</time>
      </trkpt>
      <trkpt lat="46.56206" lon="6.07326">
        <ele>1062</ele>
        <time>2015-07-22T12:21:02.000Z</time>
      </trkpt>
      <trkpt lat="46.56201" lon="6.07319">
        <ele>1061.4000244141</ele>
        <time>2015-07-22T12:21:03.000Z</time>
      </trkpt>
      <trkpt lat="46.56194" lon="6.07314">
        <ele>1061</ele>
        <time>2015-07-22T12:21:04.000Z</time>
      </trkpt>
      <trkpt lat="46.56189" lon="6.07308">
        <ele>1060.5999755859</ele>
        <time>2015-07-22T12:21:05.000Z</time>
      </trkpt>
      <trkpt lat="46.56184" lon="6.07303">
        <ele>1060</ele>
        <time>2015-07-22T12:21:06.000Z</time>
      </trkpt>
      <trkpt lat="46.56176" lon="6.07299">
        <ele>1059.5999755859</ele>
        <time>2015-07-22T12:21:07.000Z</time>
      </trkpt>
      <trkpt lat="46.56169" lon="6.07297">
        <ele>1059.1999511719</ele>
        <time>2015-07-22T12:21:08.000Z</time>
      </trkpt>
      <trkpt lat="46.56163" lon="6.07294">
        <ele>1058.5999755859</ele>
        <time>2015-07-22T12:21:09.000Z</time>
      </trkpt>
      <trkpt lat="46.56158" lon="6.0729">
        <ele>1058.1999511719</ele>
        <time>2015-07-22T12:21:10.000Z</time>
      </trkpt>
      <trkpt lat="46.56154" lon="6.07285">
        <ele>1057.8000488281</ele>
        <time>2015-07-22T12:21:11.000Z</time>
      </trkpt>
      <trkpt lat="46.5615" lon="6.07277">
        <ele>1057.8000488281</ele>
        <time>2015-07-22T12:21:12.000Z</time>
      </trkpt>
      <trkpt lat="46.56147" lon="6.07269">
        <ele>1057.4000244141</ele>
        <time>2015-07-22T12:21:13.000Z</time>
      </trkpt>
      <trkpt lat="46.56142" lon="6.07261">
        <ele>1057</ele>
        <time>2015-07-22T12:21:14.000Z</time>
      </trkpt>
      <trkpt lat="46.56138" lon="6.07252">
        <ele>1056.5999755859</ele>
        <time>2015-07-22T12:21:15.000Z</time>
      </trkpt>
      <trkpt lat="46.56133" lon="6.07245">
        <ele>1056.1999511719</ele>
        <time>2015-07-22T12:21:16.000Z</time>
      </trkpt>
      <trkpt lat="46.56128" lon="6.07239">
        <ele>1055.8000488281</ele>
        <time>2015-07-22T12:21:17.000Z</time>
      </trkpt>
      <trkpt lat="46.56123" lon="6.07232">
        <ele>1055.8000488281</ele>
        <time>2015-07-22T12:21:18.000Z</time>
      </trkpt>
      <trkpt lat="46.56117" lon="6.07226">
        <ele>1055.1999511719</ele>
        <time>2015-07-22T12:21:19.000Z</time>
      </trkpt>
      <trkpt lat="46.56112" lon="6.0722">
        <ele>1054.5999755859</ele>
        <time>2015-07-22T12:21:20.000Z</time>
      </trkpt>
      <trkpt lat="46.56108" lon="6.07213">
        <ele>1054</ele>
        <time>2015-07-22T12:21:21.000Z</time>
      </trkpt>
      <trkpt lat="46.56103" lon="6.07206">
        <ele>1053.4000244141</ele>
        <time>2015-07-22T12:21:22.000Z</time>
      </trkpt>
      <trkpt lat="46.56099" lon="6.07198">
        <ele>1052.8000488281</ele>
        <time>2015-07-22T12:21:23.000Z</time>
      </trkpt>
      <trkpt lat="46.56095" lon="6.0719">
        <ele>1052.4000244141</ele>
        <time>2015-07-22T12:21:24.000Z</time>
      </trkpt>
      <trkpt lat="46.56092" lon="6.07181">
        <ele>1051.8000488281</ele>
        <time>2015-07-22T12:21:25.000Z</time>
      </trkpt>
      <trkpt lat="46.56089" lon="6.07173">
        <ele>1051.4000244141</ele>
        <time>2015-07-22T12:21:26.000Z</time>
      </trkpt>
      <trkpt lat="46.56084" lon="6.07166">
        <ele>1050.8000488281</ele>
        <time>2015-07-22T12:21:27.000Z</time>
      </trkpt>
      <trkpt lat="46.56065" lon="6.07143">
        <ele>1050.4000244141</ele>
        <time>2015-07-22T12:21:31.000Z</time>
      </trkpt>
      <trkpt lat="46.56063" lon="6.07136">
        <ele>1050</ele>
        <time>2015-07-22T12:21:32.000Z</time>
      </trkpt>
      <trkpt lat="46.5606" lon="6.07129">
        <ele>1049.5999755859</ele>
        <time>2015-07-22T12:21:33.000Z</time>
      </trkpt>
      <trkpt lat="46.56056" lon="6.07123">
        <ele>1049.1999511719</ele>
        <time>2015-07-22T12:21:34.000Z</time>
      </trkpt>
      <trkpt lat="46.56052" lon="6.07117">
        <ele>1048.8000488281</ele>
        <time>2015-07-22T12:21:35.000Z</time>
      </trkpt>
      <trkpt lat="46.56043" lon="6.07108">
        <ele>1048.8000488281</ele>
        <time>2015-07-22T12:21:37.000Z</time>
      </trkpt>
      <trkpt lat="46.56038" lon="6.07106">
        <ele>1048.1999511719</ele>
        <time>2015-07-22T12:21:39.000Z</time>
      </trkpt>
      <trkpt lat="46.56035" lon="6.07105">
        <ele>1047.8000488281</ele>
        <time>2015-07-22T12:21:40.000Z</time>
      </trkpt>
      <trkpt lat="46.56032" lon="6.07104">
        <ele>1047.1999511719</ele>
        <time>2015-07-22T12:21:41.000Z</time>
      </trkpt>
      <trkpt lat="46.5603" lon="6.07101">
        <ele>1046.8000488281</ele>
        <time>2015-07-22T12:21:42.000Z</time>
      </trkpt>
      <trkpt lat="46.56027" lon="6.07098">
        <ele>1046.4000244141</ele>
        <time>2015-07-22T12:21:43.000Z</time>
      </trkpt>
      <trkpt lat="46.56025" lon="6.07094">
        <ele>1046.4000244141</ele>
        <time>2015-07-22T12:21:44.000Z</time>
      </trkpt>
      <trkpt lat="46.56016" lon="6.07076">
        <ele>1046.4000244141</ele>
        <time>2015-07-22T12:21:48.000Z</time>
      </trkpt>
      <trkpt lat="46.56014" lon="6.07071">
        <ele>1045.8000488281</ele>
        <time>2015-07-22T12:21:49.000Z</time>
      </trkpt>
      <trkpt lat="46.56013" lon="6.07064">
        <ele>1045.4000244141</ele>
        <time>2015-07-22T12:21:50.000Z</time>
      </trkpt>
      <trkpt lat="46.56011" lon="6.07058">
        <ele>1045</ele>
        <time>2015-07-22T12:21:51.000Z</time>
      </trkpt>
      <trkpt lat="46.56009" lon="6.07053">
        <ele>1044.4000244141</ele>
        <time>2015-07-22T12:21:52.000Z</time>
      </trkpt>
      <trkpt lat="46.56007" lon="6.07048">
        <ele>1044</ele>
        <time>2015-07-22T12:21:53.000Z</time>
      </trkpt>
      <trkpt lat="46.56006" lon="6.07044">
        <ele>1044</ele>
        <time>2015-07-22T12:21:54.000Z</time>
      </trkpt>
      <trkpt lat="46.56001" lon="6.07027">
        <ele>1044</ele>
        <time>2015-07-22T12:21:59.000Z</time>
      </trkpt>
      <trkpt lat="46.55998" lon="6.07022">
        <ele>1043.5999755859</ele>
        <time>2015-07-22T12:22:01.000Z</time>
      </trkpt>
      <trkpt lat="46.55997" lon="6.0702">
        <ele>1043.1999511719</ele>
        <time>2015-07-22T12:22:02.000Z</time>
      </trkpt>
      <trkpt lat="46.55995" lon="6.07017">
        <ele>1042.8000488281</ele>
        <time>2015-07-22T12:22:03.000Z</time>
      </trkpt>
      <trkpt lat="46.55994" lon="6.07015">
        <ele>1042.4000244141</ele>
        <time>2015-07-22T12:22:04.000Z</time>
      </trkpt>
      <trkpt lat="46.55992" lon="6.07011">
        <ele>1042</ele>
        <time>2015-07-22T12:22:05.000Z</time>
      </trkpt>
      <trkpt lat="46.55985" lon="6.06993">
        <ele>1042</ele>
        <time>2015-07-22T12:22:11.000Z</time>
      </trkpt>
      <trkpt lat="46.55984" lon="6.0699">
        <ele>1042</ele>
        <time>2015-07-22T12:22:12.000Z</time>
      </trkpt>
      <trkpt lat="46.5598" lon="6.06977">
        <ele>1042</ele>
        <time>2015-07-22T12:22:16.000Z</time>
      </trkpt>
      <trkpt lat="46.55969" lon="6.06954">
        <ele>1042</ele>
        <time>2015-07-22T12:22:23.000Z</time>
      </trkpt>
      <trkpt lat="46.5596" lon="6.06934">
        <ele>1042</ele>
        <time>2015-07-22T12:22:30.000Z</time>
      </trkpt>
      <trkpt lat="46.55958" lon="6.06922">
        <ele>1041.5999755859</ele>
        <time>2015-07-22T12:22:33.000Z</time>
      </trkpt>
      <trkpt lat="46.55958" lon="6.06919">
        <ele>1041.1999511719</ele>
        <time>2015-07-22T12:22:34.000Z</time>
      </trkpt>
      <trkpt lat="46.55957" lon="6.06916">
        <ele>1040.8000488281</ele>
        <time>2015-07-22T12:22:35.000Z</time>
      </trkpt>
      <trkpt lat="46.55956" lon="6.06913">
        <ele>1040.4000244141</ele>
        <time>2015-07-22T12:22:36.000Z</time>
      </trkpt>
      <trkpt lat="46.55955" lon="6.0691">
        <ele>1040</ele>
        <time>2015-07-22T12:22:37.000Z</time>
      </trkpt>
      <trkpt lat="46.55949" lon="6.0689">
        <ele>1040</ele>
        <time>2015-07-22T12:22:43.000Z</time>
      </trkpt>
      <trkpt lat="46.55941" lon="6.06867">
        <ele>1040</ele>
        <time>2015-07-22T12:22:49.000Z</time>
      </trkpt>
      <trkpt lat="46.55929" lon="6.06847">
        <ele>1040</ele>
        <time>2015-07-22T12:22:56.000Z</time>
      </trkpt>
      <trkpt lat="46.55919" lon="6.06838">
        <ele>1040</ele>
        <time>2015-07-22T12:23:02.000Z</time>
      </trkpt>
      <trkpt lat="46.55902" lon="6.06822">
        <ele>1040</ele>
        <time>2015-07-22T12:23:09.000Z</time>
      </trkpt>
      <trkpt lat="46.55893" lon="6.06793">
        <ele>1040</ele>
        <time>2015-07-22T12:23:17.000Z</time>
      </trkpt>
      <trkpt lat="46.5589" lon="6.06776">
        <ele>1040.4000244141</ele>
        <time>2015-07-22T12:23:21.000Z</time>
      </trkpt>
      <trkpt lat="46.5589" lon="6.06772">
        <ele>1040.8000488281</ele>
        <time>2015-07-22T12:23:22.000Z</time>
      </trkpt>
      <trkpt lat="46.55889" lon="6.06768">
        <ele>1041.1999511719</ele>
        <time>2015-07-22T12:23:23.000Z</time>
      </trkpt>
      <trkpt lat="46.55888" lon="6.06765">
        <ele>1041.8000488281</ele>
        <time>2015-07-22T12:23:24.000Z</time>
      </trkpt>
      <trkpt lat="46.55887" lon="6.06761">
        <ele>1042.1999511719</ele>
        <time>2015-07-22T12:23:25.000Z</time>
      </trkpt>
      <trkpt lat="46.55882" lon="6.06738">
        <ele>1042.1999511719</ele>
        <time>2015-07-22T12:23:32.000Z</time>
      </trkpt>
      <trkpt lat="46.55876" lon="6.06722">
        <ele>1042.5999755859</ele>
        <time>2015-07-22T12:23:37.000Z</time>
      </trkpt>
      <trkpt lat="46.55876" lon="6.06718">
        <ele>1043.1999511719</ele>
        <time>2015-07-22T12:23:38.000Z</time>
      </trkpt>
      <trkpt lat="46.55875" lon="6.06714">
        <ele>1043.5999755859</ele>
        <time>2015-07-22T12:23:39.000Z</time>
      </trkpt>
      <trkpt lat="46.55874" lon="6.06711">
        <ele>1044</ele>
        <time>2015-07-22T12:23:40.000Z</time>
      </trkpt>
      <trkpt lat="46.55873" lon="6.06707">
        <ele>1044.4000244141</ele>
        <time>2015-07-22T12:23:41.000Z</time>
      </trkpt>
      <trkpt lat="46.55863" lon="6.06682">
        <ele>1044.4000244141</ele>
        <time>2015-07-22T12:23:49.000Z</time>
      </trkpt>
      <trkpt lat="46.55862" lon="6.0668">
        <ele>1044.8000488281</ele>
        <time>2015-07-22T12:23:50.000Z</time>
      </trkpt>
      <trkpt lat="46.55861" lon="6.06677">
        <ele>1045.1999511719</ele>
        <time>2015-07-22T12:23:51.000Z</time>
      </trkpt>
      <trkpt lat="46.5586" lon="6.06675">
        <ele>1045.5999755859</ele>
        <time>2015-07-22T12:23:52.000Z</time>
      </trkpt>
      <trkpt lat="46.55859" lon="6.06673">
        <ele>1046</ele>
        <time>2015-07-22T12:23:53.000Z</time>
      </trkpt>
      <trkpt lat="46.55857" lon="6.06672">
        <ele>1046.4000244141</ele>
        <time>2015-07-22T12:23:54.000Z</time>
      </trkpt>
      <trkpt lat="46.55852" lon="6.0667">
        <ele>1046.4000244141</ele>
        <time>2015-07-22T12:23:57.000Z</time>
      </trkpt>
      <trkpt lat="46.55848" lon="6.06675">
        <ele>1046.4000244141</ele>
        <time>2015-07-22T12:24:00.000Z</time>
      </trkpt>
      <trkpt lat="46.55847" lon="6.06681">
        <ele>1046.4000244141</ele>
        <time>2015-07-22T12:24:02.000Z</time>
      </trkpt>
      <trkpt lat="46.55839" lon="6.06693">
        <ele>1046.4000244141</ele>
        <time>2015-07-22T12:24:07.000Z</time>
      </trkpt>
      <trkpt lat="46.55831" lon="6.06724">
        <ele>1046.4000244141</ele>
        <time>2015-07-22T12:24:16.000Z</time>
      </trkpt>
      <trkpt lat="46.55827" lon="6.06757">
        <ele>1046.4000244141</ele>
        <time>2015-07-22T12:24:25.000Z</time>
      </trkpt>
      <trkpt lat="46.55821" lon="6.06788">
        <ele>1046.4000244141</ele>
        <time>2015-07-22T12:24:33.000Z</time>
      </trkpt>
      <trkpt lat="46.5581" lon="6.06825">
        <ele>1046.4000244141</ele>
        <time>2015-07-22T12:24:41.000Z</time>
      </trkpt>
      <trkpt lat="46.55805" lon="6.06852">
        <ele>1046.4000244141</ele>
        <time>2015-07-22T12:24:47.000Z</time>
      </trkpt>
      <trkpt lat="46.55802" lon="6.06867">
        <ele>1047</ele>
        <time>2015-07-22T12:24:50.000Z</time>
      </trkpt>
      <trkpt lat="46.558" lon="6.06873">
        <ele>1047.4000244141</ele>
        <time>2015-07-22T12:24:51.000Z</time>
      </trkpt>
      <trkpt lat="46.55799" lon="6.06877">
        <ele>1047.8000488281</ele>
        <time>2015-07-22T12:24:52.000Z</time>
      </trkpt>
      <trkpt lat="46.55798" lon="6.06882">
        <ele>1048.1999511719</ele>
        <time>2015-07-22T12:24:53.000Z</time>
      </trkpt>
      <trkpt lat="46.55797" lon="6.06887">
        <ele>1048.5999755859</ele>
        <time>2015-07-22T12:24:54.000Z</time>
      </trkpt>
      <trkpt lat="46.55792" lon="6.06914">
        <ele>1048.5999755859</ele>
        <time>2015-07-22T12:25:01.000Z</time>
      </trkpt>
      <trkpt lat="46.55796" lon="6.06937">
        <ele>1048.5999755859</ele>
        <time>2015-07-22T12:25:08.000Z</time>
      </trkpt>
      <trkpt lat="46.558" lon="6.06954">
        <ele>1048.5999755859</ele>
        <time>2015-07-22T12:25:15.000Z</time>
      </trkpt>
      <trkpt lat="46.55802" lon="6.06957">
        <ele>1048.5999755859</ele>
        <time>2015-07-22T12:25:19.000Z</time>
      </trkpt>
    </trkseg>
  </trk>
</gpx>